<?xml version='1.0' encoding='UTF-8'?><gpx version="1.1" creator="JPX - https://github.com/jenetics/jpx" xmlns="http://www.topografix.com/GPX/1/1"><trk><trkseg><trkpt lat="45.6536879" lon="8.272491"><ele>396.0</ele><time>2026-04-05T13:36:15.045Z</time></trkpt><trkpt lat="45.6537016" lon="8.2725792"><ele>396.0</ele><time>2026-04-05T13:36:22.652Z</time></trkpt><trkpt lat="45.653718" lon="8.2726758"><ele>396.0</ele><time>2026-04-05T13:36:33.661Z</time></trkpt><trkpt lat="45.6536954" lon="8.2725886"><ele>396.0</ele><time>2026-04-05T13:37:29.65Z</time></trkpt><trkpt lat="45.6536367" lon="8.2725511"><ele>396.0</ele><time>2026-04-05T13:37:38.647Z</time></trkpt><trkpt lat="45.6535679" lon="8.2725639"><ele>396.0</ele><time>2026-04-05T13:37:43.654Z</time></trkpt><trkpt lat="45.6534954" lon="8.2726085"><ele>396.0</ele><time>2026-04-05T13:37:46.653Z</time></trkpt><trkpt lat="45.6533815" lon="8.2726687"><ele>395.5</ele><time>2026-04-05T13:37:48.652Z</time></trkpt><trkpt lat="45.6533214" lon="8.2727057"><ele>395.0</ele><time>2026-04-05T13:37:49.648Z</time></trkpt><trkpt lat="45.6532639" lon="8.272758"><ele>394.5</ele><time>2026-04-05T13:37:50.656Z</time></trkpt><trkpt lat="45.6532171" lon="8.2728225"><ele>394.0</ele><time>2026-04-05T13:37:51.644Z</time></trkpt><trkpt lat="45.6531558" lon="8.2728943"><ele>393.5</ele><time>2026-04-05T13:37:52.65Z</time></trkpt><trkpt lat="45.6530731" lon="8.2730122"><ele>393.0</ele><time>2026-04-05T13:37:54.652Z</time></trkpt><trkpt lat="45.6530003" lon="8.273128"><ele>393.0</ele><time>2026-04-05T13:37:56.65Z</time></trkpt><trkpt lat="45.6529337" lon="8.2732466"><ele>393.0</ele><time>2026-04-05T13:37:58.654Z</time></trkpt><trkpt lat="45.6528641" lon="8.2733425"><ele>393.0</ele><time>2026-04-05T13:38:00.656Z</time></trkpt><trkpt lat="45.6528013" lon="8.2734466"><ele>393.0</ele><time>2026-04-05T13:38:02.657Z</time></trkpt><trkpt lat="45.6527424" lon="8.2735439"><ele>393.0</ele><time>2026-04-05T13:38:04.645Z</time></trkpt><trkpt lat="45.6526837" lon="8.2736194"><ele>392.8333333333333</ele><time>2026-04-05T13:38:06.647Z</time></trkpt><trkpt lat="45.6526502" lon="8.2737089"><ele>392.66666666666663</ele><time>2026-04-05T13:38:08.651Z</time></trkpt><trkpt lat="45.652603" lon="8.2738258"><ele>392.5</ele><time>2026-04-05T13:38:11.663Z</time></trkpt><trkpt lat="45.6525501" lon="8.2739054"><ele>392.3333333333333</ele><time>2026-04-05T13:38:13.656Z</time></trkpt><trkpt lat="45.6524548" lon="8.2739453"><ele>392.16666666666663</ele><time>2026-04-05T13:38:15.663Z</time></trkpt><trkpt lat="45.6523684" lon="8.2740016"><ele>392.0</ele><time>2026-04-05T13:38:17.657Z</time></trkpt><trkpt lat="45.6523065" lon="8.2740588"><ele>391.99999999999994</ele><time>2026-04-05T13:38:18.652Z</time></trkpt><trkpt lat="45.6522533" lon="8.2741091"><ele>392.0</ele><time>2026-04-05T13:38:19.652Z</time></trkpt><trkpt lat="45.652161" lon="8.2741994"><ele>392.0</ele><time>2026-04-05T13:38:21.662Z</time></trkpt><trkpt lat="45.6521091" lon="8.274262"><ele>392.0</ele><time>2026-04-05T13:38:23.654Z</time></trkpt><trkpt lat="45.652054" lon="8.2743187"><ele>391.99999999999994</ele><time>2026-04-05T13:38:25.649Z</time></trkpt><trkpt lat="45.6520036" lon="8.2743739"><ele>392.0</ele><time>2026-04-05T13:38:31.654Z</time></trkpt><trkpt lat="45.6521084" lon="8.2743827"><ele>392.0</ele><time>2026-04-05T13:38:36.655Z</time></trkpt><trkpt lat="45.6521634" lon="8.274333"><ele>392.0</ele><time>2026-04-05T13:38:39.647Z</time></trkpt><trkpt lat="45.652216" lon="8.2742774"><ele>392.0</ele><time>2026-04-05T13:38:42.658Z</time></trkpt><trkpt lat="45.6521541" lon="8.2742221"><ele>392.0</ele><time>2026-04-05T13:38:49.653Z</time></trkpt><trkpt lat="45.6520782" lon="8.2741911"><ele>392.0</ele><time>2026-04-05T13:38:53.666Z</time></trkpt><trkpt lat="45.6521233" lon="8.2741134"><ele>392.0</ele><time>2026-04-05T13:38:59.661Z</time></trkpt><trkpt lat="45.652189" lon="8.2741468"><ele>392.0</ele><time>2026-04-05T13:39:03.647Z</time></trkpt><trkpt lat="45.65215" lon="8.274254"><ele>392.0</ele><time>2026-04-05T13:39:12.648Z</time></trkpt><trkpt lat="45.6520421" lon="8.2742947"><ele>392.0</ele><time>2026-04-05T13:39:13.656Z</time></trkpt><trkpt lat="45.6519723" lon="8.2741802"><ele>392.0</ele><time>2026-04-05T13:39:15.658Z</time></trkpt><trkpt lat="45.6519317" lon="8.2740937"><ele>392.0</ele><time>2026-04-05T13:39:18.656Z</time></trkpt><trkpt lat="45.6518973" lon="8.2739673"><ele>392.0</ele><time>2026-04-05T13:42:02.662Z</time></trkpt><trkpt lat="45.6518427" lon="8.2739151"><ele>391.16666666666663</ele><time>2026-04-05T13:42:03.659Z</time></trkpt><trkpt lat="45.6517869" lon="8.2738454"><ele>390.3333333333333</ele><time>2026-04-05T13:42:04.646Z</time></trkpt><trkpt lat="45.6517398" lon="8.273782"><ele>389.5</ele><time>2026-04-05T13:42:05.653Z</time></trkpt><trkpt lat="45.6516575" lon="8.2736723"><ele>388.66666666666663</ele><time>2026-04-05T13:42:07.655Z</time></trkpt><trkpt lat="45.6516289" lon="8.2735837"><ele>387.8333333333333</ele><time>2026-04-05T13:42:09.651Z</time></trkpt><trkpt lat="45.6516694" lon="8.2734951"><ele>387.0</ele><time>2026-04-05T13:42:11.653Z</time></trkpt><trkpt lat="45.6517145" lon="8.2733891"><ele>387.0</ele><time>2026-04-05T13:42:13.641Z</time></trkpt><trkpt lat="45.6517052" lon="8.2732949"><ele>387.0</ele><time>2026-04-05T13:42:15.653Z</time></trkpt><trkpt lat="45.6516356" lon="8.2732296"><ele>387.0</ele><time>2026-04-05T13:42:17.655Z</time></trkpt><trkpt lat="45.6515386" lon="8.2731724"><ele>387.0</ele><time>2026-04-05T13:42:19.654Z</time></trkpt><trkpt lat="45.6514471" lon="8.2730642"><ele>387.0</ele><time>2026-04-05T13:42:21.652Z</time></trkpt><trkpt lat="45.6514153" lon="8.2729849"><ele>387.0</ele><time>2026-04-05T13:42:22.644Z</time></trkpt><trkpt lat="45.6513839" lon="8.2729038"><ele>387.7142857142857</ele><time>2026-04-05T13:42:23.653Z</time></trkpt><trkpt lat="45.6513711" lon="8.2728116"><ele>388.42857142857144</ele><time>2026-04-05T13:42:24.651Z</time></trkpt><trkpt lat="45.6513022" lon="8.2726907"><ele>389.1428571428571</ele><time>2026-04-05T13:42:26.658Z</time></trkpt><trkpt lat="45.6512347" lon="8.2726631"><ele>389.8571428571429</ele><time>2026-04-05T13:42:27.65Z</time></trkpt><trkpt lat="45.6511673" lon="8.2726471"><ele>390.57142857142856</ele><time>2026-04-05T13:42:28.648Z</time></trkpt><trkpt lat="45.6511073" lon="8.2726173"><ele>391.2857142857143</ele><time>2026-04-05T13:42:29.658Z</time></trkpt><trkpt lat="45.6510445" lon="8.2725918"><ele>392.0</ele><time>2026-04-05T13:42:30.655Z</time></trkpt><trkpt lat="45.6509691" lon="8.2724867"><ele>391.99999999999994</ele><time>2026-04-05T13:42:32.661Z</time></trkpt><trkpt lat="45.6509263" lon="8.27238"><ele>392.0</ele><time>2026-04-05T13:42:34.647Z</time></trkpt><trkpt lat="45.650999" lon="8.2723388"><ele>392.0</ele><time>2026-04-05T13:42:39.651Z</time></trkpt><trkpt lat="45.6510891" lon="8.2722673"><ele>392.0</ele><time>2026-04-05T13:42:41.647Z</time></trkpt><trkpt lat="45.6511425" lon="8.2722116"><ele>391.99999999999994</ele><time>2026-04-05T13:42:42.649Z</time></trkpt><trkpt lat="45.6512027" lon="8.2721649"><ele>392.0</ele><time>2026-04-05T13:42:43.654Z</time></trkpt><trkpt lat="45.6512644" lon="8.2721153"><ele>392.66666666666663</ele><time>2026-04-05T13:42:44.659Z</time></trkpt><trkpt lat="45.6513292" lon="8.272064"><ele>393.3333333333333</ele><time>2026-04-05T13:42:45.646Z</time></trkpt><trkpt lat="45.6513972" lon="8.2720073"><ele>394.0</ele><time>2026-04-05T13:42:46.657Z</time></trkpt><trkpt lat="45.6514617" lon="8.2719443"><ele>394.66666666666663</ele><time>2026-04-05T13:42:47.652Z</time></trkpt><trkpt lat="45.6515263" lon="8.2718747"><ele>395.3333333333333</ele><time>2026-04-05T13:42:48.652Z</time></trkpt><trkpt lat="45.651599" lon="8.2718058"><ele>396.0</ele><time>2026-04-05T13:42:49.657Z</time></trkpt><trkpt lat="45.6516801" lon="8.2717309"><ele>396.0</ele><time>2026-04-05T13:42:50.655Z</time></trkpt><trkpt lat="45.651764" lon="8.2716494"><ele>396.0</ele><time>2026-04-05T13:42:51.652Z</time></trkpt><trkpt lat="45.6518474" lon="8.2715597"><ele>396.0</ele><time>2026-04-05T13:42:52.667Z</time></trkpt><trkpt lat="45.6519296" lon="8.2714649"><ele>396.0</ele><time>2026-04-05T13:42:53.654Z</time></trkpt><trkpt lat="45.6520189" lon="8.2713675"><ele>396.0</ele><time>2026-04-05T13:42:54.662Z</time></trkpt><trkpt lat="45.6521067" lon="8.2712733"><ele>397.1666666666667</ele><time>2026-04-05T13:42:55.654Z</time></trkpt><trkpt lat="45.6521856" lon="8.2711878"><ele>398.33333333333337</ele><time>2026-04-05T13:42:56.651Z</time></trkpt><trkpt lat="45.6522546" lon="8.2711113"><ele>399.5</ele><time>2026-04-05T13:42:57.65Z</time></trkpt><trkpt lat="45.6523125" lon="8.271037"><ele>400.6666666666667</ele><time>2026-04-05T13:42:58.655Z</time></trkpt><trkpt lat="45.6523745" lon="8.270953"><ele>401.83333333333337</ele><time>2026-04-05T13:42:59.652Z</time></trkpt><trkpt lat="45.6524427" lon="8.2708559"><ele>403.0</ele><time>2026-04-05T13:43:00.663Z</time></trkpt><trkpt lat="45.6525086" lon="8.270776"><ele>403.00000000000006</ele><time>2026-04-05T13:43:01.654Z</time></trkpt><trkpt lat="45.6525809" lon="8.2707263"><ele>403.0</ele><time>2026-04-05T13:43:02.658Z</time></trkpt><trkpt lat="45.6526526" lon="8.2706837"><ele>403.0</ele><time>2026-04-05T13:43:03.644Z</time></trkpt><trkpt lat="45.6527291" lon="8.2706556"><ele>403.0</ele><time>2026-04-05T13:43:04.658Z</time></trkpt><trkpt lat="45.6527986" lon="8.2706401"><ele>403.00000000000006</ele><time>2026-04-05T13:43:05.656Z</time></trkpt><trkpt lat="45.6529163" lon="8.2706226"><ele>403.0</ele><time>2026-04-05T13:43:07.658Z</time></trkpt><trkpt lat="45.6530056" lon="8.2705915"><ele>403.00000000000006</ele><time>2026-04-05T13:43:09.663Z</time></trkpt><trkpt lat="45.6530828" lon="8.2705643"><ele>403.0</ele><time>2026-04-05T13:43:11.659Z</time></trkpt><trkpt lat="45.6531512" lon="8.2705686"><ele>403.0</ele><time>2026-04-05T13:43:14.641Z</time></trkpt><trkpt lat="45.653197" lon="8.2706564"><ele>403.0</ele><time>2026-04-05T13:43:16.653Z</time></trkpt><trkpt lat="45.6532525" lon="8.270774"><ele>403.00000000000006</ele><time>2026-04-05T13:43:17.651Z</time></trkpt><trkpt lat="45.6533201" lon="8.2709097"><ele>403.0</ele><time>2026-04-05T13:43:18.656Z</time></trkpt><trkpt lat="45.6533834" lon="8.271037"><ele>403.0</ele><time>2026-04-05T13:43:19.65Z</time></trkpt><trkpt lat="45.6534485" lon="8.2711591"><ele>403.0</ele><time>2026-04-05T13:43:20.654Z</time></trkpt><trkpt lat="45.6535071" lon="8.2712762"><ele>403.0</ele><time>2026-04-05T13:43:21.648Z</time></trkpt><trkpt lat="45.6535513" lon="8.2713965"><ele>403.0</ele><time>2026-04-05T13:43:22.652Z</time></trkpt><trkpt lat="45.653556" lon="8.2715268"><ele>403.0</ele><time>2026-04-05T13:43:23.65Z</time></trkpt><trkpt lat="45.6535533" lon="8.2716574"><ele>401.79999999999995</ele><time>2026-04-05T13:43:24.661Z</time></trkpt><trkpt lat="45.6535372" lon="8.2718029"><ele>400.6</ele><time>2026-04-05T13:43:25.653Z</time></trkpt><trkpt lat="45.6535247" lon="8.2719627"><ele>399.4</ele><time>2026-04-05T13:43:26.658Z</time></trkpt><trkpt lat="45.6535209" lon="8.2721118"><ele>398.20000000000005</ele><time>2026-04-05T13:43:27.66Z</time></trkpt><trkpt lat="45.653521" lon="8.2722354"><ele>397.0</ele><time>2026-04-05T13:43:28.661Z</time></trkpt><trkpt lat="45.6535259" lon="8.2723395"><ele>396.8</ele><time>2026-04-05T13:43:29.651Z</time></trkpt><trkpt lat="45.653535" lon="8.272476"><ele>396.6</ele><time>2026-04-05T13:43:31.655Z</time></trkpt><trkpt lat="45.6536066" lon="8.2725384"><ele>396.40000000000003</ele><time>2026-04-05T13:43:37.66Z</time></trkpt><trkpt lat="45.6537116" lon="8.2725334"><ele>396.20000000000005</ele><time>2026-04-05T13:43:39.651Z</time></trkpt><trkpt lat="45.6538193" lon="8.2725928"><ele>396.0</ele><time>2026-04-05T13:43:41.655Z</time></trkpt><trkpt lat="45.6539197" lon="8.272715"><ele>396.0</ele><time>2026-04-05T13:43:43.645Z</time></trkpt><trkpt lat="45.6539606" lon="8.2728304"><ele>396.0</ele><time>2026-04-05T13:43:44.661Z</time></trkpt><trkpt lat="45.6539916" lon="8.2729422"><ele>396.0</ele><time>2026-04-05T13:43:45.648Z</time></trkpt><trkpt lat="45.6540381" lon="8.2730302"><ele>396.0</ele><time>2026-04-05T13:43:46.67Z</time></trkpt><trkpt lat="45.6540872" lon="8.2731049"><ele>396.0</ele><time>2026-04-05T13:43:47.653Z</time></trkpt><trkpt lat="45.654132" lon="8.2731774"><ele>396.0</ele><time>2026-04-05T13:43:48.658Z</time></trkpt><trkpt lat="45.6541727" lon="8.2732494"><ele>396.5</ele><time>2026-04-05T13:43:49.645Z</time></trkpt><trkpt lat="45.6542292" lon="8.2733225"><ele>397.0</ele><time>2026-04-05T13:43:50.648Z</time></trkpt><trkpt lat="45.654286" lon="8.2733866"><ele>397.5</ele><time>2026-04-05T13:43:51.654Z</time></trkpt><trkpt lat="45.6543395" lon="8.2734362"><ele>398.0</ele><time>2026-04-05T13:43:52.657Z</time></trkpt><trkpt lat="45.6543579" lon="8.2735413"><ele>398.5</ele><time>2026-04-05T13:43:54.652Z</time></trkpt><trkpt lat="45.65431" lon="8.2736325"><ele>399.0</ele><time>2026-04-05T13:43:56.649Z</time></trkpt><trkpt lat="45.6542058" lon="8.2737408"><ele>399.0</ele><time>2026-04-05T13:43:58.658Z</time></trkpt><trkpt lat="45.6541428" lon="8.2738824"><ele>399.0</ele><time>2026-04-05T13:44:00.656Z</time></trkpt><trkpt lat="45.6541126" lon="8.2739713"><ele>399.0</ele><time>2026-04-05T13:44:01.657Z</time></trkpt><trkpt lat="45.6540806" lon="8.2740598"><ele>399.0</ele><time>2026-04-05T13:44:02.659Z</time></trkpt><trkpt lat="45.6540048" lon="8.274183"><ele>399.0</ele><time>2026-04-05T13:44:04.65Z</time></trkpt><trkpt lat="45.6539358" lon="8.2742341"><ele>399.0</ele><time>2026-04-05T13:44:06.654Z</time></trkpt><trkpt lat="45.6539137" lon="8.2743721"><ele>401.4</ele><time>2026-04-05T13:44:09.665Z</time></trkpt><trkpt lat="45.6539394" lon="8.2745321"><ele>403.79999999999995</ele><time>2026-04-05T13:44:11.659Z</time></trkpt><trkpt lat="45.6539799" lon="8.274692"><ele>406.20000000000005</ele><time>2026-04-05T13:44:13.653Z</time></trkpt><trkpt lat="45.653993" lon="8.2748363"><ele>408.6</ele><time>2026-04-05T13:44:15.645Z</time></trkpt><trkpt lat="45.6539506" lon="8.2749664"><ele>411.0</ele><time>2026-04-05T13:44:17.661Z</time></trkpt><trkpt lat="45.6538485" lon="8.2750952"><ele>413.1428571428571</ele><time>2026-04-05T13:44:19.652Z</time></trkpt><trkpt lat="45.6537884" lon="8.2751686"><ele>415.2857142857143</ele><time>2026-04-05T13:44:20.657Z</time></trkpt><trkpt lat="45.6537447" lon="8.2752461"><ele>417.42857142857144</ele><time>2026-04-05T13:44:21.649Z</time></trkpt><trkpt lat="45.6537128" lon="8.275335"><ele>419.57142857142856</ele><time>2026-04-05T13:44:22.653Z</time></trkpt><trkpt lat="45.6536912" lon="8.2754244"><ele>421.7142857142857</ele><time>2026-04-05T13:44:23.656Z</time></trkpt><trkpt lat="45.6536894" lon="8.2755289"><ele>423.85714285714283</ele><time>2026-04-05T13:44:24.654Z</time></trkpt><trkpt lat="45.6536845" lon="8.275631"><ele>426.0</ele><time>2026-04-05T13:44:25.661Z</time></trkpt><trkpt lat="45.6536816" lon="8.2757213"><ele>427.4</ele><time>2026-04-05T13:44:26.661Z</time></trkpt><trkpt lat="45.6537049" lon="8.2758349"><ele>428.8</ele><time>2026-04-05T13:44:28.65Z</time></trkpt><trkpt lat="45.6537854" lon="8.2759455"><ele>430.19999999999993</ele><time>2026-04-05T13:44:30.644Z</time></trkpt><trkpt lat="45.6538535" lon="8.2759915"><ele>431.59999999999997</ele><time>2026-04-05T13:44:31.656Z</time></trkpt><trkpt lat="45.6539696" lon="8.2760275"><ele>433.0</ele><time>2026-04-05T13:44:32.657Z</time></trkpt><trkpt lat="45.654073" lon="8.2760557"><ele>433.00000000000006</ele><time>2026-04-05T13:44:33.659Z</time></trkpt><trkpt lat="45.6541538" lon="8.276066"><ele>433.0</ele><time>2026-04-05T13:44:34.661Z</time></trkpt><trkpt lat="45.6542258" lon="8.2760613"><ele>433.0</ele><time>2026-04-05T13:44:35.651Z</time></trkpt><trkpt lat="45.654297" lon="8.2760569"><ele>433.0</ele><time>2026-04-05T13:44:36.661Z</time></trkpt><trkpt lat="45.6543696" lon="8.2760105"><ele>433.00000000000006</ele><time>2026-04-05T13:44:37.668Z</time></trkpt><trkpt lat="45.6544279" lon="8.2758761"><ele>433.0</ele><time>2026-04-05T13:44:38.649Z</time></trkpt><trkpt lat="45.6544942" lon="8.2757296"><ele>433.0</ele><time>2026-04-05T13:44:39.658Z</time></trkpt><trkpt lat="45.6545521" lon="8.2756107"><ele>432.99999999999994</ele><time>2026-04-05T13:44:40.651Z</time></trkpt><trkpt lat="45.6546072" lon="8.275491"><ele>432.99999999999994</ele><time>2026-04-05T13:44:41.664Z</time></trkpt><trkpt lat="45.6546559" lon="8.2753815"><ele>433.0</ele><time>2026-04-05T13:44:42.65Z</time></trkpt><trkpt lat="45.654711" lon="8.2752808"><ele>433.0</ele><time>2026-04-05T13:44:43.661Z</time></trkpt><trkpt lat="45.6547589" lon="8.2751922"><ele>432.1666666666667</ele><time>2026-04-05T13:44:44.647Z</time></trkpt><trkpt lat="45.6548016" lon="8.2751174"><ele>431.33333333333337</ele><time>2026-04-05T13:44:45.657Z</time></trkpt><trkpt lat="45.6548788" lon="8.2750087"><ele>430.5</ele><time>2026-04-05T13:44:47.651Z</time></trkpt><trkpt lat="45.65494" lon="8.2749531"><ele>429.66666666666663</ele><time>2026-04-05T13:44:50.66Z</time></trkpt><trkpt lat="45.6550321" lon="8.2750187"><ele>428.8333333333333</ele><time>2026-04-05T13:44:53.647Z</time></trkpt><trkpt lat="45.6550493" lon="8.2751416"><ele>428.0</ele><time>2026-04-05T13:44:56.652Z</time></trkpt><trkpt lat="45.6550232" lon="8.2752675"><ele>428.0</ele><time>2026-04-05T13:44:58.645Z</time></trkpt><trkpt lat="45.6549807" lon="8.2754435"><ele>427.99999999999994</ele><time>2026-04-05T13:45:00.644Z</time></trkpt><trkpt lat="45.6549509" lon="8.27555"><ele>427.99999999999994</ele><time>2026-04-05T13:45:01.653Z</time></trkpt><trkpt lat="45.6549313" lon="8.2756694"><ele>428.0</ele><time>2026-04-05T13:45:02.652Z</time></trkpt><trkpt lat="45.6549107" lon="8.2758047"><ele>428.0</ele><time>2026-04-05T13:45:03.661Z</time></trkpt><trkpt lat="45.6548956" lon="8.275957"><ele>428.4</ele><time>2026-04-05T13:45:04.663Z</time></trkpt><trkpt lat="45.6548866" lon="8.2761175"><ele>428.79999999999995</ele><time>2026-04-05T13:45:05.657Z</time></trkpt><trkpt lat="45.654879" lon="8.2762832"><ele>429.2</ele><time>2026-04-05T13:45:06.654Z</time></trkpt><trkpt lat="45.6548639" lon="8.2764289"><ele>429.6</ele><time>2026-04-05T13:45:07.664Z</time></trkpt><trkpt lat="45.6548544" lon="8.2765504"><ele>430.0</ele><time>2026-04-05T13:45:08.649Z</time></trkpt><trkpt lat="45.6548787" lon="8.2767007"><ele>430.0</ele><time>2026-04-05T13:45:10.662Z</time></trkpt><trkpt lat="45.6548829" lon="8.2768454"><ele>430.0</ele><time>2026-04-05T13:45:12.655Z</time></trkpt><trkpt lat="45.6548358" lon="8.2769628"><ele>430.0</ele><time>2026-04-05T13:45:14.655Z</time></trkpt><trkpt lat="45.6547462" lon="8.2770349"><ele>430.0</ele><time>2026-04-05T13:45:16.659Z</time></trkpt><trkpt lat="45.6546277" lon="8.2770731"><ele>430.0</ele><time>2026-04-05T13:45:18.666Z</time></trkpt><trkpt lat="45.6545195" lon="8.2771286"><ele>429.6666666666667</ele><time>2026-04-05T13:45:20.664Z</time></trkpt><trkpt lat="45.6544347" lon="8.2771978"><ele>429.33333333333337</ele><time>2026-04-05T13:45:22.654Z</time></trkpt><trkpt lat="45.6543396" lon="8.2773006"><ele>429.0</ele><time>2026-04-05T13:45:24.666Z</time></trkpt><trkpt lat="45.6542881" lon="8.2773538"><ele>428.66666666666663</ele><time>2026-04-05T13:45:25.65Z</time></trkpt><trkpt lat="45.6542316" lon="8.2774045"><ele>428.3333333333333</ele><time>2026-04-05T13:45:26.647Z</time></trkpt><trkpt lat="45.6541758" lon="8.2774628"><ele>428.0</ele><time>2026-04-05T13:45:27.652Z</time></trkpt><trkpt lat="45.6541245" lon="8.2775308"><ele>428.00000000000006</ele><time>2026-04-05T13:45:28.649Z</time></trkpt><trkpt lat="45.6540742" lon="8.2776012"><ele>428.0</ele><time>2026-04-05T13:45:29.657Z</time></trkpt><trkpt lat="45.6540266" lon="8.277665"><ele>428.0</ele><time>2026-04-05T13:45:30.661Z</time></trkpt><trkpt lat="45.653976" lon="8.2777278"><ele>428.0</ele><time>2026-04-05T13:45:31.649Z</time></trkpt><trkpt lat="45.6539212" lon="8.2777888"><ele>428.0</ele><time>2026-04-05T13:45:32.668Z</time></trkpt><trkpt lat="45.6538599" lon="8.2778533"><ele>428.00000000000006</ele><time>2026-04-05T13:45:33.651Z</time></trkpt><trkpt lat="45.6537967" lon="8.2779196"><ele>428.0</ele><time>2026-04-05T13:45:34.653Z</time></trkpt><trkpt lat="45.6537342" lon="8.2779767"><ele>427.99999999999994</ele><time>2026-04-05T13:45:35.653Z</time></trkpt><trkpt lat="45.6536656" lon="8.278009"><ele>428.0</ele><time>2026-04-05T13:45:36.657Z</time></trkpt><trkpt lat="45.6535899" lon="8.278027"><ele>428.0</ele><time>2026-04-05T13:45:37.656Z</time></trkpt><trkpt lat="45.6535061" lon="8.2780396"><ele>428.0</ele><time>2026-04-05T13:45:38.659Z</time></trkpt><trkpt lat="45.653408" lon="8.2780526"><ele>427.99999999999994</ele><time>2026-04-05T13:45:39.661Z</time></trkpt><trkpt lat="45.6532916" lon="8.2780662"><ele>428.0</ele><time>2026-04-05T13:45:40.661Z</time></trkpt><trkpt lat="45.6531465" lon="8.2780734"><ele>425.25</ele><time>2026-04-05T13:45:41.656Z</time></trkpt><trkpt lat="45.6529953" lon="8.2780782"><ele>422.5</ele><time>2026-04-05T13:45:42.66Z</time></trkpt><trkpt lat="45.6528717" lon="8.2780855"><ele>419.75</ele><time>2026-04-05T13:45:43.656Z</time></trkpt><trkpt lat="45.652774" lon="8.2780967"><ele>417.0</ele><time>2026-04-05T13:45:44.655Z</time></trkpt><trkpt lat="45.6526835" lon="8.2781092"><ele>416.3333333333333</ele><time>2026-04-05T13:45:45.662Z</time></trkpt><trkpt lat="45.6525961" lon="8.2781069"><ele>415.66666666666663</ele><time>2026-04-05T13:45:46.656Z</time></trkpt><trkpt lat="45.6525124" lon="8.2780935"><ele>415.0</ele><time>2026-04-05T13:45:47.668Z</time></trkpt><trkpt lat="45.6524325" lon="8.2780769"><ele>414.3333333333333</ele><time>2026-04-05T13:45:48.66Z</time></trkpt><trkpt lat="45.6523543" lon="8.2780777"><ele>413.66666666666663</ele><time>2026-04-05T13:45:49.656Z</time></trkpt><trkpt lat="45.6522817" lon="8.278089"><ele>413.0</ele><time>2026-04-05T13:45:50.656Z</time></trkpt><trkpt lat="45.6522039" lon="8.2781077"><ele>411.49999999999994</ele><time>2026-04-05T13:45:51.652Z</time></trkpt><trkpt lat="45.6521162" lon="8.2781257"><ele>410.0</ele><time>2026-04-05T13:45:52.654Z</time></trkpt><trkpt lat="45.6520351" lon="8.2781385"><ele>408.5</ele><time>2026-04-05T13:45:53.659Z</time></trkpt><trkpt lat="45.6519557" lon="8.2781503"><ele>407.0</ele><time>2026-04-05T13:45:54.665Z</time></trkpt><trkpt lat="45.651877" lon="8.278166"><ele>405.49999999999994</ele><time>2026-04-05T13:45:55.654Z</time></trkpt><trkpt lat="45.6517995" lon="8.2781848"><ele>404.0</ele><time>2026-04-05T13:45:56.654Z</time></trkpt><trkpt lat="45.6517216" lon="8.278202"><ele>405.16666666666663</ele><time>2026-04-05T13:45:57.645Z</time></trkpt><trkpt lat="45.6516463" lon="8.2782095"><ele>406.3333333333333</ele><time>2026-04-05T13:45:58.653Z</time></trkpt><trkpt lat="45.651547" lon="8.2781971"><ele>407.5</ele><time>2026-04-05T13:46:00.667Z</time></trkpt><trkpt lat="45.6514731" lon="8.2781988"><ele>408.66666666666663</ele><time>2026-04-05T13:46:03.639Z</time></trkpt><trkpt lat="45.651399" lon="8.2782229"><ele>409.8333333333333</ele><time>2026-04-05T13:46:06.657Z</time></trkpt><trkpt lat="45.6513368" lon="8.2781401"><ele>411.0</ele><time>2026-04-05T13:46:09.641Z</time></trkpt><trkpt lat="45.6513345" lon="8.2780364"><ele>411.0</ele><time>2026-04-05T13:46:12.659Z</time></trkpt><trkpt lat="45.6513428" lon="8.2779373"><ele>411.0</ele><time>2026-04-05T13:46:15.645Z</time></trkpt><trkpt lat="45.6512616" lon="8.2780078"><ele>411.0</ele><time>2026-04-05T13:46:29.655Z</time></trkpt><trkpt lat="45.6512696" lon="8.2781008"><ele>411.0</ele><time>2026-04-05T13:46:32.654Z</time></trkpt><trkpt lat="45.6513469" lon="8.2781426"><ele>411.0</ele><time>2026-04-05T13:46:36.645Z</time></trkpt><trkpt lat="45.6514177" lon="8.2781091"><ele>411.0</ele><time>2026-04-05T13:46:39.666Z</time></trkpt><trkpt lat="45.6514877" lon="8.2781294"><ele>411.0</ele><time>2026-04-05T13:46:42.648Z</time></trkpt><trkpt lat="45.6515508" lon="8.2781189"><ele>411.0</ele><time>2026-04-05T13:46:44.645Z</time></trkpt><trkpt lat="45.6516245" lon="8.2780886"><ele>411.0</ele><time>2026-04-05T13:46:46.654Z</time></trkpt><trkpt lat="45.6517007" lon="8.2780641"><ele>411.0</ele><time>2026-04-05T13:46:48.66Z</time></trkpt><trkpt lat="45.6517792" lon="8.2780933"><ele>411.0</ele><time>2026-04-05T13:46:51.596Z</time></trkpt><trkpt lat="45.6518353" lon="8.2781379"><ele>411.0</ele><time>2026-04-05T13:46:55.651Z</time></trkpt><trkpt lat="45.6517669" lon="8.2781211"><ele>411.0</ele><time>2026-04-05T13:47:02.655Z</time></trkpt><trkpt lat="45.6516712" lon="8.278151"><ele>411.0</ele><time>2026-04-05T13:47:05.65Z</time></trkpt><trkpt lat="45.6515938" lon="8.2781544"><ele>411.0</ele><time>2026-04-05T13:47:07.651Z</time></trkpt><trkpt lat="45.6515155" lon="8.2781596"><ele>411.0</ele><time>2026-04-05T13:47:10.651Z</time></trkpt><trkpt lat="45.6514333" lon="8.2781961"><ele>411.0</ele><time>2026-04-05T13:47:13.658Z</time></trkpt><trkpt lat="45.6513641" lon="8.2781525"><ele>411.0</ele><time>2026-04-05T13:47:16.656Z</time></trkpt><trkpt lat="45.6513381" lon="8.2780627"><ele>411.0</ele><time>2026-04-05T13:47:19.647Z</time></trkpt><trkpt lat="45.6513338" lon="8.2779465"><ele>411.0</ele><time>2026-04-05T13:47:22.655Z</time></trkpt><trkpt lat="45.6512823" lon="8.2778499"><ele>411.0</ele><time>2026-04-05T13:47:25.656Z</time></trkpt><trkpt lat="45.6512164" lon="8.277814"><ele>411.0</ele><time>2026-04-05T13:47:27.649Z</time></trkpt><trkpt lat="45.6511326" lon="8.2777863"><ele>411.0</ele><time>2026-04-05T13:47:29.652Z</time></trkpt><trkpt lat="45.6510651" lon="8.2777562"><ele>411.0</ele><time>2026-04-05T13:47:31.658Z</time></trkpt><trkpt lat="45.6509946" lon="8.2776743"><ele>411.0</ele><time>2026-04-05T13:48:37.65Z</time></trkpt><trkpt lat="45.6508741" lon="8.27764"><ele>410.0</ele><time>2026-04-05T13:48:40.641Z</time></trkpt><trkpt lat="45.6507987" lon="8.2776116"><ele>409.0</ele><time>2026-04-05T13:48:41.66Z</time></trkpt><trkpt lat="45.6507091" lon="8.2775694"><ele>408.0</ele><time>2026-04-05T13:48:42.658Z</time></trkpt><trkpt lat="45.6506067" lon="8.2775259"><ele>407.0</ele><time>2026-04-05T13:48:43.653Z</time></trkpt><trkpt lat="45.6505052" lon="8.277497"><ele>406.0</ele><time>2026-04-05T13:48:44.653Z</time></trkpt><trkpt lat="45.6504052" lon="8.2774495"><ele>406.0</ele><time>2026-04-05T13:48:45.651Z</time></trkpt><trkpt lat="45.6503247" lon="8.27739"><ele>406.0</ele><time>2026-04-05T13:48:46.656Z</time></trkpt><trkpt lat="45.6502596" lon="8.2773395"><ele>406.0</ele><time>2026-04-05T13:48:47.662Z</time></trkpt><trkpt lat="45.6501727" lon="8.2772194"><ele>406.0</ele><time>2026-04-05T13:48:49.653Z</time></trkpt><trkpt lat="45.6501181" lon="8.2771047"><ele>406.0</ele><time>2026-04-05T13:48:51.659Z</time></trkpt><trkpt lat="45.6501238" lon="8.2769869"><ele>405.50000000000006</ele><time>2026-04-05T13:48:53.647Z</time></trkpt><trkpt lat="45.6501764" lon="8.2768587"><ele>405.0</ele><time>2026-04-05T13:48:55.654Z</time></trkpt><trkpt lat="45.6502266" lon="8.2768002"><ele>404.5</ele><time>2026-04-05T13:48:56.651Z</time></trkpt><trkpt lat="45.6502852" lon="8.2767389"><ele>404.0</ele><time>2026-04-05T13:48:57.646Z</time></trkpt><trkpt lat="45.6503502" lon="8.2766716"><ele>403.50000000000006</ele><time>2026-04-05T13:48:58.663Z</time></trkpt><trkpt lat="45.65043" lon="8.2765912"><ele>403.0</ele><time>2026-04-05T13:48:59.657Z</time></trkpt><trkpt lat="45.6505314" lon="8.2764993"><ele>399.5</ele><time>2026-04-05T13:49:00.65Z</time></trkpt><trkpt lat="45.650633" lon="8.2764058"><ele>396.0</ele><time>2026-04-05T13:49:01.652Z</time></trkpt><trkpt lat="45.6507307" lon="8.2763181"><ele>392.5</ele><time>2026-04-05T13:49:02.665Z</time></trkpt><trkpt lat="45.65082" lon="8.2762288"><ele>389.0</ele><time>2026-04-05T13:49:03.66Z</time></trkpt><trkpt lat="45.6508992" lon="8.2761279"><ele>388.99999999999994</ele><time>2026-04-05T13:49:04.658Z</time></trkpt><trkpt lat="45.6509644" lon="8.2760243"><ele>389.0</ele><time>2026-04-05T13:49:05.65Z</time></trkpt><trkpt lat="45.6510246" lon="8.275927"><ele>389.0</ele><time>2026-04-05T13:49:06.661Z</time></trkpt><trkpt lat="45.6510822" lon="8.275849"><ele>389.0</ele><time>2026-04-05T13:49:07.648Z</time></trkpt><trkpt lat="45.6511362" lon="8.2757938"><ele>388.99999999999994</ele><time>2026-04-05T13:49:08.663Z</time></trkpt><trkpt lat="45.6512053" lon="8.2756839"><ele>389.0</ele><time>2026-04-05T13:49:10.65Z</time></trkpt><trkpt lat="45.6512303" lon="8.2755784"><ele>389.0</ele><time>2026-04-05T13:49:12.649Z</time></trkpt><trkpt lat="45.6511685" lon="8.2755101"><ele>389.0</ele><time>2026-04-05T13:49:15.645Z</time></trkpt><trkpt lat="45.6510993" lon="8.2755155"><ele>389.0</ele><time>2026-04-05T13:49:17.655Z</time></trkpt><trkpt lat="45.6509472" lon="8.2756203"><ele>389.0</ele><time>2026-04-05T13:49:19.647Z</time></trkpt><trkpt lat="45.6508059" lon="8.2756862"><ele>389.0</ele><time>2026-04-05T13:49:20.656Z</time></trkpt><trkpt lat="45.6506371" lon="8.2757379"><ele>389.0</ele><time>2026-04-05T13:49:21.651Z</time></trkpt><trkpt lat="45.6504428" lon="8.2757698"><ele>389.0</ele><time>2026-04-05T13:49:22.644Z</time></trkpt><trkpt lat="45.6502311" lon="8.2758032"><ele>385.5</ele><time>2026-04-05T13:49:23.662Z</time></trkpt><trkpt lat="45.650006" lon="8.2758382"><ele>382.0</ele><time>2026-04-05T13:49:24.658Z</time></trkpt><trkpt lat="45.6497673" lon="8.2758665"><ele>382.0</ele><time>2026-04-05T13:49:25.66Z</time></trkpt><trkpt lat="45.6495234" lon="8.2758694"><ele>382.0</ele><time>2026-04-05T13:49:26.639Z</time></trkpt><trkpt lat="45.6492787" lon="8.2758549"><ele>380.0</ele><time>2026-04-05T13:49:27.659Z</time></trkpt><trkpt lat="45.6490565" lon="8.2758141"><ele>378.0</ele><time>2026-04-05T13:49:28.654Z</time></trkpt><trkpt lat="45.6488542" lon="8.275769"><ele>376.0</ele><time>2026-04-05T13:49:29.647Z</time></trkpt><trkpt lat="45.6486611" lon="8.2757249"><ele>375.66666666666663</ele><time>2026-04-05T13:49:30.649Z</time></trkpt><trkpt lat="45.6484792" lon="8.2756882"><ele>375.3333333333333</ele><time>2026-04-05T13:49:31.656Z</time></trkpt><trkpt lat="45.6483074" lon="8.2756546"><ele>375.0</ele><time>2026-04-05T13:49:32.664Z</time></trkpt><trkpt lat="45.6481431" lon="8.2756237"><ele>374.6666666666667</ele><time>2026-04-05T13:49:33.65Z</time></trkpt><trkpt lat="45.6479889" lon="8.2755936"><ele>374.33333333333337</ele><time>2026-04-05T13:49:34.656Z</time></trkpt><trkpt lat="45.6478415" lon="8.275555"><ele>374.0</ele><time>2026-04-05T13:49:35.653Z</time></trkpt><trkpt lat="45.6477008" lon="8.275496"><ele>374.0</ele><time>2026-04-05T13:49:36.656Z</time></trkpt><trkpt lat="45.647563" lon="8.2754085"><ele>374.0</ele><time>2026-04-05T13:49:37.656Z</time></trkpt><trkpt lat="45.647432" lon="8.2752871"><ele>374.0</ele><time>2026-04-05T13:49:38.668Z</time></trkpt><trkpt lat="45.6473098" lon="8.2751459"><ele>374.0</ele><time>2026-04-05T13:49:39.656Z</time></trkpt><trkpt lat="45.6471936" lon="8.2750096"><ele>374.0</ele><time>2026-04-05T13:49:40.665Z</time></trkpt><trkpt lat="45.6470935" lon="8.2748877"><ele>374.0</ele><time>2026-04-05T13:49:41.656Z</time></trkpt><trkpt lat="45.6470096" lon="8.2747852"><ele>374.0</ele><time>2026-04-05T13:49:42.657Z</time></trkpt><trkpt lat="45.6469329" lon="8.2747175"><ele>374.0</ele><time>2026-04-05T13:49:43.657Z</time></trkpt><trkpt lat="45.6468532" lon="8.2746775"><ele>374.0</ele><time>2026-04-05T13:49:44.666Z</time></trkpt><trkpt lat="45.6467646" lon="8.2746979"><ele>374.0</ele><time>2026-04-05T13:49:45.664Z</time></trkpt><trkpt lat="45.6466665" lon="8.2747616"><ele>374.0</ele><time>2026-04-05T13:49:46.658Z</time></trkpt><trkpt lat="45.6465569" lon="8.2748441"><ele>374.0</ele><time>2026-04-05T13:49:47.659Z</time></trkpt><trkpt lat="45.6464366" lon="8.2749307"><ele>374.33333333333337</ele><time>2026-04-05T13:49:48.658Z</time></trkpt><trkpt lat="45.6463051" lon="8.2750216"><ele>374.6666666666667</ele><time>2026-04-05T13:49:49.662Z</time></trkpt><trkpt lat="45.6461648" lon="8.2751338"><ele>375.0</ele><time>2026-04-05T13:49:50.658Z</time></trkpt><trkpt lat="45.646025" lon="8.2752618"><ele>375.0</ele><time>2026-04-05T13:49:51.66Z</time></trkpt><trkpt lat="45.645898" lon="8.2753654"><ele>375.0</ele><time>2026-04-05T13:49:52.657Z</time></trkpt><trkpt lat="45.6457748" lon="8.2754361"><ele>375.0</ele><time>2026-04-05T13:49:53.653Z</time></trkpt><trkpt lat="45.6456618" lon="8.275464"><ele>375.0</ele><time>2026-04-05T13:49:54.653Z</time></trkpt><trkpt lat="45.6455583" lon="8.2754728"><ele>375.0</ele><time>2026-04-05T13:49:55.656Z</time></trkpt><trkpt lat="45.6454551" lon="8.2754929"><ele>375.0</ele><time>2026-04-05T13:49:56.664Z</time></trkpt><trkpt lat="45.6453327" lon="8.2755261"><ele>375.0</ele><time>2026-04-05T13:49:57.656Z</time></trkpt><trkpt lat="45.6451876" lon="8.2755694"><ele>375.0</ele><time>2026-04-05T13:49:58.653Z</time></trkpt><trkpt lat="45.6450229" lon="8.2756282"><ele>378.33333333333337</ele><time>2026-04-05T13:49:59.653Z</time></trkpt><trkpt lat="45.6448398" lon="8.2757085"><ele>381.6666666666667</ele><time>2026-04-05T13:50:00.661Z</time></trkpt><trkpt lat="45.6446421" lon="8.2758056"><ele>385.0</ele><time>2026-04-05T13:50:01.659Z</time></trkpt><trkpt lat="45.6444347" lon="8.2759114"><ele>385.0</ele><time>2026-04-05T13:50:02.656Z</time></trkpt><trkpt lat="45.6442211" lon="8.2760227"><ele>385.0</ele><time>2026-04-05T13:50:03.657Z</time></trkpt><trkpt lat="45.6440118" lon="8.2761475"><ele>385.0</ele><time>2026-04-05T13:50:04.655Z</time></trkpt><trkpt lat="45.643816" lon="8.2762976"><ele>385.0</ele><time>2026-04-05T13:50:05.649Z</time></trkpt><trkpt lat="45.6436276" lon="8.2764892"><ele>385.33333333333337</ele><time>2026-04-05T13:50:06.661Z</time></trkpt><trkpt lat="45.6434477" lon="8.2766866"><ele>385.66666666666663</ele><time>2026-04-05T13:50:07.646Z</time></trkpt><trkpt lat="45.6432832" lon="8.2768638"><ele>386.0</ele><time>2026-04-05T13:50:08.652Z</time></trkpt><trkpt lat="45.6431378" lon="8.2770179"><ele>386.0</ele><time>2026-04-05T13:50:09.667Z</time></trkpt><trkpt lat="45.6430106" lon="8.2771461"><ele>386.0</ele><time>2026-04-05T13:50:10.654Z</time></trkpt><trkpt lat="45.6428996" lon="8.2772537"><ele>386.0</ele><time>2026-04-05T13:50:11.664Z</time></trkpt><trkpt lat="45.642813" lon="8.2773488"><ele>386.0</ele><time>2026-04-05T13:50:12.651Z</time></trkpt><trkpt lat="45.6427491" lon="8.2774522"><ele>385.16666666666663</ele><time>2026-04-05T13:50:13.653Z</time></trkpt><trkpt lat="45.6427041" lon="8.2775713"><ele>384.3333333333333</ele><time>2026-04-05T13:50:14.668Z</time></trkpt><trkpt lat="45.6426921" lon="8.27769"><ele>383.5</ele><time>2026-04-05T13:50:15.655Z</time></trkpt><trkpt lat="45.6427077" lon="8.2778078"><ele>382.66666666666663</ele><time>2026-04-05T13:50:16.662Z</time></trkpt><trkpt lat="45.642741" lon="8.2779233"><ele>381.8333333333333</ele><time>2026-04-05T13:50:17.658Z</time></trkpt><trkpt lat="45.642804" lon="8.2780266"><ele>381.0</ele><time>2026-04-05T13:50:18.656Z</time></trkpt><trkpt lat="45.6429033" lon="8.2781081"><ele>379.75</ele><time>2026-04-05T13:50:19.655Z</time></trkpt><trkpt lat="45.6430205" lon="8.2781941"><ele>378.5</ele><time>2026-04-05T13:50:20.662Z</time></trkpt><trkpt lat="45.643134" lon="8.2782995"><ele>377.25</ele><time>2026-04-05T13:50:21.659Z</time></trkpt><trkpt lat="45.6432442" lon="8.278441"><ele>376.0</ele><time>2026-04-05T13:50:22.655Z</time></trkpt><trkpt lat="45.6433337" lon="8.2786003"><ele>376.0</ele><time>2026-04-05T13:50:23.666Z</time></trkpt><trkpt lat="45.6433925" lon="8.2787751"><ele>376.0</ele><time>2026-04-05T13:50:24.655Z</time></trkpt><trkpt lat="45.6434176" lon="8.2789294"><ele>376.0</ele><time>2026-04-05T13:50:25.653Z</time></trkpt><trkpt lat="45.6434217" lon="8.2790458"><ele>376.0</ele><time>2026-04-05T13:50:26.669Z</time></trkpt><trkpt lat="45.6434052" lon="8.279156"><ele>376.0</ele><time>2026-04-05T13:50:27.653Z</time></trkpt><trkpt lat="45.6433351" lon="8.279273"><ele>375.25</ele><time>2026-04-05T13:50:28.66Z</time></trkpt><trkpt lat="45.6432584" lon="8.2794091"><ele>374.5</ele><time>2026-04-05T13:50:29.653Z</time></trkpt><trkpt lat="45.6431897" lon="8.2795754"><ele>373.75</ele><time>2026-04-05T13:50:30.654Z</time></trkpt><trkpt lat="45.643117" lon="8.2797506"><ele>373.0</ele><time>2026-04-05T13:50:31.661Z</time></trkpt><trkpt lat="45.6430332" lon="8.279904"><ele>372.79999999999995</ele><time>2026-04-05T13:50:32.662Z</time></trkpt><trkpt lat="45.6429451" lon="8.28004"><ele>372.6</ele><time>2026-04-05T13:50:33.657Z</time></trkpt><trkpt lat="45.6428814" lon="8.280173"><ele>372.4</ele><time>2026-04-05T13:50:34.657Z</time></trkpt><trkpt lat="45.6428355" lon="8.2802989"><ele>372.20000000000005</ele><time>2026-04-05T13:50:35.664Z</time></trkpt><trkpt lat="45.6427915" lon="8.2803994"><ele>372.0</ele><time>2026-04-05T13:50:36.658Z</time></trkpt><trkpt lat="45.6427322" lon="8.2804712"><ele>372.0</ele><time>2026-04-05T13:50:37.652Z</time></trkpt><trkpt lat="45.6426661" lon="8.2805285"><ele>372.0</ele><time>2026-04-05T13:50:38.653Z</time></trkpt><trkpt lat="45.6425876" lon="8.2805742"><ele>372.0</ele><time>2026-04-05T13:50:39.648Z</time></trkpt><trkpt lat="45.6424793" lon="8.2806056"><ele>372.0</ele><time>2026-04-05T13:50:40.654Z</time></trkpt><trkpt lat="45.6423498" lon="8.2806253"><ele>372.0</ele><time>2026-04-05T13:50:41.66Z</time></trkpt><trkpt lat="45.6422251" lon="8.2806705"><ele>372.0</ele><time>2026-04-05T13:50:42.652Z</time></trkpt><trkpt lat="45.6421016" lon="8.2807296"><ele>372.0</ele><time>2026-04-05T13:50:43.657Z</time></trkpt><trkpt lat="45.6419997" lon="8.2807801"><ele>372.0</ele><time>2026-04-05T13:50:44.656Z</time></trkpt><trkpt lat="45.6419142" lon="8.2808372"><ele>372.0</ele><time>2026-04-05T13:50:45.652Z</time></trkpt><trkpt lat="45.641843" lon="8.2809074"><ele>372.0</ele><time>2026-04-05T13:50:46.655Z</time></trkpt><trkpt lat="45.6418483" lon="8.2810901"><ele>371.5</ele><time>2026-04-05T13:50:48.666Z</time></trkpt><trkpt lat="45.6418744" lon="8.2812025"><ele>371.0</ele><time>2026-04-05T13:50:49.661Z</time></trkpt><trkpt lat="45.6418926" lon="8.2813116"><ele>370.5</ele><time>2026-04-05T13:50:50.657Z</time></trkpt><trkpt lat="45.641897" lon="8.2814099"><ele>370.0</ele><time>2026-04-05T13:50:51.656Z</time></trkpt><trkpt lat="45.6418934" lon="8.281507"><ele>369.5</ele><time>2026-04-05T13:50:52.666Z</time></trkpt><trkpt lat="45.6418434" lon="8.2815915"><ele>369.0</ele><time>2026-04-05T13:50:53.659Z</time></trkpt><trkpt lat="45.6417678" lon="8.2816675"><ele>368.4</ele><time>2026-04-05T13:50:54.659Z</time></trkpt><trkpt lat="45.6417" lon="8.2817582"><ele>367.79999999999995</ele><time>2026-04-05T13:50:55.661Z</time></trkpt><trkpt lat="45.6416366" lon="8.2818673"><ele>367.20000000000005</ele><time>2026-04-05T13:50:56.668Z</time></trkpt><trkpt lat="45.6415867" lon="8.2819563"><ele>366.6</ele><time>2026-04-05T13:50:57.647Z</time></trkpt><trkpt lat="45.641531" lon="8.2820895"><ele>366.0</ele><time>2026-04-05T13:50:59.648Z</time></trkpt><trkpt lat="45.6415274" lon="8.2822436"><ele>363.6666666666667</ele><time>2026-04-05T13:51:01.654Z</time></trkpt><trkpt lat="45.6415923" lon="8.2823249"><ele>361.3333333333333</ele><time>2026-04-05T13:51:02.655Z</time></trkpt><trkpt lat="45.6416548" lon="8.2823916"><ele>359.0</ele><time>2026-04-05T13:51:03.654Z</time></trkpt><trkpt lat="45.6417132" lon="8.2824399"><ele>356.66666666666663</ele><time>2026-04-05T13:51:04.66Z</time></trkpt><trkpt lat="45.6418004" lon="8.282525"><ele>354.3333333333333</ele><time>2026-04-05T13:51:06.653Z</time></trkpt><trkpt lat="45.6417257" lon="8.2826399"><ele>352.0</ele><time>2026-04-05T13:51:09.653Z</time></trkpt><trkpt lat="45.6416593" lon="8.2826883"><ele>352.0</ele><time>2026-04-05T13:51:10.659Z</time></trkpt><trkpt lat="45.6415949" lon="8.2827317"><ele>352.0</ele><time>2026-04-05T13:51:11.647Z</time></trkpt><trkpt lat="45.6415261" lon="8.2827547"><ele>352.0</ele><time>2026-04-05T13:51:12.66Z</time></trkpt><trkpt lat="45.6414055" lon="8.2826874"><ele>352.0</ele><time>2026-04-05T13:51:14.658Z</time></trkpt><trkpt lat="45.6413193" lon="8.2826173"><ele>352.0</ele><time>2026-04-05T13:51:16.665Z</time></trkpt><trkpt lat="45.641323" lon="8.2827215"><ele>352.0</ele><time>2026-04-05T13:51:18.654Z</time></trkpt><trkpt lat="45.6413338" lon="8.2828258"><ele>352.0</ele><time>2026-04-05T13:51:19.654Z</time></trkpt><trkpt lat="45.6413374" lon="8.2829232"><ele>352.0</ele><time>2026-04-05T13:51:20.66Z</time></trkpt><trkpt lat="45.6413461" lon="8.2830912"><ele>352.0</ele><time>2026-04-05T13:51:22.657Z</time></trkpt><trkpt lat="45.6413642" lon="8.2831968"><ele>352.0</ele><time>2026-04-05T13:51:23.648Z</time></trkpt><trkpt lat="45.6413993" lon="8.2833159"><ele>352.0</ele><time>2026-04-05T13:51:24.669Z</time></trkpt><trkpt lat="45.641439" lon="8.2834143"><ele>352.0</ele><time>2026-04-05T13:51:25.659Z</time></trkpt><trkpt lat="45.6414841" lon="8.2834929"><ele>349.66666666666663</ele><time>2026-04-05T13:51:26.653Z</time></trkpt><trkpt lat="45.6415142" lon="8.2836047"><ele>347.3333333333333</ele><time>2026-04-05T13:51:28.66Z</time></trkpt><trkpt lat="45.6415021" lon="8.2837097"><ele>345.0</ele><time>2026-04-05T13:51:30.651Z</time></trkpt><trkpt lat="45.6415091" lon="8.2838849"><ele>342.6666666666667</ele><time>2026-04-05T13:51:32.658Z</time></trkpt><trkpt lat="45.6415266" lon="8.2839871"><ele>340.33333333333337</ele><time>2026-04-05T13:51:33.648Z</time></trkpt><trkpt lat="45.6415461" lon="8.2840759"><ele>338.0</ele><time>2026-04-05T13:51:34.658Z</time></trkpt><trkpt lat="45.6416181" lon="8.2842"><ele>336.59999999999997</ele><time>2026-04-05T13:51:36.651Z</time></trkpt><trkpt lat="45.6416734" lon="8.2843109"><ele>335.2</ele><time>2026-04-05T13:51:38.649Z</time></trkpt><trkpt lat="45.6416944" lon="8.2844175"><ele>333.8</ele><time>2026-04-05T13:51:41.655Z</time></trkpt><trkpt lat="45.6416358" lon="8.2845495"><ele>332.4</ele><time>2026-04-05T13:51:46.654Z</time></trkpt><trkpt lat="45.6415484" lon="8.2846478"><ele>331.0</ele><time>2026-04-05T13:51:48.644Z</time></trkpt><trkpt lat="45.6414186" lon="8.2846866"><ele>331.0</ele><time>2026-04-05T13:51:50.665Z</time></trkpt><trkpt lat="45.641297" lon="8.2846684"><ele>331.0</ele><time>2026-04-05T13:51:52.657Z</time></trkpt><trkpt lat="45.641228" lon="8.2846597"><ele>331.0</ele><time>2026-04-05T13:51:53.65Z</time></trkpt><trkpt lat="45.6411338" lon="8.28466"><ele>331.0</ele><time>2026-04-05T13:51:54.644Z</time></trkpt><trkpt lat="45.6410322" lon="8.2846642"><ele>331.0</ele><time>2026-04-05T13:51:55.657Z</time></trkpt><trkpt lat="45.6409193" lon="8.2846588"><ele>332.4</ele><time>2026-04-05T13:51:56.659Z</time></trkpt><trkpt lat="45.6408146" lon="8.284643"><ele>333.8</ele><time>2026-04-05T13:51:57.66Z</time></trkpt><trkpt lat="45.6407418" lon="8.2846093"><ele>335.2</ele><time>2026-04-05T13:51:58.651Z</time></trkpt><trkpt lat="45.6406513" lon="8.2844937"><ele>336.59999999999997</ele><time>2026-04-05T13:52:00.657Z</time></trkpt><trkpt lat="45.6405406" lon="8.2844139"><ele>338.0</ele><time>2026-04-05T13:52:02.662Z</time></trkpt><trkpt lat="45.6404536" lon="8.2844184"><ele>338.0</ele><time>2026-04-05T13:52:03.662Z</time></trkpt><trkpt lat="45.640345" lon="8.2844407"><ele>338.0</ele><time>2026-04-05T13:52:04.65Z</time></trkpt><trkpt lat="45.6402268" lon="8.2844774"><ele>338.0</ele><time>2026-04-05T13:52:05.653Z</time></trkpt><trkpt lat="45.6400988" lon="8.2845084"><ele>338.0</ele><time>2026-04-05T13:52:06.658Z</time></trkpt><trkpt lat="45.6399725" lon="8.2845245"><ele>338.25</ele><time>2026-04-05T13:52:07.646Z</time></trkpt><trkpt lat="45.6398449" lon="8.2845225"><ele>338.5</ele><time>2026-04-05T13:52:08.647Z</time></trkpt><trkpt lat="45.6397244" lon="8.2845045"><ele>338.75</ele><time>2026-04-05T13:52:09.647Z</time></trkpt><trkpt lat="45.6396107" lon="8.284472"><ele>339.0</ele><time>2026-04-05T13:52:10.657Z</time></trkpt><trkpt lat="45.639507" lon="8.2844345"><ele>337.5</ele><time>2026-04-05T13:52:11.654Z</time></trkpt><trkpt lat="45.6394137" lon="8.2844138"><ele>336.0</ele><time>2026-04-05T13:52:12.658Z</time></trkpt><trkpt lat="45.6393165" lon="8.2844088"><ele>334.5</ele><time>2026-04-05T13:52:13.656Z</time></trkpt><trkpt lat="45.6392134" lon="8.2844293"><ele>333.0</ele><time>2026-04-05T13:52:14.652Z</time></trkpt><trkpt lat="45.6391333" lon="8.284453"><ele>331.5</ele><time>2026-04-05T13:52:15.651Z</time></trkpt><trkpt lat="45.6390638" lon="8.2844676"><ele>330.0</ele><time>2026-04-05T13:52:16.648Z</time></trkpt><trkpt lat="45.638948" lon="8.2844179"><ele>330.0</ele><time>2026-04-05T13:52:18.657Z</time></trkpt><trkpt lat="45.6388819" lon="8.2843102"><ele>330.0</ele><time>2026-04-05T13:52:20.658Z</time></trkpt><trkpt lat="45.6388078" lon="8.2842538"><ele>330.0</ele><time>2026-04-05T13:52:23.652Z</time></trkpt><trkpt lat="45.6387298" lon="8.2841874"><ele>330.0</ele><time>2026-04-05T13:52:25.659Z</time></trkpt><trkpt lat="45.6386337" lon="8.284141"><ele>330.0</ele><time>2026-04-05T13:52:27.652Z</time></trkpt><trkpt lat="45.63856" lon="8.2841836"><ele>330.5</ele><time>2026-04-05T13:52:29.649Z</time></trkpt><trkpt lat="45.6385071" lon="8.2843231"><ele>331.0</ele><time>2026-04-05T13:52:31.653Z</time></trkpt><trkpt lat="45.6384692" lon="8.2843991"><ele>331.5</ele><time>2026-04-05T13:52:32.648Z</time></trkpt><trkpt lat="45.6384218" lon="8.2844618"><ele>332.0</ele><time>2026-04-05T13:52:33.649Z</time></trkpt><trkpt lat="45.6383568" lon="8.2845084"><ele>332.5</ele><time>2026-04-05T13:52:34.653Z</time></trkpt><trkpt lat="45.6382797" lon="8.2845465"><ele>333.0</ele><time>2026-04-05T13:52:35.647Z</time></trkpt><trkpt lat="45.6381887" lon="8.2845958"><ele>333.0</ele><time>2026-04-05T13:52:36.65Z</time></trkpt><trkpt lat="45.638097" lon="8.2846517"><ele>333.0</ele><time>2026-04-05T13:52:37.649Z</time></trkpt><trkpt lat="45.638003" lon="8.2847043"><ele>333.0</ele><time>2026-04-05T13:52:38.654Z</time></trkpt><trkpt lat="45.6379094" lon="8.2847444"><ele>333.0</ele><time>2026-04-05T13:52:39.655Z</time></trkpt><trkpt lat="45.6378368" lon="8.2847967"><ele>333.0</ele><time>2026-04-05T13:52:40.648Z</time></trkpt><trkpt lat="45.6377727" lon="8.2848638"><ele>332.8333333333333</ele><time>2026-04-05T13:52:41.659Z</time></trkpt><trkpt lat="45.6377048" lon="8.2849267"><ele>332.6666666666667</ele><time>2026-04-05T13:52:42.647Z</time></trkpt><trkpt lat="45.6376198" lon="8.2849848"><ele>332.5</ele><time>2026-04-05T13:52:43.649Z</time></trkpt><trkpt lat="45.6375374" lon="8.2850463"><ele>332.33333333333337</ele><time>2026-04-05T13:52:44.657Z</time></trkpt><trkpt lat="45.6374693" lon="8.2851151"><ele>332.1666666666667</ele><time>2026-04-05T13:52:45.665Z</time></trkpt><trkpt lat="45.637416" lon="8.2852045"><ele>332.0</ele><time>2026-04-05T13:52:46.654Z</time></trkpt><trkpt lat="45.6373827" lon="8.2853064"><ele>332.0</ele><time>2026-04-05T13:52:47.653Z</time></trkpt><trkpt lat="45.6373626" lon="8.2854156"><ele>332.0</ele><time>2026-04-05T13:52:48.648Z</time></trkpt><trkpt lat="45.6373599" lon="8.2855269"><ele>332.0</ele><time>2026-04-05T13:52:49.654Z</time></trkpt><trkpt lat="45.6373605" lon="8.2856194"><ele>332.0</ele><time>2026-04-05T13:52:50.659Z</time></trkpt><trkpt lat="45.6373257" lon="8.2857889"><ele>332.0</ele><time>2026-04-05T13:52:52.656Z</time></trkpt><trkpt lat="45.637281" lon="8.2858824"><ele>332.0</ele><time>2026-04-05T13:52:53.646Z</time></trkpt><trkpt lat="45.6372286" lon="8.2859871"><ele>330.40000000000003</ele><time>2026-04-05T13:52:54.656Z</time></trkpt><trkpt lat="45.6371736" lon="8.2860895"><ele>328.8</ele><time>2026-04-05T13:52:55.656Z</time></trkpt><trkpt lat="45.6371075" lon="8.2861827"><ele>327.2</ele><time>2026-04-05T13:52:56.649Z</time></trkpt><trkpt lat="45.6370269" lon="8.2862575"><ele>325.6</ele><time>2026-04-05T13:52:57.657Z</time></trkpt><trkpt lat="45.6369313" lon="8.2863116"><ele>324.0</ele><time>2026-04-05T13:52:58.655Z</time></trkpt><trkpt lat="45.6368193" lon="8.2863564"><ele>324.0</ele><time>2026-04-05T13:52:59.657Z</time></trkpt><trkpt lat="45.6367032" lon="8.2863875"><ele>324.0</ele><time>2026-04-05T13:53:00.659Z</time></trkpt><trkpt lat="45.6365805" lon="8.2864045"><ele>324.0</ele><time>2026-04-05T13:53:01.658Z</time></trkpt><trkpt lat="45.6364632" lon="8.2864053"><ele>324.0</ele><time>2026-04-05T13:53:02.65Z</time></trkpt><trkpt lat="45.6363589" lon="8.2863949"><ele>324.0</ele><time>2026-04-05T13:53:03.654Z</time></trkpt><trkpt lat="45.6362653" lon="8.2863705"><ele>324.0</ele><time>2026-04-05T13:53:04.655Z</time></trkpt><trkpt lat="45.6361854" lon="8.2863311"><ele>324.0</ele><time>2026-04-05T13:53:05.646Z</time></trkpt><trkpt lat="45.636117" lon="8.2862891"><ele>324.0</ele><time>2026-04-05T13:53:06.66Z</time></trkpt><trkpt lat="45.6360304" lon="8.2862517"><ele>324.0</ele><time>2026-04-05T13:53:08.651Z</time></trkpt><trkpt lat="45.635949" lon="8.2862785"><ele>324.0</ele><time>2026-04-05T13:53:11.649Z</time></trkpt><trkpt lat="45.6359096" lon="8.2864053"><ele>323.0</ele><time>2026-04-05T13:53:13.649Z</time></trkpt><trkpt lat="45.6358802" lon="8.2865035"><ele>322.0</ele><time>2026-04-05T13:53:14.653Z</time></trkpt><trkpt lat="45.6358393" lon="8.2866033"><ele>321.0</ele><time>2026-04-05T13:53:15.655Z</time></trkpt><trkpt lat="45.6357935" lon="8.2866836"><ele>320.0</ele><time>2026-04-05T13:53:16.651Z</time></trkpt><trkpt lat="45.6357413" lon="8.2867491"><ele>319.0</ele><time>2026-04-05T13:53:17.654Z</time></trkpt><trkpt lat="45.6356808" lon="8.2867981"><ele>318.0</ele><time>2026-04-05T13:53:18.658Z</time></trkpt><trkpt lat="45.6356196" lon="8.2868403"><ele>317.0</ele><time>2026-04-05T13:53:19.661Z</time></trkpt><trkpt lat="45.6355506" lon="8.2868784"><ele>317.0</ele><time>2026-04-05T13:53:20.657Z</time></trkpt><trkpt lat="45.6354742" lon="8.2869164"><ele>317.0</ele><time>2026-04-05T13:53:21.653Z</time></trkpt><trkpt lat="45.6353822" lon="8.286954"><ele>317.0</ele><time>2026-04-05T13:53:22.66Z</time></trkpt><trkpt lat="45.6353012" lon="8.2869764"><ele>317.0</ele><time>2026-04-05T13:53:23.653Z</time></trkpt><trkpt lat="45.635223" lon="8.2869904"><ele>317.0</ele><time>2026-04-05T13:53:24.655Z</time></trkpt><trkpt lat="45.6351485" lon="8.2870033"><ele>317.0</ele><time>2026-04-05T13:53:25.65Z</time></trkpt><trkpt lat="45.6350791" lon="8.287008"><ele>317.6666666666667</ele><time>2026-04-05T13:53:26.658Z</time></trkpt><trkpt lat="45.6349906" lon="8.2870226"><ele>318.33333333333337</ele><time>2026-04-05T13:53:28.652Z</time></trkpt><trkpt lat="45.6349159" lon="8.287036"><ele>319.0</ele><time>2026-04-05T13:53:32.647Z</time></trkpt><trkpt lat="45.63495" lon="8.2869539"><ele>319.6666666666667</ele><time>2026-04-05T13:53:41.644Z</time></trkpt><trkpt lat="45.6350036" lon="8.2868963"><ele>320.3333333333333</ele><time>2026-04-05T13:53:43.66Z</time></trkpt><trkpt lat="45.6351294" lon="8.2868333"><ele>321.0</ele><time>2026-04-05T13:53:45.67Z</time></trkpt><trkpt lat="45.6351951" lon="8.2868067"><ele>321.0</ele><time>2026-04-05T13:53:46.648Z</time></trkpt><trkpt lat="45.6352645" lon="8.2867648"><ele>321.0</ele><time>2026-04-05T13:53:47.663Z</time></trkpt><trkpt lat="45.6353329" lon="8.2867149"><ele>321.0</ele><time>2026-04-05T13:53:48.659Z</time></trkpt><trkpt lat="45.6354005" lon="8.2866676"><ele>321.0</ele><time>2026-04-05T13:53:49.652Z</time></trkpt><trkpt lat="45.6354624" lon="8.2866202"><ele>321.0</ele><time>2026-04-05T13:53:50.663Z</time></trkpt><trkpt lat="45.6355602" lon="8.2865227"><ele>321.0</ele><time>2026-04-05T13:53:52.657Z</time></trkpt><trkpt lat="45.6356285" lon="8.2864059"><ele>321.6666666666667</ele><time>2026-04-05T13:53:54.662Z</time></trkpt><trkpt lat="45.6356553" lon="8.2862393"><ele>322.3333333333333</ele><time>2026-04-05T13:53:56.653Z</time></trkpt><trkpt lat="45.6356598" lon="8.2861481"><ele>323.0</ele><time>2026-04-05T13:53:57.653Z</time></trkpt><trkpt lat="45.6356489" lon="8.286045"><ele>323.66666666666663</ele><time>2026-04-05T13:53:59.656Z</time></trkpt><trkpt lat="45.635592" lon="8.286087"><ele>324.3333333333333</ele><time>2026-04-05T13:54:01.665Z</time></trkpt><trkpt lat="45.6354998" lon="8.2861604"><ele>325.0</ele><time>2026-04-05T13:54:03.662Z</time></trkpt><trkpt lat="45.6354369" lon="8.2861811"><ele>325.0</ele><time>2026-04-05T13:54:04.657Z</time></trkpt><trkpt lat="45.6353207" lon="8.2861936"><ele>325.0</ele><time>2026-04-05T13:54:06.645Z</time></trkpt><trkpt lat="45.6352558" lon="8.2861514"><ele>325.0</ele><time>2026-04-05T13:54:08.649Z</time></trkpt><trkpt lat="45.6352465" lon="8.2860031"><ele>325.0</ele><time>2026-04-05T13:54:11.652Z</time></trkpt><trkpt lat="45.6352594" lon="8.2859109"><ele>325.0</ele><time>2026-04-05T13:54:12.658Z</time></trkpt><trkpt lat="45.6352778" lon="8.2857977"><ele>325.0</ele><time>2026-04-05T13:54:13.643Z</time></trkpt><trkpt lat="45.6353027" lon="8.2856511"><ele>326.8</ele><time>2026-04-05T13:54:14.651Z</time></trkpt><trkpt lat="45.635322" lon="8.2854944"><ele>328.6</ele><time>2026-04-05T13:54:15.653Z</time></trkpt><trkpt lat="45.6353352" lon="8.2853361"><ele>330.4</ele><time>2026-04-05T13:54:16.652Z</time></trkpt><trkpt lat="45.635347" lon="8.2851934"><ele>332.2</ele><time>2026-04-05T13:54:17.659Z</time></trkpt><trkpt lat="45.6353659" lon="8.2850747"><ele>334.0</ele><time>2026-04-05T13:54:18.654Z</time></trkpt><trkpt lat="45.6353815" lon="8.2849718"><ele>334.0</ele><time>2026-04-05T13:54:19.658Z</time></trkpt><trkpt lat="45.6353791" lon="8.2848632"><ele>334.0</ele><time>2026-04-05T13:54:20.657Z</time></trkpt><trkpt lat="45.6353594" lon="8.2847408"><ele>334.0</ele><time>2026-04-05T13:54:21.653Z</time></trkpt><trkpt lat="45.6353444" lon="8.2846212"><ele>334.0</ele><time>2026-04-05T13:54:22.652Z</time></trkpt><trkpt lat="45.635338" lon="8.2845181"><ele>334.0</ele><time>2026-04-05T13:54:23.649Z</time></trkpt><trkpt lat="45.6353848" lon="8.2844301"><ele>334.0</ele><time>2026-04-05T13:54:25.655Z</time></trkpt><trkpt lat="45.6354744" lon="8.2843592"><ele>335.5</ele><time>2026-04-05T13:54:27.651Z</time></trkpt><trkpt lat="45.6354813" lon="8.284235"><ele>337.0</ele><time>2026-04-05T13:54:29.656Z</time></trkpt><trkpt lat="45.6354516" lon="8.2841513"><ele>338.5</ele><time>2026-04-05T13:54:30.651Z</time></trkpt><trkpt lat="45.6354108" lon="8.2840426"><ele>340.0</ele><time>2026-04-05T13:54:31.655Z</time></trkpt><trkpt lat="45.6353781" lon="8.283917"><ele>341.5</ele><time>2026-04-05T13:54:32.651Z</time></trkpt><trkpt lat="45.6353559" lon="8.2837901"><ele>343.0</ele><time>2026-04-05T13:54:33.65Z</time></trkpt><trkpt lat="45.6353462" lon="8.2836898"><ele>344.8333333333333</ele><time>2026-04-05T13:54:34.656Z</time></trkpt><trkpt lat="45.6353679" lon="8.2835033"><ele>346.66666666666663</ele><time>2026-04-05T13:54:36.66Z</time></trkpt><trkpt lat="45.6353963" lon="8.283404"><ele>348.5</ele><time>2026-04-05T13:54:37.657Z</time></trkpt><trkpt lat="45.6354335" lon="8.2833078"><ele>350.3333333333333</ele><time>2026-04-05T13:54:38.65Z</time></trkpt><trkpt lat="45.6354713" lon="8.2832079"><ele>352.1666666666667</ele><time>2026-04-05T13:54:39.663Z</time></trkpt><trkpt lat="45.6355026" lon="8.2831107"><ele>354.0</ele><time>2026-04-05T13:54:40.66Z</time></trkpt><trkpt lat="45.635548" lon="8.2829387"><ele>354.8333333333333</ele><time>2026-04-05T13:54:42.658Z</time></trkpt><trkpt lat="45.6355799" lon="8.2828331"><ele>355.6666666666667</ele><time>2026-04-05T13:54:43.663Z</time></trkpt><trkpt lat="45.6356109" lon="8.2827194"><ele>356.5</ele><time>2026-04-05T13:54:44.65Z</time></trkpt><trkpt lat="45.6356519" lon="8.282616"><ele>357.33333333333337</ele><time>2026-04-05T13:54:45.656Z</time></trkpt><trkpt lat="45.6356972" lon="8.2825193"><ele>358.1666666666667</ele><time>2026-04-05T13:54:46.656Z</time></trkpt><trkpt lat="45.6357461" lon="8.2824161"><ele>359.0</ele><time>2026-04-05T13:54:47.663Z</time></trkpt><trkpt lat="45.6357925" lon="8.2823004"><ele>359.79999999999995</ele><time>2026-04-05T13:54:48.651Z</time></trkpt><trkpt lat="45.6358377" lon="8.2821783"><ele>360.59999999999997</ele><time>2026-04-05T13:54:49.654Z</time></trkpt><trkpt lat="45.6358859" lon="8.2820494"><ele>361.4</ele><time>2026-04-05T13:54:50.655Z</time></trkpt><trkpt lat="45.6359359" lon="8.2819174"><ele>362.2</ele><time>2026-04-05T13:54:51.662Z</time></trkpt><trkpt lat="45.6359892" lon="8.2817972"><ele>363.0</ele><time>2026-04-05T13:54:52.647Z</time></trkpt><trkpt lat="45.6360386" lon="8.2817064"><ele>363.0</ele><time>2026-04-05T13:54:53.654Z</time></trkpt><trkpt lat="45.6360981" lon="8.2815808"><ele>363.0</ele><time>2026-04-05T13:54:55.657Z</time></trkpt><trkpt lat="45.6360077" lon="8.2815668"><ele>363.0</ele><time>2026-04-05T13:54:59.659Z</time></trkpt><trkpt lat="45.6359264" lon="8.2816193"><ele>363.0</ele><time>2026-04-05T13:55:00.654Z</time></trkpt><trkpt lat="45.635827" lon="8.2816726"><ele>363.0</ele><time>2026-04-05T13:55:01.651Z</time></trkpt><trkpt lat="45.635707" lon="8.2817311"><ele>363.0</ele><time>2026-04-05T13:55:02.652Z</time></trkpt><trkpt lat="45.6355781" lon="8.2817857"><ele>363.0</ele><time>2026-04-05T13:55:03.645Z</time></trkpt><trkpt lat="45.6354463" lon="8.2818395"><ele>363.0</ele><time>2026-04-05T13:55:04.651Z</time></trkpt><trkpt lat="45.6353143" lon="8.2818854"><ele>363.0</ele><time>2026-04-05T13:55:05.655Z</time></trkpt><trkpt lat="45.6351777" lon="8.2819208"><ele>361.25</ele><time>2026-04-05T13:55:06.657Z</time></trkpt><trkpt lat="45.6350455" lon="8.2819533"><ele>359.5</ele><time>2026-04-05T13:55:07.653Z</time></trkpt><trkpt lat="45.6349117" lon="8.2819881"><ele>357.75</ele><time>2026-04-05T13:55:08.651Z</time></trkpt><trkpt lat="45.634777" lon="8.2820217"><ele>356.0</ele><time>2026-04-05T13:55:09.645Z</time></trkpt><trkpt lat="45.6346419" lon="8.2820475"><ele>356.0</ele><time>2026-04-05T13:55:10.649Z</time></trkpt><trkpt lat="45.6345054" lon="8.282057"><ele>356.0</ele><time>2026-04-05T13:55:11.658Z</time></trkpt><trkpt lat="45.6343702" lon="8.2820389"><ele>356.0</ele><time>2026-04-05T13:55:12.662Z</time></trkpt><trkpt lat="45.6342382" lon="8.2819982"><ele>356.0</ele><time>2026-04-05T13:55:13.664Z</time></trkpt><trkpt lat="45.6341041" lon="8.281941"><ele>356.0</ele><time>2026-04-05T13:55:14.653Z</time></trkpt><trkpt lat="45.6339625" lon="8.2818745"><ele>356.0</ele><time>2026-04-05T13:55:15.65Z</time></trkpt><trkpt lat="45.6338234" lon="8.2818066"><ele>356.0</ele><time>2026-04-05T13:55:16.654Z</time></trkpt><trkpt lat="45.6336921" lon="8.2817455"><ele>356.0</ele><time>2026-04-05T13:55:17.664Z</time></trkpt><trkpt lat="45.6335709" lon="8.2816915"><ele>356.0</ele><time>2026-04-05T13:55:18.661Z</time></trkpt><trkpt lat="45.6334562" lon="8.2816401"><ele>356.0</ele><time>2026-04-05T13:55:19.661Z</time></trkpt><trkpt lat="45.6333474" lon="8.2815999"><ele>356.0</ele><time>2026-04-05T13:55:20.657Z</time></trkpt><trkpt lat="45.6332473" lon="8.2815715"><ele>356.0</ele><time>2026-04-05T13:55:21.653Z</time></trkpt><trkpt lat="45.633151" lon="8.2815637"><ele>356.0</ele><time>2026-04-05T13:55:22.652Z</time></trkpt><trkpt lat="45.6330666" lon="8.281581"><ele>356.0</ele><time>2026-04-05T13:55:23.655Z</time></trkpt><trkpt lat="45.6329861" lon="8.2816193"><ele>356.0</ele><time>2026-04-05T13:55:24.653Z</time></trkpt><trkpt lat="45.6329094" lon="8.281677"><ele>356.0</ele><time>2026-04-05T13:55:25.659Z</time></trkpt><trkpt lat="45.6328303" lon="8.2817673"><ele>356.0</ele><time>2026-04-05T13:55:26.652Z</time></trkpt><trkpt lat="45.632744" lon="8.2818731"><ele>356.0</ele><time>2026-04-05T13:55:27.664Z</time></trkpt><trkpt lat="45.6326521" lon="8.2819804"><ele>356.0</ele><time>2026-04-05T13:55:28.656Z</time></trkpt><trkpt lat="45.6325612" lon="8.2820892"><ele>356.0</ele><time>2026-04-05T13:55:29.656Z</time></trkpt><trkpt lat="45.6324713" lon="8.2821931"><ele>356.0</ele><time>2026-04-05T13:55:30.66Z</time></trkpt><trkpt lat="45.6323819" lon="8.2822917"><ele>356.0</ele><time>2026-04-05T13:55:31.655Z</time></trkpt><trkpt lat="45.6322933" lon="8.2823935"><ele>355.8</ele><time>2026-04-05T13:55:32.659Z</time></trkpt><trkpt lat="45.6322056" lon="8.2824935"><ele>355.6</ele><time>2026-04-05T13:55:33.653Z</time></trkpt><trkpt lat="45.6321213" lon="8.282591"><ele>355.4</ele><time>2026-04-05T13:55:34.659Z</time></trkpt><trkpt lat="45.6320438" lon="8.2826832"><ele>355.2</ele><time>2026-04-05T13:55:35.656Z</time></trkpt><trkpt lat="45.6319757" lon="8.2827633"><ele>355.0</ele><time>2026-04-05T13:55:36.651Z</time></trkpt><trkpt lat="45.6319137" lon="8.2828288"><ele>355.0</ele><time>2026-04-05T13:55:37.655Z</time></trkpt><trkpt lat="45.6318627" lon="8.2828846"><ele>355.0</ele><time>2026-04-05T13:55:38.654Z</time></trkpt><trkpt lat="45.6318149" lon="8.2830065"><ele>355.0</ele><time>2026-04-05T13:55:40.658Z</time></trkpt><trkpt lat="45.6318572" lon="8.2831057"><ele>355.0</ele><time>2026-04-05T13:55:42.648Z</time></trkpt><trkpt lat="45.6319716" lon="8.2831174"><ele>355.0</ele><time>2026-04-05T13:55:44.657Z</time></trkpt><trkpt lat="45.6320443" lon="8.2830737"><ele>355.0</ele><time>2026-04-05T13:55:45.65Z</time></trkpt><trkpt lat="45.6321254" lon="8.2829963"><ele>354.4</ele><time>2026-04-05T13:55:46.658Z</time></trkpt><trkpt lat="45.6322078" lon="8.2829072"><ele>353.8</ele><time>2026-04-05T13:55:47.651Z</time></trkpt><trkpt lat="45.6322848" lon="8.2828303"><ele>353.20000000000005</ele><time>2026-04-05T13:55:48.66Z</time></trkpt><trkpt lat="45.6323526" lon="8.2827855"><ele>352.6</ele><time>2026-04-05T13:55:49.648Z</time></trkpt><trkpt lat="45.6324465" lon="8.2828907"><ele>352.0</ele><time>2026-04-05T13:55:51.655Z</time></trkpt><trkpt lat="45.6324562" lon="8.2830242"><ele>351.0</ele><time>2026-04-05T13:55:52.655Z</time></trkpt><trkpt lat="45.6324461" lon="8.2831856"><ele>350.0</ele><time>2026-04-05T13:55:53.658Z</time></trkpt><trkpt lat="45.6324345" lon="8.2833617"><ele>349.0</ele><time>2026-04-05T13:55:54.659Z</time></trkpt><trkpt lat="45.6324215" lon="8.2835424"><ele>348.0</ele><time>2026-04-05T13:55:55.655Z</time></trkpt><trkpt lat="45.6324085" lon="8.2837108"><ele>348.0</ele><time>2026-04-05T13:55:56.658Z</time></trkpt><trkpt lat="45.6323846" lon="8.2838625"><ele>348.0</ele><time>2026-04-05T13:55:57.65Z</time></trkpt><trkpt lat="45.6323365" lon="8.2839902"><ele>348.0</ele><time>2026-04-05T13:55:58.658Z</time></trkpt><trkpt lat="45.6322595" lon="8.2840878"><ele>348.0</ele><time>2026-04-05T13:55:59.656Z</time></trkpt><trkpt lat="45.6321565" lon="8.2841727"><ele>348.0</ele><time>2026-04-05T13:56:00.659Z</time></trkpt><trkpt lat="45.6320382" lon="8.2842734"><ele>347.25</ele><time>2026-04-05T13:56:01.649Z</time></trkpt><trkpt lat="45.631923" lon="8.2843975"><ele>346.5</ele><time>2026-04-05T13:56:02.655Z</time></trkpt><trkpt lat="45.6318155" lon="8.2845461"><ele>345.75</ele><time>2026-04-05T13:56:03.659Z</time></trkpt><trkpt lat="45.6317162" lon="8.2847083"><ele>345.0</ele><time>2026-04-05T13:56:04.651Z</time></trkpt><trkpt lat="45.6316238" lon="8.2848732"><ele>343.5</ele><time>2026-04-05T13:56:05.648Z</time></trkpt><trkpt lat="45.6315393" lon="8.2850396"><ele>342.0</ele><time>2026-04-05T13:56:06.649Z</time></trkpt><trkpt lat="45.6314583" lon="8.2852017"><ele>340.5</ele><time>2026-04-05T13:56:07.658Z</time></trkpt><trkpt lat="45.6313845" lon="8.285362"><ele>339.0</ele><time>2026-04-05T13:56:08.658Z</time></trkpt><trkpt lat="45.6313175" lon="8.2855153"><ele>338.2</ele><time>2026-04-05T13:56:09.655Z</time></trkpt><trkpt lat="45.6312584" lon="8.2856571"><ele>337.4</ele><time>2026-04-05T13:56:10.655Z</time></trkpt><trkpt lat="45.631204" lon="8.2857798"><ele>336.6</ele><time>2026-04-05T13:56:11.646Z</time></trkpt><trkpt lat="45.6311548" lon="8.2858906"><ele>335.8</ele><time>2026-04-05T13:56:12.667Z</time></trkpt><trkpt lat="45.6311182" lon="8.2859918"><ele>335.0</ele><time>2026-04-05T13:56:13.653Z</time></trkpt><trkpt lat="45.6311018" lon="8.2860939"><ele>335.0</ele><time>2026-04-05T13:56:14.646Z</time></trkpt><trkpt lat="45.6311187" lon="8.2861983"><ele>335.0</ele><time>2026-04-05T13:56:15.653Z</time></trkpt><trkpt lat="45.6312035" lon="8.2862981"><ele>335.0</ele><time>2026-04-05T13:56:16.657Z</time></trkpt><trkpt lat="45.6313124" lon="8.2863942"><ele>335.0</ele><time>2026-04-05T13:56:17.653Z</time></trkpt><trkpt lat="45.6314279" lon="8.2864952"><ele>335.0</ele><time>2026-04-05T13:56:18.656Z</time></trkpt><trkpt lat="45.6315497" lon="8.2866047"><ele>333.5</ele><time>2026-04-05T13:56:19.644Z</time></trkpt><trkpt lat="45.6316684" lon="8.2867186"><ele>332.0</ele><time>2026-04-05T13:56:20.657Z</time></trkpt><trkpt lat="45.6317803" lon="8.2868297"><ele>330.5</ele><time>2026-04-05T13:56:21.652Z</time></trkpt><trkpt lat="45.6318867" lon="8.2869357"><ele>329.0</ele><time>2026-04-05T13:56:22.655Z</time></trkpt><trkpt lat="45.63199" lon="8.2870351"><ele>329.0</ele><time>2026-04-05T13:56:23.652Z</time></trkpt><trkpt lat="45.63209" lon="8.2871303"><ele>329.0</ele><time>2026-04-05T13:56:24.656Z</time></trkpt><trkpt lat="45.6321868" lon="8.2872229"><ele>329.0</ele><time>2026-04-05T13:56:25.651Z</time></trkpt><trkpt lat="45.6322775" lon="8.2873191"><ele>329.0</ele><time>2026-04-05T13:56:26.647Z</time></trkpt><trkpt lat="45.6323595" lon="8.2874206"><ele>326.8</ele><time>2026-04-05T13:56:27.644Z</time></trkpt><trkpt lat="45.63242" lon="8.287535"><ele>324.59999999999997</ele><time>2026-04-05T13:56:28.665Z</time></trkpt><trkpt lat="45.632455" lon="8.2876654"><ele>322.4</ele><time>2026-04-05T13:56:29.638Z</time></trkpt><trkpt lat="45.6324647" lon="8.2878118"><ele>320.2</ele><time>2026-04-05T13:56:30.658Z</time></trkpt><trkpt lat="45.632454" lon="8.2879555"><ele>318.0</ele><time>2026-04-05T13:56:31.653Z</time></trkpt><trkpt lat="45.6324328" lon="8.2880981"><ele>316.6</ele><time>2026-04-05T13:56:32.653Z</time></trkpt><trkpt lat="45.6324076" lon="8.2882368"><ele>315.20000000000005</ele><time>2026-04-05T13:56:33.648Z</time></trkpt><trkpt lat="45.632385" lon="8.2883778"><ele>313.8</ele><time>2026-04-05T13:56:34.658Z</time></trkpt><trkpt lat="45.6323621" lon="8.2885226"><ele>312.40000000000003</ele><time>2026-04-05T13:56:35.66Z</time></trkpt><trkpt lat="45.6323367" lon="8.2886697"><ele>311.0</ele><time>2026-04-05T13:56:36.656Z</time></trkpt><trkpt lat="45.6323077" lon="8.2888195"><ele>312.83333333333337</ele><time>2026-04-05T13:56:37.649Z</time></trkpt><trkpt lat="45.6322771" lon="8.2889589"><ele>314.6666666666667</ele><time>2026-04-05T13:56:38.662Z</time></trkpt><trkpt lat="45.6322365" lon="8.2890697"><ele>316.5</ele><time>2026-04-05T13:56:39.657Z</time></trkpt><trkpt lat="45.6321849" lon="8.2891633"><ele>318.3333333333333</ele><time>2026-04-05T13:56:40.659Z</time></trkpt><trkpt lat="45.6321241" lon="8.2892463"><ele>320.16666666666663</ele><time>2026-04-05T13:56:41.648Z</time></trkpt><trkpt lat="45.6320576" lon="8.2893025"><ele>322.0</ele><time>2026-04-05T13:56:42.656Z</time></trkpt><trkpt lat="45.6319879" lon="8.2893278"><ele>321.20000000000005</ele><time>2026-04-05T13:56:43.657Z</time></trkpt><trkpt lat="45.6319116" lon="8.2892836"><ele>320.40000000000003</ele><time>2026-04-05T13:56:44.662Z</time></trkpt><trkpt lat="45.6318401" lon="8.2891952"><ele>319.6</ele><time>2026-04-05T13:56:45.654Z</time></trkpt><trkpt lat="45.6317691" lon="8.2890883"><ele>318.8</ele><time>2026-04-05T13:56:46.649Z</time></trkpt><trkpt lat="45.6317037" lon="8.288988"><ele>318.0</ele><time>2026-04-05T13:56:47.651Z</time></trkpt><trkpt lat="45.6316453" lon="8.2888926"><ele>316.6666666666667</ele><time>2026-04-05T13:56:48.649Z</time></trkpt><trkpt lat="45.6315917" lon="8.2888134"><ele>315.3333333333333</ele><time>2026-04-05T13:56:49.657Z</time></trkpt><trkpt lat="45.6315461" lon="8.2887447"><ele>314.0</ele><time>2026-04-05T13:56:50.666Z</time></trkpt><trkpt lat="45.6314689" lon="8.2886375"><ele>312.66666666666663</ele><time>2026-04-05T13:56:52.662Z</time></trkpt><trkpt lat="45.6314225" lon="8.2885692"><ele>311.3333333333333</ele><time>2026-04-05T13:56:54.654Z</time></trkpt><trkpt lat="45.6313701" lon="8.2885152"><ele>310.0</ele><time>2026-04-05T13:56:58.656Z</time></trkpt><trkpt lat="45.6313032" lon="8.2884602"><ele>310.0</ele><time>2026-04-05T13:57:01.652Z</time></trkpt><trkpt lat="45.6312379" lon="8.2884668"><ele>310.0</ele><time>2026-04-05T13:57:03.647Z</time></trkpt><trkpt lat="45.6313088" lon="8.2884548"><ele>310.0</ele><time>2026-04-05T13:57:14.65Z</time></trkpt><trkpt lat="45.6313964" lon="8.2885006"><ele>310.0</ele><time>2026-04-05T13:57:18.617Z</time></trkpt><trkpt lat="45.6314947" lon="8.2886366"><ele>310.0</ele><time>2026-04-05T13:57:20.657Z</time></trkpt><trkpt lat="45.631555" lon="8.2887176"><ele>310.0</ele><time>2026-04-05T13:57:21.651Z</time></trkpt><trkpt lat="45.6316124" lon="8.2888077"><ele>310.0</ele><time>2026-04-05T13:57:22.66Z</time></trkpt><trkpt lat="45.6316619" lon="8.2889014"><ele>310.0</ele><time>2026-04-05T13:57:23.655Z</time></trkpt><trkpt lat="45.6317127" lon="8.2890032"><ele>310.0</ele><time>2026-04-05T13:57:24.652Z</time></trkpt><trkpt lat="45.6317672" lon="8.2891107"><ele>310.0</ele><time>2026-04-05T13:57:25.657Z</time></trkpt><trkpt lat="45.6318183" lon="8.2892169"><ele>310.0</ele><time>2026-04-05T13:57:26.654Z</time></trkpt><trkpt lat="45.6318542" lon="8.2893033"><ele>311.3333333333333</ele><time>2026-04-05T13:57:27.658Z</time></trkpt><trkpt lat="45.6318665" lon="8.2894054"><ele>312.66666666666663</ele><time>2026-04-05T13:57:29.66Z</time></trkpt><trkpt lat="45.6317864" lon="8.2894612"><ele>314.0</ele><time>2026-04-05T13:57:31.651Z</time></trkpt><trkpt lat="45.6317162" lon="8.2894719"><ele>315.3333333333333</ele><time>2026-04-05T13:57:32.645Z</time></trkpt><trkpt lat="45.6316245" lon="8.2894841"><ele>316.6666666666667</ele><time>2026-04-05T13:57:33.667Z</time></trkpt><trkpt lat="45.631516" lon="8.2895069"><ele>318.0</ele><time>2026-04-05T13:57:34.654Z</time></trkpt><trkpt lat="45.6313893" lon="8.2895328"><ele>318.0</ele><time>2026-04-05T13:57:35.648Z</time></trkpt><trkpt lat="45.6312565" lon="8.2895524"><ele>318.0</ele><time>2026-04-05T13:57:36.65Z</time></trkpt><trkpt lat="45.6311312" lon="8.2895601"><ele>318.0</ele><time>2026-04-05T13:57:37.656Z</time></trkpt><trkpt lat="45.6310181" lon="8.289552"><ele>318.0</ele><time>2026-04-05T13:57:38.658Z</time></trkpt><trkpt lat="45.6309127" lon="8.2895286"><ele>319.4</ele><time>2026-04-05T13:57:39.654Z</time></trkpt><trkpt lat="45.6308157" lon="8.2894938"><ele>320.8</ele><time>2026-04-05T13:57:40.653Z</time></trkpt><trkpt lat="45.630738" lon="8.2894173"><ele>322.2</ele><time>2026-04-05T13:57:41.65Z</time></trkpt><trkpt lat="45.6306818" lon="8.2892936"><ele>323.6</ele><time>2026-04-05T13:57:42.657Z</time></trkpt><trkpt lat="45.6306413" lon="8.2891569"><ele>325.0</ele><time>2026-04-05T13:57:43.663Z</time></trkpt><trkpt lat="45.6306121" lon="8.2890232"><ele>323.6</ele><time>2026-04-05T13:57:44.65Z</time></trkpt><trkpt lat="45.630574" lon="8.288913"><ele>322.2</ele><time>2026-04-05T13:57:45.655Z</time></trkpt><trkpt lat="45.6305232" lon="8.2888193"><ele>320.8</ele><time>2026-04-05T13:57:46.659Z</time></trkpt><trkpt lat="45.6304463" lon="8.2887472"><ele>319.4</ele><time>2026-04-05T13:57:47.664Z</time></trkpt><trkpt lat="45.6303484" lon="8.2887223"><ele>318.0</ele><time>2026-04-05T13:57:48.661Z</time></trkpt><trkpt lat="45.6302486" lon="8.2887355"><ele>318.0</ele><time>2026-04-05T13:57:49.662Z</time></trkpt><trkpt lat="45.6301543" lon="8.2887814"><ele>318.0</ele><time>2026-04-05T13:57:50.66Z</time></trkpt><trkpt lat="45.6300752" lon="8.2888556"><ele>318.0</ele><time>2026-04-05T13:57:51.659Z</time></trkpt><trkpt lat="45.6300121" lon="8.2889562"><ele>318.0</ele><time>2026-04-05T13:57:52.662Z</time></trkpt><trkpt lat="45.6299779" lon="8.2890991"><ele>318.0</ele><time>2026-04-05T13:57:53.653Z</time></trkpt><trkpt lat="45.6299579" lon="8.289279"><ele>321.0</ele><time>2026-04-05T13:57:54.652Z</time></trkpt><trkpt lat="45.6299299" lon="8.2894568"><ele>324.0</ele><time>2026-04-05T13:57:55.646Z</time></trkpt><trkpt lat="45.6298749" lon="8.289627"><ele>327.0</ele><time>2026-04-05T13:57:56.651Z</time></trkpt><trkpt lat="45.6297914" lon="8.2897642"><ele>330.0</ele><time>2026-04-05T13:57:57.651Z</time></trkpt><trkpt lat="45.6296982" lon="8.2898784"><ele>332.2</ele><time>2026-04-05T13:57:58.65Z</time></trkpt><trkpt lat="45.6296246" lon="8.2899868"><ele>334.4</ele><time>2026-04-05T13:57:59.657Z</time></trkpt><trkpt lat="45.6295788" lon="8.2901121"><ele>336.6</ele><time>2026-04-05T13:58:00.655Z</time></trkpt><trkpt lat="45.6295615" lon="8.2902606"><ele>338.8</ele><time>2026-04-05T13:58:01.656Z</time></trkpt><trkpt lat="45.6295557" lon="8.2904007"><ele>341.0</ele><time>2026-04-05T13:58:02.651Z</time></trkpt><trkpt lat="45.6295287" lon="8.2905115"><ele>341.33333333333337</ele><time>2026-04-05T13:58:03.655Z</time></trkpt><trkpt lat="45.6294869" lon="8.2905929"><ele>341.6666666666667</ele><time>2026-04-05T13:58:04.647Z</time></trkpt><trkpt lat="45.629408" lon="8.2906172"><ele>342.0</ele><time>2026-04-05T13:58:05.651Z</time></trkpt><trkpt lat="45.6293097" lon="8.2906124"><ele>342.3333333333333</ele><time>2026-04-05T13:58:06.654Z</time></trkpt><trkpt lat="45.6292093" lon="8.2906086"><ele>342.66666666666663</ele><time>2026-04-05T13:58:07.647Z</time></trkpt><trkpt lat="45.6291116" lon="8.2906257"><ele>343.0</ele><time>2026-04-05T13:58:08.654Z</time></trkpt><trkpt lat="45.6290259" lon="8.2906646"><ele>343.0</ele><time>2026-04-05T13:58:09.648Z</time></trkpt><trkpt lat="45.6289624" lon="8.2907191"><ele>343.0</ele><time>2026-04-05T13:58:10.653Z</time></trkpt><trkpt lat="45.6289159" lon="8.2907906"><ele>343.0</ele><time>2026-04-05T13:58:11.647Z</time></trkpt><trkpt lat="45.628892" lon="8.2908879"><ele>343.0</ele><time>2026-04-05T13:58:12.651Z</time></trkpt><trkpt lat="45.628894" lon="8.2910109"><ele>343.0</ele><time>2026-04-05T13:58:13.656Z</time></trkpt><trkpt lat="45.6289171" lon="8.2911511"><ele>343.0</ele><time>2026-04-05T13:58:14.649Z</time></trkpt><trkpt lat="45.6289527" lon="8.2913082"><ele>344.4</ele><time>2026-04-05T13:58:15.656Z</time></trkpt><trkpt lat="45.6289779" lon="8.291466"><ele>345.79999999999995</ele><time>2026-04-05T13:58:16.651Z</time></trkpt><trkpt lat="45.6289698" lon="8.2916158"><ele>347.2</ele><time>2026-04-05T13:58:17.653Z</time></trkpt><trkpt lat="45.6289302" lon="8.2917495"><ele>348.6</ele><time>2026-04-05T13:58:18.659Z</time></trkpt><trkpt lat="45.6288618" lon="8.2918676"><ele>350.0</ele><time>2026-04-05T13:58:19.652Z</time></trkpt><trkpt lat="45.6287726" lon="8.2919748"><ele>350.0</ele><time>2026-04-05T13:58:20.655Z</time></trkpt><trkpt lat="45.6286782" lon="8.2920756"><ele>350.0</ele><time>2026-04-05T13:58:21.657Z</time></trkpt><trkpt lat="45.6285756" lon="8.2921737"><ele>350.0</ele><time>2026-04-05T13:58:22.648Z</time></trkpt><trkpt lat="45.6284693" lon="8.2922597"><ele>350.0</ele><time>2026-04-05T13:58:23.654Z</time></trkpt><trkpt lat="45.6283652" lon="8.2923285"><ele>349.83333333333337</ele><time>2026-04-05T13:58:24.659Z</time></trkpt><trkpt lat="45.6282722" lon="8.2923908"><ele>349.6666666666667</ele><time>2026-04-05T13:58:25.661Z</time></trkpt><trkpt lat="45.6281933" lon="8.2924498"><ele>349.5</ele><time>2026-04-05T13:58:26.657Z</time></trkpt><trkpt lat="45.6281267" lon="8.292515"><ele>349.3333333333333</ele><time>2026-04-05T13:58:27.653Z</time></trkpt><trkpt lat="45.6280751" lon="8.292591"><ele>349.16666666666663</ele><time>2026-04-05T13:58:28.658Z</time></trkpt><trkpt lat="45.6280381" lon="8.2926709"><ele>349.0</ele><time>2026-04-05T13:58:29.653Z</time></trkpt><trkpt lat="45.6280056" lon="8.2927522"><ele>349.0</ele><time>2026-04-05T13:58:30.669Z</time></trkpt><trkpt lat="45.6279654" lon="8.292894"><ele>349.0</ele><time>2026-04-05T13:58:32.653Z</time></trkpt><trkpt lat="45.6279935" lon="8.293014"><ele>349.0</ele><time>2026-04-05T13:58:34.647Z</time></trkpt><trkpt lat="45.6280478" lon="8.2931239"><ele>349.0</ele><time>2026-04-05T13:58:36.651Z</time></trkpt><trkpt lat="45.6280913" lon="8.2932187"><ele>349.0</ele><time>2026-04-05T13:58:38.658Z</time></trkpt><trkpt lat="45.6281847" lon="8.293268"><ele>348.8333333333333</ele><time>2026-04-05T13:58:40.653Z</time></trkpt><trkpt lat="45.6282477" lon="8.2932789"><ele>348.66666666666663</ele><time>2026-04-05T13:58:41.647Z</time></trkpt><trkpt lat="45.6283282" lon="8.2932817"><ele>348.5</ele><time>2026-04-05T13:58:42.669Z</time></trkpt><trkpt lat="45.628413" lon="8.2932733"><ele>348.3333333333333</ele><time>2026-04-05T13:58:43.652Z</time></trkpt><trkpt lat="45.6284972" lon="8.2932591"><ele>348.1666666666667</ele><time>2026-04-05T13:58:44.662Z</time></trkpt><trkpt lat="45.6285735" lon="8.2932388"><ele>348.0</ele><time>2026-04-05T13:58:45.654Z</time></trkpt><trkpt lat="45.6286425" lon="8.2932175"><ele>348.2857142857143</ele><time>2026-04-05T13:58:46.662Z</time></trkpt><trkpt lat="45.6287055" lon="8.2931847"><ele>348.57142857142856</ele><time>2026-04-05T13:58:47.654Z</time></trkpt><trkpt lat="45.6287729" lon="8.2931405"><ele>348.8571428571429</ele><time>2026-04-05T13:58:48.65Z</time></trkpt><trkpt lat="45.6288312" lon="8.2930857"><ele>349.1428571428571</ele><time>2026-04-05T13:58:49.662Z</time></trkpt><trkpt lat="45.6288869" lon="8.2930255"><ele>349.42857142857144</ele><time>2026-04-05T13:58:50.652Z</time></trkpt><trkpt lat="45.6289437" lon="8.2929602"><ele>349.7142857142857</ele><time>2026-04-05T13:58:51.661Z</time></trkpt><trkpt lat="45.629003" lon="8.2928958"><ele>350.0</ele><time>2026-04-05T13:58:52.648Z</time></trkpt><trkpt lat="45.6290631" lon="8.2928311"><ele>350.7142857142857</ele><time>2026-04-05T13:58:53.656Z</time></trkpt><trkpt lat="45.6291168" lon="8.2927659"><ele>351.42857142857144</ele><time>2026-04-05T13:58:54.65Z</time></trkpt><trkpt lat="45.6291714" lon="8.2927018"><ele>352.1428571428571</ele><time>2026-04-05T13:58:55.656Z</time></trkpt><trkpt lat="45.6292286" lon="8.2926369"><ele>352.8571428571429</ele><time>2026-04-05T13:58:56.657Z</time></trkpt><trkpt lat="45.6292795" lon="8.2925715"><ele>353.57142857142856</ele><time>2026-04-05T13:58:57.648Z</time></trkpt><trkpt lat="45.6293285" lon="8.292499"><ele>354.2857142857143</ele><time>2026-04-05T13:58:58.654Z</time></trkpt><trkpt lat="45.6293723" lon="8.2924238"><ele>355.0</ele><time>2026-04-05T13:58:59.658Z</time></trkpt><trkpt lat="45.6294091" lon="8.2923492"><ele>356.4</ele><time>2026-04-05T13:59:00.653Z</time></trkpt><trkpt lat="45.6294801" lon="8.2922065"><ele>357.8</ele><time>2026-04-05T13:59:02.658Z</time></trkpt><trkpt lat="45.6295517" lon="8.2920843"><ele>359.20000000000005</ele><time>2026-04-05T13:59:04.644Z</time></trkpt><trkpt lat="45.6296202" lon="8.2919627"><ele>360.6</ele><time>2026-04-05T13:59:06.66Z</time></trkpt><trkpt lat="45.6296829" lon="8.2918414"><ele>362.0</ele><time>2026-04-05T13:59:08.652Z</time></trkpt><trkpt lat="45.6297656" lon="8.2917403"><ele>362.0</ele><time>2026-04-05T13:59:10.656Z</time></trkpt><trkpt lat="45.6298709" lon="8.291681"><ele>362.0</ele><time>2026-04-05T13:59:12.645Z</time></trkpt><trkpt lat="45.6299748" lon="8.2916203"><ele>362.0</ele><time>2026-04-05T13:59:14.663Z</time></trkpt><trkpt lat="45.6300764" lon="8.291556"><ele>362.0</ele><time>2026-04-05T13:59:16.656Z</time></trkpt><trkpt lat="45.6301832" lon="8.291518"><ele>362.0</ele><time>2026-04-05T13:59:18.66Z</time></trkpt><trkpt lat="45.6302753" lon="8.2914865"><ele>362.8</ele><time>2026-04-05T13:59:20.655Z</time></trkpt><trkpt lat="45.6303627" lon="8.2914974"><ele>363.6</ele><time>2026-04-05T13:59:22.647Z</time></trkpt><trkpt lat="45.6304503" lon="8.2915473"><ele>364.40000000000003</ele><time>2026-04-05T13:59:24.649Z</time></trkpt><trkpt lat="45.630551" lon="8.2916023"><ele>365.20000000000005</ele><time>2026-04-05T13:59:26.65Z</time></trkpt><trkpt lat="45.6306484" lon="8.2916382"><ele>366.0</ele><time>2026-04-05T13:59:42.647Z</time></trkpt><trkpt lat="45.6307634" lon="8.291637"><ele>366.0</ele><time>2026-04-05T13:59:44.651Z</time></trkpt><trkpt lat="45.6308335" lon="8.2916308"><ele>366.0</ele><time>2026-04-05T13:59:45.651Z</time></trkpt><trkpt lat="45.6309105" lon="8.2916431"><ele>366.0</ele><time>2026-04-05T13:59:46.661Z</time></trkpt><trkpt lat="45.6309857" lon="8.2916652"><ele>366.0</ele><time>2026-04-05T13:59:47.647Z</time></trkpt><trkpt lat="45.6310633" lon="8.2916862"><ele>366.0</ele><time>2026-04-05T13:59:48.658Z</time></trkpt><trkpt lat="45.6311412" lon="8.2916945"><ele>366.0</ele><time>2026-04-05T13:59:49.649Z</time></trkpt><trkpt lat="45.6312204" lon="8.2916947"><ele>366.3333333333333</ele><time>2026-04-05T13:59:50.652Z</time></trkpt><trkpt lat="45.6312962" lon="8.2916937"><ele>366.6666666666667</ele><time>2026-04-05T13:59:51.648Z</time></trkpt><trkpt lat="45.6313715" lon="8.291697"><ele>367.0</ele><time>2026-04-05T13:59:52.654Z</time></trkpt><trkpt lat="45.6314476" lon="8.291698"><ele>367.33333333333337</ele><time>2026-04-05T13:59:53.642Z</time></trkpt><trkpt lat="45.6315301" lon="8.2916995"><ele>367.6666666666667</ele><time>2026-04-05T13:59:54.654Z</time></trkpt><trkpt lat="45.631611" lon="8.2916999"><ele>368.0</ele><time>2026-04-05T13:59:55.651Z</time></trkpt><trkpt lat="45.6317003" lon="8.2917109"><ele>368.0</ele><time>2026-04-05T13:59:56.649Z</time></trkpt><trkpt lat="45.631793" lon="8.2917489"><ele>368.0</ele><time>2026-04-05T13:59:57.652Z</time></trkpt><trkpt lat="45.631884" lon="8.2918084"><ele>368.0</ele><time>2026-04-05T13:59:58.65Z</time></trkpt><trkpt lat="45.6319733" lon="8.2918854"><ele>368.0</ele><time>2026-04-05T13:59:59.655Z</time></trkpt><trkpt lat="45.632059" lon="8.2919713"><ele>368.0</ele><time>2026-04-05T14:00:00.663Z</time></trkpt><trkpt lat="45.6321416" lon="8.2920639"><ele>367.79999999999995</ele><time>2026-04-05T14:00:01.664Z</time></trkpt><trkpt lat="45.6322298" lon="8.2921531"><ele>367.6</ele><time>2026-04-05T14:00:02.661Z</time></trkpt><trkpt lat="45.6323249" lon="8.2922369"><ele>367.4</ele><time>2026-04-05T14:00:03.654Z</time></trkpt><trkpt lat="45.6324203" lon="8.2923038"><ele>367.20000000000005</ele><time>2026-04-05T14:00:04.646Z</time></trkpt><trkpt lat="45.6325099" lon="8.2923547"><ele>367.0</ele><time>2026-04-05T14:00:05.658Z</time></trkpt><trkpt lat="45.6325966" lon="8.292419"><ele>367.0</ele><time>2026-04-05T14:00:06.651Z</time></trkpt><trkpt lat="45.6326721" lon="8.2925066"><ele>367.0</ele><time>2026-04-05T14:00:07.647Z</time></trkpt><trkpt lat="45.6327434" lon="8.2926144"><ele>367.0</ele><time>2026-04-05T14:00:08.654Z</time></trkpt><trkpt lat="45.6328245" lon="8.2927215"><ele>367.0</ele><time>2026-04-05T14:00:09.657Z</time></trkpt><trkpt lat="45.6329183" lon="8.2928087"><ele>367.0</ele><time>2026-04-05T14:00:10.652Z</time></trkpt><trkpt lat="45.6330222" lon="8.2928603"><ele>368.3333333333333</ele><time>2026-04-05T14:00:11.656Z</time></trkpt><trkpt lat="45.6331252" lon="8.2929085"><ele>369.66666666666663</ele><time>2026-04-05T14:00:12.651Z</time></trkpt><trkpt lat="45.6332118" lon="8.2929659"><ele>371.0</ele><time>2026-04-05T14:00:13.659Z</time></trkpt><trkpt lat="45.6332867" lon="8.2930127"><ele>372.3333333333333</ele><time>2026-04-05T14:00:14.664Z</time></trkpt><trkpt lat="45.6333617" lon="8.2930049"><ele>373.6666666666667</ele><time>2026-04-05T14:00:15.647Z</time></trkpt><trkpt lat="45.6334427" lon="8.2929788"><ele>375.0</ele><time>2026-04-05T14:00:16.656Z</time></trkpt><trkpt lat="45.6335231" lon="8.2929752"><ele>375.0</ele><time>2026-04-05T14:00:17.656Z</time></trkpt><trkpt lat="45.6336145" lon="8.2930039"><ele>375.0</ele><time>2026-04-05T14:00:18.654Z</time></trkpt><trkpt lat="45.6337084" lon="8.2930571"><ele>375.0</ele><time>2026-04-05T14:00:19.652Z</time></trkpt><trkpt lat="45.6337977" lon="8.2931279"><ele>375.0</ele><time>2026-04-05T14:00:20.661Z</time></trkpt><trkpt lat="45.633877" lon="8.2931959"><ele>375.0</ele><time>2026-04-05T14:00:21.644Z</time></trkpt><trkpt lat="45.6339479" lon="8.2932659"><ele>376.0</ele><time>2026-04-05T14:00:22.656Z</time></trkpt><trkpt lat="45.6340078" lon="8.2933401"><ele>377.0</ele><time>2026-04-05T14:00:23.657Z</time></trkpt><trkpt lat="45.6340548" lon="8.2934335"><ele>378.0</ele><time>2026-04-05T14:00:24.645Z</time></trkpt><trkpt lat="45.6340974" lon="8.2935328"><ele>379.0</ele><time>2026-04-05T14:00:25.652Z</time></trkpt><trkpt lat="45.6341434" lon="8.2936268"><ele>380.0</ele><time>2026-04-05T14:00:26.664Z</time></trkpt><trkpt lat="45.6341801" lon="8.2937119"><ele>381.0</ele><time>2026-04-05T14:00:27.659Z</time></trkpt><trkpt lat="45.6342038" lon="8.293876"><ele>383.75</ele><time>2026-04-05T14:00:29.656Z</time></trkpt><trkpt lat="45.6341981" lon="8.2940563"><ele>386.5</ele><time>2026-04-05T14:00:31.664Z</time></trkpt><trkpt lat="45.6342772" lon="8.2942205"><ele>389.25</ele><time>2026-04-05T14:00:33.66Z</time></trkpt><trkpt lat="45.6343729" lon="8.2942828"><ele>392.0</ele><time>2026-04-05T14:00:34.66Z</time></trkpt><trkpt lat="45.6344971" lon="8.2943233"><ele>392.0</ele><time>2026-04-05T14:00:35.654Z</time></trkpt><trkpt lat="45.6346421" lon="8.2943519"><ele>392.0</ele><time>2026-04-05T14:00:36.662Z</time></trkpt><trkpt lat="45.6348046" lon="8.294383"><ele>392.0</ele><time>2026-04-05T14:00:37.662Z</time></trkpt><trkpt lat="45.6349604" lon="8.2944129"><ele>392.0</ele><time>2026-04-05T14:00:38.664Z</time></trkpt><trkpt lat="45.6350947" lon="8.2944323"><ele>392.0</ele><time>2026-04-05T14:00:39.649Z</time></trkpt><trkpt lat="45.6352138" lon="8.2944552"><ele>392.0</ele><time>2026-04-05T14:00:40.655Z</time></trkpt><trkpt lat="45.6353136" lon="8.2944923"><ele>392.0</ele><time>2026-04-05T14:00:41.653Z</time></trkpt><trkpt lat="45.6354018" lon="8.2945502"><ele>394.40000000000003</ele><time>2026-04-05T14:00:42.649Z</time></trkpt><trkpt lat="45.6354765" lon="8.2946386"><ele>396.8</ele><time>2026-04-05T14:00:43.656Z</time></trkpt><trkpt lat="45.6355255" lon="8.2947461"><ele>399.2</ele><time>2026-04-05T14:00:44.644Z</time></trkpt><trkpt lat="45.6355574" lon="8.294862"><ele>401.6</ele><time>2026-04-05T14:00:45.652Z</time></trkpt><trkpt lat="45.6355854" lon="8.2949828"><ele>404.0</ele><time>2026-04-05T14:00:46.654Z</time></trkpt><trkpt lat="45.6356215" lon="8.2951084"><ele>405.49999999999994</ele><time>2026-04-05T14:00:47.647Z</time></trkpt><trkpt lat="45.6356659" lon="8.2952375"><ele>407.0</ele><time>2026-04-05T14:00:48.648Z</time></trkpt><trkpt lat="45.6357116" lon="8.295369"><ele>408.5</ele><time>2026-04-05T14:00:49.65Z</time></trkpt><trkpt lat="45.6357571" lon="8.2954867"><ele>410.0</ele><time>2026-04-05T14:00:50.654Z</time></trkpt><trkpt lat="45.6357995" lon="8.2955833"><ele>411.49999999999994</ele><time>2026-04-05T14:00:51.644Z</time></trkpt><trkpt lat="45.6358428" lon="8.2956544"><ele>413.0</ele><time>2026-04-05T14:00:52.656Z</time></trkpt><trkpt lat="45.6359451" lon="8.2957066"><ele>412.99999999999994</ele><time>2026-04-05T14:00:54.647Z</time></trkpt><trkpt lat="45.6360176" lon="8.2956857"><ele>413.0</ele><time>2026-04-05T14:00:55.651Z</time></trkpt><trkpt lat="45.6360953" lon="8.2956678"><ele>413.0</ele><time>2026-04-05T14:00:56.65Z</time></trkpt><trkpt lat="45.6361745" lon="8.2956846"><ele>413.0</ele><time>2026-04-05T14:00:57.649Z</time></trkpt><trkpt lat="45.636242" lon="8.2957703"><ele>412.99999999999994</ele><time>2026-04-05T14:00:58.655Z</time></trkpt><trkpt lat="45.6362996" lon="8.2959006"><ele>413.0</ele><time>2026-04-05T14:00:59.642Z</time></trkpt><trkpt lat="45.6363489" lon="8.2960536"><ele>413.75</ele><time>2026-04-05T14:01:00.655Z</time></trkpt><trkpt lat="45.6363953" lon="8.2962069"><ele>414.5</ele><time>2026-04-05T14:01:01.653Z</time></trkpt><trkpt lat="45.6364431" lon="8.2963594"><ele>415.25</ele><time>2026-04-05T14:01:02.65Z</time></trkpt><trkpt lat="45.636489" lon="8.2965134"><ele>416.0</ele><time>2026-04-05T14:01:03.654Z</time></trkpt><trkpt lat="45.6365308" lon="8.2966682"><ele>416.0</ele><time>2026-04-05T14:01:04.656Z</time></trkpt><trkpt lat="45.6365747" lon="8.2968279"><ele>416.0</ele><time>2026-04-05T14:01:05.652Z</time></trkpt><trkpt lat="45.6366279" lon="8.2969963"><ele>416.0</ele><time>2026-04-05T14:01:06.66Z</time></trkpt><trkpt lat="45.6366923" lon="8.2971585"><ele>416.0</ele><time>2026-04-05T14:01:07.649Z</time></trkpt><trkpt lat="45.6367686" lon="8.2973166"><ele>416.0</ele><time>2026-04-05T14:01:08.657Z</time></trkpt><trkpt lat="45.6368508" lon="8.2974699"><ele>416.0</ele><time>2026-04-05T14:01:09.649Z</time></trkpt><trkpt lat="45.6369351" lon="8.2976273"><ele>416.0</ele><time>2026-04-05T14:01:10.652Z</time></trkpt><trkpt lat="45.6370102" lon="8.2977841"><ele>416.0</ele><time>2026-04-05T14:01:11.648Z</time></trkpt><trkpt lat="45.6370778" lon="8.2979477"><ele>419.5</ele><time>2026-04-05T14:01:12.655Z</time></trkpt><trkpt lat="45.6371435" lon="8.2981115"><ele>423.0</ele><time>2026-04-05T14:01:13.651Z</time></trkpt><trkpt lat="45.6372126" lon="8.2982707"><ele>426.5</ele><time>2026-04-05T14:01:14.646Z</time></trkpt><trkpt lat="45.637287" lon="8.2984205"><ele>430.0</ele><time>2026-04-05T14:01:15.648Z</time></trkpt><trkpt lat="45.6373656" lon="8.2985599"><ele>430.0</ele><time>2026-04-05T14:01:16.65Z</time></trkpt><trkpt lat="45.6374395" lon="8.2986921"><ele>430.0</ele><time>2026-04-05T14:01:17.66Z</time></trkpt><trkpt lat="45.6375061" lon="8.298809"><ele>430.0</ele><time>2026-04-05T14:01:18.655Z</time></trkpt><trkpt lat="45.6375598" lon="8.2989089"><ele>430.0</ele><time>2026-04-05T14:01:19.649Z</time></trkpt><trkpt lat="45.6376018" lon="8.2989986"><ele>430.0</ele><time>2026-04-05T14:01:20.646Z</time></trkpt><trkpt lat="45.6376362" lon="8.2990848"><ele>431.0</ele><time>2026-04-05T14:01:21.653Z</time></trkpt><trkpt lat="45.637668" lon="8.2991733"><ele>432.0</ele><time>2026-04-05T14:01:22.656Z</time></trkpt><trkpt lat="45.6377012" lon="8.2992617"><ele>433.0</ele><time>2026-04-05T14:01:23.649Z</time></trkpt><trkpt lat="45.6377308" lon="8.2993527"><ele>434.0</ele><time>2026-04-05T14:01:24.667Z</time></trkpt><trkpt lat="45.6377509" lon="8.2994493"><ele>435.0</ele><time>2026-04-05T14:01:25.649Z</time></trkpt><trkpt lat="45.637759" lon="8.2995517"><ele>436.0</ele><time>2026-04-05T14:01:26.648Z</time></trkpt><trkpt lat="45.6377563" lon="8.2996633"><ele>437.0</ele><time>2026-04-05T14:01:27.652Z</time></trkpt><trkpt lat="45.6377431" lon="8.2997709"><ele>438.16666666666663</ele><time>2026-04-05T14:01:28.653Z</time></trkpt><trkpt lat="45.6377249" lon="8.2998821"><ele>439.3333333333333</ele><time>2026-04-05T14:01:29.657Z</time></trkpt><trkpt lat="45.6377043" lon="8.2999879"><ele>440.5</ele><time>2026-04-05T14:01:30.658Z</time></trkpt><trkpt lat="45.6376835" lon="8.3000814"><ele>441.66666666666663</ele><time>2026-04-05T14:01:31.645Z</time></trkpt><trkpt lat="45.6376432" lon="8.3002041"><ele>442.8333333333333</ele><time>2026-04-05T14:01:33.658Z</time></trkpt><trkpt lat="45.6375644" lon="8.3002454"><ele>444.0</ele><time>2026-04-05T14:01:39.649Z</time></trkpt><trkpt lat="45.637477" lon="8.3002325"><ele>444.0</ele><time>2026-04-05T14:01:41.647Z</time></trkpt><trkpt lat="45.6373623" lon="8.3001896"><ele>444.0</ele><time>2026-04-05T14:01:43.649Z</time></trkpt><trkpt lat="45.6372865" lon="8.3001682"><ele>444.0</ele><time>2026-04-05T14:01:44.653Z</time></trkpt><trkpt lat="45.6372056" lon="8.3001569"><ele>444.0</ele><time>2026-04-05T14:01:45.656Z</time></trkpt><trkpt lat="45.637125" lon="8.3001502"><ele>444.0</ele><time>2026-04-05T14:01:46.655Z</time></trkpt><trkpt lat="45.637046" lon="8.3001425"><ele>444.0</ele><time>2026-04-05T14:01:47.654Z</time></trkpt><trkpt lat="45.6369704" lon="8.3001297"><ele>441.6666666666667</ele><time>2026-04-05T14:01:48.647Z</time></trkpt><trkpt lat="45.6368943" lon="8.3001044"><ele>439.33333333333337</ele><time>2026-04-05T14:01:49.654Z</time></trkpt><trkpt lat="45.6368222" lon="8.3000682"><ele>437.0</ele><time>2026-04-05T14:01:50.648Z</time></trkpt><trkpt lat="45.6367496" lon="8.300025"><ele>434.6666666666667</ele><time>2026-04-05T14:01:51.648Z</time></trkpt><trkpt lat="45.636682" lon="8.2999907"><ele>432.33333333333337</ele><time>2026-04-05T14:01:52.649Z</time></trkpt><trkpt lat="45.6366176" lon="8.2999355"><ele>430.0</ele><time>2026-04-05T14:01:53.648Z</time></trkpt><trkpt lat="45.6365589" lon="8.299854"><ele>430.00000000000006</ele><time>2026-04-05T14:01:54.653Z</time></trkpt><trkpt lat="45.6365024" lon="8.2997603"><ele>430.0</ele><time>2026-04-05T14:01:55.65Z</time></trkpt><trkpt lat="45.6364378" lon="8.2996686"><ele>430.0</ele><time>2026-04-05T14:01:56.653Z</time></trkpt><trkpt lat="45.6363692" lon="8.2995922"><ele>430.0</ele><time>2026-04-05T14:01:57.648Z</time></trkpt><trkpt lat="45.6363019" lon="8.2995173"><ele>430.00000000000006</ele><time>2026-04-05T14:01:58.65Z</time></trkpt><trkpt lat="45.6362353" lon="8.2994468"><ele>430.0</ele><time>2026-04-05T14:01:59.65Z</time></trkpt><trkpt lat="45.6361636" lon="8.2993891"><ele>428.0</ele><time>2026-04-05T14:02:00.66Z</time></trkpt><trkpt lat="45.6360932" lon="8.2993441"><ele>426.0</ele><time>2026-04-05T14:02:01.654Z</time></trkpt><trkpt lat="45.6360237" lon="8.2993149"><ele>424.0</ele><time>2026-04-05T14:02:02.663Z</time></trkpt><trkpt lat="45.6359528" lon="8.2993001"><ele>422.0</ele><time>2026-04-05T14:02:03.653Z</time></trkpt><trkpt lat="45.6358808" lon="8.2992872"><ele>420.0</ele><time>2026-04-05T14:02:04.645Z</time></trkpt><trkpt lat="45.6358118" lon="8.2992613"><ele>418.0</ele><time>2026-04-05T14:02:05.652Z</time></trkpt><trkpt lat="45.6357422" lon="8.2992185"><ele>416.0</ele><time>2026-04-05T14:02:06.646Z</time></trkpt><trkpt lat="45.6356672" lon="8.2991837"><ele>415.99999999999994</ele><time>2026-04-05T14:02:07.655Z</time></trkpt><trkpt lat="45.6355828" lon="8.2991698"><ele>416.0</ele><time>2026-04-05T14:02:08.653Z</time></trkpt><trkpt lat="45.635497" lon="8.2991605"><ele>416.0</ele><time>2026-04-05T14:02:09.656Z</time></trkpt><trkpt lat="45.6354102" lon="8.2991352"><ele>416.0</ele><time>2026-04-05T14:02:10.657Z</time></trkpt><trkpt lat="45.6353309" lon="8.2990998"><ele>415.99999999999994</ele><time>2026-04-05T14:02:11.657Z</time></trkpt><trkpt lat="45.6352505" lon="8.2990542"><ele>416.0</ele><time>2026-04-05T14:02:12.663Z</time></trkpt><trkpt lat="45.635174" lon="8.2990027"><ele>415.0</ele><time>2026-04-05T14:02:13.645Z</time></trkpt><trkpt lat="45.6351002" lon="8.2989549"><ele>414.0</ele><time>2026-04-05T14:02:14.65Z</time></trkpt><trkpt lat="45.6350285" lon="8.2989293"><ele>413.0</ele><time>2026-04-05T14:02:15.653Z</time></trkpt><trkpt lat="45.6349521" lon="8.298938"><ele>412.0</ele><time>2026-04-05T14:02:16.649Z</time></trkpt><trkpt lat="45.6348823" lon="8.298979"><ele>411.0</ele><time>2026-04-05T14:02:17.659Z</time></trkpt><trkpt lat="45.6348285" lon="8.2990409"><ele>410.0</ele><time>2026-04-05T14:02:18.65Z</time></trkpt><trkpt lat="45.6347855" lon="8.299118"><ele>409.0</ele><time>2026-04-05T14:02:19.651Z</time></trkpt><trkpt lat="45.6347375" lon="8.2991937"><ele>409.00000000000006</ele><time>2026-04-05T14:02:20.646Z</time></trkpt><trkpt lat="45.6346839" lon="8.2992577"><ele>409.0</ele><time>2026-04-05T14:02:21.645Z</time></trkpt><trkpt lat="45.634624" lon="8.2993103"><ele>409.0</ele><time>2026-04-05T14:02:22.654Z</time></trkpt><trkpt lat="45.6345653" lon="8.2993554"><ele>409.0</ele><time>2026-04-05T14:02:23.648Z</time></trkpt><trkpt lat="45.6345084" lon="8.2994033"><ele>409.00000000000006</ele><time>2026-04-05T14:02:24.655Z</time></trkpt><trkpt lat="45.6343991" lon="8.2994466"><ele>409.0</ele><time>2026-04-05T14:02:26.655Z</time></trkpt><trkpt lat="45.6343482" lon="8.2993683"><ele>406.79999999999995</ele><time>2026-04-05T14:02:29.653Z</time></trkpt><trkpt lat="45.6343284" lon="8.2992473"><ele>404.59999999999997</ele><time>2026-04-05T14:02:31.66Z</time></trkpt><trkpt lat="45.6342895" lon="8.2991304"><ele>402.4</ele><time>2026-04-05T14:02:33.652Z</time></trkpt><trkpt lat="45.6342145" lon="8.2990657"><ele>400.2</ele><time>2026-04-05T14:02:35.65Z</time></trkpt><trkpt lat="45.6341251" lon="8.298971"><ele>398.0</ele><time>2026-04-05T14:02:37.651Z</time></trkpt><trkpt lat="45.6340268" lon="8.2988839"><ele>398.0</ele><time>2026-04-05T14:02:39.664Z</time></trkpt><trkpt lat="45.6339276" lon="8.2988396"><ele>398.0</ele><time>2026-04-05T14:02:41.651Z</time></trkpt><trkpt lat="45.6338285" lon="8.2988309"><ele>398.0</ele><time>2026-04-05T14:02:43.656Z</time></trkpt><trkpt lat="45.633726" lon="8.2988579"><ele>398.0</ele><time>2026-04-05T14:02:45.66Z</time></trkpt><trkpt lat="45.6336715" lon="8.2989256"><ele>398.0</ele><time>2026-04-05T14:02:47.643Z</time></trkpt><trkpt lat="45.6336581" lon="8.2990438"><ele>394.99999999999994</ele><time>2026-04-05T14:02:49.649Z</time></trkpt><trkpt lat="45.6335915" lon="8.2991163"><ele>392.0</ele><time>2026-04-05T14:02:52.649Z</time></trkpt><trkpt lat="45.6334884" lon="8.299137"><ele>389.0</ele><time>2026-04-05T14:02:54.647Z</time></trkpt><trkpt lat="45.6334135" lon="8.2990945"><ele>386.0</ele><time>2026-04-05T14:02:56.638Z</time></trkpt><trkpt lat="45.633349" lon="8.2990603"><ele>383.0</ele><time>2026-04-05T14:02:58.646Z</time></trkpt><trkpt lat="45.6333161" lon="8.2991897"><ele>380.0</ele><time>2026-04-05T14:03:01.654Z</time></trkpt><trkpt lat="45.6333253" lon="8.2993395"><ele>380.0</ele><time>2026-04-05T14:03:03.656Z</time></trkpt><trkpt lat="45.6333583" lon="8.299461"><ele>380.0</ele><time>2026-04-05T14:03:05.648Z</time></trkpt><trkpt lat="45.6334154" lon="8.2995349"><ele>380.0</ele><time>2026-04-05T14:03:07.643Z</time></trkpt><trkpt lat="45.6334804" lon="8.2995591"><ele>380.0</ele><time>2026-04-05T14:03:09.651Z</time></trkpt><trkpt lat="45.6335124" lon="8.2996392"><ele>380.0</ele><time>2026-04-05T14:03:12.654Z</time></trkpt><trkpt lat="45.6334459" lon="8.2996888"><ele>380.0</ele><time>2026-04-05T14:03:14.643Z</time></trkpt><trkpt lat="45.6333639" lon="8.2997152"><ele>380.0</ele><time>2026-04-05T14:03:16.658Z</time></trkpt><trkpt lat="45.6332494" lon="8.2997054"><ele>380.0</ele><time>2026-04-05T14:03:18.649Z</time></trkpt><trkpt lat="45.6331442" lon="8.2996588"><ele>380.0</ele><time>2026-04-05T14:03:20.646Z</time></trkpt><trkpt lat="45.6330266" lon="8.2996266"><ele>380.0</ele><time>2026-04-05T14:03:22.647Z</time></trkpt><trkpt lat="45.6329208" lon="8.2995736"><ele>380.0</ele><time>2026-04-05T14:03:24.655Z</time></trkpt><trkpt lat="45.6328605" lon="8.2995448"><ele>380.0</ele><time>2026-04-05T14:03:25.652Z</time></trkpt><trkpt lat="45.6327573" lon="8.2995114"><ele>380.0</ele><time>2026-04-05T14:03:27.652Z</time></trkpt><trkpt lat="45.6326869" lon="8.2994997"><ele>380.0</ele><time>2026-04-05T14:03:29.659Z</time></trkpt><trkpt lat="45.6326282" lon="8.2995652"><ele>380.0</ele><time>2026-04-05T14:03:33.655Z</time></trkpt><trkpt lat="45.6326055" lon="8.2996632"><ele>380.0</ele><time>2026-04-05T14:03:35.648Z</time></trkpt><trkpt lat="45.6325849" lon="8.2997855"><ele>376.83333333333337</ele><time>2026-04-05T14:03:37.662Z</time></trkpt><trkpt lat="45.6325706" lon="8.2999513"><ele>373.6666666666667</ele><time>2026-04-05T14:03:39.654Z</time></trkpt><trkpt lat="45.6325825" lon="8.3000435"><ele>370.5</ele><time>2026-04-05T14:03:40.661Z</time></trkpt><trkpt lat="45.6326099" lon="8.3001477"><ele>367.3333333333333</ele><time>2026-04-05T14:03:41.652Z</time></trkpt><trkpt lat="45.6326293" lon="8.3002565"><ele>364.16666666666663</ele><time>2026-04-05T14:03:42.65Z</time></trkpt><trkpt lat="45.6326345" lon="8.3003662"><ele>361.0</ele><time>2026-04-05T14:03:43.652Z</time></trkpt><trkpt lat="45.632627" lon="8.3004767"><ele>362.16666666666663</ele><time>2026-04-05T14:03:44.65Z</time></trkpt><trkpt lat="45.6326149" lon="8.3005839"><ele>363.3333333333333</ele><time>2026-04-05T14:03:45.649Z</time></trkpt><trkpt lat="45.6326055" lon="8.3006899"><ele>364.5</ele><time>2026-04-05T14:03:46.657Z</time></trkpt><trkpt lat="45.6326046" lon="8.3008038"><ele>365.6666666666667</ele><time>2026-04-05T14:03:47.654Z</time></trkpt><trkpt lat="45.6325985" lon="8.3009155"><ele>366.83333333333337</ele><time>2026-04-05T14:03:48.658Z</time></trkpt><trkpt lat="45.6325882" lon="8.301015"><ele>368.0</ele><time>2026-04-05T14:03:49.655Z</time></trkpt><trkpt lat="45.632574" lon="8.3011718"><ele>368.0</ele><time>2026-04-05T14:03:51.652Z</time></trkpt><trkpt lat="45.6325952" lon="8.3012826"><ele>368.0</ele><time>2026-04-05T14:03:53.656Z</time></trkpt><trkpt lat="45.6326386" lon="8.3013598"><ele>368.0</ele><time>2026-04-05T14:03:55.659Z</time></trkpt><trkpt lat="45.6326719" lon="8.3014411"><ele>368.0</ele><time>2026-04-05T14:03:58.649Z</time></trkpt><trkpt lat="45.6326648" lon="8.3015815"><ele>368.0</ele><time>2026-04-05T14:04:02.64Z</time></trkpt><trkpt lat="45.6326521" lon="8.3016946"><ele>368.0</ele><time>2026-04-05T14:04:04.651Z</time></trkpt><trkpt lat="45.6326439" lon="8.3017966"><ele>368.42857142857144</ele><time>2026-04-05T14:04:06.652Z</time></trkpt><trkpt lat="45.6326578" lon="8.301893"><ele>368.85714285714283</ele><time>2026-04-05T14:04:08.601Z</time></trkpt><trkpt lat="45.6326851" lon="8.3019906"><ele>369.2857142857143</ele><time>2026-04-05T14:04:10.663Z</time></trkpt><trkpt lat="45.6327266" lon="8.3020778"><ele>369.7142857142857</ele><time>2026-04-05T14:04:13.437Z</time></trkpt><trkpt lat="45.6327936" lon="8.3021154"><ele>370.1428571428571</ele><time>2026-04-05T14:04:15.665Z</time></trkpt><trkpt lat="45.6328572" lon="8.3021724"><ele>370.57142857142856</ele><time>2026-04-05T14:04:17.649Z</time></trkpt><trkpt lat="45.6328113" lon="8.3022485"><ele>371.0</ele><time>2026-04-05T14:04:22.673Z</time></trkpt><trkpt lat="45.6327267" lon="8.3022565"><ele>372.1666666666667</ele><time>2026-04-05T14:04:24.65Z</time></trkpt><trkpt lat="45.6326626" lon="8.3023024"><ele>373.33333333333337</ele><time>2026-04-05T14:04:26.663Z</time></trkpt><trkpt lat="45.632613" lon="8.3023985"><ele>374.5</ele><time>2026-04-05T14:04:28.649Z</time></trkpt><trkpt lat="45.6325822" lon="8.30251"><ele>375.6666666666667</ele><time>2026-04-05T14:04:30.653Z</time></trkpt><trkpt lat="45.6325345" lon="8.3026111"><ele>376.8333333333333</ele><time>2026-04-05T14:04:32.667Z</time></trkpt><trkpt lat="45.6324926" lon="8.3027307"><ele>378.0</ele><time>2026-04-05T14:04:34.653Z</time></trkpt><trkpt lat="45.6324627" lon="8.3028618"><ele>378.0</ele><time>2026-04-05T14:04:36.653Z</time></trkpt><trkpt lat="45.6324635" lon="8.3029977"><ele>378.0</ele><time>2026-04-05T14:04:38.661Z</time></trkpt><trkpt lat="45.6324937" lon="8.3031353"><ele>378.0</ele><time>2026-04-05T14:04:40.658Z</time></trkpt><trkpt lat="45.6324766" lon="8.3032711"><ele>378.0</ele><time>2026-04-05T14:04:42.657Z</time></trkpt><trkpt lat="45.632455" lon="8.3033969"><ele>378.0</ele><time>2026-04-05T14:04:44.649Z</time></trkpt><trkpt lat="45.6324559" lon="8.3035418"><ele>379.0</ele><time>2026-04-05T14:04:46.645Z</time></trkpt><trkpt lat="45.6324717" lon="8.3036876"><ele>380.0</ele><time>2026-04-05T14:04:48.656Z</time></trkpt><trkpt lat="45.6324843" lon="8.3038373"><ele>381.0</ele><time>2026-04-05T14:04:50.655Z</time></trkpt><trkpt lat="45.6324599" lon="8.3039503"><ele>382.0</ele><time>2026-04-05T14:04:52.648Z</time></trkpt><trkpt lat="45.632385" lon="8.3039736"><ele>383.0</ele><time>2026-04-05T14:04:54.653Z</time></trkpt><trkpt lat="45.6322938" lon="8.3039995"><ele>383.0</ele><time>2026-04-05T14:04:56.654Z</time></trkpt><trkpt lat="45.6322153" lon="8.3040028"><ele>383.0</ele><time>2026-04-05T14:04:58.644Z</time></trkpt><trkpt lat="45.6322002" lon="8.3038574"><ele>383.0</ele><time>2026-04-05T14:05:00.654Z</time></trkpt><trkpt lat="45.6322277" lon="8.3037256"><ele>383.0</ele><time>2026-04-05T14:05:02.624Z</time></trkpt><trkpt lat="45.6321635" lon="8.3036408"><ele>383.0</ele><time>2026-04-05T14:05:05.654Z</time></trkpt><trkpt lat="45.6321316" lon="8.3035025"><ele>383.0</ele><time>2026-04-05T14:05:07.655Z</time></trkpt><trkpt lat="45.6320556" lon="8.3034635"><ele>383.0</ele><time>2026-04-05T14:05:09.651Z</time></trkpt><trkpt lat="45.6319976" lon="8.3035642"><ele>383.0</ele><time>2026-04-05T14:05:11.658Z</time></trkpt><trkpt lat="45.6319203" lon="8.3036221"><ele>383.0</ele><time>2026-04-05T14:05:13.649Z</time></trkpt><trkpt lat="45.6318578" lon="8.3036424"><ele>383.0</ele><time>2026-04-05T14:05:14.662Z</time></trkpt><trkpt lat="45.6317682" lon="8.3037276"><ele>383.0</ele><time>2026-04-05T14:05:16.657Z</time></trkpt><trkpt lat="45.6316956" lon="8.3038048"><ele>385.1666666666667</ele><time>2026-04-05T14:05:18.652Z</time></trkpt><trkpt lat="45.6316165" lon="8.3038284"><ele>387.33333333333337</ele><time>2026-04-05T14:05:20.647Z</time></trkpt><trkpt lat="45.6315933" lon="8.3037295"><ele>389.5</ele><time>2026-04-05T14:05:22.647Z</time></trkpt><trkpt lat="45.6316095" lon="8.303586"><ele>391.6666666666667</ele><time>2026-04-05T14:05:24.644Z</time></trkpt><trkpt lat="45.6315988" lon="8.30346"><ele>393.8333333333333</ele><time>2026-04-05T14:05:26.647Z</time></trkpt><trkpt lat="45.6315489" lon="8.3033735"><ele>396.0</ele><time>2026-04-05T14:05:28.646Z</time></trkpt><trkpt lat="45.6315013" lon="8.3032913"><ele>396.0</ele><time>2026-04-05T14:05:30.645Z</time></trkpt><trkpt lat="45.6315387" lon="8.3031574"><ele>396.0</ele><time>2026-04-05T14:05:33.645Z</time></trkpt><trkpt lat="45.631485" lon="8.3030676"><ele>396.0</ele><time>2026-04-05T14:05:36.656Z</time></trkpt><trkpt lat="45.6313918" lon="8.3030689"><ele>396.0</ele><time>2026-04-05T14:05:38.645Z</time></trkpt><trkpt lat="45.6312777" lon="8.3030445"><ele>396.0</ele><time>2026-04-05T14:05:40.653Z</time></trkpt><trkpt lat="45.6311911" lon="8.3030135"><ele>396.0</ele><time>2026-04-05T14:05:42.656Z</time></trkpt><trkpt lat="45.6312674" lon="8.303074"><ele>396.0</ele><time>2026-04-05T14:05:47.65Z</time></trkpt><trkpt lat="45.631303" lon="8.3031869"><ele>396.0</ele><time>2026-04-05T14:05:49.655Z</time></trkpt><trkpt lat="45.6312832" lon="8.3033167"><ele>396.0</ele><time>2026-04-05T14:05:51.646Z</time></trkpt><trkpt lat="45.6312579" lon="8.3034707"><ele>396.0</ele><time>2026-04-05T14:05:53.648Z</time></trkpt><trkpt lat="45.6312011" lon="8.3035909"><ele>396.0</ele><time>2026-04-05T14:05:55.642Z</time></trkpt><trkpt lat="45.631157" lon="8.3036574"><ele>396.0</ele><time>2026-04-05T14:05:58.656Z</time></trkpt><trkpt lat="45.6311748" lon="8.3037631"><ele>396.0</ele><time>2026-04-05T14:06:00.651Z</time></trkpt><trkpt lat="45.6311854" lon="8.3038557"><ele>396.0</ele><time>2026-04-05T14:06:01.65Z</time></trkpt><trkpt lat="45.6312069" lon="8.3039747"><ele>396.0</ele><time>2026-04-05T14:06:02.649Z</time></trkpt><trkpt lat="45.6312326" lon="8.3041142"><ele>396.0</ele><time>2026-04-05T14:06:03.654Z</time></trkpt><trkpt lat="45.6312625" lon="8.3042612"><ele>397.4</ele><time>2026-04-05T14:06:04.653Z</time></trkpt><trkpt lat="45.6313054" lon="8.3043984"><ele>398.8</ele><time>2026-04-05T14:06:05.649Z</time></trkpt><trkpt lat="45.6313698" lon="8.3045271"><ele>400.2</ele><time>2026-04-05T14:06:06.656Z</time></trkpt><trkpt lat="45.6314422" lon="8.3046501"><ele>401.59999999999997</ele><time>2026-04-05T14:06:07.643Z</time></trkpt><trkpt lat="45.6315065" lon="8.3047757"><ele>403.0</ele><time>2026-04-05T14:06:08.659Z</time></trkpt><trkpt lat="45.631565" lon="8.3049027"><ele>404.5714285714286</ele><time>2026-04-05T14:06:09.661Z</time></trkpt><trkpt lat="45.6316158" lon="8.3050064"><ele>406.1428571428571</ele><time>2026-04-05T14:06:10.652Z</time></trkpt><trkpt lat="45.6316614" lon="8.3050729"><ele>407.7142857142857</ele><time>2026-04-05T14:06:11.652Z</time></trkpt><trkpt lat="45.6317184" lon="8.3051189"><ele>409.28571428571433</ele><time>2026-04-05T14:06:12.652Z</time></trkpt><trkpt lat="45.6317764" lon="8.3051739"><ele>410.8571428571429</ele><time>2026-04-05T14:06:13.654Z</time></trkpt><trkpt lat="45.6318256" lon="8.3052441"><ele>412.42857142857144</ele><time>2026-04-05T14:06:14.643Z</time></trkpt><trkpt lat="45.6318655" lon="8.305332"><ele>414.0</ele><time>2026-04-05T14:06:15.658Z</time></trkpt><trkpt lat="45.6319044" lon="8.3054193"><ele>414.0</ele><time>2026-04-05T14:06:16.652Z</time></trkpt><trkpt lat="45.6319552" lon="8.3055117"><ele>414.0</ele><time>2026-04-05T14:06:17.657Z</time></trkpt><trkpt lat="45.6320041" lon="8.3056103"><ele>414.0</ele><time>2026-04-05T14:06:18.657Z</time></trkpt><trkpt lat="45.6320482" lon="8.3057254"><ele>414.0</ele><time>2026-04-05T14:06:19.649Z</time></trkpt><trkpt lat="45.6320781" lon="8.3058571"><ele>414.0</ele><time>2026-04-05T14:06:20.652Z</time></trkpt><trkpt lat="45.6320912" lon="8.3060137"><ele>414.4</ele><time>2026-04-05T14:06:21.651Z</time></trkpt><trkpt lat="45.6321015" lon="8.3061756"><ele>414.79999999999995</ele><time>2026-04-05T14:06:22.648Z</time></trkpt><trkpt lat="45.6321135" lon="8.3063304"><ele>415.20000000000005</ele><time>2026-04-05T14:06:23.651Z</time></trkpt><trkpt lat="45.6321105" lon="8.3064746"><ele>415.6</ele><time>2026-04-05T14:06:24.654Z</time></trkpt><trkpt lat="45.6321079" lon="8.3065996"><ele>416.0</ele><time>2026-04-05T14:06:25.654Z</time></trkpt><trkpt lat="45.6321164" lon="8.3067084"><ele>416.49999999999994</ele><time>2026-04-05T14:06:26.656Z</time></trkpt><trkpt lat="45.6321296" lon="8.3068087"><ele>417.0</ele><time>2026-04-05T14:06:27.659Z</time></trkpt><trkpt lat="45.6321415" lon="8.3069141"><ele>417.5</ele><time>2026-04-05T14:06:28.658Z</time></trkpt><trkpt lat="45.632149" lon="8.307024"><ele>418.0</ele><time>2026-04-05T14:06:29.658Z</time></trkpt><trkpt lat="45.6321477" lon="8.3071316"><ele>418.49999999999994</ele><time>2026-04-05T14:06:30.659Z</time></trkpt><trkpt lat="45.6321406" lon="8.3072467"><ele>419.0</ele><time>2026-04-05T14:06:31.653Z</time></trkpt><trkpt lat="45.6321335" lon="8.3073724"><ele>418.99999999999994</ele><time>2026-04-05T14:06:32.652Z</time></trkpt><trkpt lat="45.6321282" lon="8.3074892"><ele>419.0</ele><time>2026-04-05T14:06:33.66Z</time></trkpt><trkpt lat="45.6321321" lon="8.3076057"><ele>419.0</ele><time>2026-04-05T14:06:34.647Z</time></trkpt><trkpt lat="45.6321458" lon="8.3077142"><ele>419.0</ele><time>2026-04-05T14:06:35.659Z</time></trkpt><trkpt lat="45.6321713" lon="8.3078248"><ele>418.99999999999994</ele><time>2026-04-05T14:06:36.651Z</time></trkpt><trkpt lat="45.6322153" lon="8.3079313"><ele>419.0</ele><time>2026-04-05T14:06:37.661Z</time></trkpt><trkpt lat="45.6322646" lon="8.3080349"><ele>419.0</ele><time>2026-04-05T14:06:38.653Z</time></trkpt><trkpt lat="45.6323055" lon="8.3081257"><ele>419.0</ele><time>2026-04-05T14:06:39.651Z</time></trkpt><trkpt lat="45.6323958" lon="8.3082737"><ele>419.0</ele><time>2026-04-05T14:06:41.652Z</time></trkpt><trkpt lat="45.6324487" lon="8.308365"><ele>419.0</ele><time>2026-04-05T14:06:42.655Z</time></trkpt><trkpt lat="45.6324708" lon="8.3084737"><ele>419.0</ele><time>2026-04-05T14:06:43.654Z</time></trkpt><trkpt lat="45.6324764" lon="8.3085952"><ele>418.99999999999994</ele><time>2026-04-05T14:06:44.661Z</time></trkpt><trkpt lat="45.6324852" lon="8.3087158"><ele>419.0</ele><time>2026-04-05T14:06:45.65Z</time></trkpt><trkpt lat="45.6324955" lon="8.3088268"><ele>419.0</ele><time>2026-04-05T14:06:46.652Z</time></trkpt><trkpt lat="45.6325005" lon="8.3089311"><ele>419.0</ele><time>2026-04-05T14:06:47.651Z</time></trkpt><trkpt lat="45.6325088" lon="8.3090362"><ele>418.99999999999994</ele><time>2026-04-05T14:06:48.651Z</time></trkpt><trkpt lat="45.63253" lon="8.3091387"><ele>419.0</ele><time>2026-04-05T14:06:49.654Z</time></trkpt><trkpt lat="45.6325724" lon="8.3092298"><ele>419.66666666666663</ele><time>2026-04-05T14:06:50.657Z</time></trkpt><trkpt lat="45.6326192" lon="8.3093136"><ele>420.3333333333333</ele><time>2026-04-05T14:06:51.647Z</time></trkpt><trkpt lat="45.6326614" lon="8.3093943"><ele>421.0</ele><time>2026-04-05T14:06:52.649Z</time></trkpt><trkpt lat="45.6327071" lon="8.3094763"><ele>421.66666666666663</ele><time>2026-04-05T14:06:53.644Z</time></trkpt><trkpt lat="45.6327611" lon="8.3095626"><ele>422.3333333333333</ele><time>2026-04-05T14:06:54.656Z</time></trkpt><trkpt lat="45.6328133" lon="8.3096498"><ele>423.0</ele><time>2026-04-05T14:06:55.663Z</time></trkpt><trkpt lat="45.6328535" lon="8.3097475"><ele>420.6666666666667</ele><time>2026-04-05T14:06:56.663Z</time></trkpt><trkpt lat="45.6328863" lon="8.3098447"><ele>418.33333333333337</ele><time>2026-04-05T14:06:57.667Z</time></trkpt><trkpt lat="45.6329086" lon="8.3099381"><ele>416.0</ele><time>2026-04-05T14:06:58.651Z</time></trkpt><trkpt lat="45.6329195" lon="8.3100348"><ele>413.6666666666667</ele><time>2026-04-05T14:06:59.659Z</time></trkpt><trkpt lat="45.6329124" lon="8.3101303"><ele>411.33333333333337</ele><time>2026-04-05T14:07:00.65Z</time></trkpt><trkpt lat="45.632894" lon="8.3102199"><ele>409.0</ele><time>2026-04-05T14:07:01.652Z</time></trkpt><trkpt lat="45.6328307" lon="8.3103763"><ele>411.6</ele><time>2026-04-05T14:07:03.65Z</time></trkpt><trkpt lat="45.6327824" lon="8.3104657"><ele>414.2</ele><time>2026-04-05T14:07:04.648Z</time></trkpt><trkpt lat="45.6327302" lon="8.3105737"><ele>416.8</ele><time>2026-04-05T14:07:05.658Z</time></trkpt><trkpt lat="45.6326873" lon="8.3106944"><ele>419.40000000000003</ele><time>2026-04-05T14:07:06.644Z</time></trkpt><trkpt lat="45.6326546" lon="8.3108127"><ele>422.0</ele><time>2026-04-05T14:07:07.655Z</time></trkpt><trkpt lat="45.6325768" lon="8.3109447"><ele>422.0</ele><time>2026-04-05T14:07:09.652Z</time></trkpt><trkpt lat="45.6324804" lon="8.3110657"><ele>422.0</ele><time>2026-04-05T14:07:11.647Z</time></trkpt><trkpt lat="45.6323778" lon="8.3111493"><ele>422.0</ele><time>2026-04-05T14:07:13.655Z</time></trkpt><trkpt lat="45.632299" lon="8.3112107"><ele>422.0</ele><time>2026-04-05T14:07:15.642Z</time></trkpt><trkpt lat="45.6322363" lon="8.3112764"><ele>422.0</ele><time>2026-04-05T14:07:17.638Z</time></trkpt><trkpt lat="45.6321673" lon="8.311355"><ele>419.99999999999994</ele><time>2026-04-05T14:07:19.652Z</time></trkpt><trkpt lat="45.6321165" lon="8.3114676"><ele>418.0</ele><time>2026-04-05T14:07:21.644Z</time></trkpt><trkpt lat="45.6320489" lon="8.3116074"><ele>416.0</ele><time>2026-04-05T14:07:23.654Z</time></trkpt><trkpt lat="45.6320006" lon="8.3116758"><ele>414.0</ele><time>2026-04-05T14:07:24.649Z</time></trkpt><trkpt lat="45.6319554" lon="8.3117488"><ele>411.99999999999994</ele><time>2026-04-05T14:07:25.653Z</time></trkpt><trkpt lat="45.6319215" lon="8.3118297"><ele>410.0</ele><time>2026-04-05T14:07:26.653Z</time></trkpt><trkpt lat="45.6318948" lon="8.3119237"><ele>408.4</ele><time>2026-04-05T14:07:27.647Z</time></trkpt><trkpt lat="45.631865" lon="8.3120296"><ele>406.8</ele><time>2026-04-05T14:07:28.654Z</time></trkpt><trkpt lat="45.6318299" lon="8.3121426"><ele>405.20000000000005</ele><time>2026-04-05T14:07:29.646Z</time></trkpt><trkpt lat="45.6317892" lon="8.3122707"><ele>403.6</ele><time>2026-04-05T14:07:30.648Z</time></trkpt><trkpt lat="45.6317418" lon="8.3124023"><ele>402.0</ele><time>2026-04-05T14:07:31.644Z</time></trkpt><trkpt lat="45.6316922" lon="8.3125336"><ele>402.0</ele><time>2026-04-05T14:07:32.652Z</time></trkpt><trkpt lat="45.6316405" lon="8.3126464"><ele>402.0</ele><time>2026-04-05T14:07:33.642Z</time></trkpt><trkpt lat="45.6315825" lon="8.3127485"><ele>402.0</ele><time>2026-04-05T14:07:34.647Z</time></trkpt><trkpt lat="45.631528" lon="8.3128449"><ele>402.0</ele><time>2026-04-05T14:07:35.657Z</time></trkpt><trkpt lat="45.6314893" lon="8.3129404"><ele>402.0</ele><time>2026-04-05T14:07:36.657Z</time></trkpt><trkpt lat="45.631468" lon="8.3130393"><ele>402.0</ele><time>2026-04-05T14:07:37.655Z</time></trkpt><trkpt lat="45.6314673" lon="8.313152"><ele>401.6666666666667</ele><time>2026-04-05T14:07:38.646Z</time></trkpt><trkpt lat="45.6314796" lon="8.3132834"><ele>401.33333333333337</ele><time>2026-04-05T14:07:39.66Z</time></trkpt><trkpt lat="45.6315018" lon="8.3134134"><ele>401.0</ele><time>2026-04-05T14:07:40.638Z</time></trkpt><trkpt lat="45.6315262" lon="8.313541"><ele>400.6666666666667</ele><time>2026-04-05T14:07:41.656Z</time></trkpt><trkpt lat="45.6315478" lon="8.3136577"><ele>400.33333333333337</ele><time>2026-04-05T14:07:42.653Z</time></trkpt><trkpt lat="45.6315785" lon="8.3137514"><ele>400.0</ele><time>2026-04-05T14:07:43.656Z</time></trkpt><trkpt lat="45.6316276" lon="8.3138277"><ele>399.50000000000006</ele><time>2026-04-05T14:07:44.657Z</time></trkpt><trkpt lat="45.6316803" lon="8.3139082"><ele>399.0</ele><time>2026-04-05T14:07:45.649Z</time></trkpt><trkpt lat="45.6317229" lon="8.3139979"><ele>398.5</ele><time>2026-04-05T14:07:46.649Z</time></trkpt><trkpt lat="45.631753" lon="8.3141031"><ele>398.0</ele><time>2026-04-05T14:07:47.652Z</time></trkpt><trkpt lat="45.6317583" lon="8.3142161"><ele>397.50000000000006</ele><time>2026-04-05T14:07:48.649Z</time></trkpt><trkpt lat="45.6317386" lon="8.3143322"><ele>397.0</ele><time>2026-04-05T14:07:49.646Z</time></trkpt><trkpt lat="45.6316935" lon="8.3144426"><ele>397.00000000000006</ele><time>2026-04-05T14:07:50.654Z</time></trkpt><trkpt lat="45.6316421" lon="8.3145404"><ele>397.0</ele><time>2026-04-05T14:07:51.646Z</time></trkpt><trkpt lat="45.6315835" lon="8.3146278"><ele>397.0</ele><time>2026-04-05T14:07:52.655Z</time></trkpt><trkpt lat="45.6315297" lon="8.3147096"><ele>397.0</ele><time>2026-04-05T14:07:53.655Z</time></trkpt><trkpt lat="45.6314877" lon="8.3147919"><ele>397.00000000000006</ele><time>2026-04-05T14:07:54.648Z</time></trkpt><trkpt lat="45.6314615" lon="8.3148738"><ele>397.0</ele><time>2026-04-05T14:07:55.654Z</time></trkpt><trkpt lat="45.6314688" lon="8.3150347"><ele>395.83333333333337</ele><time>2026-04-05T14:07:57.656Z</time></trkpt><trkpt lat="45.6315109" lon="8.3151356"><ele>394.6666666666667</ele><time>2026-04-05T14:07:59.647Z</time></trkpt><trkpt lat="45.6315767" lon="8.3151751"><ele>393.5</ele><time>2026-04-05T14:08:01.66Z</time></trkpt><trkpt lat="45.6316327" lon="8.3152663"><ele>392.33333333333337</ele><time>2026-04-05T14:08:03.648Z</time></trkpt><trkpt lat="45.6316342" lon="8.3153827"><ele>391.1666666666667</ele><time>2026-04-05T14:08:05.647Z</time></trkpt><trkpt lat="45.6315654" lon="8.3154757"><ele>390.0</ele><time>2026-04-05T14:08:07.647Z</time></trkpt><trkpt lat="45.6315178" lon="8.3155851"><ele>387.0</ele><time>2026-04-05T14:08:09.649Z</time></trkpt><trkpt lat="45.6315263" lon="8.3157708"><ele>384.0</ele><time>2026-04-05T14:08:11.651Z</time></trkpt><trkpt lat="45.6315388" lon="8.3158715"><ele>381.0</ele><time>2026-04-05T14:08:12.645Z</time></trkpt><trkpt lat="45.6315805" lon="8.3159984"><ele>378.0</ele><time>2026-04-05T14:08:14.649Z</time></trkpt><trkpt lat="45.6316427" lon="8.3160344"><ele>375.0</ele><time>2026-04-05T14:08:16.648Z</time></trkpt><trkpt lat="45.6317248" lon="8.3160925"><ele>375.0</ele><time>2026-04-05T14:08:18.642Z</time></trkpt><trkpt lat="45.6317824" lon="8.3161884"><ele>375.0</ele><time>2026-04-05T14:08:20.648Z</time></trkpt><trkpt lat="45.6318459" lon="8.3163116"><ele>375.0</ele><time>2026-04-05T14:08:22.648Z</time></trkpt><trkpt lat="45.6318823" lon="8.3163919"><ele>375.0</ele><time>2026-04-05T14:08:23.655Z</time></trkpt><trkpt lat="45.6319223" lon="8.3164813"><ele>375.0</ele><time>2026-04-05T14:08:24.647Z</time></trkpt><trkpt lat="45.6319657" lon="8.3165785"><ele>375.0</ele><time>2026-04-05T14:08:25.647Z</time></trkpt><trkpt lat="45.6320258" lon="8.316669"><ele>371.3333333333333</ele><time>2026-04-05T14:08:26.637Z</time></trkpt><trkpt lat="45.6320965" lon="8.3167504"><ele>367.6666666666667</ele><time>2026-04-05T14:08:27.658Z</time></trkpt><trkpt lat="45.6321646" lon="8.3168362"><ele>364.0</ele><time>2026-04-05T14:08:28.651Z</time></trkpt><trkpt lat="45.6322265" lon="8.3169262"><ele>360.33333333333337</ele><time>2026-04-05T14:08:29.65Z</time></trkpt><trkpt lat="45.6322676" lon="8.317021"><ele>356.6666666666667</ele><time>2026-04-05T14:08:30.648Z</time></trkpt><trkpt lat="45.6322906" lon="8.3171058"><ele>353.0</ele><time>2026-04-05T14:08:31.641Z</time></trkpt><trkpt lat="45.6323392" lon="8.3172523"><ele>353.0</ele><time>2026-04-05T14:08:33.65Z</time></trkpt><trkpt lat="45.6323552" lon="8.3173417"><ele>353.0</ele><time>2026-04-05T14:08:34.642Z</time></trkpt><trkpt lat="45.6323634" lon="8.3174318"><ele>353.0</ele><time>2026-04-05T14:08:35.639Z</time></trkpt><trkpt lat="45.6323752" lon="8.317525"><ele>353.0</ele><time>2026-04-05T14:08:36.649Z</time></trkpt><trkpt lat="45.6324006" lon="8.3176242"><ele>353.0</ele><time>2026-04-05T14:08:37.647Z</time></trkpt><trkpt lat="45.632425" lon="8.3177357"><ele>353.0</ele><time>2026-04-05T14:08:38.652Z</time></trkpt><trkpt lat="45.6324328" lon="8.317844"><ele>353.0</ele><time>2026-04-05T14:08:39.651Z</time></trkpt><trkpt lat="45.6324358" lon="8.3179601"><ele>353.0</ele><time>2026-04-05T14:08:40.651Z</time></trkpt><trkpt lat="45.6324357" lon="8.3180636"><ele>353.0</ele><time>2026-04-05T14:08:41.647Z</time></trkpt><trkpt lat="45.6324108" lon="8.3182263"><ele>353.0</ele><time>2026-04-05T14:08:43.652Z</time></trkpt><trkpt lat="45.6323499" lon="8.3183747"><ele>353.0</ele><time>2026-04-05T14:08:45.654Z</time></trkpt><trkpt lat="45.6322903" lon="8.3185263"><ele>353.0</ele><time>2026-04-05T14:08:47.649Z</time></trkpt><trkpt lat="45.6321719" lon="8.3185971"><ele>352.83333333333337</ele><time>2026-04-05T14:08:49.651Z</time></trkpt><trkpt lat="45.6320955" lon="8.318595"><ele>352.6666666666667</ele><time>2026-04-05T14:08:50.659Z</time></trkpt><trkpt lat="45.6320196" lon="8.3185933"><ele>352.5</ele><time>2026-04-05T14:08:51.655Z</time></trkpt><trkpt lat="45.6319477" lon="8.318593"><ele>352.3333333333333</ele><time>2026-04-05T14:08:52.648Z</time></trkpt><trkpt lat="45.6318467" lon="8.3185965"><ele>352.16666666666663</ele><time>2026-04-05T14:08:54.651Z</time></trkpt><trkpt lat="45.6317785" lon="8.3185668"><ele>352.0</ele><time>2026-04-05T14:08:56.656Z</time></trkpt><trkpt lat="45.6317083" lon="8.3185861"><ele>351.66666666666663</ele><time>2026-04-05T14:09:04.664Z</time></trkpt><trkpt lat="45.6316174" lon="8.3186183"><ele>351.3333333333333</ele><time>2026-04-05T14:09:07.648Z</time></trkpt><trkpt lat="45.6315156" lon="8.3187048"><ele>351.0</ele><time>2026-04-05T14:09:09.668Z</time></trkpt><trkpt lat="45.6314713" lon="8.3187713"><ele>350.6666666666667</ele><time>2026-04-05T14:09:10.662Z</time></trkpt><trkpt lat="45.6314401" lon="8.3188581"><ele>350.33333333333337</ele><time>2026-04-05T14:09:11.661Z</time></trkpt><trkpt lat="45.6314168" lon="8.3189631"><ele>350.0</ele><time>2026-04-05T14:09:12.654Z</time></trkpt><trkpt lat="45.6313819" lon="8.3190911"><ele>350.33333333333337</ele><time>2026-04-05T14:09:13.663Z</time></trkpt><trkpt lat="45.6313453" lon="8.3192162"><ele>350.6666666666667</ele><time>2026-04-05T14:09:14.66Z</time></trkpt><trkpt lat="45.6313033" lon="8.3193135"><ele>351.0</ele><time>2026-04-05T14:09:15.651Z</time></trkpt><trkpt lat="45.6312625" lon="8.3193893"><ele>351.3333333333333</ele><time>2026-04-05T14:09:16.652Z</time></trkpt><trkpt lat="45.6311812" lon="8.3193589"><ele>351.66666666666663</ele><time>2026-04-05T14:09:18.652Z</time></trkpt><trkpt lat="45.6311011" lon="8.3193298"><ele>352.0</ele><time>2026-04-05T14:09:20.654Z</time></trkpt><trkpt lat="45.6309994" lon="8.3193235"><ele>352.0</ele><time>2026-04-05T14:09:22.67Z</time></trkpt><trkpt lat="45.6308743" lon="8.3193703"><ele>352.0</ele><time>2026-04-05T14:09:24.662Z</time></trkpt><trkpt lat="45.630811" lon="8.3194311"><ele>352.0</ele><time>2026-04-05T14:09:25.653Z</time></trkpt><trkpt lat="45.6307456" lon="8.31951"><ele>352.0</ele><time>2026-04-05T14:09:26.665Z</time></trkpt><trkpt lat="45.6306775" lon="8.3195869"><ele>352.0</ele><time>2026-04-05T14:09:27.664Z</time></trkpt><trkpt lat="45.6306031" lon="8.319671"><ele>351.6</ele><time>2026-04-05T14:09:28.657Z</time></trkpt><trkpt lat="45.6305237" lon="8.3197506"><ele>351.20000000000005</ele><time>2026-04-05T14:09:29.664Z</time></trkpt><trkpt lat="45.6304432" lon="8.3198448"><ele>350.8</ele><time>2026-04-05T14:09:30.658Z</time></trkpt><trkpt lat="45.6303739" lon="8.3199675"><ele>350.4</ele><time>2026-04-05T14:09:31.674Z</time></trkpt><trkpt lat="45.6303129" lon="8.3201135"><ele>350.0</ele><time>2026-04-05T14:09:32.653Z</time></trkpt><trkpt lat="45.6302652" lon="8.3202777"><ele>350.8</ele><time>2026-04-05T14:09:33.654Z</time></trkpt><trkpt lat="45.6302376" lon="8.3204377"><ele>351.6</ele><time>2026-04-05T14:09:34.651Z</time></trkpt><trkpt lat="45.6302279" lon="8.3205919"><ele>352.4</ele><time>2026-04-05T14:09:35.659Z</time></trkpt><trkpt lat="45.6302204" lon="8.3207316"><ele>353.2</ele><time>2026-04-05T14:09:36.648Z</time></trkpt><trkpt lat="45.6302063" lon="8.3208644"><ele>354.0</ele><time>2026-04-05T14:09:37.65Z</time></trkpt><trkpt lat="45.6301814" lon="8.3209861"><ele>354.1666666666667</ele><time>2026-04-05T14:09:38.65Z</time></trkpt><trkpt lat="45.6301371" lon="8.3210671"><ele>354.3333333333333</ele><time>2026-04-05T14:09:39.649Z</time></trkpt><trkpt lat="45.6300633" lon="8.3211003"><ele>354.5</ele><time>2026-04-05T14:09:40.659Z</time></trkpt><trkpt lat="45.6299679" lon="8.3211055"><ele>354.66666666666663</ele><time>2026-04-05T14:09:41.671Z</time></trkpt><trkpt lat="45.6298655" lon="8.3211003"><ele>354.8333333333333</ele><time>2026-04-05T14:09:42.659Z</time></trkpt><trkpt lat="45.6297651" lon="8.3210882"><ele>355.0</ele><time>2026-04-05T14:09:43.66Z</time></trkpt><trkpt lat="45.6296732" lon="8.3210785"><ele>355.0</ele><time>2026-04-05T14:09:44.66Z</time></trkpt><trkpt lat="45.6295842" lon="8.3210832"><ele>355.0</ele><time>2026-04-05T14:09:45.655Z</time></trkpt><trkpt lat="45.6295009" lon="8.3211081"><ele>355.0</ele><time>2026-04-05T14:09:46.66Z</time></trkpt><trkpt lat="45.629418" lon="8.3211498"><ele>355.0</ele><time>2026-04-05T14:09:47.661Z</time></trkpt><trkpt lat="45.6293336" lon="8.3211981"><ele>355.0</ele><time>2026-04-05T14:09:48.657Z</time></trkpt><trkpt lat="45.6292485" lon="8.321233"><ele>355.0</ele><time>2026-04-05T14:09:49.66Z</time></trkpt><trkpt lat="45.6291648" lon="8.3212546"><ele>354.1428571428571</ele><time>2026-04-05T14:09:50.653Z</time></trkpt><trkpt lat="45.6290861" lon="8.3212722"><ele>353.2857142857143</ele><time>2026-04-05T14:09:51.661Z</time></trkpt><trkpt lat="45.6290104" lon="8.3212757"><ele>352.42857142857144</ele><time>2026-04-05T14:09:52.67Z</time></trkpt><trkpt lat="45.6289345" lon="8.3212734"><ele>351.57142857142856</ele><time>2026-04-05T14:09:53.656Z</time></trkpt><trkpt lat="45.6288605" lon="8.321272"><ele>350.7142857142857</ele><time>2026-04-05T14:09:54.666Z</time></trkpt><trkpt lat="45.6287877" lon="8.3212797"><ele>349.85714285714283</ele><time>2026-04-05T14:09:55.66Z</time></trkpt><trkpt lat="45.628717" lon="8.3212872"><ele>349.0</ele><time>2026-04-05T14:09:56.664Z</time></trkpt><trkpt lat="45.6286378" lon="8.3212991"><ele>348.0</ele><time>2026-04-05T14:09:57.663Z</time></trkpt><trkpt lat="45.6285524" lon="8.3213078"><ele>347.0</ele><time>2026-04-05T14:09:58.663Z</time></trkpt><trkpt lat="45.6284682" lon="8.3213148"><ele>346.0</ele><time>2026-04-05T14:09:59.667Z</time></trkpt><trkpt lat="45.6283913" lon="8.3213196"><ele>345.0</ele><time>2026-04-05T14:10:00.65Z</time></trkpt><trkpt lat="45.628327" lon="8.3213233"><ele>344.0</ele><time>2026-04-05T14:10:01.653Z</time></trkpt><trkpt lat="45.6282582" lon="8.3213643"><ele>343.0</ele><time>2026-04-05T14:10:03.649Z</time></trkpt><trkpt lat="45.6282296" lon="8.3214623"><ele>343.0</ele><time>2026-04-05T14:10:05.662Z</time></trkpt><trkpt lat="45.6282329" lon="8.3216105"><ele>343.0</ele><time>2026-04-05T14:10:07.657Z</time></trkpt><trkpt lat="45.6282514" lon="8.3217056"><ele>343.0</ele><time>2026-04-05T14:10:08.642Z</time></trkpt><trkpt lat="45.6282758" lon="8.3218082"><ele>343.0</ele><time>2026-04-05T14:10:09.651Z</time></trkpt><trkpt lat="45.6283075" lon="8.3219183"><ele>343.0</ele><time>2026-04-05T14:10:10.644Z</time></trkpt><trkpt lat="45.6283401" lon="8.3220378"><ele>343.0</ele><time>2026-04-05T14:10:11.648Z</time></trkpt><trkpt lat="45.6283608" lon="8.3221597"><ele>341.79999999999995</ele><time>2026-04-05T14:10:12.656Z</time></trkpt><trkpt lat="45.6283754" lon="8.3222895"><ele>340.6</ele><time>2026-04-05T14:10:13.654Z</time></trkpt><trkpt lat="45.6283996" lon="8.3224267"><ele>339.4</ele><time>2026-04-05T14:10:14.654Z</time></trkpt><trkpt lat="45.6284254" lon="8.3225598"><ele>338.20000000000005</ele><time>2026-04-05T14:10:15.656Z</time></trkpt><trkpt lat="45.6284503" lon="8.3226958"><ele>337.0</ele><time>2026-04-05T14:10:16.654Z</time></trkpt><trkpt lat="45.6284928" lon="8.3228242"><ele>337.0</ele><time>2026-04-05T14:10:17.656Z</time></trkpt><trkpt lat="45.6285503" lon="8.3229482"><ele>337.0</ele><time>2026-04-05T14:10:18.657Z</time></trkpt><trkpt lat="45.6286164" lon="8.323049"><ele>337.0</ele><time>2026-04-05T14:10:19.667Z</time></trkpt><trkpt lat="45.6286811" lon="8.323129"><ele>337.0</ele><time>2026-04-05T14:10:20.655Z</time></trkpt><trkpt lat="45.6287641" lon="8.3231507"><ele>337.0</ele><time>2026-04-05T14:10:21.658Z</time></trkpt><trkpt lat="45.628849" lon="8.3231561"><ele>337.3333333333333</ele><time>2026-04-05T14:10:22.647Z</time></trkpt><trkpt lat="45.6289334" lon="8.3231413"><ele>337.66666666666663</ele><time>2026-04-05T14:10:23.657Z</time></trkpt><trkpt lat="45.6290164" lon="8.3231114"><ele>338.0</ele><time>2026-04-05T14:10:24.67Z</time></trkpt><trkpt lat="45.6290948" lon="8.3230735"><ele>338.3333333333333</ele><time>2026-04-05T14:10:25.65Z</time></trkpt><trkpt lat="45.6291657" lon="8.3230436"><ele>338.6666666666667</ele><time>2026-04-05T14:10:26.657Z</time></trkpt><trkpt lat="45.6292622" lon="8.3230072"><ele>339.0</ele><time>2026-04-05T14:10:28.649Z</time></trkpt><trkpt lat="45.6293438" lon="8.3230186"><ele>335.2</ele><time>2026-04-05T14:10:30.662Z</time></trkpt><trkpt lat="45.6293632" lon="8.3231057"><ele>331.4</ele><time>2026-04-05T14:10:33.663Z</time></trkpt><trkpt lat="45.6293083" lon="8.3231804"><ele>327.6</ele><time>2026-04-05T14:10:35.652Z</time></trkpt><trkpt lat="45.62918" lon="8.3232426"><ele>323.8</ele><time>2026-04-05T14:10:37.65Z</time></trkpt><trkpt lat="45.629089" lon="8.3232986"><ele>320.0</ele><time>2026-04-05T14:10:38.657Z</time></trkpt><trkpt lat="45.6289809" lon="8.3233602"><ele>320.0</ele><time>2026-04-05T14:10:39.654Z</time></trkpt><trkpt lat="45.6288634" lon="8.3234243"><ele>320.0</ele><time>2026-04-05T14:10:40.661Z</time></trkpt><trkpt lat="45.6287632" lon="8.3234867"><ele>320.0</ele><time>2026-04-05T14:10:41.666Z</time></trkpt><trkpt lat="45.6286691" lon="8.3235486"><ele>320.0</ele><time>2026-04-05T14:10:42.656Z</time></trkpt><trkpt lat="45.6285755" lon="8.3235879"><ele>320.0</ele><time>2026-04-05T14:10:43.651Z</time></trkpt><trkpt lat="45.6284743" lon="8.3236203"><ele>320.8</ele><time>2026-04-05T14:10:44.662Z</time></trkpt><trkpt lat="45.6283809" lon="8.3236335"><ele>321.6</ele><time>2026-04-05T14:10:45.663Z</time></trkpt><trkpt lat="45.6282837" lon="8.3236363"><ele>322.4</ele><time>2026-04-05T14:10:46.657Z</time></trkpt><trkpt lat="45.6281851" lon="8.3236372"><ele>323.2</ele><time>2026-04-05T14:10:47.667Z</time></trkpt><trkpt lat="45.6280806" lon="8.32364"><ele>324.0</ele><time>2026-04-05T14:10:48.664Z</time></trkpt><trkpt lat="45.6279849" lon="8.3236414"><ele>324.0</ele><time>2026-04-05T14:10:49.671Z</time></trkpt><trkpt lat="45.6278866" lon="8.3236484"><ele>324.0</ele><time>2026-04-05T14:10:50.65Z</time></trkpt><trkpt lat="45.6277858" lon="8.3236631"><ele>324.0</ele><time>2026-04-05T14:10:51.662Z</time></trkpt><trkpt lat="45.6276923" lon="8.3236688"><ele>324.0</ele><time>2026-04-05T14:10:52.65Z</time></trkpt><trkpt lat="45.6275951" lon="8.3236667"><ele>324.0</ele><time>2026-04-05T14:10:53.659Z</time></trkpt><trkpt lat="45.6275049" lon="8.3236629"><ele>322.1666666666667</ele><time>2026-04-05T14:10:54.66Z</time></trkpt><trkpt lat="45.6274173" lon="8.3236663"><ele>320.3333333333333</ele><time>2026-04-05T14:10:55.651Z</time></trkpt><trkpt lat="45.6273304" lon="8.3236698"><ele>318.5</ele><time>2026-04-05T14:10:56.66Z</time></trkpt><trkpt lat="45.6272483" lon="8.323671"><ele>316.66666666666663</ele><time>2026-04-05T14:10:57.648Z</time></trkpt><trkpt lat="45.6271653" lon="8.3236738"><ele>314.8333333333333</ele><time>2026-04-05T14:10:58.665Z</time></trkpt><trkpt lat="45.6270907" lon="8.323677"><ele>313.0</ele><time>2026-04-05T14:10:59.666Z</time></trkpt><trkpt lat="45.6270171" lon="8.3236813"><ele>312.66666666666663</ele><time>2026-04-05T14:11:00.659Z</time></trkpt><trkpt lat="45.6269443" lon="8.323689"><ele>312.3333333333333</ele><time>2026-04-05T14:11:01.647Z</time></trkpt><trkpt lat="45.6268722" lon="8.3237022"><ele>312.0</ele><time>2026-04-05T14:11:02.654Z</time></trkpt><trkpt lat="45.6268009" lon="8.3237289"><ele>311.6666666666667</ele><time>2026-04-05T14:11:03.654Z</time></trkpt><trkpt lat="45.6267364" lon="8.3237656"><ele>311.33333333333337</ele><time>2026-04-05T14:11:04.653Z</time></trkpt><trkpt lat="45.6266439" lon="8.3238592"><ele>311.0</ele><time>2026-04-05T14:11:06.645Z</time></trkpt><trkpt lat="45.626612" lon="8.3239974"><ele>310.0</ele><time>2026-04-05T14:11:08.654Z</time></trkpt><trkpt lat="45.6266365" lon="8.324085"><ele>309.0</ele><time>2026-04-05T14:11:09.659Z</time></trkpt><trkpt lat="45.6266863" lon="8.3241823"><ele>308.0</ele><time>2026-04-05T14:11:10.648Z</time></trkpt><trkpt lat="45.6267501" lon="8.3242888"><ele>307.0</ele><time>2026-04-05T14:11:11.652Z</time></trkpt><trkpt lat="45.6268231" lon="8.3244095"><ele>306.0</ele><time>2026-04-05T14:11:12.654Z</time></trkpt><trkpt lat="45.6268988" lon="8.3245444"><ele>306.0</ele><time>2026-04-05T14:11:13.654Z</time></trkpt><trkpt lat="45.6269702" lon="8.324683"><ele>306.0</ele><time>2026-04-05T14:11:14.653Z</time></trkpt><trkpt lat="45.627038" lon="8.3248202"><ele>306.0</ele><time>2026-04-05T14:11:15.643Z</time></trkpt><trkpt lat="45.6271032" lon="8.324956"><ele>306.0</ele><time>2026-04-05T14:11:16.647Z</time></trkpt><trkpt lat="45.62717" lon="8.3250882"><ele>306.25</ele><time>2026-04-05T14:11:17.645Z</time></trkpt><trkpt lat="45.6272368" lon="8.3252186"><ele>306.5</ele><time>2026-04-05T14:11:18.652Z</time></trkpt><trkpt lat="45.6273034" lon="8.325348"><ele>306.75</ele><time>2026-04-05T14:11:19.655Z</time></trkpt><trkpt lat="45.62737" lon="8.3254812"><ele>307.0</ele><time>2026-04-05T14:11:20.665Z</time></trkpt><trkpt lat="45.6274377" lon="8.3256147"><ele>307.0</ele><time>2026-04-05T14:11:21.65Z</time></trkpt><trkpt lat="45.6275049" lon="8.3257467"><ele>307.0</ele><time>2026-04-05T14:11:22.65Z</time></trkpt><trkpt lat="45.6275733" lon="8.3258801"><ele>307.0</ele><time>2026-04-05T14:11:23.653Z</time></trkpt><trkpt lat="45.6276466" lon="8.3260027"><ele>307.0</ele><time>2026-04-05T14:11:24.654Z</time></trkpt><trkpt lat="45.6277259" lon="8.3261064"><ele>307.0</ele><time>2026-04-05T14:11:25.65Z</time></trkpt><trkpt lat="45.6278079" lon="8.3261982"><ele>307.0</ele><time>2026-04-05T14:11:26.657Z</time></trkpt><trkpt lat="45.6278897" lon="8.3262887"><ele>307.0</ele><time>2026-04-05T14:11:27.648Z</time></trkpt><trkpt lat="45.6279712" lon="8.3263791"><ele>307.0</ele><time>2026-04-05T14:11:28.652Z</time></trkpt><trkpt lat="45.6280529" lon="8.3264764"><ele>307.0</ele><time>2026-04-05T14:11:29.647Z</time></trkpt><trkpt lat="45.6281296" lon="8.3265801"><ele>310.5</ele><time>2026-04-05T14:11:30.658Z</time></trkpt><trkpt lat="45.6282005" lon="8.3266878"><ele>314.0</ele><time>2026-04-05T14:11:31.659Z</time></trkpt><trkpt lat="45.6282701" lon="8.3268084"><ele>317.5</ele><time>2026-04-05T14:11:32.643Z</time></trkpt><trkpt lat="45.6283342" lon="8.3269542"><ele>321.0</ele><time>2026-04-05T14:11:33.654Z</time></trkpt><trkpt lat="45.628395" lon="8.3271091"><ele>323.0</ele><time>2026-04-05T14:11:34.657Z</time></trkpt><trkpt lat="45.6284521" lon="8.3272647"><ele>325.0</ele><time>2026-04-05T14:11:35.652Z</time></trkpt><trkpt lat="45.6285037" lon="8.3274036"><ele>327.0</ele><time>2026-04-05T14:11:36.655Z</time></trkpt><trkpt lat="45.6285491" lon="8.3275296"><ele>329.0</ele><time>2026-04-05T14:11:37.652Z</time></trkpt><trkpt lat="45.6285923" lon="8.3276425"><ele>331.0</ele><time>2026-04-05T14:11:38.651Z</time></trkpt><trkpt lat="45.6286363" lon="8.3277415"><ele>331.66666666666663</ele><time>2026-04-05T14:11:39.649Z</time></trkpt><trkpt lat="45.6286797" lon="8.3278326"><ele>332.3333333333333</ele><time>2026-04-05T14:11:40.645Z</time></trkpt><trkpt lat="45.6287102" lon="8.3279205"><ele>333.0</ele><time>2026-04-05T14:11:41.651Z</time></trkpt><trkpt lat="45.6287422" lon="8.3280067"><ele>333.6666666666667</ele><time>2026-04-05T14:11:42.64Z</time></trkpt><trkpt lat="45.6287931" lon="8.3281573"><ele>334.33333333333337</ele><time>2026-04-05T14:11:44.652Z</time></trkpt><trkpt lat="45.6288712" lon="8.3282612"><ele>335.0</ele><time>2026-04-05T14:11:46.65Z</time></trkpt><trkpt lat="45.6289717" lon="8.3283395"><ele>335.0</ele><time>2026-04-05T14:11:48.648Z</time></trkpt><trkpt lat="45.629078" lon="8.3284022"><ele>335.0</ele><time>2026-04-05T14:11:50.653Z</time></trkpt><trkpt lat="45.629189" lon="8.3284233"><ele>335.0</ele><time>2026-04-05T14:11:52.661Z</time></trkpt><trkpt lat="45.6292639" lon="8.3284284"><ele>335.0</ele><time>2026-04-05T14:11:53.657Z</time></trkpt><trkpt lat="45.6293429" lon="8.3284299"><ele>335.0</ele><time>2026-04-05T14:11:54.656Z</time></trkpt><trkpt lat="45.6294259" lon="8.3284391"><ele>336.57142857142856</ele><time>2026-04-05T14:11:55.657Z</time></trkpt><trkpt lat="45.629497" lon="8.3284518"><ele>338.1428571428571</ele><time>2026-04-05T14:11:56.653Z</time></trkpt><trkpt lat="45.629601" lon="8.3284503"><ele>339.71428571428567</ele><time>2026-04-05T14:11:58.655Z</time></trkpt><trkpt lat="45.6295657" lon="8.3283708"><ele>341.2857142857143</ele><time>2026-04-05T14:12:03.644Z</time></trkpt><trkpt lat="45.6294952" lon="8.3283518"><ele>342.8571428571429</ele><time>2026-04-05T14:12:05.645Z</time></trkpt><trkpt lat="45.62955" lon="8.328298"><ele>344.4285714285714</ele><time>2026-04-05T14:12:09.657Z</time></trkpt><trkpt lat="45.6296135" lon="8.3282986"><ele>346.0</ele><time>2026-04-05T14:12:10.656Z</time></trkpt><trkpt lat="45.6296778" lon="8.3282955"><ele>346.0</ele><time>2026-04-05T14:12:11.652Z</time></trkpt><trkpt lat="45.629742" lon="8.3282916"><ele>346.0</ele><time>2026-04-05T14:12:12.655Z</time></trkpt><trkpt lat="45.6298079" lon="8.3282852"><ele>346.0</ele><time>2026-04-05T14:12:13.653Z</time></trkpt><trkpt lat="45.6298837" lon="8.3282705"><ele>346.0</ele><time>2026-04-05T14:12:14.65Z</time></trkpt><trkpt lat="45.6299669" lon="8.3282521"><ele>346.0</ele><time>2026-04-05T14:12:15.651Z</time></trkpt><trkpt lat="45.6300585" lon="8.3282206"><ele>346.0</ele><time>2026-04-05T14:12:16.657Z</time></trkpt><trkpt lat="45.6301438" lon="8.328195"><ele>346.0</ele><time>2026-04-05T14:12:17.654Z</time></trkpt><trkpt lat="45.630236" lon="8.3281753"><ele>346.0</ele><time>2026-04-05T14:12:18.648Z</time></trkpt><trkpt lat="45.6303195" lon="8.3281678"><ele>346.0</ele><time>2026-04-05T14:12:19.651Z</time></trkpt><trkpt lat="45.6304078" lon="8.3281651"><ele>346.0</ele><time>2026-04-05T14:12:20.661Z</time></trkpt><trkpt lat="45.6304981" lon="8.3281619"><ele>346.0</ele><time>2026-04-05T14:12:21.662Z</time></trkpt><trkpt lat="45.630579" lon="8.328149"><ele>346.0</ele><time>2026-04-05T14:12:22.653Z</time></trkpt><trkpt lat="45.6306449" lon="8.328132"><ele>347.6</ele><time>2026-04-05T14:12:23.66Z</time></trkpt><trkpt lat="45.6307667" lon="8.3280561"><ele>349.20000000000005</ele><time>2026-04-05T14:12:25.653Z</time></trkpt><trkpt lat="45.6308211" lon="8.3279948"><ele>350.79999999999995</ele><time>2026-04-05T14:12:26.649Z</time></trkpt><trkpt lat="45.6308778" lon="8.3279239"><ele>352.4</ele><time>2026-04-05T14:12:27.653Z</time></trkpt><trkpt lat="45.6309312" lon="8.3278601"><ele>354.0</ele><time>2026-04-05T14:12:28.645Z</time></trkpt><trkpt lat="45.63104" lon="8.3278027"><ele>354.0</ele><time>2026-04-05T14:12:30.655Z</time></trkpt><trkpt lat="45.6311114" lon="8.3278102"><ele>354.0</ele><time>2026-04-05T14:12:31.652Z</time></trkpt><trkpt lat="45.6311965" lon="8.3278316"><ele>354.0</ele><time>2026-04-05T14:12:32.652Z</time></trkpt><trkpt lat="45.631286" lon="8.327862"><ele>354.0</ele><time>2026-04-05T14:12:33.657Z</time></trkpt><trkpt lat="45.6313825" lon="8.3278955"><ele>354.0</ele><time>2026-04-05T14:12:34.65Z</time></trkpt><trkpt lat="45.6314927" lon="8.3279287"><ele>356.4</ele><time>2026-04-05T14:12:35.654Z</time></trkpt><trkpt lat="45.6316015" lon="8.3279526"><ele>358.79999999999995</ele><time>2026-04-05T14:12:36.653Z</time></trkpt><trkpt lat="45.6317055" lon="8.3279677"><ele>361.20000000000005</ele><time>2026-04-05T14:12:37.652Z</time></trkpt><trkpt lat="45.6318044" lon="8.3279753"><ele>363.6</ele><time>2026-04-05T14:12:38.662Z</time></trkpt><trkpt lat="45.631891" lon="8.3279939"><ele>366.0</ele><time>2026-04-05T14:12:39.65Z</time></trkpt><trkpt lat="45.6319749" lon="8.3280405"><ele>366.57142857142856</ele><time>2026-04-05T14:12:40.652Z</time></trkpt><trkpt lat="45.6320489" lon="8.3280958"><ele>367.14285714285717</ele><time>2026-04-05T14:12:41.66Z</time></trkpt><trkpt lat="45.6321091" lon="8.3281436"><ele>367.71428571428567</ele><time>2026-04-05T14:12:42.649Z</time></trkpt><trkpt lat="45.6321794" lon="8.3281748"><ele>368.2857142857143</ele><time>2026-04-05T14:12:43.655Z</time></trkpt><trkpt lat="45.6322463" lon="8.3281827"><ele>368.85714285714283</ele><time>2026-04-05T14:12:44.656Z</time></trkpt><trkpt lat="45.6323264" lon="8.3281781"><ele>369.4285714285714</ele><time>2026-04-05T14:12:45.657Z</time></trkpt><trkpt lat="45.6324026" lon="8.3281758"><ele>370.0</ele><time>2026-04-05T14:12:46.645Z</time></trkpt><trkpt lat="45.6324797" lon="8.328177"><ele>370.0</ele><time>2026-04-05T14:12:47.65Z</time></trkpt><trkpt lat="45.6325633" lon="8.3281708"><ele>370.0</ele><time>2026-04-05T14:12:48.649Z</time></trkpt><trkpt lat="45.6326569" lon="8.3281606"><ele>370.0</ele><time>2026-04-05T14:12:49.653Z</time></trkpt><trkpt lat="45.6327584" lon="8.3281592"><ele>370.0</ele><time>2026-04-05T14:12:50.659Z</time></trkpt><trkpt lat="45.6328556" lon="8.3281666"><ele>370.0</ele><time>2026-04-05T14:12:51.647Z</time></trkpt><trkpt lat="45.632949" lon="8.3281816"><ele>370.2</ele><time>2026-04-05T14:12:52.656Z</time></trkpt><trkpt lat="45.6330363" lon="8.3282101"><ele>370.4</ele><time>2026-04-05T14:12:53.656Z</time></trkpt><trkpt lat="45.6331173" lon="8.3282583"><ele>370.6</ele><time>2026-04-05T14:12:54.644Z</time></trkpt><trkpt lat="45.6331947" lon="8.328335"><ele>370.8</ele><time>2026-04-05T14:12:55.655Z</time></trkpt><trkpt lat="45.6332588" lon="8.3284359"><ele>371.0</ele><time>2026-04-05T14:12:56.65Z</time></trkpt><trkpt lat="45.6333138" lon="8.3285381"><ele>371.0</ele><time>2026-04-05T14:12:57.652Z</time></trkpt><trkpt lat="45.6333677" lon="8.3286334"><ele>371.0</ele><time>2026-04-05T14:12:58.658Z</time></trkpt><trkpt lat="45.6334245" lon="8.3287029"><ele>371.0</ele><time>2026-04-05T14:12:59.653Z</time></trkpt><trkpt lat="45.6334816" lon="8.3287483"><ele>371.0</ele><time>2026-04-05T14:13:00.661Z</time></trkpt><trkpt lat="45.6335404" lon="8.328783"><ele>371.0</ele><time>2026-04-05T14:13:01.652Z</time></trkpt><trkpt lat="45.6336437" lon="8.3288355"><ele>371.0</ele><time>2026-04-05T14:13:03.642Z</time></trkpt><trkpt lat="45.6337078" lon="8.3288592"><ele>372.42857142857144</ele><time>2026-04-05T14:13:04.655Z</time></trkpt><trkpt lat="45.6337739" lon="8.3288715"><ele>373.8571428571429</ele><time>2026-04-05T14:13:05.649Z</time></trkpt><trkpt lat="45.633842" lon="8.3288832"><ele>375.2857142857143</ele><time>2026-04-05T14:13:06.648Z</time></trkpt><trkpt lat="45.6339053" lon="8.3289041"><ele>376.7142857142857</ele><time>2026-04-05T14:13:07.649Z</time></trkpt><trkpt lat="45.6339635" lon="8.3289487"><ele>378.14285714285717</ele><time>2026-04-05T14:13:08.648Z</time></trkpt><trkpt lat="45.6340217" lon="8.3290134"><ele>379.57142857142856</ele><time>2026-04-05T14:13:09.646Z</time></trkpt><trkpt lat="45.6340879" lon="8.3291092"><ele>381.0</ele><time>2026-04-05T14:13:10.654Z</time></trkpt><trkpt lat="45.6341463" lon="8.3292099"><ele>382.3333333333333</ele><time>2026-04-05T14:13:11.645Z</time></trkpt><trkpt lat="45.6341936" lon="8.3293172"><ele>383.66666666666663</ele><time>2026-04-05T14:13:12.655Z</time></trkpt><trkpt lat="45.6342334" lon="8.329415"><ele>385.0</ele><time>2026-04-05T14:13:13.654Z</time></trkpt><trkpt lat="45.6342716" lon="8.3294994"><ele>386.3333333333333</ele><time>2026-04-05T14:13:14.654Z</time></trkpt><trkpt lat="45.634337" lon="8.3295282"><ele>387.66666666666663</ele><time>2026-04-05T14:13:16.651Z</time></trkpt><trkpt lat="45.63438" lon="8.3294348"><ele>389.0</ele><time>2026-04-05T14:13:18.646Z</time></trkpt><trkpt lat="45.634452" lon="8.329274"><ele>389.8333333333333</ele><time>2026-04-05T14:13:20.652Z</time></trkpt><trkpt lat="45.6345109" lon="8.3291957"><ele>390.66666666666663</ele><time>2026-04-05T14:13:21.664Z</time></trkpt><trkpt lat="45.6345719" lon="8.3291198"><ele>391.5</ele><time>2026-04-05T14:13:22.65Z</time></trkpt><trkpt lat="45.6346238" lon="8.3290375"><ele>392.33333333333337</ele><time>2026-04-05T14:13:23.649Z</time></trkpt><trkpt lat="45.6346656" lon="8.3289509"><ele>393.1666666666667</ele><time>2026-04-05T14:13:24.653Z</time></trkpt><trkpt lat="45.6347009" lon="8.3288736"><ele>394.0</ele><time>2026-04-05T14:13:25.656Z</time></trkpt><trkpt lat="45.6347759" lon="8.3287599"><ele>394.0</ele><time>2026-04-05T14:13:27.651Z</time></trkpt><trkpt lat="45.6348715" lon="8.3287052"><ele>394.0</ele><time>2026-04-05T14:13:29.646Z</time></trkpt><trkpt lat="45.6349671" lon="8.3287233"><ele>394.0</ele><time>2026-04-05T14:13:31.652Z</time></trkpt><trkpt lat="45.6350605" lon="8.3288043"><ele>394.0</ele><time>2026-04-05T14:13:33.647Z</time></trkpt><trkpt lat="45.6351231" lon="8.3288469"><ele>394.0</ele><time>2026-04-05T14:13:34.652Z</time></trkpt><trkpt lat="45.6351942" lon="8.328898"><ele>396.0</ele><time>2026-04-05T14:13:35.652Z</time></trkpt><trkpt lat="45.6352634" lon="8.3289519"><ele>398.0</ele><time>2026-04-05T14:13:36.644Z</time></trkpt><trkpt lat="45.635331" lon="8.3290091"><ele>400.0</ele><time>2026-04-05T14:13:37.647Z</time></trkpt><trkpt lat="45.6353951" lon="8.3290657"><ele>402.0</ele><time>2026-04-05T14:13:38.652Z</time></trkpt><trkpt lat="45.6354537" lon="8.3291155"><ele>404.0</ele><time>2026-04-05T14:13:39.646Z</time></trkpt><trkpt lat="45.6355139" lon="8.3291544"><ele>406.0</ele><time>2026-04-05T14:13:40.653Z</time></trkpt><trkpt lat="45.635574" lon="8.3291873"><ele>408.0</ele><time>2026-04-05T14:13:41.648Z</time></trkpt><trkpt lat="45.635639" lon="8.3292068"><ele>409.0</ele><time>2026-04-05T14:13:42.656Z</time></trkpt><trkpt lat="45.6357073" lon="8.3292192"><ele>410.0</ele><time>2026-04-05T14:13:43.657Z</time></trkpt><trkpt lat="45.6357848" lon="8.3292224"><ele>411.0</ele><time>2026-04-05T14:13:44.647Z</time></trkpt><trkpt lat="45.6358658" lon="8.3292209"><ele>412.0</ele><time>2026-04-05T14:13:45.663Z</time></trkpt><trkpt lat="45.6359447" lon="8.3292017"><ele>413.0</ele><time>2026-04-05T14:13:46.662Z</time></trkpt><trkpt lat="45.6360211" lon="8.3291872"><ele>414.0</ele><time>2026-04-05T14:13:47.654Z</time></trkpt><trkpt lat="45.6360948" lon="8.3291766"><ele>414.5714285714286</ele><time>2026-04-05T14:13:48.654Z</time></trkpt><trkpt lat="45.6361677" lon="8.3291632"><ele>415.14285714285717</ele><time>2026-04-05T14:13:49.65Z</time></trkpt><trkpt lat="45.6362396" lon="8.3291484"><ele>415.7142857142857</ele><time>2026-04-05T14:13:50.65Z</time></trkpt><trkpt lat="45.6363084" lon="8.3291439"><ele>416.28571428571433</ele><time>2026-04-05T14:13:51.664Z</time></trkpt><trkpt lat="45.6363718" lon="8.3291535"><ele>416.85714285714283</ele><time>2026-04-05T14:13:52.653Z</time></trkpt><trkpt lat="45.6364404" lon="8.3291679"><ele>417.42857142857144</ele><time>2026-04-05T14:13:53.663Z</time></trkpt><trkpt lat="45.6365126" lon="8.329171"><ele>418.0</ele><time>2026-04-05T14:13:54.653Z</time></trkpt><trkpt lat="45.6365919" lon="8.3291597"><ele>418.0</ele><time>2026-04-05T14:13:55.652Z</time></trkpt><trkpt lat="45.6366844" lon="8.3291182"><ele>418.0</ele><time>2026-04-05T14:13:56.658Z</time></trkpt><trkpt lat="45.6367841" lon="8.3290714"><ele>418.0</ele><time>2026-04-05T14:13:57.651Z</time></trkpt><trkpt lat="45.6368944" lon="8.3290447"><ele>418.0</ele><time>2026-04-05T14:13:58.652Z</time></trkpt><trkpt lat="45.6370155" lon="8.3290414"><ele>418.0</ele><time>2026-04-05T14:13:59.66Z</time></trkpt><trkpt lat="45.6371447" lon="8.329044"><ele>419.0</ele><time>2026-04-05T14:14:00.653Z</time></trkpt><trkpt lat="45.6372711" lon="8.3290434"><ele>420.0</ele><time>2026-04-05T14:14:01.647Z</time></trkpt><trkpt lat="45.6373912" lon="8.329048"><ele>421.0</ele><time>2026-04-05T14:14:02.663Z</time></trkpt><trkpt lat="45.6375007" lon="8.3290478"><ele>422.0</ele><time>2026-04-05T14:14:03.652Z</time></trkpt><trkpt lat="45.6375961" lon="8.3290259"><ele>421.99999999999994</ele><time>2026-04-05T14:14:04.645Z</time></trkpt><trkpt lat="45.6376768" lon="8.3289842"><ele>422.0</ele><time>2026-04-05T14:14:05.655Z</time></trkpt><trkpt lat="45.6377476" lon="8.3289523"><ele>422.0</ele><time>2026-04-05T14:14:06.646Z</time></trkpt><trkpt lat="45.6378194" lon="8.3289382"><ele>422.0</ele><time>2026-04-05T14:14:07.653Z</time></trkpt><trkpt lat="45.6378928" lon="8.3289393"><ele>421.99999999999994</ele><time>2026-04-05T14:14:08.661Z</time></trkpt><trkpt lat="45.6379687" lon="8.3289677"><ele>422.0</ele><time>2026-04-05T14:14:09.649Z</time></trkpt><trkpt lat="45.6380439" lon="8.3290194"><ele>422.3333333333333</ele><time>2026-04-05T14:14:10.659Z</time></trkpt><trkpt lat="45.6381212" lon="8.3290793"><ele>422.66666666666663</ele><time>2026-04-05T14:14:11.653Z</time></trkpt><trkpt lat="45.6381958" lon="8.3291276"><ele>423.0</ele><time>2026-04-05T14:14:12.657Z</time></trkpt><trkpt lat="45.6382611" lon="8.3291543"><ele>423.33333333333337</ele><time>2026-04-05T14:14:13.641Z</time></trkpt><trkpt lat="45.638335" lon="8.329176"><ele>423.6666666666667</ele><time>2026-04-05T14:14:14.66Z</time></trkpt><trkpt lat="45.6384114" lon="8.3291967"><ele>424.0</ele><time>2026-04-05T14:14:15.649Z</time></trkpt><trkpt lat="45.6384833" lon="8.3292271"><ele>424.00000000000006</ele><time>2026-04-05T14:14:16.65Z</time></trkpt><trkpt lat="45.6385452" lon="8.3292622"><ele>424.0</ele><time>2026-04-05T14:14:17.65Z</time></trkpt><trkpt lat="45.6386075" lon="8.3293111"><ele>424.0</ele><time>2026-04-05T14:14:18.648Z</time></trkpt><trkpt lat="45.6386669" lon="8.3293762"><ele>424.0</ele><time>2026-04-05T14:14:19.66Z</time></trkpt><trkpt lat="45.6387188" lon="8.3294607"><ele>424.00000000000006</ele><time>2026-04-05T14:14:20.65Z</time></trkpt><trkpt lat="45.6387738" lon="8.3295539"><ele>424.0</ele><time>2026-04-05T14:14:21.651Z</time></trkpt><trkpt lat="45.6388405" lon="8.3296339"><ele>426.00000000000006</ele><time>2026-04-05T14:14:22.652Z</time></trkpt><trkpt lat="45.6389198" lon="8.3297037"><ele>428.0</ele><time>2026-04-05T14:14:23.655Z</time></trkpt><trkpt lat="45.6390036" lon="8.3297607"><ele>430.0</ele><time>2026-04-05T14:14:24.646Z</time></trkpt><trkpt lat="45.6390884" lon="8.329803"><ele>432.0</ele><time>2026-04-05T14:14:25.65Z</time></trkpt><trkpt lat="45.639167" lon="8.3298502"><ele>434.00000000000006</ele><time>2026-04-05T14:14:26.648Z</time></trkpt><trkpt lat="45.6392328" lon="8.3299203"><ele>436.0</ele><time>2026-04-05T14:14:27.65Z</time></trkpt><trkpt lat="45.6392804" lon="8.3300065"><ele>437.00000000000006</ele><time>2026-04-05T14:14:28.657Z</time></trkpt><trkpt lat="45.6393016" lon="8.3301108"><ele>438.0</ele><time>2026-04-05T14:14:29.657Z</time></trkpt><trkpt lat="45.6393134" lon="8.3302171"><ele>439.0</ele><time>2026-04-05T14:14:30.647Z</time></trkpt><trkpt lat="45.6393315" lon="8.3303188"><ele>440.0</ele><time>2026-04-05T14:14:31.654Z</time></trkpt><trkpt lat="45.6393681" lon="8.3304087"><ele>441.00000000000006</ele><time>2026-04-05T14:14:32.654Z</time></trkpt><trkpt lat="45.6394245" lon="8.3304901"><ele>442.0</ele><time>2026-04-05T14:14:33.65Z</time></trkpt><trkpt lat="45.6394843" lon="8.3305663"><ele>445.14285714285717</ele><time>2026-04-05T14:14:34.66Z</time></trkpt><trkpt lat="45.6395352" lon="8.3306448"><ele>448.28571428571433</ele><time>2026-04-05T14:14:35.655Z</time></trkpt><trkpt lat="45.6395743" lon="8.3307326"><ele>451.42857142857144</ele><time>2026-04-05T14:14:36.648Z</time></trkpt><trkpt lat="45.639609" lon="8.3308222"><ele>454.5714285714286</ele><time>2026-04-05T14:14:37.657Z</time></trkpt><trkpt lat="45.6396495" lon="8.3309105"><ele>457.7142857142857</ele><time>2026-04-05T14:14:38.649Z</time></trkpt><trkpt lat="45.6396958" lon="8.3309941"><ele>460.85714285714295</ele><time>2026-04-05T14:14:39.666Z</time></trkpt><trkpt lat="45.639751" lon="8.3310727"><ele>464.00000000000006</ele><time>2026-04-05T14:14:40.656Z</time></trkpt><trkpt lat="45.6398171" lon="8.331149"><ele>463.99999999999994</ele><time>2026-04-05T14:14:41.652Z</time></trkpt><trkpt lat="45.6398809" lon="8.3312251"><ele>464.0</ele><time>2026-04-05T14:14:42.656Z</time></trkpt><trkpt lat="45.6399345" lon="8.3313042"><ele>464.0</ele><time>2026-04-05T14:14:43.653Z</time></trkpt><trkpt lat="45.6399844" lon="8.3313897"><ele>464.0</ele><time>2026-04-05T14:14:44.653Z</time></trkpt><trkpt lat="45.6400367" lon="8.3314749"><ele>463.99999999999994</ele><time>2026-04-05T14:14:45.646Z</time></trkpt><trkpt lat="45.6400969" lon="8.3315508"><ele>464.0</ele><time>2026-04-05T14:14:46.658Z</time></trkpt><trkpt lat="45.6401627" lon="8.3316086"><ele>463.3333333333333</ele><time>2026-04-05T14:14:47.655Z</time></trkpt><trkpt lat="45.6402312" lon="8.3316499"><ele>462.66666666666663</ele><time>2026-04-05T14:14:48.651Z</time></trkpt><trkpt lat="45.6402961" lon="8.3316863"><ele>462.0</ele><time>2026-04-05T14:14:49.662Z</time></trkpt><trkpt lat="45.6404074" lon="8.3317543"><ele>461.33333333333337</ele><time>2026-04-05T14:14:51.656Z</time></trkpt><trkpt lat="45.6404793" lon="8.3318138"><ele>460.6666666666667</ele><time>2026-04-05T14:14:53.647Z</time></trkpt><trkpt lat="45.6405527" lon="8.3319087"><ele>460.0</ele><time>2026-04-05T14:15:28.658Z</time></trkpt><trkpt lat="45.6405933" lon="8.3320539"><ele>463.83333333333337</ele><time>2026-04-05T14:15:30.653Z</time></trkpt><trkpt lat="45.6406382" lon="8.3322075"><ele>467.6666666666667</ele><time>2026-04-05T14:15:32.654Z</time></trkpt><trkpt lat="45.6406211" lon="8.3323838"><ele>471.5</ele><time>2026-04-05T14:15:34.652Z</time></trkpt><trkpt lat="45.6405826" lon="8.3324639"><ele>475.33333333333337</ele><time>2026-04-05T14:15:35.646Z</time></trkpt><trkpt lat="45.6405392" lon="8.3325406"><ele>479.1666666666667</ele><time>2026-04-05T14:15:36.647Z</time></trkpt><trkpt lat="45.6404977" lon="8.3326241"><ele>483.0</ele><time>2026-04-05T14:15:37.648Z</time></trkpt><trkpt lat="45.6404594" lon="8.3327142"><ele>483.7142857142857</ele><time>2026-04-05T14:15:38.65Z</time></trkpt><trkpt lat="45.6404361" lon="8.3327988"><ele>484.42857142857144</ele><time>2026-04-05T14:15:39.649Z</time></trkpt><trkpt lat="45.6404249" lon="8.3328961"><ele>485.1428571428571</ele><time>2026-04-05T14:15:40.644Z</time></trkpt><trkpt lat="45.6404247" lon="8.3330115"><ele>485.85714285714283</ele><time>2026-04-05T14:15:41.651Z</time></trkpt><trkpt lat="45.640423" lon="8.3331191"><ele>486.57142857142856</ele><time>2026-04-05T14:15:42.645Z</time></trkpt><trkpt lat="45.6404199" lon="8.333231"><ele>487.2857142857142</ele><time>2026-04-05T14:15:43.659Z</time></trkpt><trkpt lat="45.6404154" lon="8.3333354"><ele>487.99999999999994</ele><time>2026-04-05T14:15:44.654Z</time></trkpt><trkpt lat="45.6404105" lon="8.3334374"><ele>488.0</ele><time>2026-04-05T14:15:45.641Z</time></trkpt><trkpt lat="45.640385" lon="8.3335972"><ele>487.99999999999994</ele><time>2026-04-05T14:15:47.651Z</time></trkpt><trkpt lat="45.6403536" lon="8.3337402"><ele>487.99999999999994</ele><time>2026-04-05T14:15:49.645Z</time></trkpt><trkpt lat="45.6403362" lon="8.3338293"><ele>488.0</ele><time>2026-04-05T14:15:51.65Z</time></trkpt><trkpt lat="45.6403539" lon="8.3337008"><ele>488.0</ele><time>2026-04-05T14:16:03.644Z</time></trkpt><trkpt lat="45.640368" lon="8.3335706"><ele>487.99999999999994</ele><time>2026-04-05T14:16:05.655Z</time></trkpt><trkpt lat="45.6403734" lon="8.3334746"><ele>488.0</ele><time>2026-04-05T14:16:07.656Z</time></trkpt><trkpt lat="45.6403699" lon="8.3333392"><ele>488.0</ele><time>2026-04-05T14:16:10.651Z</time></trkpt><trkpt lat="45.6403716" lon="8.3332391"><ele>488.0</ele><time>2026-04-05T14:16:12.645Z</time></trkpt><trkpt lat="45.6403787" lon="8.3331424"><ele>487.99999999999994</ele><time>2026-04-05T14:16:15.642Z</time></trkpt><trkpt lat="45.6403724" lon="8.3332481"><ele>488.0</ele><time>2026-04-05T14:16:20.649Z</time></trkpt><trkpt lat="45.6403865" lon="8.3333823"><ele>488.0</ele><time>2026-04-05T14:16:22.655Z</time></trkpt><trkpt lat="45.6403783" lon="8.3335352"><ele>487.99999999999994</ele><time>2026-04-05T14:16:24.651Z</time></trkpt><trkpt lat="45.6403583" lon="8.3336774"><ele>487.99999999999994</ele><time>2026-04-05T14:16:26.652Z</time></trkpt><trkpt lat="45.6403395" lon="8.333795"><ele>488.0</ele><time>2026-04-05T14:16:28.654Z</time></trkpt><trkpt lat="45.6403838" lon="8.3338826"><ele>488.0</ele><time>2026-04-05T14:16:31.647Z</time></trkpt><trkpt lat="45.6404796" lon="8.3339732"><ele>487.99999999999994</ele><time>2026-04-05T14:16:33.646Z</time></trkpt><trkpt lat="45.6405659" lon="8.3340175"><ele>488.0</ele><time>2026-04-05T14:16:35.652Z</time></trkpt><trkpt lat="45.6406311" lon="8.3339271"><ele>488.0</ele><time>2026-04-05T14:16:37.65Z</time></trkpt><trkpt lat="45.6406477" lon="8.333756"><ele>488.0</ele><time>2026-04-05T14:16:39.641Z</time></trkpt><trkpt lat="45.6406488" lon="8.3336531"><ele>487.99999999999994</ele><time>2026-04-05T14:16:40.65Z</time></trkpt><trkpt lat="45.6406528" lon="8.3335536"><ele>488.0</ele><time>2026-04-05T14:16:41.648Z</time></trkpt><trkpt lat="45.6406672" lon="8.3334648"><ele>488.0</ele><time>2026-04-05T14:16:42.649Z</time></trkpt><trkpt lat="45.6407254" lon="8.3333199"><ele>487.99999999999994</ele><time>2026-04-05T14:16:44.643Z</time></trkpt><trkpt lat="45.6407838" lon="8.3331957"><ele>487.99999999999994</ele><time>2026-04-05T14:16:46.652Z</time></trkpt><trkpt lat="45.6408339" lon="8.3331149"><ele>488.0</ele><time>2026-04-05T14:16:48.642Z</time></trkpt><trkpt lat="45.6408889" lon="8.3330301"><ele>488.0</ele><time>2026-04-05T14:17:00.65Z</time></trkpt><trkpt lat="45.6409505" lon="8.3329393"><ele>488.4</ele><time>2026-04-05T14:17:02.648Z</time></trkpt><trkpt lat="45.6410522" lon="8.3328339"><ele>488.79999999999995</ele><time>2026-04-05T14:17:04.649Z</time></trkpt><trkpt lat="45.641097" lon="8.3327682"><ele>489.2</ele><time>2026-04-05T14:17:05.656Z</time></trkpt><trkpt lat="45.6411678" lon="8.3326308"><ele>489.6</ele><time>2026-04-05T14:17:07.657Z</time></trkpt><trkpt lat="45.6412109" lon="8.332468"><ele>490.0</ele><time>2026-04-05T14:17:09.663Z</time></trkpt><trkpt lat="45.6412287" lon="8.3323794"><ele>491.33333333333337</ele><time>2026-04-05T14:17:10.639Z</time></trkpt><trkpt lat="45.6412497" lon="8.3322887"><ele>492.6666666666667</ele><time>2026-04-05T14:17:11.659Z</time></trkpt><trkpt lat="45.6413053" lon="8.3321383"><ele>494.0</ele><time>2026-04-05T14:17:13.655Z</time></trkpt><trkpt lat="45.6413665" lon="8.3320374"><ele>495.33333333333337</ele><time>2026-04-05T14:17:15.656Z</time></trkpt><trkpt lat="45.6414342" lon="8.3320203"><ele>496.6666666666667</ele><time>2026-04-05T14:17:18.647Z</time></trkpt><trkpt lat="45.6414514" lon="8.3321187"><ele>498.0</ele><time>2026-04-05T14:17:21.654Z</time></trkpt><trkpt lat="45.6414182" lon="8.3321963"><ele>500.8333333333333</ele><time>2026-04-05T14:17:23.65Z</time></trkpt><trkpt lat="45.641425" lon="8.3323233"><ele>503.66666666666663</ele><time>2026-04-05T14:17:26.652Z</time></trkpt><trkpt lat="45.6414285" lon="8.3324231"><ele>506.5</ele><time>2026-04-05T14:17:29.637Z</time></trkpt><trkpt lat="45.6414206" lon="8.3325226"><ele>509.3333333333333</ele><time>2026-04-05T14:17:32.651Z</time></trkpt><trkpt lat="45.6414391" lon="8.3326307"><ele>512.1666666666666</ele><time>2026-04-05T14:17:35.647Z</time></trkpt><trkpt lat="45.6414847" lon="8.3327311"><ele>515.0</ele><time>2026-04-05T14:17:38.642Z</time></trkpt><trkpt lat="45.6415533" lon="8.3327947"><ele>515.0</ele><time>2026-04-05T14:17:41.647Z</time></trkpt><trkpt lat="45.6416295" lon="8.3328255"><ele>515.0</ele><time>2026-04-05T14:17:44.644Z</time></trkpt><trkpt lat="45.6417023" lon="8.3328379"><ele>515.0</ele><time>2026-04-05T14:17:47.651Z</time></trkpt><trkpt lat="45.6417769" lon="8.3329444"><ele>515.0</ele><time>2026-04-05T14:17:50.646Z</time></trkpt><trkpt lat="45.6418449" lon="8.3330647"><ele>515.0</ele><time>2026-04-05T14:17:52.653Z</time></trkpt><trkpt lat="45.6419373" lon="8.3331469"><ele>515.6</ele><time>2026-04-05T14:17:54.653Z</time></trkpt><trkpt lat="45.6420197" lon="8.3332127"><ele>516.2</ele><time>2026-04-05T14:17:56.643Z</time></trkpt><trkpt lat="45.6421107" lon="8.3332642"><ele>516.8</ele><time>2026-04-05T14:17:58.646Z</time></trkpt><trkpt lat="45.6422323" lon="8.3333307"><ele>517.4</ele><time>2026-04-05T14:18:00.654Z</time></trkpt><trkpt lat="45.6423016" lon="8.3333733"><ele>518.0</ele><time>2026-04-05T14:18:01.652Z</time></trkpt><trkpt lat="45.6423739" lon="8.3334217"><ele>518.0</ele><time>2026-04-05T14:18:02.657Z</time></trkpt><trkpt lat="45.6424419" lon="8.3334842"><ele>518.0</ele><time>2026-04-05T14:18:03.655Z</time></trkpt><trkpt lat="45.6424953" lon="8.3335586"><ele>518.0</ele><time>2026-04-05T14:18:04.652Z</time></trkpt><trkpt lat="45.6425334" lon="8.3336469"><ele>518.0</ele><time>2026-04-05T14:18:05.653Z</time></trkpt><trkpt lat="45.6425566" lon="8.3337498"><ele>518.0</ele><time>2026-04-05T14:18:06.646Z</time></trkpt><trkpt lat="45.6425664" lon="8.3338476"><ele>518.0</ele><time>2026-04-05T14:18:07.656Z</time></trkpt><trkpt lat="45.6425713" lon="8.3339384"><ele>518.0</ele><time>2026-04-05T14:18:08.656Z</time></trkpt><trkpt lat="45.6425877" lon="8.3341137"><ele>517.4285714285714</ele><time>2026-04-05T14:18:10.659Z</time></trkpt><trkpt lat="45.6426049" lon="8.3342088"><ele>516.8571428571429</ele><time>2026-04-05T14:18:11.65Z</time></trkpt><trkpt lat="45.6426262" lon="8.3343063"><ele>516.2857142857142</ele><time>2026-04-05T14:18:12.65Z</time></trkpt><trkpt lat="45.6426483" lon="8.3344093"><ele>515.7142857142858</ele><time>2026-04-05T14:18:13.652Z</time></trkpt><trkpt lat="45.6426728" lon="8.3345104"><ele>515.1428571428571</ele><time>2026-04-05T14:18:14.647Z</time></trkpt><trkpt lat="45.6426955" lon="8.3346043"><ele>514.5714285714286</ele><time>2026-04-05T14:18:15.65Z</time></trkpt><trkpt lat="45.6427226" lon="8.3346919"><ele>514.0</ele><time>2026-04-05T14:18:16.636Z</time></trkpt><trkpt lat="45.6427574" lon="8.3347842"><ele>513.8333333333334</ele><time>2026-04-05T14:18:17.659Z</time></trkpt><trkpt lat="45.6427959" lon="8.3348816"><ele>513.6666666666667</ele><time>2026-04-05T14:18:18.65Z</time></trkpt><trkpt lat="45.6428378" lon="8.3349808"><ele>513.5</ele><time>2026-04-05T14:18:19.656Z</time></trkpt><trkpt lat="45.6428794" lon="8.3350764"><ele>513.3333333333334</ele><time>2026-04-05T14:18:20.649Z</time></trkpt><trkpt lat="45.6429343" lon="8.3351819"><ele>513.1666666666666</ele><time>2026-04-05T14:18:21.652Z</time></trkpt><trkpt lat="45.6429938" lon="8.3352855"><ele>513.0</ele><time>2026-04-05T14:18:22.657Z</time></trkpt><trkpt lat="45.6430529" lon="8.3353994"><ele>513.0</ele><time>2026-04-05T14:18:23.656Z</time></trkpt><trkpt lat="45.6431051" lon="8.3355032"><ele>513.0</ele><time>2026-04-05T14:18:24.658Z</time></trkpt><trkpt lat="45.6431549" lon="8.3355996"><ele>513.0</ele><time>2026-04-05T14:18:25.642Z</time></trkpt><trkpt lat="45.6432021" lon="8.3356905"><ele>513.0</ele><time>2026-04-05T14:18:26.658Z</time></trkpt><trkpt lat="45.643245" lon="8.3357708"><ele>513.0</ele><time>2026-04-05T14:18:27.649Z</time></trkpt><trkpt lat="45.6432867" lon="8.3358481"><ele>513.0</ele><time>2026-04-05T14:18:28.652Z</time></trkpt><trkpt lat="45.6433308" lon="8.3359273"><ele>516.0</ele><time>2026-04-05T14:18:29.647Z</time></trkpt><trkpt lat="45.6433729" lon="8.336003"><ele>519.0</ele><time>2026-04-05T14:18:30.645Z</time></trkpt><trkpt lat="45.643411" lon="8.3360797"><ele>522.0</ele><time>2026-04-05T14:18:31.655Z</time></trkpt><trkpt lat="45.6434796" lon="8.3362191"><ele>525.0</ele><time>2026-04-05T14:18:33.649Z</time></trkpt><trkpt lat="45.6435334" lon="8.3363078"><ele>528.0</ele><time>2026-04-05T14:18:35.652Z</time></trkpt><trkpt lat="45.6435996" lon="8.336397"><ele>531.0</ele><time>2026-04-05T14:18:38.644Z</time></trkpt><trkpt lat="45.6436178" lon="8.336491"><ele>531.6</ele><time>2026-04-05T14:18:40.661Z</time></trkpt><trkpt lat="45.6436236" lon="8.3366319"><ele>532.2</ele><time>2026-04-05T14:18:42.644Z</time></trkpt><trkpt lat="45.6436137" lon="8.336815"><ele>532.8</ele><time>2026-04-05T14:18:44.642Z</time></trkpt><trkpt lat="45.643606" lon="8.3369418"><ele>533.4</ele><time>2026-04-05T14:18:45.654Z</time></trkpt><trkpt lat="45.6435975" lon="8.3370685"><ele>534.0</ele><time>2026-04-05T14:18:46.643Z</time></trkpt><trkpt lat="45.6435797" lon="8.3371917"><ele>534.0</ele><time>2026-04-05T14:18:47.65Z</time></trkpt><trkpt lat="45.6435522" lon="8.3372905"><ele>534.0</ele><time>2026-04-05T14:18:48.649Z</time></trkpt><trkpt lat="45.6435142" lon="8.3373772"><ele>534.0</ele><time>2026-04-05T14:18:49.666Z</time></trkpt><trkpt lat="45.6434467" lon="8.3375257"><ele>534.0</ele><time>2026-04-05T14:18:51.644Z</time></trkpt><trkpt lat="45.6434275" lon="8.3376744"><ele>534.0</ele><time>2026-04-05T14:18:53.646Z</time></trkpt><trkpt lat="45.6434578" lon="8.3378487"><ele>534.0</ele><time>2026-04-05T14:18:55.644Z</time></trkpt><trkpt lat="45.6434821" lon="8.3379472"><ele>534.0</ele><time>2026-04-05T14:18:56.645Z</time></trkpt><trkpt lat="45.6435003" lon="8.3380613"><ele>534.0</ele><time>2026-04-05T14:18:57.65Z</time></trkpt><trkpt lat="45.6435294" lon="8.3381811"><ele>534.0</ele><time>2026-04-05T14:18:58.653Z</time></trkpt><trkpt lat="45.6435662" lon="8.338295"><ele>534.0</ele><time>2026-04-05T14:18:59.651Z</time></trkpt><trkpt lat="45.6436037" lon="8.3384017"><ele>534.0</ele><time>2026-04-05T14:19:00.649Z</time></trkpt><trkpt lat="45.6436456" lon="8.3384921"><ele>532.3333333333334</ele><time>2026-04-05T14:19:01.646Z</time></trkpt><trkpt lat="45.6436855" lon="8.3385774"><ele>530.6666666666666</ele><time>2026-04-05T14:19:02.65Z</time></trkpt><trkpt lat="45.6437172" lon="8.3386562"><ele>529.0</ele><time>2026-04-05T14:19:03.653Z</time></trkpt><trkpt lat="45.6437901" lon="8.3387668"><ele>527.3333333333333</ele><time>2026-04-05T14:19:05.646Z</time></trkpt><trkpt lat="45.6438622" lon="8.338852"><ele>525.6666666666666</ele><time>2026-04-05T14:19:07.641Z</time></trkpt><trkpt lat="45.6439176" lon="8.3389787"><ele>524.0</ele><time>2026-04-05T14:19:09.654Z</time></trkpt><trkpt lat="45.643964" lon="8.3390902"><ele>521.5</ele><time>2026-04-05T14:19:11.645Z</time></trkpt><trkpt lat="45.6439739" lon="8.3391895"><ele>519.0</ele><time>2026-04-05T14:19:13.648Z</time></trkpt><trkpt lat="45.6439476" lon="8.339322"><ele>516.5</ele><time>2026-04-05T14:19:15.647Z</time></trkpt><trkpt lat="45.6439268" lon="8.3394129"><ele>514.0</ele><time>2026-04-05T14:19:16.643Z</time></trkpt><trkpt lat="45.6439106" lon="8.3395046"><ele>511.49999999999994</ele><time>2026-04-05T14:19:17.646Z</time></trkpt><trkpt lat="45.6438967" lon="8.339597"><ele>509.0</ele><time>2026-04-05T14:19:18.649Z</time></trkpt><trkpt lat="45.6438861" lon="8.3397802"><ele>505.71428571428567</ele><time>2026-04-05T14:19:20.656Z</time></trkpt><trkpt lat="45.6438804" lon="8.3398827"><ele>502.42857142857144</ele><time>2026-04-05T14:19:21.649Z</time></trkpt><trkpt lat="45.6438719" lon="8.3399915"><ele>499.1428571428571</ele><time>2026-04-05T14:19:22.649Z</time></trkpt><trkpt lat="45.6438669" lon="8.340096"><ele>495.85714285714283</ele><time>2026-04-05T14:19:23.649Z</time></trkpt><trkpt lat="45.6438591" lon="8.3401941"><ele>492.57142857142856</ele><time>2026-04-05T14:19:24.644Z</time></trkpt><trkpt lat="45.6438412" lon="8.3402841"><ele>489.2857142857143</ele><time>2026-04-05T14:19:25.657Z</time></trkpt><trkpt lat="45.6438202" lon="8.340373"><ele>486.0</ele><time>2026-04-05T14:19:26.649Z</time></trkpt><trkpt lat="45.6438028" lon="8.3404722"><ele>483.6</ele><time>2026-04-05T14:19:27.648Z</time></trkpt><trkpt lat="45.6437929" lon="8.3405868"><ele>481.20000000000005</ele><time>2026-04-05T14:19:28.652Z</time></trkpt><trkpt lat="45.6437882" lon="8.3407136"><ele>478.79999999999995</ele><time>2026-04-05T14:19:29.649Z</time></trkpt><trkpt lat="45.6437843" lon="8.3408503"><ele>476.4</ele><time>2026-04-05T14:19:30.644Z</time></trkpt><trkpt lat="45.6437745" lon="8.3409868"><ele>474.0</ele><time>2026-04-05T14:19:31.653Z</time></trkpt><trkpt lat="45.6437638" lon="8.341122"><ele>474.0</ele><time>2026-04-05T14:19:32.653Z</time></trkpt><trkpt lat="45.6437611" lon="8.3412653"><ele>474.0</ele><time>2026-04-05T14:19:33.648Z</time></trkpt><trkpt lat="45.6437639" lon="8.3414169"><ele>474.0</ele><time>2026-04-05T14:19:34.649Z</time></trkpt><trkpt lat="45.6437567" lon="8.3415625"><ele>474.0</ele><time>2026-04-05T14:19:35.65Z</time></trkpt><trkpt lat="45.6437402" lon="8.3417041"><ele>474.0</ele><time>2026-04-05T14:19:36.65Z</time></trkpt><trkpt lat="45.6437162" lon="8.3418296"><ele>474.0</ele><time>2026-04-05T14:19:37.662Z</time></trkpt><trkpt lat="45.6436879" lon="8.3419376"><ele>474.0</ele><time>2026-04-05T14:19:38.666Z</time></trkpt><trkpt lat="45.6436618" lon="8.3420276"><ele>474.0</ele><time>2026-04-05T14:19:39.651Z</time></trkpt><trkpt lat="45.6436134" lon="8.3421704"><ele>474.0</ele><time>2026-04-05T14:19:41.651Z</time></trkpt><trkpt lat="45.6435618" lon="8.3422884"><ele>474.0</ele><time>2026-04-05T14:19:43.654Z</time></trkpt><trkpt lat="45.6435242" lon="8.3424011"><ele>474.0</ele><time>2026-04-05T14:19:45.647Z</time></trkpt><trkpt lat="45.6435148" lon="8.342536"><ele>475.8333333333333</ele><time>2026-04-05T14:19:47.657Z</time></trkpt><trkpt lat="45.6435552" lon="8.3426683"><ele>477.66666666666663</ele><time>2026-04-05T14:19:49.655Z</time></trkpt><trkpt lat="45.6436354" lon="8.3428037"><ele>479.5</ele><time>2026-04-05T14:19:51.645Z</time></trkpt><trkpt lat="45.6436784" lon="8.3428846"><ele>481.3333333333333</ele><time>2026-04-05T14:19:52.645Z</time></trkpt><trkpt lat="45.6437152" lon="8.3429779"><ele>483.16666666666663</ele><time>2026-04-05T14:19:53.653Z</time></trkpt><trkpt lat="45.6437446" lon="8.3430758"><ele>485.0</ele><time>2026-04-05T14:19:54.653Z</time></trkpt><trkpt lat="45.6437701" lon="8.3431753"><ele>487.1428571428572</ele><time>2026-04-05T14:19:55.662Z</time></trkpt><trkpt lat="45.6437968" lon="8.3432727"><ele>489.28571428571433</ele><time>2026-04-05T14:19:56.654Z</time></trkpt><trkpt lat="45.6438171" lon="8.3433711"><ele>491.42857142857144</ele><time>2026-04-05T14:19:57.645Z</time></trkpt><trkpt lat="45.643834" lon="8.3434734"><ele>493.5714285714286</ele><time>2026-04-05T14:19:58.66Z</time></trkpt><trkpt lat="45.6438447" lon="8.343574"><ele>495.7142857142858</ele><time>2026-04-05T14:19:59.651Z</time></trkpt><trkpt lat="45.6438506" lon="8.3436729"><ele>497.85714285714283</ele><time>2026-04-05T14:20:00.649Z</time></trkpt><trkpt lat="45.6438521" lon="8.3437681"><ele>500.0</ele><time>2026-04-05T14:20:01.65Z</time></trkpt><trkpt lat="45.6438443" lon="8.3438601"><ele>501.6</ele><time>2026-04-05T14:20:02.664Z</time></trkpt><trkpt lat="45.6438278" lon="8.3439491"><ele>503.2</ele><time>2026-04-05T14:20:03.651Z</time></trkpt><trkpt lat="45.6438124" lon="8.344039"><ele>504.79999999999995</ele><time>2026-04-05T14:20:04.655Z</time></trkpt><trkpt lat="45.6438111" lon="8.3442161"><ele>506.4</ele><time>2026-04-05T14:20:06.656Z</time></trkpt><trkpt lat="45.6438585" lon="8.3443895"><ele>508.0</ele><time>2026-04-05T14:20:08.657Z</time></trkpt><trkpt lat="45.6439003" lon="8.3444854"><ele>508.00000000000006</ele><time>2026-04-05T14:20:09.65Z</time></trkpt><trkpt lat="45.6439485" lon="8.3445926"><ele>508.0</ele><time>2026-04-05T14:20:10.651Z</time></trkpt><trkpt lat="45.6439977" lon="8.3447003"><ele>508.0</ele><time>2026-04-05T14:20:11.656Z</time></trkpt><trkpt lat="45.6440411" lon="8.3448102"><ele>508.0</ele><time>2026-04-05T14:20:12.652Z</time></trkpt><trkpt lat="45.644074" lon="8.3449217"><ele>508.00000000000006</ele><time>2026-04-05T14:20:13.656Z</time></trkpt><trkpt lat="45.6440949" lon="8.3450286"><ele>508.0</ele><time>2026-04-05T14:20:14.648Z</time></trkpt><trkpt lat="45.6441072" lon="8.345135"><ele>508.57142857142856</ele><time>2026-04-05T14:20:15.653Z</time></trkpt><trkpt lat="45.6441172" lon="8.3452413"><ele>509.1428571428571</ele><time>2026-04-05T14:20:16.656Z</time></trkpt><trkpt lat="45.6441308" lon="8.3453423"><ele>509.71428571428567</ele><time>2026-04-05T14:20:17.651Z</time></trkpt><trkpt lat="45.6441508" lon="8.3454359"><ele>510.2857142857143</ele><time>2026-04-05T14:20:18.657Z</time></trkpt><trkpt lat="45.6441788" lon="8.3455196"><ele>510.8571428571428</ele><time>2026-04-05T14:20:19.644Z</time></trkpt><trkpt lat="45.6442121" lon="8.3455976"><ele>511.4285714285714</ele><time>2026-04-05T14:20:20.652Z</time></trkpt><trkpt lat="45.6442648" lon="8.3456707"><ele>512.0</ele><time>2026-04-05T14:20:21.65Z</time></trkpt><trkpt lat="45.6443388" lon="8.3457335"><ele>511.99999999999994</ele><time>2026-04-05T14:20:22.659Z</time></trkpt><trkpt lat="45.6444153" lon="8.3457948"><ele>512.0</ele><time>2026-04-05T14:20:23.653Z</time></trkpt><trkpt lat="45.644493" lon="8.3458521"><ele>512.0</ele><time>2026-04-05T14:20:24.655Z</time></trkpt><trkpt lat="45.6445722" lon="8.3459036"><ele>512.0</ele><time>2026-04-05T14:20:25.651Z</time></trkpt><trkpt lat="45.6446481" lon="8.3459387"><ele>511.99999999999994</ele><time>2026-04-05T14:20:26.653Z</time></trkpt><trkpt lat="45.6447165" lon="8.3459763"><ele>512.0</ele><time>2026-04-05T14:20:27.647Z</time></trkpt><trkpt lat="45.6447838" lon="8.3460294"><ele>513.8333333333333</ele><time>2026-04-05T14:20:28.65Z</time></trkpt><trkpt lat="45.6448398" lon="8.3460997"><ele>515.6666666666666</ele><time>2026-04-05T14:20:29.647Z</time></trkpt><trkpt lat="45.6448857" lon="8.3461868"><ele>517.5</ele><time>2026-04-05T14:20:30.655Z</time></trkpt><trkpt lat="45.6449323" lon="8.3462827"><ele>519.3333333333334</ele><time>2026-04-05T14:20:31.665Z</time></trkpt><trkpt lat="45.6449748" lon="8.3463718"><ele>521.1666666666667</ele><time>2026-04-05T14:20:32.658Z</time></trkpt><trkpt lat="45.6450171" lon="8.3464538"><ele>523.0</ele><time>2026-04-05T14:20:33.661Z</time></trkpt><trkpt lat="45.6450742" lon="8.3465999"><ele>524.0</ele><time>2026-04-05T14:20:35.652Z</time></trkpt><trkpt lat="45.6450917" lon="8.3467341"><ele>525.0</ele><time>2026-04-05T14:20:37.651Z</time></trkpt><trkpt lat="45.6450936" lon="8.3468857"><ele>526.0</ele><time>2026-04-05T14:20:39.652Z</time></trkpt><trkpt lat="45.6450803" lon="8.3470805"><ele>527.0</ele><time>2026-04-05T14:20:41.652Z</time></trkpt><trkpt lat="45.6450705" lon="8.3471939"><ele>528.0</ele><time>2026-04-05T14:20:42.64Z</time></trkpt><trkpt lat="45.6450614" lon="8.3473103"><ele>528.0</ele><time>2026-04-05T14:20:43.654Z</time></trkpt><trkpt lat="45.6450482" lon="8.3474173"><ele>528.0</ele><time>2026-04-05T14:20:44.644Z</time></trkpt><trkpt lat="45.6450296" lon="8.3475097"><ele>528.0</ele><time>2026-04-05T14:20:45.65Z</time></trkpt><trkpt lat="45.6450039" lon="8.3476015"><ele>528.0</ele><time>2026-04-05T14:20:46.649Z</time></trkpt><trkpt lat="45.6449826" lon="8.3476936"><ele>528.0</ele><time>2026-04-05T14:20:47.651Z</time></trkpt><trkpt lat="45.6449722" lon="8.3478558"><ele>528.0</ele><time>2026-04-05T14:20:49.649Z</time></trkpt><trkpt lat="45.6449873" lon="8.3480412"><ele>526.3333333333334</ele><time>2026-04-05T14:20:51.656Z</time></trkpt><trkpt lat="45.6449783" lon="8.3481425"><ele>524.6666666666666</ele><time>2026-04-05T14:20:52.642Z</time></trkpt><trkpt lat="45.6449409" lon="8.3482489"><ele>523.0</ele><time>2026-04-05T14:20:53.649Z</time></trkpt><trkpt lat="45.6448806" lon="8.348346"><ele>521.3333333333333</ele><time>2026-04-05T14:20:54.654Z</time></trkpt><trkpt lat="45.6448183" lon="8.3484349"><ele>519.6666666666666</ele><time>2026-04-05T14:20:55.653Z</time></trkpt><trkpt lat="45.6447668" lon="8.3485199"><ele>518.0</ele><time>2026-04-05T14:20:56.646Z</time></trkpt><trkpt lat="45.6447258" lon="8.3485936"><ele>518.0</ele><time>2026-04-05T14:20:57.649Z</time></trkpt><trkpt lat="45.6446908" lon="8.3486802"><ele>518.0</ele><time>2026-04-05T14:20:58.656Z</time></trkpt><trkpt lat="45.6446609" lon="8.3487725"><ele>518.0</ele><time>2026-04-05T14:20:59.648Z</time></trkpt><trkpt lat="45.644631" lon="8.3488606"><ele>518.0</ele><time>2026-04-05T14:21:00.654Z</time></trkpt><trkpt lat="45.6446025" lon="8.3489544"><ele>518.0</ele><time>2026-04-05T14:21:01.65Z</time></trkpt><trkpt lat="45.6445681" lon="8.3490414"><ele>518.0</ele><time>2026-04-05T14:21:02.654Z</time></trkpt><trkpt lat="45.644529" lon="8.3491246"><ele>518.0</ele><time>2026-04-05T14:21:03.653Z</time></trkpt><trkpt lat="45.6444862" lon="8.3492091"><ele>513.4</ele><time>2026-04-05T14:21:04.647Z</time></trkpt><trkpt lat="45.644442" lon="8.3493065"><ele>508.79999999999995</ele><time>2026-04-05T14:21:05.658Z</time></trkpt><trkpt lat="45.6444029" lon="8.3494049"><ele>504.2</ele><time>2026-04-05T14:21:06.656Z</time></trkpt><trkpt lat="45.6443724" lon="8.349491"><ele>499.6</ele><time>2026-04-05T14:21:07.643Z</time></trkpt><trkpt lat="45.6443375" lon="8.3496547"><ele>495.0</ele><time>2026-04-05T14:21:09.647Z</time></trkpt><trkpt lat="45.6443205" lon="8.3498387"><ele>494.99999999999994</ele><time>2026-04-05T14:21:11.652Z</time></trkpt><trkpt lat="45.6443078" lon="8.3499357"><ele>495.0</ele><time>2026-04-05T14:21:12.648Z</time></trkpt><trkpt lat="45.6442899" lon="8.3500315"><ele>494.99999999999994</ele><time>2026-04-05T14:21:13.653Z</time></trkpt><trkpt lat="45.6442654" lon="8.3501158"><ele>494.99999999999994</ele><time>2026-04-05T14:21:14.651Z</time></trkpt><trkpt lat="45.6442339" lon="8.3501976"><ele>495.0</ele><time>2026-04-05T14:21:15.649Z</time></trkpt><trkpt lat="45.6442" lon="8.3502748"><ele>494.99999999999994</ele><time>2026-04-05T14:21:16.641Z</time></trkpt><trkpt lat="45.644162" lon="8.3503646"><ele>494.99999999999994</ele><time>2026-04-05T14:21:17.657Z</time></trkpt><trkpt lat="45.6441236" lon="8.3504649"><ele>494.6666666666667</ele><time>2026-04-05T14:21:18.646Z</time></trkpt><trkpt lat="45.6440823" lon="8.3505711"><ele>494.33333333333337</ele><time>2026-04-05T14:21:19.646Z</time></trkpt><trkpt lat="45.6440398" lon="8.3506665"><ele>494.0</ele><time>2026-04-05T14:21:20.656Z</time></trkpt><trkpt lat="45.6439868" lon="8.3507564"><ele>493.6666666666667</ele><time>2026-04-05T14:21:21.648Z</time></trkpt><trkpt lat="45.6439297" lon="8.3508435"><ele>493.33333333333337</ele><time>2026-04-05T14:21:22.657Z</time></trkpt><trkpt lat="45.6438767" lon="8.3509246"><ele>493.0</ele><time>2026-04-05T14:21:23.65Z</time></trkpt><trkpt lat="45.6438342" lon="8.3510058"><ele>493.0</ele><time>2026-04-05T14:21:24.648Z</time></trkpt><trkpt lat="45.6437973" lon="8.3510937"><ele>493.0</ele><time>2026-04-05T14:21:25.653Z</time></trkpt><trkpt lat="45.6437723" lon="8.3511939"><ele>493.0</ele><time>2026-04-05T14:21:26.656Z</time></trkpt><trkpt lat="45.6437538" lon="8.3512949"><ele>493.0</ele><time>2026-04-05T14:21:27.655Z</time></trkpt><trkpt lat="45.643731" lon="8.3513901"><ele>493.0</ele><time>2026-04-05T14:21:28.649Z</time></trkpt><trkpt lat="45.6436971" lon="8.3514775"><ele>493.0</ele><time>2026-04-05T14:21:29.652Z</time></trkpt><trkpt lat="45.64365" lon="8.3515629"><ele>493.0</ele><time>2026-04-05T14:21:30.656Z</time></trkpt><trkpt lat="45.6435946" lon="8.3516568"><ele>491.2</ele><time>2026-04-05T14:21:31.639Z</time></trkpt><trkpt lat="45.6435238" lon="8.3517711"><ele>489.4</ele><time>2026-04-05T14:21:32.65Z</time></trkpt><trkpt lat="45.6434511" lon="8.3518954"><ele>487.59999999999997</ele><time>2026-04-05T14:21:33.647Z</time></trkpt><trkpt lat="45.6433738" lon="8.3520206"><ele>485.79999999999995</ele><time>2026-04-05T14:21:34.653Z</time></trkpt><trkpt lat="45.643297" lon="8.3521357"><ele>484.0</ele><time>2026-04-05T14:21:35.65Z</time></trkpt><trkpt lat="45.643222" lon="8.3522523"><ele>484.0</ele><time>2026-04-05T14:21:36.646Z</time></trkpt><trkpt lat="45.6431533" lon="8.3523684"><ele>484.0</ele><time>2026-04-05T14:21:37.652Z</time></trkpt><trkpt lat="45.6430851" lon="8.3524792"><ele>484.0</ele><time>2026-04-05T14:21:38.65Z</time></trkpt><trkpt lat="45.6430149" lon="8.3525823"><ele>484.0</ele><time>2026-04-05T14:21:39.641Z</time></trkpt><trkpt lat="45.6429364" lon="8.3526889"><ele>484.0</ele><time>2026-04-05T14:21:40.655Z</time></trkpt><trkpt lat="45.6428568" lon="8.3527934"><ele>483.0</ele><time>2026-04-05T14:21:41.644Z</time></trkpt><trkpt lat="45.6427692" lon="8.3528955"><ele>482.0</ele><time>2026-04-05T14:21:42.649Z</time></trkpt><trkpt lat="45.6426792" lon="8.3529763"><ele>481.0</ele><time>2026-04-05T14:21:43.646Z</time></trkpt><trkpt lat="45.6425927" lon="8.353027"><ele>480.0</ele><time>2026-04-05T14:21:44.652Z</time></trkpt><trkpt lat="45.6425139" lon="8.3530591"><ele>479.0</ele><time>2026-04-05T14:21:45.652Z</time></trkpt><trkpt lat="45.6424347" lon="8.353092"><ele>481.49999999999994</ele><time>2026-04-05T14:21:46.645Z</time></trkpt><trkpt lat="45.6423548" lon="8.3531307"><ele>484.0</ele><time>2026-04-05T14:21:47.651Z</time></trkpt><trkpt lat="45.6422779" lon="8.3531754"><ele>486.5</ele><time>2026-04-05T14:21:48.639Z</time></trkpt><trkpt lat="45.6422007" lon="8.3532396"><ele>489.0</ele><time>2026-04-05T14:21:49.659Z</time></trkpt><trkpt lat="45.6421233" lon="8.3533107"><ele>491.49999999999994</ele><time>2026-04-05T14:21:50.642Z</time></trkpt><trkpt lat="45.6420487" lon="8.3533651"><ele>494.0</ele><time>2026-04-05T14:21:51.644Z</time></trkpt><trkpt lat="45.6419754" lon="8.3533921"><ele>494.8333333333333</ele><time>2026-04-05T14:21:52.652Z</time></trkpt><trkpt lat="45.6419051" lon="8.3533918"><ele>495.66666666666663</ele><time>2026-04-05T14:21:53.649Z</time></trkpt><trkpt lat="45.6418326" lon="8.3533566"><ele>496.5</ele><time>2026-04-05T14:21:54.652Z</time></trkpt><trkpt lat="45.6417598" lon="8.3533107"><ele>497.33333333333337</ele><time>2026-04-05T14:21:55.65Z</time></trkpt><trkpt lat="45.641688" lon="8.3532711"><ele>498.1666666666667</ele><time>2026-04-05T14:21:56.647Z</time></trkpt><trkpt lat="45.6416215" lon="8.3532571"><ele>499.0</ele><time>2026-04-05T14:21:57.653Z</time></trkpt><trkpt lat="45.6415581" lon="8.3533268"><ele>499.00000000000006</ele><time>2026-04-05T14:21:59.654Z</time></trkpt><trkpt lat="45.6415178" lon="8.3534329"><ele>499.0</ele><time>2026-04-05T14:22:01.658Z</time></trkpt><trkpt lat="45.6414694" lon="8.3535142"><ele>499.0</ele><time>2026-04-05T14:22:03.651Z</time></trkpt><trkpt lat="45.6413935" lon="8.3535397"><ele>499.0</ele><time>2026-04-05T14:22:05.645Z</time></trkpt><trkpt lat="45.6412891" lon="8.3535615"><ele>499.00000000000006</ele><time>2026-04-05T14:22:07.64Z</time></trkpt><trkpt lat="45.64122" lon="8.3535762"><ele>499.0</ele><time>2026-04-05T14:22:08.649Z</time></trkpt><trkpt lat="45.6411464" lon="8.353583"><ele>496.6666666666667</ele><time>2026-04-05T14:22:09.655Z</time></trkpt><trkpt lat="45.6410668" lon="8.3535795"><ele>494.33333333333337</ele><time>2026-04-05T14:22:10.655Z</time></trkpt><trkpt lat="45.6409969" lon="8.353571"><ele>492.0</ele><time>2026-04-05T14:22:11.657Z</time></trkpt><trkpt lat="45.64092" lon="8.3535626"><ele>489.66666666666663</ele><time>2026-04-05T14:22:12.658Z</time></trkpt><trkpt lat="45.6408428" lon="8.3535675"><ele>487.3333333333333</ele><time>2026-04-05T14:22:13.649Z</time></trkpt><trkpt lat="45.6407515" lon="8.3535937"><ele>485.0</ele><time>2026-04-05T14:22:14.648Z</time></trkpt><trkpt lat="45.640649" lon="8.3536489"><ele>485.0</ele><time>2026-04-05T14:22:15.659Z</time></trkpt><trkpt lat="45.640548" lon="8.3537165"><ele>485.0</ele><time>2026-04-05T14:22:16.659Z</time></trkpt><trkpt lat="45.6404572" lon="8.3537786"><ele>485.0</ele><time>2026-04-05T14:22:17.65Z</time></trkpt><trkpt lat="45.6403644" lon="8.3538392"><ele>485.0</ele><time>2026-04-05T14:22:18.659Z</time></trkpt><trkpt lat="45.6402726" lon="8.3538844"><ele>485.0</ele><time>2026-04-05T14:22:19.652Z</time></trkpt><trkpt lat="45.6401678" lon="8.3539132"><ele>485.0</ele><time>2026-04-05T14:22:20.643Z</time></trkpt><trkpt lat="45.640071" lon="8.3539246"><ele>485.0</ele><time>2026-04-05T14:22:21.652Z</time></trkpt><trkpt lat="45.6399803" lon="8.3539191"><ele>485.0</ele><time>2026-04-05T14:22:22.646Z</time></trkpt><trkpt lat="45.6398958" lon="8.3538983"><ele>485.0</ele><time>2026-04-05T14:22:23.657Z</time></trkpt><trkpt lat="45.6398214" lon="8.3538777"><ele>485.0</ele><time>2026-04-05T14:22:24.655Z</time></trkpt><trkpt lat="45.639709" lon="8.3538653"><ele>485.49999999999994</ele><time>2026-04-05T14:22:26.655Z</time></trkpt><trkpt lat="45.6396106" lon="8.3539015"><ele>486.0</ele><time>2026-04-05T14:22:28.65Z</time></trkpt><trkpt lat="45.6395025" lon="8.3539688"><ele>486.5</ele><time>2026-04-05T14:22:30.658Z</time></trkpt><trkpt lat="45.6394424" lon="8.3540058"><ele>487.0</ele><time>2026-04-05T14:22:31.655Z</time></trkpt><trkpt lat="45.6393732" lon="8.3540472"><ele>487.49999999999994</ele><time>2026-04-05T14:22:32.649Z</time></trkpt><trkpt lat="45.6392933" lon="8.3540783"><ele>488.0</ele><time>2026-04-05T14:22:33.66Z</time></trkpt><trkpt lat="45.6392054" lon="8.3540988"><ele>488.4</ele><time>2026-04-05T14:22:34.646Z</time></trkpt><trkpt lat="45.6391164" lon="8.3541196"><ele>488.79999999999995</ele><time>2026-04-05T14:22:35.655Z</time></trkpt><trkpt lat="45.6390266" lon="8.3541425"><ele>489.2</ele><time>2026-04-05T14:22:36.648Z</time></trkpt><trkpt lat="45.6389331" lon="8.3541673"><ele>489.6</ele><time>2026-04-05T14:22:37.645Z</time></trkpt><trkpt lat="45.6388392" lon="8.3541907"><ele>490.0</ele><time>2026-04-05T14:22:38.653Z</time></trkpt><trkpt lat="45.6387487" lon="8.3542136"><ele>490.00000000000006</ele><time>2026-04-05T14:22:39.655Z</time></trkpt><trkpt lat="45.6386606" lon="8.3542438"><ele>490.0</ele><time>2026-04-05T14:22:40.65Z</time></trkpt><trkpt lat="45.6385751" lon="8.3542787"><ele>490.0</ele><time>2026-04-05T14:22:41.649Z</time></trkpt><trkpt lat="45.6384919" lon="8.354316"><ele>490.0</ele><time>2026-04-05T14:22:42.651Z</time></trkpt><trkpt lat="45.6384102" lon="8.354341"><ele>490.00000000000006</ele><time>2026-04-05T14:22:43.658Z</time></trkpt><trkpt lat="45.6383299" lon="8.3543379"><ele>490.0</ele><time>2026-04-05T14:22:44.652Z</time></trkpt><trkpt lat="45.6382456" lon="8.3543168"><ele>490.1666666666667</ele><time>2026-04-05T14:22:45.647Z</time></trkpt><trkpt lat="45.6381575" lon="8.3542839"><ele>490.33333333333337</ele><time>2026-04-05T14:22:46.645Z</time></trkpt><trkpt lat="45.6380736" lon="8.3542388"><ele>490.5</ele><time>2026-04-05T14:22:47.648Z</time></trkpt><trkpt lat="45.6379921" lon="8.3541824"><ele>490.66666666666663</ele><time>2026-04-05T14:22:48.649Z</time></trkpt><trkpt lat="45.6379198" lon="8.3541168"><ele>490.8333333333333</ele><time>2026-04-05T14:22:49.657Z</time></trkpt><trkpt lat="45.6378594" lon="8.3540313"><ele>491.0</ele><time>2026-04-05T14:22:50.652Z</time></trkpt><trkpt lat="45.6378075" lon="8.353939"><ele>489.66666666666663</ele><time>2026-04-05T14:22:51.653Z</time></trkpt><trkpt lat="45.6377656" lon="8.353855"><ele>488.3333333333333</ele><time>2026-04-05T14:22:52.644Z</time></trkpt><trkpt lat="45.6377212" lon="8.3537853"><ele>487.0</ele><time>2026-04-05T14:22:53.652Z</time></trkpt><trkpt lat="45.6376705" lon="8.3537318"><ele>485.66666666666663</ele><time>2026-04-05T14:22:54.642Z</time></trkpt><trkpt lat="45.637559" lon="8.3536968"><ele>484.3333333333333</ele><time>2026-04-05T14:22:56.659Z</time></trkpt><trkpt lat="45.6374942" lon="8.3536945"><ele>483.0</ele><time>2026-04-05T14:22:57.648Z</time></trkpt><trkpt lat="45.6374226" lon="8.3536869"><ele>483.0</ele><time>2026-04-05T14:22:58.655Z</time></trkpt><trkpt lat="45.6373463" lon="8.3536744"><ele>483.0</ele><time>2026-04-05T14:22:59.646Z</time></trkpt><trkpt lat="45.6372678" lon="8.3536608"><ele>483.0</ele><time>2026-04-05T14:23:00.649Z</time></trkpt><trkpt lat="45.6371936" lon="8.3536509"><ele>483.0</ele><time>2026-04-05T14:23:01.654Z</time></trkpt><trkpt lat="45.6371262" lon="8.353647"><ele>483.0</ele><time>2026-04-05T14:23:02.644Z</time></trkpt><trkpt lat="45.6370158" lon="8.3536666"><ele>483.0</ele><time>2026-04-05T14:23:04.647Z</time></trkpt><trkpt lat="45.6369284" lon="8.3537127"><ele>483.8333333333333</ele><time>2026-04-05T14:23:06.644Z</time></trkpt><trkpt lat="45.6368197" lon="8.3537322"><ele>484.66666666666663</ele><time>2026-04-05T14:23:08.655Z</time></trkpt><trkpt lat="45.6367519" lon="8.3537231"><ele>485.5</ele><time>2026-04-05T14:23:09.658Z</time></trkpt><trkpt lat="45.6366783" lon="8.3537086"><ele>486.3333333333333</ele><time>2026-04-05T14:23:10.654Z</time></trkpt><trkpt lat="45.6366003" lon="8.3537032"><ele>487.16666666666663</ele><time>2026-04-05T14:23:11.643Z</time></trkpt><trkpt lat="45.6365169" lon="8.3536996"><ele>488.0</ele><time>2026-04-05T14:23:12.645Z</time></trkpt><trkpt lat="45.6364374" lon="8.3537016"><ele>487.99999999999994</ele><time>2026-04-05T14:23:13.649Z</time></trkpt><trkpt lat="45.6363632" lon="8.3537152"><ele>488.0</ele><time>2026-04-05T14:23:14.644Z</time></trkpt><trkpt lat="45.6362964" lon="8.3537371"><ele>488.0</ele><time>2026-04-05T14:23:15.649Z</time></trkpt><trkpt lat="45.6362301" lon="8.3537747"><ele>488.0</ele><time>2026-04-05T14:23:16.646Z</time></trkpt><trkpt lat="45.6361593" lon="8.3538191"><ele>487.99999999999994</ele><time>2026-04-05T14:23:17.645Z</time></trkpt><trkpt lat="45.6360856" lon="8.3538518"><ele>488.0</ele><time>2026-04-05T14:23:18.651Z</time></trkpt><trkpt lat="45.636006" lon="8.3538809"><ele>486.2</ele><time>2026-04-05T14:23:19.652Z</time></trkpt><trkpt lat="45.6359226" lon="8.3539072"><ele>484.4</ele><time>2026-04-05T14:23:20.651Z</time></trkpt><trkpt lat="45.6358539" lon="8.3539365"><ele>482.59999999999997</ele><time>2026-04-05T14:23:21.65Z</time></trkpt><trkpt lat="45.6357544" lon="8.3540153"><ele>480.79999999999995</ele><time>2026-04-05T14:23:23.666Z</time></trkpt><trkpt lat="45.6357193" lon="8.3541869"><ele>479.0</ele><time>2026-04-05T14:23:25.651Z</time></trkpt><trkpt lat="45.6356961" lon="8.3542774"><ele>478.99999999999994</ele><time>2026-04-05T14:23:26.64Z</time></trkpt><trkpt lat="45.6356549" lon="8.354368"><ele>479.0</ele><time>2026-04-05T14:23:27.65Z</time></trkpt><trkpt lat="45.635604" lon="8.3544532"><ele>479.0</ele><time>2026-04-05T14:23:28.655Z</time></trkpt><trkpt lat="45.6355426" lon="8.354525"><ele>479.0</ele><time>2026-04-05T14:23:29.646Z</time></trkpt><trkpt lat="45.6354772" lon="8.3545835"><ele>478.99999999999994</ele><time>2026-04-05T14:23:30.651Z</time></trkpt><trkpt lat="45.6354074" lon="8.3546255"><ele>479.0</ele><time>2026-04-05T14:23:31.649Z</time></trkpt><trkpt lat="45.6353318" lon="8.3546526"><ele>478.57142857142856</ele><time>2026-04-05T14:23:32.656Z</time></trkpt><trkpt lat="45.6352576" lon="8.3546647"><ele>478.14285714285717</ele><time>2026-04-05T14:23:33.651Z</time></trkpt><trkpt lat="45.635183" lon="8.3546807"><ele>477.7142857142857</ele><time>2026-04-05T14:23:34.645Z</time></trkpt><trkpt lat="45.6351104" lon="8.3547077"><ele>477.2857142857143</ele><time>2026-04-05T14:23:35.656Z</time></trkpt><trkpt lat="45.6350464" lon="8.3547459"><ele>476.8571428571429</ele><time>2026-04-05T14:23:36.657Z</time></trkpt><trkpt lat="45.6349837" lon="8.3548033"><ele>476.42857142857144</ele><time>2026-04-05T14:23:37.656Z</time></trkpt><trkpt lat="45.6349268" lon="8.3548677"><ele>476.0</ele><time>2026-04-05T14:23:38.657Z</time></trkpt><trkpt lat="45.6348646" lon="8.3549345"><ele>474.3333333333333</ele><time>2026-04-05T14:23:39.643Z</time></trkpt><trkpt lat="45.6348065" lon="8.3550065"><ele>472.66666666666663</ele><time>2026-04-05T14:23:40.65Z</time></trkpt><trkpt lat="45.6347533" lon="8.35508"><ele>471.0</ele><time>2026-04-05T14:23:41.649Z</time></trkpt><trkpt lat="45.6347109" lon="8.3551587"><ele>469.33333333333337</ele><time>2026-04-05T14:23:42.652Z</time></trkpt><trkpt lat="45.634633" lon="8.3552797"><ele>467.6666666666667</ele><time>2026-04-05T14:23:44.656Z</time></trkpt><trkpt lat="45.6345353" lon="8.3553588"><ele>466.0</ele><time>2026-04-05T14:23:46.644Z</time></trkpt><trkpt lat="45.6344493" lon="8.3553983"><ele>465.6666666666667</ele><time>2026-04-05T14:23:48.643Z</time></trkpt><trkpt lat="45.6343872" lon="8.3554545"><ele>465.33333333333337</ele><time>2026-04-05T14:23:51.644Z</time></trkpt><trkpt lat="45.6343326" lon="8.3555906"><ele>465.0</ele><time>2026-04-05T14:24:01.649Z</time></trkpt><trkpt lat="45.6342896" lon="8.3556571"><ele>464.66666666666663</ele><time>2026-04-05T14:24:04.642Z</time></trkpt><trkpt lat="45.6342553" lon="8.3557648"><ele>464.3333333333333</ele><time>2026-04-05T14:24:08.647Z</time></trkpt><trkpt lat="45.6342304" lon="8.355894"><ele>464.0</ele><time>2026-04-05T14:24:11.654Z</time></trkpt><trkpt lat="45.634197" lon="8.3559771"><ele>463.99999999999994</ele><time>2026-04-05T14:24:13.646Z</time></trkpt><trkpt lat="45.6342207" lon="8.3558576"><ele>464.0</ele><time>2026-04-05T14:25:48.657Z</time></trkpt><trkpt lat="45.6342568" lon="8.3557774"><ele>464.0</ele><time>2026-04-05T14:25:50.651Z</time></trkpt><trkpt lat="45.6343073" lon="8.3556962"><ele>464.0</ele><time>2026-04-05T14:25:53.644Z</time></trkpt><trkpt lat="45.6343295" lon="8.355585"><ele>463.99999999999994</ele><time>2026-04-05T14:25:57.649Z</time></trkpt><trkpt lat="45.6343159" lon="8.3554457"><ele>464.0</ele><time>2026-04-05T14:26:00.656Z</time></trkpt><trkpt lat="45.6343159" lon="8.355341"><ele>462.79999999999995</ele><time>2026-04-05T14:26:02.653Z</time></trkpt><trkpt lat="45.6343265" lon="8.3552023"><ele>461.59999999999997</ele><time>2026-04-05T14:26:04.645Z</time></trkpt><trkpt lat="45.6343403" lon="8.3550387"><ele>460.4</ele><time>2026-04-05T14:26:06.642Z</time></trkpt><trkpt lat="45.63435" lon="8.3549486"><ele>459.2</ele><time>2026-04-05T14:26:07.648Z</time></trkpt><trkpt lat="45.6343735" lon="8.3547803"><ele>458.0</ele><time>2026-04-05T14:26:09.651Z</time></trkpt><trkpt lat="45.6344305" lon="8.3546331"><ele>456.66666666666663</ele><time>2026-04-05T14:26:11.641Z</time></trkpt><trkpt lat="45.6344598" lon="8.3544861"><ele>455.3333333333333</ele><time>2026-04-05T14:26:13.651Z</time></trkpt><trkpt lat="45.6344572" lon="8.3543178"><ele>454.0</ele><time>2026-04-05T14:26:15.647Z</time></trkpt><trkpt lat="45.6344401" lon="8.3542199"><ele>452.66666666666663</ele><time>2026-04-05T14:26:16.652Z</time></trkpt><trkpt lat="45.6344206" lon="8.3541214"><ele>451.3333333333333</ele><time>2026-04-05T14:26:17.638Z</time></trkpt><trkpt lat="45.6343943" lon="8.3540143"><ele>450.0</ele><time>2026-04-05T14:26:18.651Z</time></trkpt><trkpt lat="45.6343661" lon="8.353922"><ele>449.3333333333333</ele><time>2026-04-05T14:26:19.647Z</time></trkpt><trkpt lat="45.6343313" lon="8.353839"><ele>448.66666666666663</ele><time>2026-04-05T14:26:20.644Z</time></trkpt><trkpt lat="45.6342933" lon="8.3536891"><ele>448.0</ele><time>2026-04-05T14:26:22.644Z</time></trkpt><trkpt lat="45.6342824" lon="8.3535981"><ele>447.3333333333333</ele><time>2026-04-05T14:26:23.645Z</time></trkpt><trkpt lat="45.6342739" lon="8.3535019"><ele>446.66666666666663</ele><time>2026-04-05T14:26:24.649Z</time></trkpt><trkpt lat="45.63427" lon="8.3534005"><ele>446.0</ele><time>2026-04-05T14:26:25.644Z</time></trkpt><trkpt lat="45.6342685" lon="8.3532314"><ele>446.0</ele><time>2026-04-05T14:26:27.65Z</time></trkpt><trkpt lat="45.6342729" lon="8.3530652"><ele>446.0</ele><time>2026-04-05T14:26:29.643Z</time></trkpt><trkpt lat="45.6342738" lon="8.3529061"><ele>446.0</ele><time>2026-04-05T14:26:31.653Z</time></trkpt><trkpt lat="45.6342823" lon="8.3527723"><ele>446.0</ele><time>2026-04-05T14:26:33.645Z</time></trkpt><trkpt lat="45.6342897" lon="8.3526762"><ele>446.0</ele><time>2026-04-05T14:26:35.655Z</time></trkpt><trkpt lat="45.6342679" lon="8.3525797"><ele>446.6</ele><time>2026-04-05T14:26:39.644Z</time></trkpt><trkpt lat="45.6343413" lon="8.3526569"><ele>447.20000000000005</ele><time>2026-04-05T14:26:58.653Z</time></trkpt><trkpt lat="45.6344367" lon="8.3527099"><ele>447.79999999999995</ele><time>2026-04-05T14:27:00.652Z</time></trkpt><trkpt lat="45.6345344" lon="8.3527713"><ele>448.4</ele><time>2026-04-05T14:27:02.649Z</time></trkpt><trkpt lat="45.6346172" lon="8.3527804"><ele>449.0</ele><time>2026-04-05T14:27:04.656Z</time></trkpt><trkpt lat="45.6347031" lon="8.3527111"><ele>449.0</ele><time>2026-04-05T14:27:06.646Z</time></trkpt><trkpt lat="45.6348129" lon="8.3526795"><ele>449.0</ele><time>2026-04-05T14:27:08.647Z</time></trkpt><trkpt lat="45.6349092" lon="8.3526984"><ele>449.0</ele><time>2026-04-05T14:27:10.643Z</time></trkpt><trkpt lat="45.6349721" lon="8.3526496"><ele>449.0</ele><time>2026-04-05T14:27:13.647Z</time></trkpt><trkpt lat="45.6349044" lon="8.3525457"><ele>449.0</ele><time>2026-04-05T14:27:16.649Z</time></trkpt><trkpt lat="45.6348152" lon="8.3524179"><ele>449.0</ele><time>2026-04-05T14:27:18.646Z</time></trkpt><trkpt lat="45.6347695" lon="8.3523329"><ele>448.99999999999994</ele><time>2026-04-05T14:27:19.65Z</time></trkpt><trkpt lat="45.6347356" lon="8.3522392"><ele>449.0</ele><time>2026-04-05T14:27:20.647Z</time></trkpt><trkpt lat="45.6347188" lon="8.3521445"><ele>449.0</ele><time>2026-04-05T14:27:21.649Z</time></trkpt><trkpt lat="45.6347229" lon="8.3520505"><ele>448.99999999999994</ele><time>2026-04-05T14:27:22.632Z</time></trkpt><trkpt lat="45.6347388" lon="8.3519582"><ele>449.0</ele><time>2026-04-05T14:27:23.649Z</time></trkpt><trkpt lat="45.6347664" lon="8.3518708"><ele>449.0</ele><time>2026-04-05T14:27:24.639Z</time></trkpt><trkpt lat="45.6348054" lon="8.3517823"><ele>448.0</ele><time>2026-04-05T14:27:25.651Z</time></trkpt><trkpt lat="45.6348451" lon="8.3517018"><ele>447.0</ele><time>2026-04-05T14:27:26.654Z</time></trkpt><trkpt lat="45.6348708" lon="8.3515452"><ele>446.0</ele><time>2026-04-05T14:27:28.653Z</time></trkpt><trkpt lat="45.6348379" lon="8.3514185"><ele>445.0</ele><time>2026-04-05T14:27:30.653Z</time></trkpt><trkpt lat="45.6347849" lon="8.3512732"><ele>444.0</ele><time>2026-04-05T14:27:32.647Z</time></trkpt><trkpt lat="45.634746" lon="8.3511979"><ele>443.8333333333333</ele><time>2026-04-05T14:27:33.642Z</time></trkpt><trkpt lat="45.6347038" lon="8.3511197"><ele>443.66666666666663</ele><time>2026-04-05T14:27:34.652Z</time></trkpt><trkpt lat="45.6346674" lon="8.3510408"><ele>443.5</ele><time>2026-04-05T14:27:35.65Z</time></trkpt><trkpt lat="45.6346349" lon="8.3509618"><ele>443.3333333333333</ele><time>2026-04-05T14:27:36.652Z</time></trkpt><trkpt lat="45.6346033" lon="8.3508036"><ele>443.16666666666663</ele><time>2026-04-05T14:27:38.647Z</time></trkpt><trkpt lat="45.634604" lon="8.3506383"><ele>443.0</ele><time>2026-04-05T14:27:40.647Z</time></trkpt><trkpt lat="45.6346272" lon="8.3504952"><ele>442.99999999999994</ele><time>2026-04-05T14:27:42.642Z</time></trkpt><trkpt lat="45.6346065" lon="8.3503978"><ele>443.0</ele><time>2026-04-05T14:27:44.657Z</time></trkpt><trkpt lat="45.6345491" lon="8.3503213"><ele>443.0</ele><time>2026-04-05T14:27:46.642Z</time></trkpt><trkpt lat="45.6344833" lon="8.3502443"><ele>443.0</ele><time>2026-04-05T14:27:48.651Z</time></trkpt><trkpt lat="45.6344069" lon="8.3501658"><ele>442.99999999999994</ele><time>2026-04-05T14:27:50.647Z</time></trkpt><trkpt lat="45.6343224" lon="8.3500715"><ele>443.0</ele><time>2026-04-05T14:27:52.639Z</time></trkpt><trkpt lat="45.6342758" lon="8.3499621"><ele>438.49999999999994</ele><time>2026-04-05T14:27:54.644Z</time></trkpt><trkpt lat="45.6342124" lon="8.3498648"><ele>434.0</ele><time>2026-04-05T14:27:56.64Z</time></trkpt><trkpt lat="45.6341376" lon="8.3498278"><ele>429.5</ele><time>2026-04-05T14:27:58.651Z</time></trkpt><trkpt lat="45.6340722" lon="8.349853"><ele>425.0</ele><time>2026-04-05T14:28:00.653Z</time></trkpt><trkpt lat="45.6340084" lon="8.3498864"><ele>420.49999999999994</ele><time>2026-04-05T14:28:11.642Z</time></trkpt><trkpt lat="45.6339386" lon="8.3498967"><ele>416.0</ele><time>2026-04-05T14:28:15.64Z</time></trkpt><trkpt lat="45.6338719" lon="8.3498492"><ele>416.0</ele><time>2026-04-05T14:28:17.642Z</time></trkpt><trkpt lat="45.6338101" lon="8.3497616"><ele>416.0</ele><time>2026-04-05T14:28:19.647Z</time></trkpt><trkpt lat="45.633736" lon="8.349684"><ele>416.0</ele><time>2026-04-05T14:28:21.637Z</time></trkpt><trkpt lat="45.6336376" lon="8.3496051"><ele>416.0</ele><time>2026-04-05T14:28:23.648Z</time></trkpt><trkpt lat="45.6335453" lon="8.3495242"><ele>416.0</ele><time>2026-04-05T14:28:25.65Z</time></trkpt><trkpt lat="45.6334924" lon="8.3494321"><ele>413.99999999999994</ele><time>2026-04-05T14:28:27.639Z</time></trkpt><trkpt lat="45.6334395" lon="8.3493711"><ele>412.0</ele><time>2026-04-05T14:28:29.644Z</time></trkpt><trkpt lat="45.6333769" lon="8.3493379"><ele>410.0</ele><time>2026-04-05T14:28:31.643Z</time></trkpt><trkpt lat="45.6332686" lon="8.3493166"><ele>408.0</ele><time>2026-04-05T14:28:33.65Z</time></trkpt><trkpt lat="45.6332073" lon="8.3492825"><ele>405.99999999999994</ele><time>2026-04-05T14:28:34.642Z</time></trkpt><trkpt lat="45.6331498" lon="8.3492338"><ele>404.0</ele><time>2026-04-05T14:28:35.649Z</time></trkpt><trkpt lat="45.6330551" lon="8.3491288"><ele>404.0</ele><time>2026-04-05T14:28:37.646Z</time></trkpt><trkpt lat="45.6329791" lon="8.3490188"><ele>404.0</ele><time>2026-04-05T14:28:39.649Z</time></trkpt><trkpt lat="45.6328874" lon="8.3489298"><ele>404.0</ele><time>2026-04-05T14:28:41.653Z</time></trkpt><trkpt lat="45.6327781" lon="8.3488433"><ele>404.0</ele><time>2026-04-05T14:28:43.65Z</time></trkpt><trkpt lat="45.6326871" lon="8.3487441"><ele>401.4</ele><time>2026-04-05T14:28:45.65Z</time></trkpt><trkpt lat="45.6326082" lon="8.3486402"><ele>398.79999999999995</ele><time>2026-04-05T14:28:47.646Z</time></trkpt><trkpt lat="45.6325175" lon="8.3485529"><ele>396.20000000000005</ele><time>2026-04-05T14:28:49.653Z</time></trkpt><trkpt lat="45.6323989" lon="8.3484922"><ele>393.6</ele><time>2026-04-05T14:28:51.646Z</time></trkpt><trkpt lat="45.6323333" lon="8.3484648"><ele>391.0</ele><time>2026-04-05T14:28:52.649Z</time></trkpt><trkpt lat="45.6322652" lon="8.3484396"><ele>391.00000000000006</ele><time>2026-04-05T14:28:53.647Z</time></trkpt><trkpt lat="45.6321997" lon="8.3483971"><ele>391.0</ele><time>2026-04-05T14:28:54.643Z</time></trkpt><trkpt lat="45.6321331" lon="8.3483563"><ele>391.0</ele><time>2026-04-05T14:28:55.645Z</time></trkpt><trkpt lat="45.6320558" lon="8.3483216"><ele>391.0</ele><time>2026-04-05T14:28:56.649Z</time></trkpt><trkpt lat="45.6319782" lon="8.3482957"><ele>391.00000000000006</ele><time>2026-04-05T14:28:57.653Z</time></trkpt><trkpt lat="45.631904" lon="8.3482751"><ele>391.0</ele><time>2026-04-05T14:28:58.644Z</time></trkpt><trkpt lat="45.6318306" lon="8.3482593"><ele>389.4</ele><time>2026-04-05T14:28:59.651Z</time></trkpt><trkpt lat="45.6317634" lon="8.3482471"><ele>387.8</ele><time>2026-04-05T14:29:00.651Z</time></trkpt><trkpt lat="45.6316522" lon="8.3481845"><ele>386.2</ele><time>2026-04-05T14:29:02.661Z</time></trkpt><trkpt lat="45.6315739" lon="8.3480828"><ele>384.59999999999997</ele><time>2026-04-05T14:29:04.646Z</time></trkpt><trkpt lat="45.6315334" lon="8.3479513"><ele>383.0</ele><time>2026-04-05T14:29:06.649Z</time></trkpt><trkpt lat="45.63154" lon="8.3480479"><ele>382.0</ele><time>2026-04-05T14:29:15.634Z</time></trkpt><trkpt lat="45.6316015" lon="8.3481022"><ele>381.0</ele><time>2026-04-05T14:29:17.646Z</time></trkpt><trkpt lat="45.6315585" lon="8.3481811"><ele>380.0</ele><time>2026-04-05T14:29:22.637Z</time></trkpt><trkpt lat="45.6314402" lon="8.3481303"><ele>379.0</ele><time>2026-04-05T14:29:24.653Z</time></trkpt><trkpt lat="45.6313241" lon="8.3480915"><ele>378.0</ele><time>2026-04-05T14:29:26.647Z</time></trkpt><trkpt lat="45.6312128" lon="8.3480593"><ele>375.2</ele><time>2026-04-05T14:29:28.658Z</time></trkpt><trkpt lat="45.6311037" lon="8.3480167"><ele>372.4</ele><time>2026-04-05T14:29:30.653Z</time></trkpt><trkpt lat="45.6310004" lon="8.3480093"><ele>369.59999999999997</ele><time>2026-04-05T14:29:32.661Z</time></trkpt><trkpt lat="45.6309126" lon="8.3479806"><ele>366.79999999999995</ele><time>2026-04-05T14:29:34.647Z</time></trkpt><trkpt lat="45.6308483" lon="8.3479206"><ele>364.0</ele><time>2026-04-05T14:29:36.651Z</time></trkpt><trkpt lat="45.6307768" lon="8.3478836"><ele>364.0</ele><time>2026-04-05T14:29:38.644Z</time></trkpt><trkpt lat="45.630697" lon="8.3478746"><ele>364.0</ele><time>2026-04-05T14:29:40.646Z</time></trkpt><trkpt lat="45.6306057" lon="8.3478517"><ele>364.0</ele><time>2026-04-05T14:29:42.646Z</time></trkpt><trkpt lat="45.6305063" lon="8.347819"><ele>364.0</ele><time>2026-04-05T14:29:44.64Z</time></trkpt><trkpt lat="45.6304421" lon="8.3478036"><ele>364.0</ele><time>2026-04-05T14:29:46.644Z</time></trkpt><trkpt lat="45.6303431" lon="8.3477991"><ele>364.0</ele><time>2026-04-05T14:29:47.659Z</time></trkpt><trkpt lat="45.6302564" lon="8.3478051"><ele>361.3333333333333</ele><time>2026-04-05T14:29:48.654Z</time></trkpt><trkpt lat="45.6300376" lon="8.3478227"><ele>358.6666666666667</ele><time>2026-04-05T14:29:50.652Z</time></trkpt><trkpt lat="45.6299682" lon="8.3478513"><ele>356.0</ele><time>2026-04-05T14:29:51.598Z</time></trkpt><trkpt lat="45.6297907" lon="8.3478963"><ele>356.0</ele><time>2026-04-05T14:29:52.658Z</time></trkpt><trkpt lat="45.6296739" lon="8.3479233"><ele>356.0</ele><time>2026-04-05T14:29:53.646Z</time></trkpt><trkpt lat="45.6295683" lon="8.3479402"><ele>356.0</ele><time>2026-04-05T14:29:54.652Z</time></trkpt><trkpt lat="45.6294774" lon="8.3479514"><ele>356.0</ele><time>2026-04-05T14:29:55.648Z</time></trkpt><trkpt lat="45.6293869" lon="8.3479598"><ele>356.0</ele><time>2026-04-05T14:29:56.663Z</time></trkpt><trkpt lat="45.6293025" lon="8.3479678"><ele>354.8</ele><time>2026-04-05T14:29:57.653Z</time></trkpt><trkpt lat="45.6292118" lon="8.3479708"><ele>353.6</ele><time>2026-04-05T14:29:58.654Z</time></trkpt><trkpt lat="45.6291164" lon="8.3479633"><ele>352.4</ele><time>2026-04-05T14:29:59.655Z</time></trkpt><trkpt lat="45.629021" lon="8.3479542"><ele>351.2</ele><time>2026-04-05T14:30:00.651Z</time></trkpt><trkpt lat="45.6289266" lon="8.3479469"><ele>350.0</ele><time>2026-04-05T14:30:01.651Z</time></trkpt><trkpt lat="45.6288393" lon="8.3479355"><ele>350.0</ele><time>2026-04-05T14:30:02.648Z</time></trkpt><trkpt lat="45.6287622" lon="8.3479306"><ele>350.0</ele><time>2026-04-05T14:30:03.649Z</time></trkpt><trkpt lat="45.6286837" lon="8.3479345"><ele>350.0</ele><time>2026-04-05T14:30:04.658Z</time></trkpt><trkpt lat="45.6286153" lon="8.3479421"><ele>350.0</ele><time>2026-04-05T14:30:05.656Z</time></trkpt><trkpt lat="45.628553" lon="8.3479693"><ele>350.0</ele><time>2026-04-05T14:30:06.654Z</time></trkpt><trkpt lat="45.6284908" lon="8.3479998"><ele>350.0</ele><time>2026-04-05T14:30:07.654Z</time></trkpt><trkpt lat="45.6284246" lon="8.3480274"><ele>350.0</ele><time>2026-04-05T14:30:08.645Z</time></trkpt><trkpt lat="45.6283529" lon="8.3480437"><ele>350.0</ele><time>2026-04-05T14:30:09.655Z</time></trkpt><trkpt lat="45.6282815" lon="8.3480463"><ele>350.0</ele><time>2026-04-05T14:30:10.646Z</time></trkpt><trkpt lat="45.6282007" lon="8.3480469"><ele>350.0</ele><time>2026-04-05T14:30:11.648Z</time></trkpt><trkpt lat="45.6280946" lon="8.3480403"><ele>350.0</ele><time>2026-04-05T14:30:12.652Z</time></trkpt><trkpt lat="45.6279829" lon="8.3480314"><ele>350.0</ele><time>2026-04-05T14:30:13.643Z</time></trkpt><trkpt lat="45.6278772" lon="8.3480182"><ele>349.0</ele><time>2026-04-05T14:30:14.64Z</time></trkpt><trkpt lat="45.6277686" lon="8.3480039"><ele>348.0</ele><time>2026-04-05T14:30:15.649Z</time></trkpt><trkpt lat="45.6276625" lon="8.3479781"><ele>347.0</ele><time>2026-04-05T14:30:16.646Z</time></trkpt><trkpt lat="45.6275756" lon="8.3479215"><ele>346.0</ele><time>2026-04-05T14:30:17.642Z</time></trkpt><trkpt lat="45.6274824" lon="8.3478373"><ele>345.0</ele><time>2026-04-05T14:30:18.642Z</time></trkpt><trkpt lat="45.6273761" lon="8.347737"><ele>345.0</ele><time>2026-04-05T14:30:19.657Z</time></trkpt><trkpt lat="45.6272695" lon="8.3476461"><ele>345.0</ele><time>2026-04-05T14:30:20.652Z</time></trkpt><trkpt lat="45.627161" lon="8.3475597"><ele>345.0</ele><time>2026-04-05T14:30:21.648Z</time></trkpt><trkpt lat="45.6270556" lon="8.3474829"><ele>345.0</ele><time>2026-04-05T14:30:22.642Z</time></trkpt><trkpt lat="45.6269457" lon="8.3474207"><ele>344.0</ele><time>2026-04-05T14:30:23.643Z</time></trkpt><trkpt lat="45.6268366" lon="8.3473613"><ele>343.0</ele><time>2026-04-05T14:30:24.65Z</time></trkpt><trkpt lat="45.6267353" lon="8.3473092"><ele>342.0</ele><time>2026-04-05T14:30:25.645Z</time></trkpt><trkpt lat="45.626649" lon="8.3472546"><ele>341.0</ele><time>2026-04-05T14:30:26.646Z</time></trkpt><trkpt lat="45.626573" lon="8.3471959"><ele>340.0</ele><time>2026-04-05T14:30:27.653Z</time></trkpt><trkpt lat="45.6264979" lon="8.3471311"><ele>338.2</ele><time>2026-04-05T14:30:28.641Z</time></trkpt><trkpt lat="45.6264512" lon="8.3470273"><ele>336.4</ele><time>2026-04-05T14:30:29.651Z</time></trkpt><trkpt lat="45.6264038" lon="8.3468979"><ele>334.6</ele><time>2026-04-05T14:30:30.649Z</time></trkpt><trkpt lat="45.6263599" lon="8.3467547"><ele>332.8</ele><time>2026-04-05T14:30:31.649Z</time></trkpt><trkpt lat="45.6263294" lon="8.346613"><ele>331.0</ele><time>2026-04-05T14:30:32.645Z</time></trkpt><trkpt lat="45.6263064" lon="8.3464799"><ele>331.0</ele><time>2026-04-05T14:30:33.642Z</time></trkpt><trkpt lat="45.6262949" lon="8.3463448"><ele>331.0</ele><time>2026-04-05T14:30:34.64Z</time></trkpt><trkpt lat="45.6262894" lon="8.3462476"><ele>331.0</ele><time>2026-04-05T14:30:35.647Z</time></trkpt><trkpt lat="45.6262827" lon="8.3461298"><ele>331.0</ele><time>2026-04-05T14:30:37.652Z</time></trkpt><trkpt lat="45.6261965" lon="8.3461067"><ele>331.0</ele><time>2026-04-05T14:30:41.645Z</time></trkpt><trkpt lat="45.6261103" lon="8.3461232"><ele>331.0</ele><time>2026-04-05T14:30:43.649Z</time></trkpt><trkpt lat="45.6259733" lon="8.3461237"><ele>331.0</ele><time>2026-04-05T14:30:45.653Z</time></trkpt><trkpt lat="45.625891" lon="8.3460962"><ele>331.0</ele><time>2026-04-05T14:30:46.657Z</time></trkpt><trkpt lat="45.6257984" lon="8.3460688"><ele>331.0</ele><time>2026-04-05T14:30:47.652Z</time></trkpt><trkpt lat="45.6257106" lon="8.346048"><ele>331.0</ele><time>2026-04-05T14:30:48.651Z</time></trkpt><trkpt lat="45.6256256" lon="8.3460467"><ele>331.0</ele><time>2026-04-05T14:30:49.649Z</time></trkpt><trkpt lat="45.6255462" lon="8.3460722"><ele>331.0</ele><time>2026-04-05T14:30:50.656Z</time></trkpt><trkpt lat="45.6254605" lon="8.3461134"><ele>331.0</ele><time>2026-04-05T14:30:51.653Z</time></trkpt><trkpt lat="45.6253811" lon="8.3461548"><ele>331.0</ele><time>2026-04-05T14:30:52.644Z</time></trkpt><trkpt lat="45.6253058" lon="8.3461803"><ele>331.0</ele><time>2026-04-05T14:30:53.653Z</time></trkpt><trkpt lat="45.6252351" lon="8.3461837"><ele>331.0</ele><time>2026-04-05T14:30:54.648Z</time></trkpt><trkpt lat="45.6251703" lon="8.3461536"><ele>331.0</ele><time>2026-04-05T14:30:55.653Z</time></trkpt><trkpt lat="45.6251115" lon="8.3460943"><ele>331.0</ele><time>2026-04-05T14:30:56.653Z</time></trkpt><trkpt lat="45.6250505" lon="8.3460169"><ele>329.8</ele><time>2026-04-05T14:30:57.65Z</time></trkpt><trkpt lat="45.6249657" lon="8.3459172"><ele>328.6</ele><time>2026-04-05T14:30:58.65Z</time></trkpt><trkpt lat="45.6248819" lon="8.3458291"><ele>327.4</ele><time>2026-04-05T14:30:59.654Z</time></trkpt><trkpt lat="45.6247989" lon="8.3457591"><ele>326.2</ele><time>2026-04-05T14:31:00.658Z</time></trkpt><trkpt lat="45.6247153" lon="8.3456946"><ele>325.0</ele><time>2026-04-05T14:31:01.655Z</time></trkpt><trkpt lat="45.6246325" lon="8.3456456"><ele>325.0</ele><time>2026-04-05T14:31:02.652Z</time></trkpt><trkpt lat="45.6245568" lon="8.3456126"><ele>325.0</ele><time>2026-04-05T14:31:03.643Z</time></trkpt><trkpt lat="45.6244739" lon="8.3455983"><ele>325.0</ele><time>2026-04-05T14:31:04.642Z</time></trkpt><trkpt lat="45.6243941" lon="8.345611"><ele>325.0</ele><time>2026-04-05T14:31:05.645Z</time></trkpt><trkpt lat="45.6243203" lon="8.3456505"><ele>325.0</ele><time>2026-04-05T14:31:06.654Z</time></trkpt><trkpt lat="45.6242604" lon="8.3457089"><ele>325.0</ele><time>2026-04-05T14:31:07.654Z</time></trkpt><trkpt lat="45.6242031" lon="8.3457802"><ele>324.4285714285714</ele><time>2026-04-05T14:31:08.644Z</time></trkpt><trkpt lat="45.6241494" lon="8.3458464"><ele>323.8571428571429</ele><time>2026-04-05T14:31:09.653Z</time></trkpt><trkpt lat="45.6240893" lon="8.345908"><ele>323.2857142857143</ele><time>2026-04-05T14:31:10.652Z</time></trkpt><trkpt lat="45.6240232" lon="8.3459599"><ele>322.71428571428567</ele><time>2026-04-05T14:31:11.652Z</time></trkpt><trkpt lat="45.6239503" lon="8.3459919"><ele>322.1428571428571</ele><time>2026-04-05T14:31:12.652Z</time></trkpt><trkpt lat="45.6238793" lon="8.3460036"><ele>321.57142857142856</ele><time>2026-04-05T14:31:13.654Z</time></trkpt><trkpt lat="45.6238002" lon="8.3459895"><ele>321.0</ele><time>2026-04-05T14:31:14.65Z</time></trkpt><trkpt lat="45.6237335" lon="8.3459478"><ele>321.0</ele><time>2026-04-05T14:31:15.652Z</time></trkpt><trkpt lat="45.6236672" lon="8.34588"><ele>321.0</ele><time>2026-04-05T14:31:16.65Z</time></trkpt><trkpt lat="45.6236123" lon="8.3457968"><ele>321.0</ele><time>2026-04-05T14:31:17.646Z</time></trkpt><trkpt lat="45.6235562" lon="8.3457142"><ele>321.0</ele><time>2026-04-05T14:31:18.657Z</time></trkpt><trkpt lat="45.6235002" lon="8.3456569"><ele>321.0</ele><time>2026-04-05T14:31:19.658Z</time></trkpt><trkpt lat="45.6234376" lon="8.3456206"><ele>321.0</ele><time>2026-04-05T14:31:20.652Z</time></trkpt><trkpt lat="45.6233606" lon="8.3456043"><ele>320.6</ele><time>2026-04-05T14:31:21.653Z</time></trkpt><trkpt lat="45.6232936" lon="8.3456028"><ele>320.20000000000005</ele><time>2026-04-05T14:31:22.644Z</time></trkpt><trkpt lat="45.623209" lon="8.3456318"><ele>319.79999999999995</ele><time>2026-04-05T14:31:23.654Z</time></trkpt><trkpt lat="45.6230935" lon="8.3457181"><ele>319.4</ele><time>2026-04-05T14:31:24.657Z</time></trkpt><trkpt lat="45.6229674" lon="8.3458109"><ele>319.0</ele><time>2026-04-05T14:31:25.644Z</time></trkpt><trkpt lat="45.6228429" lon="8.3459314"><ele>319.5</ele><time>2026-04-05T14:31:26.648Z</time></trkpt><trkpt lat="45.6227332" lon="8.3460456"><ele>320.0</ele><time>2026-04-05T14:31:27.643Z</time></trkpt><trkpt lat="45.6226238" lon="8.3461436"><ele>320.5</ele><time>2026-04-05T14:31:28.65Z</time></trkpt><trkpt lat="45.6225207" lon="8.3462243"><ele>321.0</ele><time>2026-04-05T14:31:29.641Z</time></trkpt><trkpt lat="45.6224209" lon="8.3462871"><ele>321.0</ele><time>2026-04-05T14:31:30.642Z</time></trkpt><trkpt lat="45.6223219" lon="8.3463308"><ele>321.0</ele><time>2026-04-05T14:31:31.65Z</time></trkpt><trkpt lat="45.6222181" lon="8.3463608"><ele>321.0</ele><time>2026-04-05T14:31:32.654Z</time></trkpt><trkpt lat="45.6221107" lon="8.3463927"><ele>321.0</ele><time>2026-04-05T14:31:33.647Z</time></trkpt><trkpt lat="45.6219954" lon="8.3464524"><ele>321.0</ele><time>2026-04-05T14:31:34.654Z</time></trkpt><trkpt lat="45.621884" lon="8.3465243"><ele>319.3333333333333</ele><time>2026-04-05T14:31:35.656Z</time></trkpt><trkpt lat="45.6217889" lon="8.3465955"><ele>317.6666666666667</ele><time>2026-04-05T14:31:36.652Z</time></trkpt><trkpt lat="45.6217071" lon="8.3466745"><ele>316.0</ele><time>2026-04-05T14:31:37.65Z</time></trkpt><trkpt lat="45.621646" lon="8.3467544"><ele>314.33333333333337</ele><time>2026-04-05T14:31:38.65Z</time></trkpt><trkpt lat="45.6215939" lon="8.3468354"><ele>312.6666666666667</ele><time>2026-04-05T14:31:39.649Z</time></trkpt><trkpt lat="45.6215497" lon="8.3469005"><ele>311.0</ele><time>2026-04-05T14:31:40.645Z</time></trkpt><trkpt lat="45.6214643" lon="8.3469824"><ele>311.0</ele><time>2026-04-05T14:31:42.645Z</time></trkpt><trkpt lat="45.621382" lon="8.3470392"><ele>311.0</ele><time>2026-04-05T14:31:44.65Z</time></trkpt><trkpt lat="45.6213288" lon="8.3470919"><ele>311.0</ele><time>2026-04-05T14:31:47.647Z</time></trkpt><trkpt lat="45.6212769" lon="8.3470164"><ele>311.0</ele><time>2026-04-05T14:31:53.651Z</time></trkpt><trkpt lat="45.6212826" lon="8.3471291"><ele>311.0</ele><time>2026-04-05T14:32:01.654Z</time></trkpt><trkpt lat="45.6213183" lon="8.347212"><ele>311.0</ele><time>2026-04-05T14:32:04.642Z</time></trkpt><trkpt lat="45.6212695" lon="8.3471434"><ele>311.0</ele><time>2026-04-05T14:32:10.641Z</time></trkpt><trkpt lat="45.6212197" lon="8.3470843"><ele>311.0</ele><time>2026-04-05T14:32:12.643Z</time></trkpt><trkpt lat="45.621169" lon="8.3469961"><ele>311.0</ele><time>2026-04-05T14:32:14.654Z</time></trkpt><trkpt lat="45.6211162" lon="8.3468631"><ele>311.0</ele><time>2026-04-05T14:32:16.651Z</time></trkpt><trkpt lat="45.6210855" lon="8.3467701"><ele>311.0</ele><time>2026-04-05T14:32:17.649Z</time></trkpt><trkpt lat="45.6210599" lon="8.3466492"><ele>311.0</ele><time>2026-04-05T14:32:18.652Z</time></trkpt><trkpt lat="45.6210386" lon="8.3465085"><ele>311.0</ele><time>2026-04-05T14:32:19.643Z</time></trkpt><trkpt lat="45.6210305" lon="8.3463499"><ele>310.25</ele><time>2026-04-05T14:32:20.641Z</time></trkpt><trkpt lat="45.6210267" lon="8.3461671"><ele>309.5</ele><time>2026-04-05T14:32:21.633Z</time></trkpt><trkpt lat="45.6210241" lon="8.3459656"><ele>308.75</ele><time>2026-04-05T14:32:22.654Z</time></trkpt><trkpt lat="45.6210224" lon="8.3457579"><ele>308.0</ele><time>2026-04-05T14:32:23.65Z</time></trkpt><trkpt lat="45.621019" lon="8.3455489"><ele>308.0</ele><time>2026-04-05T14:32:24.644Z</time></trkpt><trkpt lat="45.6210128" lon="8.3453433"><ele>308.0</ele><time>2026-04-05T14:32:25.646Z</time></trkpt><trkpt lat="45.6210027" lon="8.3451409"><ele>308.0</ele><time>2026-04-05T14:32:26.646Z</time></trkpt><trkpt lat="45.6209966" lon="8.3449392"><ele>308.0</ele><time>2026-04-05T14:32:27.65Z</time></trkpt><trkpt lat="45.6209945" lon="8.3447405"><ele>308.25</ele><time>2026-04-05T14:32:28.645Z</time></trkpt><trkpt lat="45.6209885" lon="8.3445502"><ele>308.5</ele><time>2026-04-05T14:32:29.655Z</time></trkpt><trkpt lat="45.6209786" lon="8.3443635"><ele>308.75</ele><time>2026-04-05T14:32:30.639Z</time></trkpt><trkpt lat="45.6209699" lon="8.3441755"><ele>309.0</ele><time>2026-04-05T14:32:31.654Z</time></trkpt><trkpt lat="45.6209666" lon="8.3439942"><ele>309.2</ele><time>2026-04-05T14:32:32.652Z</time></trkpt><trkpt lat="45.6209625" lon="8.3438237"><ele>309.4</ele><time>2026-04-05T14:32:33.647Z</time></trkpt><trkpt lat="45.6209635" lon="8.3436679"><ele>309.6</ele><time>2026-04-05T14:32:34.65Z</time></trkpt><trkpt lat="45.620963" lon="8.3435265"><ele>309.8</ele><time>2026-04-05T14:32:35.643Z</time></trkpt><trkpt lat="45.6209555" lon="8.3433818"><ele>310.0</ele><time>2026-04-05T14:32:36.646Z</time></trkpt><trkpt lat="45.6209538" lon="8.3432427"><ele>310.0</ele><time>2026-04-05T14:32:37.649Z</time></trkpt><trkpt lat="45.620954" lon="8.3430875"><ele>310.0</ele><time>2026-04-05T14:32:38.652Z</time></trkpt><trkpt lat="45.62095" lon="8.3429267"><ele>310.0</ele><time>2026-04-05T14:32:39.646Z</time></trkpt><trkpt lat="45.6209449" lon="8.3427634"><ele>310.0</ele><time>2026-04-05T14:32:40.65Z</time></trkpt><trkpt lat="45.6209424" lon="8.3426011"><ele>310.0</ele><time>2026-04-05T14:32:41.644Z</time></trkpt><trkpt lat="45.6209412" lon="8.3424411"><ele>309.8</ele><time>2026-04-05T14:32:42.64Z</time></trkpt><trkpt lat="45.6209336" lon="8.3422809"><ele>309.6</ele><time>2026-04-05T14:32:43.646Z</time></trkpt><trkpt lat="45.620928" lon="8.3421268"><ele>309.4</ele><time>2026-04-05T14:32:44.64Z</time></trkpt><trkpt lat="45.6209144" lon="8.3419777"><ele>309.2</ele><time>2026-04-05T14:32:45.651Z</time></trkpt><trkpt lat="45.6208908" lon="8.3418396"><ele>309.0</ele><time>2026-04-05T14:32:46.645Z</time></trkpt><trkpt lat="45.620843" lon="8.3417019"><ele>309.0</ele><time>2026-04-05T14:32:47.651Z</time></trkpt><trkpt lat="45.6207781" lon="8.3415705"><ele>309.0</ele><time>2026-04-05T14:32:48.647Z</time></trkpt><trkpt lat="45.620699" lon="8.3414497"><ele>309.0</ele><time>2026-04-05T14:32:49.653Z</time></trkpt><trkpt lat="45.6206191" lon="8.3413276"><ele>309.0</ele><time>2026-04-05T14:32:50.65Z</time></trkpt><trkpt lat="45.620552" lon="8.3412106"><ele>309.0</ele><time>2026-04-05T14:32:51.652Z</time></trkpt><trkpt lat="45.6204956" lon="8.3411093"><ele>309.0</ele><time>2026-04-05T14:32:52.668Z</time></trkpt><trkpt lat="45.6204491" lon="8.3410161"><ele>309.0</ele><time>2026-04-05T14:32:53.641Z</time></trkpt><trkpt lat="45.6204209" lon="8.3409226"><ele>309.0</ele><time>2026-04-05T14:32:54.657Z</time></trkpt><trkpt lat="45.6204312" lon="8.3407387"><ele>309.0</ele><time>2026-04-05T14:32:56.646Z</time></trkpt><trkpt lat="45.6204675" lon="8.3406412"><ele>309.0</ele><time>2026-04-05T14:32:57.646Z</time></trkpt><trkpt lat="45.6204988" lon="8.3405333"><ele>309.0</ele><time>2026-04-05T14:32:58.641Z</time></trkpt><trkpt lat="45.6205153" lon="8.3404101"><ele>309.0</ele><time>2026-04-05T14:32:59.649Z</time></trkpt><trkpt lat="45.6205104" lon="8.340276"><ele>309.0</ele><time>2026-04-05T14:33:00.655Z</time></trkpt><trkpt lat="45.6204847" lon="8.3401275"><ele>309.0</ele><time>2026-04-05T14:33:01.647Z</time></trkpt><trkpt lat="45.6204349" lon="8.3399505"><ele>309.0</ele><time>2026-04-05T14:33:02.639Z</time></trkpt><trkpt lat="45.6203775" lon="8.3397739"><ele>308.75</ele><time>2026-04-05T14:33:03.648Z</time></trkpt><trkpt lat="45.6203228" lon="8.3396083"><ele>308.5</ele><time>2026-04-05T14:33:04.651Z</time></trkpt><trkpt lat="45.6202751" lon="8.3394454"><ele>308.25</ele><time>2026-04-05T14:33:05.644Z</time></trkpt><trkpt lat="45.6202282" lon="8.3392848"><ele>308.0</ele><time>2026-04-05T14:33:06.656Z</time></trkpt><trkpt lat="45.6201847" lon="8.3391371"><ele>308.0</ele><time>2026-04-05T14:33:07.646Z</time></trkpt><trkpt lat="45.6201441" lon="8.3389926"><ele>308.0</ele><time>2026-04-05T14:33:08.646Z</time></trkpt><trkpt lat="45.6201031" lon="8.3388489"><ele>308.0</ele><time>2026-04-05T14:33:09.65Z</time></trkpt><trkpt lat="45.6200628" lon="8.3387057"><ele>308.0</ele><time>2026-04-05T14:33:10.648Z</time></trkpt><trkpt lat="45.6200224" lon="8.338563"><ele>308.0</ele><time>2026-04-05T14:33:11.657Z</time></trkpt><trkpt lat="45.6199829" lon="8.3384248"><ele>307.6</ele><time>2026-04-05T14:33:12.651Z</time></trkpt><trkpt lat="45.6199428" lon="8.3382962"><ele>307.20000000000005</ele><time>2026-04-05T14:33:13.649Z</time></trkpt><trkpt lat="45.6199032" lon="8.3381731"><ele>306.8</ele><time>2026-04-05T14:33:14.648Z</time></trkpt><trkpt lat="45.6198659" lon="8.338043"><ele>306.40000000000003</ele><time>2026-04-05T14:33:15.652Z</time></trkpt><trkpt lat="45.6198282" lon="8.3379039"><ele>306.0</ele><time>2026-04-05T14:33:16.644Z</time></trkpt><trkpt lat="45.619788" lon="8.337766"><ele>306.0</ele><time>2026-04-05T14:33:17.653Z</time></trkpt><trkpt lat="45.6197524" lon="8.3376342"><ele>306.0</ele><time>2026-04-05T14:33:18.649Z</time></trkpt><trkpt lat="45.6197238" lon="8.3375105"><ele>306.0</ele><time>2026-04-05T14:33:19.649Z</time></trkpt><trkpt lat="45.6197019" lon="8.3373979"><ele>306.0</ele><time>2026-04-05T14:33:20.64Z</time></trkpt><trkpt lat="45.619693" lon="8.3372877"><ele>306.0</ele><time>2026-04-05T14:33:21.657Z</time></trkpt><trkpt lat="45.6197043" lon="8.3371742"><ele>306.0</ele><time>2026-04-05T14:33:22.653Z</time></trkpt><trkpt lat="45.619737" lon="8.3370561"><ele>305.6</ele><time>2026-04-05T14:33:23.643Z</time></trkpt><trkpt lat="45.619777" lon="8.3369313"><ele>305.20000000000005</ele><time>2026-04-05T14:33:24.652Z</time></trkpt><trkpt lat="45.619815" lon="8.3367939"><ele>304.79999999999995</ele><time>2026-04-05T14:33:25.646Z</time></trkpt><trkpt lat="45.6198483" lon="8.3366432"><ele>304.4</ele><time>2026-04-05T14:33:26.648Z</time></trkpt><trkpt lat="45.6198814" lon="8.3364874"><ele>304.0</ele><time>2026-04-05T14:33:27.651Z</time></trkpt><trkpt lat="45.6199129" lon="8.3363311"><ele>303.8</ele><time>2026-04-05T14:33:28.648Z</time></trkpt><trkpt lat="45.619943" lon="8.3361764"><ele>303.59999999999997</ele><time>2026-04-05T14:33:29.648Z</time></trkpt><trkpt lat="45.6199755" lon="8.3360274"><ele>303.4</ele><time>2026-04-05T14:33:30.655Z</time></trkpt><trkpt lat="45.620007" lon="8.3358797"><ele>303.2</ele><time>2026-04-05T14:33:31.656Z</time></trkpt><trkpt lat="45.6200346" lon="8.3357318"><ele>303.0</ele><time>2026-04-05T14:33:32.646Z</time></trkpt><trkpt lat="45.6200615" lon="8.3355804"><ele>303.4</ele><time>2026-04-05T14:33:33.645Z</time></trkpt><trkpt lat="45.6200891" lon="8.3354273"><ele>303.8</ele><time>2026-04-05T14:33:34.643Z</time></trkpt><trkpt lat="45.620117" lon="8.3352709"><ele>304.2</ele><time>2026-04-05T14:33:35.651Z</time></trkpt><trkpt lat="45.620145" lon="8.3351169"><ele>304.6</ele><time>2026-04-05T14:33:36.651Z</time></trkpt><trkpt lat="45.6201715" lon="8.3349651"><ele>305.0</ele><time>2026-04-05T14:33:37.649Z</time></trkpt><trkpt lat="45.6202001" lon="8.3348134"><ele>305.2</ele><time>2026-04-05T14:33:38.654Z</time></trkpt><trkpt lat="45.6202297" lon="8.3346635"><ele>305.4</ele><time>2026-04-05T14:33:39.648Z</time></trkpt><trkpt lat="45.6202525" lon="8.3345096"><ele>305.6</ele><time>2026-04-05T14:33:40.642Z</time></trkpt><trkpt lat="45.6202705" lon="8.3343541"><ele>305.8</ele><time>2026-04-05T14:33:41.645Z</time></trkpt><trkpt lat="45.6202843" lon="8.3341985"><ele>306.0</ele><time>2026-04-05T14:33:42.655Z</time></trkpt><trkpt lat="45.6202957" lon="8.3340465"><ele>306.0</ele><time>2026-04-05T14:33:43.656Z</time></trkpt><trkpt lat="45.6203055" lon="8.3338966"><ele>306.0</ele><time>2026-04-05T14:33:44.653Z</time></trkpt><trkpt lat="45.6203152" lon="8.3337507"><ele>306.0</ele><time>2026-04-05T14:33:45.654Z</time></trkpt><trkpt lat="45.620326" lon="8.3336021"><ele>306.0</ele><time>2026-04-05T14:33:46.655Z</time></trkpt><trkpt lat="45.6203361" lon="8.3334578"><ele>306.0</ele><time>2026-04-05T14:33:47.652Z</time></trkpt><trkpt lat="45.6203459" lon="8.3333184"><ele>306.2</ele><time>2026-04-05T14:33:48.65Z</time></trkpt><trkpt lat="45.6203532" lon="8.3331787"><ele>306.40000000000003</ele><time>2026-04-05T14:33:49.656Z</time></trkpt><trkpt lat="45.620361" lon="8.3330393"><ele>306.6</ele><time>2026-04-05T14:33:50.65Z</time></trkpt><trkpt lat="45.6203651" lon="8.3328946"><ele>306.8</ele><time>2026-04-05T14:33:51.647Z</time></trkpt><trkpt lat="45.6203696" lon="8.3327516"><ele>307.0</ele><time>2026-04-05T14:33:52.644Z</time></trkpt><trkpt lat="45.6203683" lon="8.3326086"><ele>307.2</ele><time>2026-04-05T14:33:53.653Z</time></trkpt><trkpt lat="45.62037" lon="8.3324693"><ele>307.4</ele><time>2026-04-05T14:33:54.653Z</time></trkpt><trkpt lat="45.6203691" lon="8.3323311"><ele>307.6</ele><time>2026-04-05T14:33:55.648Z</time></trkpt><trkpt lat="45.6203741" lon="8.3321975"><ele>307.8</ele><time>2026-04-05T14:33:56.661Z</time></trkpt><trkpt lat="45.6203796" lon="8.3320709"><ele>308.0</ele><time>2026-04-05T14:33:57.648Z</time></trkpt><trkpt lat="45.6203819" lon="8.3319413"><ele>308.1666666666667</ele><time>2026-04-05T14:33:58.642Z</time></trkpt><trkpt lat="45.6203855" lon="8.3318116"><ele>308.33333333333337</ele><time>2026-04-05T14:33:59.654Z</time></trkpt><trkpt lat="45.6203997" lon="8.3316916"><ele>308.5</ele><time>2026-04-05T14:34:00.658Z</time></trkpt><trkpt lat="45.6204146" lon="8.3315703"><ele>308.6666666666667</ele><time>2026-04-05T14:34:01.653Z</time></trkpt><trkpt lat="45.6204255" lon="8.3314469"><ele>308.8333333333333</ele><time>2026-04-05T14:34:02.646Z</time></trkpt><trkpt lat="45.6204354" lon="8.3313205"><ele>309.0</ele><time>2026-04-05T14:34:03.653Z</time></trkpt><trkpt lat="45.6204541" lon="8.3311983"><ele>309.0</ele><time>2026-04-05T14:34:04.647Z</time></trkpt><trkpt lat="45.6204747" lon="8.3310786"><ele>309.0</ele><time>2026-04-05T14:34:05.648Z</time></trkpt><trkpt lat="45.6204877" lon="8.3309579"><ele>309.0</ele><time>2026-04-05T14:34:06.641Z</time></trkpt><trkpt lat="45.6204987" lon="8.3308396"><ele>309.0</ele><time>2026-04-05T14:34:07.655Z</time></trkpt><trkpt lat="45.6205046" lon="8.3307218"><ele>309.0</ele><time>2026-04-05T14:34:08.66Z</time></trkpt><trkpt lat="45.6205086" lon="8.3306038"><ele>309.0</ele><time>2026-04-05T14:34:09.655Z</time></trkpt><trkpt lat="45.6205048" lon="8.3304973"><ele>308.5</ele><time>2026-04-05T14:34:10.653Z</time></trkpt><trkpt lat="45.6205033" lon="8.330396"><ele>308.0</ele><time>2026-04-05T14:34:11.647Z</time></trkpt><trkpt lat="45.6205064" lon="8.3302998"><ele>307.5</ele><time>2026-04-05T14:34:12.649Z</time></trkpt><trkpt lat="45.6205143" lon="8.33021"><ele>307.0</ele><time>2026-04-05T14:34:13.642Z</time></trkpt><trkpt lat="45.6205396" lon="8.3301248"><ele>306.5</ele><time>2026-04-05T14:34:14.647Z</time></trkpt><trkpt lat="45.6206321" lon="8.3299934"><ele>306.0</ele><time>2026-04-05T14:34:16.663Z</time></trkpt><trkpt lat="45.6206904" lon="8.3299351"><ele>306.0</ele><time>2026-04-05T14:34:17.647Z</time></trkpt><trkpt lat="45.6207565" lon="8.329875"><ele>306.0</ele><time>2026-04-05T14:34:18.647Z</time></trkpt><trkpt lat="45.6208216" lon="8.3298125"><ele>306.0</ele><time>2026-04-05T14:34:19.656Z</time></trkpt><trkpt lat="45.6208802" lon="8.3297325"><ele>306.0</ele><time>2026-04-05T14:34:20.649Z</time></trkpt><trkpt lat="45.6209349" lon="8.3296341"><ele>306.0</ele><time>2026-04-05T14:34:21.651Z</time></trkpt><trkpt lat="45.620982" lon="8.3295223"><ele>306.0</ele><time>2026-04-05T14:34:22.65Z</time></trkpt><trkpt lat="45.6210165" lon="8.3294003"><ele>305.2</ele><time>2026-04-05T14:34:23.655Z</time></trkpt><trkpt lat="45.6210395" lon="8.3292627"><ele>304.40000000000003</ele><time>2026-04-05T14:34:24.652Z</time></trkpt><trkpt lat="45.6210597" lon="8.3291199"><ele>303.6</ele><time>2026-04-05T14:34:25.646Z</time></trkpt><trkpt lat="45.6210734" lon="8.3289683"><ele>302.8</ele><time>2026-04-05T14:34:26.658Z</time></trkpt><trkpt lat="45.621084" lon="8.3288158"><ele>302.0</ele><time>2026-04-05T14:34:27.65Z</time></trkpt><trkpt lat="45.6211001" lon="8.3286663"><ele>301.4</ele><time>2026-04-05T14:34:28.641Z</time></trkpt><trkpt lat="45.6211135" lon="8.3285202"><ele>300.79999999999995</ele><time>2026-04-05T14:34:29.653Z</time></trkpt><trkpt lat="45.6211272" lon="8.3283813"><ele>300.2</ele><time>2026-04-05T14:34:30.652Z</time></trkpt><trkpt lat="45.6211427" lon="8.328243"><ele>299.59999999999997</ele><time>2026-04-05T14:34:31.651Z</time></trkpt><trkpt lat="45.6211537" lon="8.3281018"><ele>299.0</ele><time>2026-04-05T14:34:32.648Z</time></trkpt><trkpt lat="45.6211613" lon="8.3279576"><ele>298.75</ele><time>2026-04-05T14:34:33.634Z</time></trkpt><trkpt lat="45.621167" lon="8.3278094"><ele>298.5</ele><time>2026-04-05T14:34:34.65Z</time></trkpt><trkpt lat="45.6211797" lon="8.3276543"><ele>298.25</ele><time>2026-04-05T14:34:35.653Z</time></trkpt><trkpt lat="45.6211959" lon="8.3274885"><ele>298.0</ele><time>2026-04-05T14:34:36.642Z</time></trkpt><trkpt lat="45.6212115" lon="8.3273136"><ele>298.2</ele><time>2026-04-05T14:34:37.65Z</time></trkpt><trkpt lat="45.6212252" lon="8.327141"><ele>298.4</ele><time>2026-04-05T14:34:38.645Z</time></trkpt><trkpt lat="45.6212372" lon="8.3269783"><ele>298.59999999999997</ele><time>2026-04-05T14:34:39.652Z</time></trkpt><trkpt lat="45.6212478" lon="8.3268272"><ele>298.8</ele><time>2026-04-05T14:34:40.649Z</time></trkpt><trkpt lat="45.6212619" lon="8.3266833"><ele>299.0</ele><time>2026-04-05T14:34:41.651Z</time></trkpt><trkpt lat="45.6212757" lon="8.326547"><ele>299.0</ele><time>2026-04-05T14:34:42.649Z</time></trkpt><trkpt lat="45.621288" lon="8.3264166"><ele>299.0</ele><time>2026-04-05T14:34:43.641Z</time></trkpt><trkpt lat="45.6213067" lon="8.326291"><ele>299.0</ele><time>2026-04-05T14:34:44.654Z</time></trkpt><trkpt lat="45.6213405" lon="8.3261725"><ele>299.0</ele><time>2026-04-05T14:34:45.653Z</time></trkpt><trkpt lat="45.6213865" lon="8.3260576"><ele>299.0</ele><time>2026-04-05T14:34:46.654Z</time></trkpt><trkpt lat="45.6214487" lon="8.3259504"><ele>299.0</ele><time>2026-04-05T14:34:47.651Z</time></trkpt><trkpt lat="45.6215367" lon="8.3258574"><ele>299.0</ele><time>2026-04-05T14:34:48.643Z</time></trkpt><trkpt lat="45.6216389" lon="8.3257919"><ele>299.0</ele><time>2026-04-05T14:34:49.656Z</time></trkpt><trkpt lat="45.6217519" lon="8.3257636"><ele>299.0</ele><time>2026-04-05T14:34:50.645Z</time></trkpt><trkpt lat="45.6218737" lon="8.3257598"><ele>298.8</ele><time>2026-04-05T14:34:51.654Z</time></trkpt><trkpt lat="45.621993" lon="8.3257646"><ele>298.59999999999997</ele><time>2026-04-05T14:34:52.652Z</time></trkpt><trkpt lat="45.6220997" lon="8.3257773"><ele>298.4</ele><time>2026-04-05T14:34:53.647Z</time></trkpt><trkpt lat="45.6221819" lon="8.3257908"><ele>298.2</ele><time>2026-04-05T14:34:54.65Z</time></trkpt><trkpt lat="45.6222847" lon="8.3258177"><ele>298.0</ele><time>2026-04-05T14:34:56.648Z</time></trkpt><trkpt lat="45.6223459" lon="8.32585"><ele>298.0</ele><time>2026-04-05T14:34:59.649Z</time></trkpt><trkpt lat="45.6223031" lon="8.3257403"><ele>298.0</ele><time>2026-04-05T14:35:04.649Z</time></trkpt><trkpt lat="45.6223234" lon="8.3256001"><ele>298.0</ele><time>2026-04-05T14:35:06.659Z</time></trkpt><trkpt lat="45.6223426" lon="8.3255073"><ele>298.0</ele><time>2026-04-05T14:35:07.659Z</time></trkpt><trkpt lat="45.6223676" lon="8.3254041"><ele>298.0</ele><time>2026-04-05T14:35:08.642Z</time></trkpt><trkpt lat="45.6223966" lon="8.325289"><ele>298.0</ele><time>2026-04-05T14:35:09.652Z</time></trkpt><trkpt lat="45.6224257" lon="8.3251638"><ele>298.4</ele><time>2026-04-05T14:35:10.64Z</time></trkpt><trkpt lat="45.6224562" lon="8.3250303"><ele>298.8</ele><time>2026-04-05T14:35:11.652Z</time></trkpt><trkpt lat="45.6224877" lon="8.3248961"><ele>299.2</ele><time>2026-04-05T14:35:12.642Z</time></trkpt><trkpt lat="45.622524" lon="8.3247572"><ele>299.6</ele><time>2026-04-05T14:35:13.651Z</time></trkpt><trkpt lat="45.622564" lon="8.3246146"><ele>300.0</ele><time>2026-04-05T14:35:14.65Z</time></trkpt><trkpt lat="45.6226017" lon="8.3244691"><ele>300.2</ele><time>2026-04-05T14:35:15.647Z</time></trkpt><trkpt lat="45.6226319" lon="8.3243302"><ele>300.4</ele><time>2026-04-05T14:35:16.65Z</time></trkpt><trkpt lat="45.6226541" lon="8.3241927"><ele>300.6</ele><time>2026-04-05T14:35:17.645Z</time></trkpt><trkpt lat="45.6226657" lon="8.3240493"><ele>300.8</ele><time>2026-04-05T14:35:18.654Z</time></trkpt><trkpt lat="45.6226704" lon="8.3239008"><ele>301.0</ele><time>2026-04-05T14:35:19.652Z</time></trkpt><trkpt lat="45.6226715" lon="8.3237463"><ele>301.0</ele><time>2026-04-05T14:35:20.643Z</time></trkpt><trkpt lat="45.6226696" lon="8.3235886"><ele>301.0</ele><time>2026-04-05T14:35:21.653Z</time></trkpt><trkpt lat="45.6226609" lon="8.3234307"><ele>301.0</ele><time>2026-04-05T14:35:22.641Z</time></trkpt><trkpt lat="45.6226502" lon="8.3232687"><ele>301.0</ele><time>2026-04-05T14:35:23.654Z</time></trkpt><trkpt lat="45.622638" lon="8.3231144"><ele>301.0</ele><time>2026-04-05T14:35:24.652Z</time></trkpt><trkpt lat="45.622627" lon="8.3229724"><ele>301.6</ele><time>2026-04-05T14:35:25.651Z</time></trkpt><trkpt lat="45.6226151" lon="8.3228393"><ele>302.20000000000005</ele><time>2026-04-05T14:35:26.646Z</time></trkpt><trkpt lat="45.6226067" lon="8.322711"><ele>302.79999999999995</ele><time>2026-04-05T14:35:27.648Z</time></trkpt><trkpt lat="45.6226013" lon="8.3225968"><ele>303.4</ele><time>2026-04-05T14:35:28.646Z</time></trkpt><trkpt lat="45.6225929" lon="8.3224361"><ele>304.0</ele><time>2026-04-05T14:35:30.648Z</time></trkpt><trkpt lat="45.6225925" lon="8.3223315"><ele>304.0</ele><time>2026-04-05T14:35:33.644Z</time></trkpt><trkpt lat="45.6225254" lon="8.3222763"><ele>304.0</ele><time>2026-04-05T14:35:39.639Z</time></trkpt><trkpt lat="45.6223928" lon="8.3223096"><ele>304.0</ele><time>2026-04-05T14:35:41.649Z</time></trkpt><trkpt lat="45.6223097" lon="8.3223247"><ele>304.0</ele><time>2026-04-05T14:35:42.643Z</time></trkpt><trkpt lat="45.6222321" lon="8.3223334"><ele>304.0</ele><time>2026-04-05T14:35:43.645Z</time></trkpt><trkpt lat="45.6221598" lon="8.3223386"><ele>304.0</ele><time>2026-04-05T14:35:44.65Z</time></trkpt><trkpt lat="45.6220937" lon="8.3223367"><ele>304.0</ele><time>2026-04-05T14:35:45.652Z</time></trkpt><trkpt lat="45.6219946" lon="8.3222846"><ele>304.0</ele><time>2026-04-05T14:35:47.643Z</time></trkpt><trkpt lat="45.6219679" lon="8.3221929"><ele>304.0</ele><time>2026-04-05T14:35:49.637Z</time></trkpt><trkpt lat="45.6219935" lon="8.322108"><ele>304.0</ele><time>2026-04-05T14:35:51.643Z</time></trkpt><trkpt lat="45.6219848" lon="8.3220186"><ele>304.0</ele><time>2026-04-05T14:35:54.646Z</time></trkpt><trkpt lat="45.6219187" lon="8.3219821"><ele>304.0</ele><time>2026-04-05T14:35:59.641Z</time></trkpt><trkpt lat="45.6218981" lon="8.321844"><ele>305.2</ele><time>2026-04-05T14:36:02.642Z</time></trkpt><trkpt lat="45.6219035" lon="8.3217485"><ele>306.4</ele><time>2026-04-05T14:36:03.652Z</time></trkpt><trkpt lat="45.6219172" lon="8.3216352"><ele>307.6</ele><time>2026-04-05T14:36:04.653Z</time></trkpt><trkpt lat="45.6219238" lon="8.3215035"><ele>308.8</ele><time>2026-04-05T14:36:05.643Z</time></trkpt><trkpt lat="45.6219164" lon="8.3213587"><ele>310.0</ele><time>2026-04-05T14:36:06.655Z</time></trkpt><trkpt lat="45.6218982" lon="8.3211988"><ele>310.5</ele><time>2026-04-05T14:36:07.644Z</time></trkpt><trkpt lat="45.6218783" lon="8.3210349"><ele>311.0</ele><time>2026-04-05T14:36:08.65Z</time></trkpt><trkpt lat="45.6218573" lon="8.3208715"><ele>311.5</ele><time>2026-04-05T14:36:09.654Z</time></trkpt><trkpt lat="45.6218313" lon="8.3207021"><ele>312.0</ele><time>2026-04-05T14:36:10.642Z</time></trkpt><trkpt lat="45.6218105" lon="8.3205325"><ele>312.0</ele><time>2026-04-05T14:36:11.647Z</time></trkpt><trkpt lat="45.6217902" lon="8.3203723"><ele>312.0</ele><time>2026-04-05T14:36:12.648Z</time></trkpt><trkpt lat="45.6217588" lon="8.3202286"><ele>312.0</ele><time>2026-04-05T14:36:13.653Z</time></trkpt><trkpt lat="45.6217054" lon="8.3201088"><ele>312.0</ele><time>2026-04-05T14:36:14.646Z</time></trkpt><trkpt lat="45.6216345" lon="8.320013"><ele>312.0</ele><time>2026-04-05T14:36:15.651Z</time></trkpt><trkpt lat="45.6215385" lon="8.3199755"><ele>312.0</ele><time>2026-04-05T14:36:16.653Z</time></trkpt><trkpt lat="45.6214356" lon="8.3199576"><ele>312.0</ele><time>2026-04-05T14:36:17.639Z</time></trkpt><trkpt lat="45.6213335" lon="8.3199731"><ele>312.0</ele><time>2026-04-05T14:36:18.647Z</time></trkpt><trkpt lat="45.6212424" lon="8.3200032"><ele>312.0</ele><time>2026-04-05T14:36:19.642Z</time></trkpt><trkpt lat="45.6211522" lon="8.3200208"><ele>312.0</ele><time>2026-04-05T14:36:20.652Z</time></trkpt><trkpt lat="45.6210605" lon="8.3199798"><ele>313.75</ele><time>2026-04-05T14:36:21.652Z</time></trkpt><trkpt lat="45.6209565" lon="8.3198971"><ele>315.5</ele><time>2026-04-05T14:36:22.645Z</time></trkpt><trkpt lat="45.6208348" lon="8.3198021"><ele>317.25</ele><time>2026-04-05T14:36:23.651Z</time></trkpt><trkpt lat="45.6207141" lon="8.3197102"><ele>319.0</ele><time>2026-04-05T14:36:24.648Z</time></trkpt><trkpt lat="45.620594" lon="8.3196131"><ele>319.0</ele><time>2026-04-05T14:36:25.649Z</time></trkpt><trkpt lat="45.6204744" lon="8.319513"><ele>319.0</ele><time>2026-04-05T14:36:26.649Z</time></trkpt><trkpt lat="45.6203574" lon="8.3194215"><ele>319.0</ele><time>2026-04-05T14:36:27.646Z</time></trkpt><trkpt lat="45.6202373" lon="8.3193294"><ele>319.0</ele><time>2026-04-05T14:36:28.652Z</time></trkpt><trkpt lat="45.6201069" lon="8.3192328"><ele>320.3333333333333</ele><time>2026-04-05T14:36:29.656Z</time></trkpt><trkpt lat="45.6199573" lon="8.3191416"><ele>321.6666666666667</ele><time>2026-04-05T14:36:30.65Z</time></trkpt><trkpt lat="45.6197944" lon="8.3190545"><ele>323.0</ele><time>2026-04-05T14:36:31.644Z</time></trkpt><trkpt lat="45.6196257" lon="8.3189722"><ele>321.6666666666667</ele><time>2026-04-05T14:36:32.648Z</time></trkpt><trkpt lat="45.6194643" lon="8.3188961"><ele>320.3333333333333</ele><time>2026-04-05T14:36:33.652Z</time></trkpt><trkpt lat="45.619309" lon="8.3188343"><ele>319.0</ele><time>2026-04-05T14:36:34.641Z</time></trkpt><trkpt lat="45.6191547" lon="8.3187864"><ele>319.0</ele><time>2026-04-05T14:36:35.646Z</time></trkpt><trkpt lat="45.6190032" lon="8.318733"><ele>319.0</ele><time>2026-04-05T14:36:36.643Z</time></trkpt><trkpt lat="45.6188601" lon="8.3186594"><ele>319.0</ele><time>2026-04-05T14:36:37.64Z</time></trkpt><trkpt lat="45.6187147" lon="8.3185749"><ele>318.5</ele><time>2026-04-05T14:36:38.644Z</time></trkpt><trkpt lat="45.6185767" lon="8.3184917"><ele>318.0</ele><time>2026-04-05T14:36:39.644Z</time></trkpt><trkpt lat="45.6184424" lon="8.3184132"><ele>317.5</ele><time>2026-04-05T14:36:40.649Z</time></trkpt><trkpt lat="45.618321" lon="8.3183424"><ele>317.0</ele><time>2026-04-05T14:36:41.646Z</time></trkpt><trkpt lat="45.6182082" lon="8.3182747"><ele>317.0</ele><time>2026-04-05T14:36:42.642Z</time></trkpt><trkpt lat="45.6181065" lon="8.3182173"><ele>317.0</ele><time>2026-04-05T14:36:43.639Z</time></trkpt><trkpt lat="45.6180196" lon="8.318158"><ele>317.0</ele><time>2026-04-05T14:36:44.639Z</time></trkpt><trkpt lat="45.6179512" lon="8.3180837"><ele>317.0</ele><time>2026-04-05T14:36:45.636Z</time></trkpt><trkpt lat="45.6178982" lon="8.3179897"><ele>317.0</ele><time>2026-04-05T14:36:46.644Z</time></trkpt><trkpt lat="45.6178701" lon="8.3178623"><ele>317.2</ele><time>2026-04-05T14:36:47.65Z</time></trkpt><trkpt lat="45.6178609" lon="8.3177048"><ele>317.4</ele><time>2026-04-05T14:36:48.651Z</time></trkpt><trkpt lat="45.6178473" lon="8.3175511"><ele>317.6</ele><time>2026-04-05T14:36:49.64Z</time></trkpt><trkpt lat="45.6178202" lon="8.317426"><ele>317.8</ele><time>2026-04-05T14:36:50.65Z</time></trkpt><trkpt lat="45.617782" lon="8.3173301"><ele>318.0</ele><time>2026-04-05T14:36:51.648Z</time></trkpt><trkpt lat="45.6177317" lon="8.3172478"><ele>316.8</ele><time>2026-04-05T14:36:52.648Z</time></trkpt><trkpt lat="45.6176519" lon="8.3171848"><ele>315.6</ele><time>2026-04-05T14:36:53.653Z</time></trkpt><trkpt lat="45.6175466" lon="8.317133"><ele>314.4</ele><time>2026-04-05T14:36:54.651Z</time></trkpt><trkpt lat="45.6174404" lon="8.3170834"><ele>313.2</ele><time>2026-04-05T14:36:55.65Z</time></trkpt><trkpt lat="45.6173469" lon="8.3170291"><ele>312.0</ele><time>2026-04-05T14:36:56.652Z</time></trkpt><trkpt lat="45.6172508" lon="8.3169715"><ele>312.0</ele><time>2026-04-05T14:36:57.652Z</time></trkpt><trkpt lat="45.6171692" lon="8.3169094"><ele>312.0</ele><time>2026-04-05T14:36:58.646Z</time></trkpt><trkpt lat="45.617096" lon="8.3168366"><ele>312.0</ele><time>2026-04-05T14:36:59.646Z</time></trkpt><trkpt lat="45.6170236" lon="8.3167427"><ele>312.0</ele><time>2026-04-05T14:37:00.654Z</time></trkpt><trkpt lat="45.6169542" lon="8.3166142"><ele>312.0</ele><time>2026-04-05T14:37:01.653Z</time></trkpt><trkpt lat="45.6168792" lon="8.3164639"><ele>313.25</ele><time>2026-04-05T14:37:02.649Z</time></trkpt><trkpt lat="45.6168019" lon="8.3163162"><ele>314.5</ele><time>2026-04-05T14:37:03.645Z</time></trkpt><trkpt lat="45.616704" lon="8.3161778"><ele>315.75</ele><time>2026-04-05T14:37:04.642Z</time></trkpt><trkpt lat="45.6165898" lon="8.3160532"><ele>317.0</ele><time>2026-04-05T14:37:05.646Z</time></trkpt><trkpt lat="45.6164682" lon="8.315925"><ele>317.0</ele><time>2026-04-05T14:37:06.651Z</time></trkpt><trkpt lat="45.616351" lon="8.3157901"><ele>317.0</ele><time>2026-04-05T14:37:07.644Z</time></trkpt><trkpt lat="45.6162392" lon="8.3156526"><ele>317.0</ele><time>2026-04-05T14:37:08.652Z</time></trkpt><trkpt lat="45.6161458" lon="8.3155474"><ele>317.0</ele><time>2026-04-05T14:37:09.637Z</time></trkpt><trkpt lat="45.616077" lon="8.3154701"><ele>316.1666666666667</ele><time>2026-04-05T14:37:10.652Z</time></trkpt><trkpt lat="45.6160218" lon="8.3154113"><ele>315.33333333333337</ele><time>2026-04-05T14:37:11.648Z</time></trkpt><trkpt lat="45.6159754" lon="8.3153491"><ele>314.5</ele><time>2026-04-05T14:37:12.646Z</time></trkpt><trkpt lat="45.6159206" lon="8.3151963"><ele>313.6666666666667</ele><time>2026-04-05T14:37:14.659Z</time></trkpt><trkpt lat="45.6158632" lon="8.3150476"><ele>312.8333333333333</ele><time>2026-04-05T14:37:16.65Z</time></trkpt><trkpt lat="45.6158082" lon="8.3149922"><ele>312.0</ele><time>2026-04-05T14:37:17.653Z</time></trkpt><trkpt lat="45.615729" lon="8.3149405"><ele>312.0</ele><time>2026-04-05T14:37:18.644Z</time></trkpt><trkpt lat="45.6156399" lon="8.3148749"><ele>312.0</ele><time>2026-04-05T14:37:19.644Z</time></trkpt><trkpt lat="45.6155435" lon="8.3147902"><ele>312.0</ele><time>2026-04-05T14:37:20.648Z</time></trkpt><trkpt lat="45.6154742" lon="8.3146851"><ele>312.0</ele><time>2026-04-05T14:37:21.647Z</time></trkpt><trkpt lat="45.6154146" lon="8.3145808"><ele>312.0</ele><time>2026-04-05T14:37:22.649Z</time></trkpt><trkpt lat="45.6153533" lon="8.314482"><ele>311.2</ele><time>2026-04-05T14:37:23.66Z</time></trkpt><trkpt lat="45.6152835" lon="8.3143776"><ele>310.4</ele><time>2026-04-05T14:37:24.645Z</time></trkpt><trkpt lat="45.6152104" lon="8.3142842"><ele>309.6</ele><time>2026-04-05T14:37:25.654Z</time></trkpt><trkpt lat="45.6151418" lon="8.3142107"><ele>308.8</ele><time>2026-04-05T14:37:26.652Z</time></trkpt><trkpt lat="45.6150708" lon="8.3141638"><ele>308.0</ele><time>2026-04-05T14:37:27.647Z</time></trkpt><trkpt lat="45.614979" lon="8.314141"><ele>308.0</ele><time>2026-04-05T14:37:28.647Z</time></trkpt><trkpt lat="45.6148735" lon="8.3141435"><ele>308.0</ele><time>2026-04-05T14:37:29.648Z</time></trkpt><trkpt lat="45.6147553" lon="8.3141602"><ele>308.0</ele><time>2026-04-05T14:37:30.654Z</time></trkpt><trkpt lat="45.6146437" lon="8.3141764"><ele>308.0</ele><time>2026-04-05T14:37:31.656Z</time></trkpt><trkpt lat="45.614554" lon="8.3142085"><ele>308.0</ele><time>2026-04-05T14:37:32.649Z</time></trkpt><trkpt lat="45.6144759" lon="8.3142567"><ele>307.0</ele><time>2026-04-05T14:37:33.649Z</time></trkpt><trkpt lat="45.6144097" lon="8.3143273"><ele>306.0</ele><time>2026-04-05T14:37:34.651Z</time></trkpt><trkpt lat="45.6143393" lon="8.3144256"><ele>305.0</ele><time>2026-04-05T14:37:35.647Z</time></trkpt><trkpt lat="45.6142648" lon="8.3145208"><ele>304.0</ele><time>2026-04-05T14:37:36.64Z</time></trkpt><trkpt lat="45.6141858" lon="8.3146013"><ele>303.0</ele><time>2026-04-05T14:37:37.65Z</time></trkpt><trkpt lat="45.614097" lon="8.3146662"><ele>303.0</ele><time>2026-04-05T14:37:38.651Z</time></trkpt><trkpt lat="45.6140106" lon="8.3147241"><ele>303.0</ele><time>2026-04-05T14:37:39.649Z</time></trkpt><trkpt lat="45.6139327" lon="8.3147711"><ele>303.0</ele><time>2026-04-05T14:37:40.651Z</time></trkpt><trkpt lat="45.6138674" lon="8.3148066"><ele>303.0</ele><time>2026-04-05T14:37:41.643Z</time></trkpt><trkpt lat="45.6138039" lon="8.314829"><ele>303.0</ele><time>2026-04-05T14:37:42.65Z</time></trkpt><trkpt lat="45.6137372" lon="8.3148348"><ele>303.0</ele><time>2026-04-05T14:37:43.649Z</time></trkpt><trkpt lat="45.6136635" lon="8.3148411"><ele>301.8333333333333</ele><time>2026-04-05T14:37:44.645Z</time></trkpt><trkpt lat="45.6135721" lon="8.3148567"><ele>300.6666666666667</ele><time>2026-04-05T14:37:45.652Z</time></trkpt><trkpt lat="45.613484" lon="8.3148761"><ele>299.5</ele><time>2026-04-05T14:37:46.654Z</time></trkpt><trkpt lat="45.6134233" lon="8.3148507"><ele>298.33333333333337</ele><time>2026-04-05T14:37:47.653Z</time></trkpt><trkpt lat="45.6133645" lon="8.3147995"><ele>297.1666666666667</ele><time>2026-04-05T14:37:48.645Z</time></trkpt><trkpt lat="45.6133105" lon="8.3147368"><ele>296.0</ele><time>2026-04-05T14:37:49.654Z</time></trkpt><trkpt lat="45.6132646" lon="8.3146523"><ele>296.0</ele><time>2026-04-05T14:37:50.647Z</time></trkpt><trkpt lat="45.6132279" lon="8.3145486"><ele>296.0</ele><time>2026-04-05T14:37:51.645Z</time></trkpt><trkpt lat="45.6131876" lon="8.3144186"><ele>296.0</ele><time>2026-04-05T14:37:52.652Z</time></trkpt><trkpt lat="45.6131523" lon="8.3142779"><ele>296.0</ele><time>2026-04-05T14:37:53.649Z</time></trkpt><trkpt lat="45.6131178" lon="8.3141443"><ele>296.0</ele><time>2026-04-05T14:37:54.643Z</time></trkpt><trkpt lat="45.6130796" lon="8.3140368"><ele>296.0</ele><time>2026-04-05T14:37:55.635Z</time></trkpt><trkpt lat="45.6130325" lon="8.3139653"><ele>296.0</ele><time>2026-04-05T14:37:56.639Z</time></trkpt><trkpt lat="45.6129551" lon="8.3139165"><ele>296.0</ele><time>2026-04-05T14:37:57.642Z</time></trkpt><trkpt lat="45.6128827" lon="8.3138746"><ele>296.0</ele><time>2026-04-05T14:37:58.647Z</time></trkpt><trkpt lat="45.6128291" lon="8.3138256"><ele>296.0</ele><time>2026-04-05T14:37:59.654Z</time></trkpt><trkpt lat="45.6127746" lon="8.3136867"><ele>296.0</ele><time>2026-04-05T14:38:01.65Z</time></trkpt><trkpt lat="45.6127538" lon="8.3135787"><ele>295.8</ele><time>2026-04-05T14:38:03.648Z</time></trkpt><trkpt lat="45.612789" lon="8.3134824"><ele>295.6</ele><time>2026-04-05T14:38:05.652Z</time></trkpt><trkpt lat="45.6128423" lon="8.313402"><ele>295.4</ele><time>2026-04-05T14:38:06.643Z</time></trkpt><trkpt lat="45.6129177" lon="8.3133003"><ele>295.2</ele><time>2026-04-05T14:38:07.645Z</time></trkpt><trkpt lat="45.6130024" lon="8.3131882"><ele>295.0</ele><time>2026-04-05T14:38:08.646Z</time></trkpt><trkpt lat="45.6130899" lon="8.3130764"><ele>295.5</ele><time>2026-04-05T14:38:09.646Z</time></trkpt><trkpt lat="45.6131848" lon="8.3129669"><ele>296.0</ele><time>2026-04-05T14:38:10.653Z</time></trkpt><trkpt lat="45.6132774" lon="8.3128636"><ele>296.5</ele><time>2026-04-05T14:38:11.642Z</time></trkpt><trkpt lat="45.6133787" lon="8.3127588"><ele>297.0</ele><time>2026-04-05T14:38:12.647Z</time></trkpt><trkpt lat="45.6134867" lon="8.3126413"><ele>297.0</ele><time>2026-04-05T14:38:13.655Z</time></trkpt><trkpt lat="45.6135943" lon="8.3125194"><ele>297.0</ele><time>2026-04-05T14:38:14.645Z</time></trkpt><trkpt lat="45.6137075" lon="8.3123962"><ele>297.0</ele><time>2026-04-05T14:38:15.65Z</time></trkpt><trkpt lat="45.6138223" lon="8.31227"><ele>297.0</ele><time>2026-04-05T14:38:16.651Z</time></trkpt><trkpt lat="45.6139377" lon="8.3121421"><ele>297.0</ele><time>2026-04-05T14:38:17.651Z</time></trkpt><trkpt lat="45.614057" lon="8.3120089"><ele>297.0</ele><time>2026-04-05T14:38:18.64Z</time></trkpt><trkpt lat="45.6141791" lon="8.3118761"><ele>297.0</ele><time>2026-04-05T14:38:19.648Z</time></trkpt><trkpt lat="45.6143014" lon="8.311748"><ele>297.0</ele><time>2026-04-05T14:38:20.648Z</time></trkpt><trkpt lat="45.6144237" lon="8.3116248"><ele>297.0</ele><time>2026-04-05T14:38:21.644Z</time></trkpt><trkpt lat="45.6145496" lon="8.3115044"><ele>297.0</ele><time>2026-04-05T14:38:22.647Z</time></trkpt><trkpt lat="45.614681" lon="8.3113859"><ele>297.0</ele><time>2026-04-05T14:38:23.652Z</time></trkpt><trkpt lat="45.6148159" lon="8.3112677"><ele>297.0</ele><time>2026-04-05T14:38:24.652Z</time></trkpt><trkpt lat="45.6149522" lon="8.3111502"><ele>297.0</ele><time>2026-04-05T14:38:25.652Z</time></trkpt><trkpt lat="45.6150832" lon="8.3110305"><ele>297.0</ele><time>2026-04-05T14:38:26.642Z</time></trkpt><trkpt lat="45.615208" lon="8.3109117"><ele>297.0</ele><time>2026-04-05T14:38:27.649Z</time></trkpt><trkpt lat="45.6153334" lon="8.3107943"><ele>297.0</ele><time>2026-04-05T14:38:28.649Z</time></trkpt><trkpt lat="45.6154571" lon="8.3106775"><ele>297.0</ele><time>2026-04-05T14:38:29.653Z</time></trkpt><trkpt lat="45.6155815" lon="8.3105626"><ele>297.5</ele><time>2026-04-05T14:38:30.653Z</time></trkpt><trkpt lat="45.6157081" lon="8.3104487"><ele>298.0</ele><time>2026-04-05T14:38:31.651Z</time></trkpt><trkpt lat="45.6158375" lon="8.3103423"><ele>298.5</ele><time>2026-04-05T14:38:32.656Z</time></trkpt><trkpt lat="45.6159689" lon="8.3102448"><ele>299.0</ele><time>2026-04-05T14:38:33.649Z</time></trkpt><trkpt lat="45.6161058" lon="8.3101631"><ele>299.6666666666667</ele><time>2026-04-05T14:38:34.648Z</time></trkpt><trkpt lat="45.616248" lon="8.3100927"><ele>300.3333333333333</ele><time>2026-04-05T14:38:35.643Z</time></trkpt><trkpt lat="45.6163916" lon="8.310026"><ele>301.0</ele><time>2026-04-05T14:38:36.644Z</time></trkpt><trkpt lat="45.6165346" lon="8.3099601"><ele>301.0</ele><time>2026-04-05T14:38:37.651Z</time></trkpt><trkpt lat="45.616673" lon="8.3098997"><ele>301.0</ele><time>2026-04-05T14:38:38.643Z</time></trkpt><trkpt lat="45.6168086" lon="8.3098458"><ele>301.0</ele><time>2026-04-05T14:38:39.645Z</time></trkpt><trkpt lat="45.6169448" lon="8.3097931"><ele>301.0</ele><time>2026-04-05T14:38:40.651Z</time></trkpt><trkpt lat="45.6170808" lon="8.309736"><ele>301.5</ele><time>2026-04-05T14:38:41.643Z</time></trkpt><trkpt lat="45.6172149" lon="8.3096759"><ele>302.0</ele><time>2026-04-05T14:38:42.651Z</time></trkpt><trkpt lat="45.6173401" lon="8.3096132"><ele>302.5</ele><time>2026-04-05T14:38:43.643Z</time></trkpt><trkpt lat="45.6174609" lon="8.3095533"><ele>303.0</ele><time>2026-04-05T14:38:44.652Z</time></trkpt><trkpt lat="45.61758" lon="8.3094963"><ele>303.0</ele><time>2026-04-05T14:38:45.657Z</time></trkpt><trkpt lat="45.6176945" lon="8.3094433"><ele>303.0</ele><time>2026-04-05T14:38:46.641Z</time></trkpt><trkpt lat="45.6178014" lon="8.309389"><ele>303.0</ele><time>2026-04-05T14:38:47.654Z</time></trkpt><trkpt lat="45.6178957" lon="8.3093248"><ele>303.0</ele><time>2026-04-05T14:38:48.656Z</time></trkpt><trkpt lat="45.6179709" lon="8.3092403"><ele>303.0</ele><time>2026-04-05T14:38:49.658Z</time></trkpt><trkpt lat="45.6180229" lon="8.3091226"><ele>303.25</ele><time>2026-04-05T14:38:50.643Z</time></trkpt><trkpt lat="45.6180579" lon="8.3089816"><ele>303.5</ele><time>2026-04-05T14:38:51.65Z</time></trkpt><trkpt lat="45.6180896" lon="8.3088233"><ele>303.75</ele><time>2026-04-05T14:38:52.642Z</time></trkpt><trkpt lat="45.6181211" lon="8.3086542"><ele>304.0</ele><time>2026-04-05T14:38:53.64Z</time></trkpt><trkpt lat="45.6181544" lon="8.3084864"><ele>303.5</ele><time>2026-04-05T14:38:54.639Z</time></trkpt><trkpt lat="45.6181886" lon="8.30831"><ele>303.0</ele><time>2026-04-05T14:38:55.651Z</time></trkpt><trkpt lat="45.6182244" lon="8.3081241"><ele>302.5</ele><time>2026-04-05T14:38:56.647Z</time></trkpt><trkpt lat="45.6182641" lon="8.30793"><ele>302.0</ele><time>2026-04-05T14:38:57.648Z</time></trkpt><trkpt lat="45.6183086" lon="8.3077328"><ele>303.6666666666667</ele><time>2026-04-05T14:38:58.644Z</time></trkpt><trkpt lat="45.618357" lon="8.3075342"><ele>305.3333333333333</ele><time>2026-04-05T14:38:59.65Z</time></trkpt><trkpt lat="45.6184074" lon="8.3073305"><ele>307.0</ele><time>2026-04-05T14:39:00.66Z</time></trkpt><trkpt lat="45.6184576" lon="8.3071228"><ele>309.3333333333333</ele><time>2026-04-05T14:39:01.651Z</time></trkpt><trkpt lat="45.6185111" lon="8.3069078"><ele>311.6666666666667</ele><time>2026-04-05T14:39:02.654Z</time></trkpt><trkpt lat="45.6185688" lon="8.3066951"><ele>314.0</ele><time>2026-04-05T14:39:03.644Z</time></trkpt><trkpt lat="45.6186285" lon="8.3064831"><ele>316.33333333333337</ele><time>2026-04-05T14:39:04.65Z</time></trkpt><trkpt lat="45.6186871" lon="8.3062701"><ele>318.6666666666667</ele><time>2026-04-05T14:39:05.655Z</time></trkpt><trkpt lat="45.6187524" lon="8.3060623"><ele>321.0</ele><time>2026-04-05T14:39:06.654Z</time></trkpt><trkpt lat="45.6188286" lon="8.3058747"><ele>321.0</ele><time>2026-04-05T14:39:07.643Z</time></trkpt><trkpt lat="45.61891" lon="8.3057077"><ele>321.0</ele><time>2026-04-05T14:39:08.64Z</time></trkpt><trkpt lat="45.618999" lon="8.3055484"><ele>321.0</ele><time>2026-04-05T14:39:09.641Z</time></trkpt><trkpt lat="45.619088" lon="8.3054068"><ele>321.0</ele><time>2026-04-05T14:39:10.645Z</time></trkpt><trkpt lat="45.6191818" lon="8.3052844"><ele>321.25</ele><time>2026-04-05T14:39:11.643Z</time></trkpt><trkpt lat="45.6192775" lon="8.3051687"><ele>321.5</ele><time>2026-04-05T14:39:12.65Z</time></trkpt><trkpt lat="45.6193756" lon="8.3050565"><ele>321.75</ele><time>2026-04-05T14:39:13.652Z</time></trkpt><trkpt lat="45.619476" lon="8.3049471"><ele>322.0</ele><time>2026-04-05T14:39:14.653Z</time></trkpt><trkpt lat="45.6195789" lon="8.3048463"><ele>322.8</ele><time>2026-04-05T14:39:15.645Z</time></trkpt><trkpt lat="45.619671" lon="8.3047453"><ele>323.6</ele><time>2026-04-05T14:39:16.641Z</time></trkpt><trkpt lat="45.6197517" lon="8.3046416"><ele>324.40000000000003</ele><time>2026-04-05T14:39:17.65Z</time></trkpt><trkpt lat="45.6198193" lon="8.3045228"><ele>325.20000000000005</ele><time>2026-04-05T14:39:18.652Z</time></trkpt><trkpt lat="45.6198659" lon="8.3043863"><ele>326.0</ele><time>2026-04-05T14:39:19.648Z</time></trkpt><trkpt lat="45.6198999" lon="8.3042267"><ele>326.0</ele><time>2026-04-05T14:39:20.644Z</time></trkpt><trkpt lat="45.6199423" lon="8.3040541"><ele>326.0</ele><time>2026-04-05T14:39:21.646Z</time></trkpt><trkpt lat="45.619998" lon="8.3038885"><ele>326.0</ele><time>2026-04-05T14:39:22.649Z</time></trkpt><trkpt lat="45.6200778" lon="8.3037502"><ele>326.0</ele><time>2026-04-05T14:39:23.646Z</time></trkpt><trkpt lat="45.6201654" lon="8.3036343"><ele>325.25</ele><time>2026-04-05T14:39:24.654Z</time></trkpt><trkpt lat="45.6202444" lon="8.3035375"><ele>324.5</ele><time>2026-04-05T14:39:25.657Z</time></trkpt><trkpt lat="45.6203218" lon="8.3034324"><ele>323.75</ele><time>2026-04-05T14:39:26.642Z</time></trkpt><trkpt lat="45.6204027" lon="8.3033078"><ele>323.0</ele><time>2026-04-05T14:39:27.645Z</time></trkpt><trkpt lat="45.6204863" lon="8.3031699"><ele>325.0</ele><time>2026-04-05T14:39:28.648Z</time></trkpt><trkpt lat="45.6205711" lon="8.3030254"><ele>327.0</ele><time>2026-04-05T14:39:29.651Z</time></trkpt><trkpt lat="45.6206594" lon="8.3028815"><ele>329.0</ele><time>2026-04-05T14:39:30.653Z</time></trkpt><trkpt lat="45.6207449" lon="8.3027368"><ele>331.0</ele><time>2026-04-05T14:39:31.646Z</time></trkpt><trkpt lat="45.6208315" lon="8.3025901"><ele>331.0</ele><time>2026-04-05T14:39:32.654Z</time></trkpt><trkpt lat="45.6209163" lon="8.302445"><ele>331.0</ele><time>2026-04-05T14:39:33.651Z</time></trkpt><trkpt lat="45.6209858" lon="8.3023057"><ele>331.0</ele><time>2026-04-05T14:39:34.654Z</time></trkpt><trkpt lat="45.6210503" lon="8.3021794"><ele>331.0</ele><time>2026-04-05T14:39:35.643Z</time></trkpt><trkpt lat="45.6211227" lon="8.3020504"><ele>330.0</ele><time>2026-04-05T14:39:36.656Z</time></trkpt><trkpt lat="45.6212066" lon="8.3019163"><ele>329.0</ele><time>2026-04-05T14:39:37.645Z</time></trkpt><trkpt lat="45.6212952" lon="8.3017859"><ele>328.0</ele><time>2026-04-05T14:39:38.645Z</time></trkpt><trkpt lat="45.6213904" lon="8.3016518"><ele>327.0</ele><time>2026-04-05T14:39:39.643Z</time></trkpt><trkpt lat="45.6214937" lon="8.3015125"><ele>328.5</ele><time>2026-04-05T14:39:40.643Z</time></trkpt><trkpt lat="45.6215984" lon="8.3013708"><ele>330.0</ele><time>2026-04-05T14:39:41.646Z</time></trkpt><trkpt lat="45.6217001" lon="8.3012343"><ele>331.5</ele><time>2026-04-05T14:39:42.654Z</time></trkpt><trkpt lat="45.6217923" lon="8.3011118"><ele>333.0</ele><time>2026-04-05T14:39:43.653Z</time></trkpt><trkpt lat="45.6218797" lon="8.3010006"><ele>333.0</ele><time>2026-04-05T14:39:44.655Z</time></trkpt><trkpt lat="45.6219669" lon="8.3008887"><ele>333.0</ele><time>2026-04-05T14:39:45.643Z</time></trkpt><trkpt lat="45.6220582" lon="8.3007703"><ele>333.0</ele><time>2026-04-05T14:39:46.659Z</time></trkpt><trkpt lat="45.6221497" lon="8.3006482"><ele>333.0</ele><time>2026-04-05T14:39:47.644Z</time></trkpt><trkpt lat="45.6222439" lon="8.3005231"><ele>333.5</ele><time>2026-04-05T14:39:48.655Z</time></trkpt><trkpt lat="45.6223398" lon="8.3003944"><ele>334.0</ele><time>2026-04-05T14:39:49.645Z</time></trkpt><trkpt lat="45.6224365" lon="8.3002709"><ele>334.5</ele><time>2026-04-05T14:39:50.65Z</time></trkpt><trkpt lat="45.6225238" lon="8.3001521"><ele>335.0</ele><time>2026-04-05T14:39:51.648Z</time></trkpt><trkpt lat="45.6226016" lon="8.3000282"><ele>335.0</ele><time>2026-04-05T14:39:52.644Z</time></trkpt><trkpt lat="45.622668" lon="8.2998872"><ele>335.0</ele><time>2026-04-05T14:39:53.653Z</time></trkpt><trkpt lat="45.6227193" lon="8.2997308"><ele>335.0</ele><time>2026-04-05T14:39:54.655Z</time></trkpt><trkpt lat="45.6227584" lon="8.2995615"><ele>335.0</ele><time>2026-04-05T14:39:55.655Z</time></trkpt><trkpt lat="45.6227908" lon="8.2993878"><ele>334.5</ele><time>2026-04-05T14:39:56.646Z</time></trkpt><trkpt lat="45.6228234" lon="8.2992167"><ele>334.0</ele><time>2026-04-05T14:39:57.647Z</time></trkpt><trkpt lat="45.62286" lon="8.2990501"><ele>333.5</ele><time>2026-04-05T14:39:58.646Z</time></trkpt><trkpt lat="45.622897" lon="8.2988972"><ele>333.0</ele><time>2026-04-05T14:39:59.641Z</time></trkpt><trkpt lat="45.6229405" lon="8.2987544"><ele>334.4</ele><time>2026-04-05T14:40:00.65Z</time></trkpt><trkpt lat="45.6229934" lon="8.2986214"><ele>335.79999999999995</ele><time>2026-04-05T14:40:01.648Z</time></trkpt><trkpt lat="45.623059" lon="8.298495"><ele>337.2</ele><time>2026-04-05T14:40:02.651Z</time></trkpt><trkpt lat="45.6231341" lon="8.2983767"><ele>338.6</ele><time>2026-04-05T14:40:03.652Z</time></trkpt><trkpt lat="45.6232135" lon="8.2982643"><ele>340.0</ele><time>2026-04-05T14:40:04.641Z</time></trkpt><trkpt lat="45.6232934" lon="8.298153"><ele>339.4</ele><time>2026-04-05T14:40:05.645Z</time></trkpt><trkpt lat="45.6233695" lon="8.2980403"><ele>338.8</ele><time>2026-04-05T14:40:06.65Z</time></trkpt><trkpt lat="45.6234359" lon="8.2979142"><ele>338.20000000000005</ele><time>2026-04-05T14:40:07.654Z</time></trkpt><trkpt lat="45.6234947" lon="8.2977756"><ele>337.6</ele><time>2026-04-05T14:40:08.653Z</time></trkpt><trkpt lat="45.6235511" lon="8.2976372"><ele>337.0</ele><time>2026-04-05T14:40:09.651Z</time></trkpt><trkpt lat="45.6236073" lon="8.2974982"><ele>337.25</ele><time>2026-04-05T14:40:10.655Z</time></trkpt><trkpt lat="45.6236711" lon="8.2973614"><ele>337.5</ele><time>2026-04-05T14:40:11.651Z</time></trkpt><trkpt lat="45.6237433" lon="8.297229"><ele>337.75</ele><time>2026-04-05T14:40:12.651Z</time></trkpt><trkpt lat="45.6238204" lon="8.2970981"><ele>338.0</ele><time>2026-04-05T14:40:13.645Z</time></trkpt><trkpt lat="45.6239053" lon="8.2969692"><ele>338.0</ele><time>2026-04-05T14:40:14.646Z</time></trkpt><trkpt lat="45.6239955" lon="8.2968394"><ele>338.0</ele><time>2026-04-05T14:40:15.651Z</time></trkpt><trkpt lat="45.6240836" lon="8.2967098"><ele>338.0</ele><time>2026-04-05T14:40:16.643Z</time></trkpt><trkpt lat="45.6241674" lon="8.2965776"><ele>338.0</ele><time>2026-04-05T14:40:17.647Z</time></trkpt><trkpt lat="45.6242508" lon="8.2964475"><ele>339.0</ele><time>2026-04-05T14:40:18.65Z</time></trkpt><trkpt lat="45.6243314" lon="8.2963209"><ele>340.0</ele><time>2026-04-05T14:40:19.641Z</time></trkpt><trkpt lat="45.6244112" lon="8.2961935"><ele>341.0</ele><time>2026-04-05T14:40:20.65Z</time></trkpt><trkpt lat="45.6244912" lon="8.2960661"><ele>342.0</ele><time>2026-04-05T14:40:21.642Z</time></trkpt><trkpt lat="45.6245738" lon="8.2959382"><ele>342.0</ele><time>2026-04-05T14:40:22.644Z</time></trkpt><trkpt lat="45.6246572" lon="8.2958114"><ele>342.0</ele><time>2026-04-05T14:40:23.649Z</time></trkpt><trkpt lat="45.6247392" lon="8.2956837"><ele>342.0</ele><time>2026-04-05T14:40:24.651Z</time></trkpt><trkpt lat="45.6248154" lon="8.2955612"><ele>342.0</ele><time>2026-04-05T14:40:25.655Z</time></trkpt><trkpt lat="45.6248857" lon="8.2954477"><ele>343.20000000000005</ele><time>2026-04-05T14:40:26.654Z</time></trkpt><trkpt lat="45.6249498" lon="8.2953338"><ele>344.4</ele><time>2026-04-05T14:40:27.648Z</time></trkpt><trkpt lat="45.6250125" lon="8.2952252"><ele>345.6</ele><time>2026-04-05T14:40:28.633Z</time></trkpt><trkpt lat="45.6250702" lon="8.2951085"><ele>346.79999999999995</ele><time>2026-04-05T14:40:29.653Z</time></trkpt><trkpt lat="45.6251136" lon="8.2949816"><ele>348.0</ele><time>2026-04-05T14:40:30.645Z</time></trkpt><trkpt lat="45.6251394" lon="8.2948407"><ele>349.2</ele><time>2026-04-05T14:40:31.647Z</time></trkpt><trkpt lat="45.6251545" lon="8.2946887"><ele>350.4</ele><time>2026-04-05T14:40:32.649Z</time></trkpt><trkpt lat="45.6251683" lon="8.294534"><ele>351.59999999999997</ele><time>2026-04-05T14:40:33.644Z</time></trkpt><trkpt lat="45.6251957" lon="8.2943819"><ele>352.79999999999995</ele><time>2026-04-05T14:40:34.649Z</time></trkpt><trkpt lat="45.6252432" lon="8.2942383"><ele>354.0</ele><time>2026-04-05T14:40:35.651Z</time></trkpt><trkpt lat="45.6253214" lon="8.2941059"><ele>355.0</ele><time>2026-04-05T14:40:36.646Z</time></trkpt><trkpt lat="45.6254135" lon="8.2939819"><ele>356.0</ele><time>2026-04-05T14:40:37.646Z</time></trkpt><trkpt lat="45.6255079" lon="8.293865"><ele>357.0</ele><time>2026-04-05T14:40:38.652Z</time></trkpt><trkpt lat="45.6256035" lon="8.2937572"><ele>358.0</ele><time>2026-04-05T14:40:39.639Z</time></trkpt><trkpt lat="45.6256955" lon="8.2936555"><ele>358.5</ele><time>2026-04-05T14:40:40.65Z</time></trkpt><trkpt lat="45.6257778" lon="8.2935677"><ele>359.0</ele><time>2026-04-05T14:40:41.652Z</time></trkpt><trkpt lat="45.6258449" lon="8.2934893"><ele>359.5</ele><time>2026-04-05T14:40:42.651Z</time></trkpt><trkpt lat="45.6259057" lon="8.2934212"><ele>360.0</ele><time>2026-04-05T14:40:43.649Z</time></trkpt><trkpt lat="45.6259662" lon="8.2933655"><ele>360.5</ele><time>2026-04-05T14:40:44.648Z</time></trkpt><trkpt lat="45.6260332" lon="8.2932954"><ele>361.0</ele><time>2026-04-05T14:40:45.655Z</time></trkpt><trkpt lat="45.6261008" lon="8.2932432"><ele>360.4</ele><time>2026-04-05T14:40:46.642Z</time></trkpt><trkpt lat="45.6262194" lon="8.2932105"><ele>359.8</ele><time>2026-04-05T14:40:48.638Z</time></trkpt><trkpt lat="45.6262843" lon="8.2932338"><ele>359.2</ele><time>2026-04-05T14:40:49.654Z</time></trkpt><trkpt lat="45.6263925" lon="8.2933336"><ele>358.59999999999997</ele><time>2026-04-05T14:40:51.642Z</time></trkpt><trkpt lat="45.6264315" lon="8.2934076"><ele>358.0</ele><time>2026-04-05T14:40:52.644Z</time></trkpt><trkpt lat="45.6264938" lon="8.2934793"><ele>358.0</ele><time>2026-04-05T14:40:54.644Z</time></trkpt><trkpt lat="45.6266057" lon="8.2934535"><ele>358.0</ele><time>2026-04-05T14:40:56.642Z</time></trkpt><trkpt lat="45.6266755" lon="8.2933814"><ele>358.0</ele><time>2026-04-05T14:40:57.651Z</time></trkpt><trkpt lat="45.6267493" lon="8.293262"><ele>358.0</ele><time>2026-04-05T14:40:58.644Z</time></trkpt><trkpt lat="45.626817" lon="8.2931494"><ele>358.0</ele><time>2026-04-05T14:40:59.652Z</time></trkpt><trkpt lat="45.6268809" lon="8.2930701"><ele>356.5</ele><time>2026-04-05T14:41:00.642Z</time></trkpt><trkpt lat="45.6269373" lon="8.2930128"><ele>355.0</ele><time>2026-04-05T14:41:01.652Z</time></trkpt><trkpt lat="45.6269983" lon="8.2929857"><ele>353.5</ele><time>2026-04-05T14:41:02.641Z</time></trkpt><trkpt lat="45.6270678" lon="8.2930166"><ele>352.0</ele><time>2026-04-05T14:41:03.638Z</time></trkpt><trkpt lat="45.6271425" lon="8.2930725"><ele>350.5</ele><time>2026-04-05T14:41:04.65Z</time></trkpt><trkpt lat="45.6272271" lon="8.2931338"><ele>349.0</ele><time>2026-04-05T14:41:05.648Z</time></trkpt><trkpt lat="45.6273033" lon="8.2931683"><ele>349.0</ele><time>2026-04-05T14:41:06.648Z</time></trkpt><trkpt lat="45.6273897" lon="8.2931833"><ele>349.0</ele><time>2026-04-05T14:41:07.652Z</time></trkpt><trkpt lat="45.6274849" lon="8.2931781"><ele>349.0</ele><time>2026-04-05T14:41:08.641Z</time></trkpt><trkpt lat="45.6275795" lon="8.2931649"><ele>349.0</ele><time>2026-04-05T14:41:09.645Z</time></trkpt><trkpt lat="45.6276761" lon="8.2931519"><ele>349.0</ele><time>2026-04-05T14:41:10.651Z</time></trkpt><trkpt lat="45.6277689" lon="8.2931159"><ele>349.0</ele><time>2026-04-05T14:41:11.649Z</time></trkpt><trkpt lat="45.6278525" lon="8.2930427"><ele>349.0</ele><time>2026-04-05T14:41:12.652Z</time></trkpt><trkpt lat="45.6279284" lon="8.292948"><ele>349.0</ele><time>2026-04-05T14:41:13.647Z</time></trkpt><trkpt lat="45.6279956" lon="8.2928272"><ele>349.0</ele><time>2026-04-05T14:41:14.655Z</time></trkpt><trkpt lat="45.6280569" lon="8.2926973"><ele>349.0</ele><time>2026-04-05T14:41:15.65Z</time></trkpt><trkpt lat="45.6281208" lon="8.2925718"><ele>349.0</ele><time>2026-04-05T14:41:16.65Z</time></trkpt><trkpt lat="45.6281982" lon="8.2924581"><ele>349.0</ele><time>2026-04-05T14:41:17.651Z</time></trkpt><trkpt lat="45.6282977" lon="8.2923656"><ele>349.0</ele><time>2026-04-05T14:41:18.648Z</time></trkpt><trkpt lat="45.6284059" lon="8.292287"><ele>349.0</ele><time>2026-04-05T14:41:19.652Z</time></trkpt><trkpt lat="45.6285207" lon="8.2922068"><ele>349.25</ele><time>2026-04-05T14:41:20.642Z</time></trkpt><trkpt lat="45.6286336" lon="8.2921109"><ele>349.5</ele><time>2026-04-05T14:41:21.648Z</time></trkpt><trkpt lat="45.6287369" lon="8.292008"><ele>349.75</ele><time>2026-04-05T14:41:22.648Z</time></trkpt><trkpt lat="45.6288324" lon="8.2918987"><ele>350.0</ele><time>2026-04-05T14:41:23.648Z</time></trkpt><trkpt lat="45.628916" lon="8.291784"><ele>350.0</ele><time>2026-04-05T14:41:24.653Z</time></trkpt><trkpt lat="45.6289788" lon="8.2916568"><ele>350.0</ele><time>2026-04-05T14:41:25.644Z</time></trkpt><trkpt lat="45.6290148" lon="8.2915153"><ele>350.0</ele><time>2026-04-05T14:41:26.648Z</time></trkpt><trkpt lat="45.6290136" lon="8.291355"><ele>350.0</ele><time>2026-04-05T14:41:27.666Z</time></trkpt><trkpt lat="45.6289842" lon="8.2911917"><ele>350.0</ele><time>2026-04-05T14:41:28.647Z</time></trkpt><trkpt lat="45.6289612" lon="8.2910357"><ele>348.6</ele><time>2026-04-05T14:41:29.651Z</time></trkpt><trkpt lat="45.6289585" lon="8.2908984"><ele>347.2</ele><time>2026-04-05T14:41:30.647Z</time></trkpt><trkpt lat="45.6289762" lon="8.2907785"><ele>345.79999999999995</ele><time>2026-04-05T14:41:31.652Z</time></trkpt><trkpt lat="45.6290152" lon="8.2906722"><ele>344.4</ele><time>2026-04-05T14:41:32.643Z</time></trkpt><trkpt lat="45.6290923" lon="8.2906039"><ele>343.0</ele><time>2026-04-05T14:41:33.648Z</time></trkpt><trkpt lat="45.6291839" lon="8.2905572"><ele>342.59999999999997</ele><time>2026-04-05T14:41:34.651Z</time></trkpt><trkpt lat="45.6292924" lon="8.2905453"><ele>342.2</ele><time>2026-04-05T14:41:35.64Z</time></trkpt><trkpt lat="45.6293958" lon="8.2905445"><ele>341.8</ele><time>2026-04-05T14:41:36.648Z</time></trkpt><trkpt lat="45.6294811" lon="8.2905238"><ele>341.4</ele><time>2026-04-05T14:41:37.643Z</time></trkpt><trkpt lat="45.6295503" lon="8.2904669"><ele>341.0</ele><time>2026-04-05T14:41:38.646Z</time></trkpt><trkpt lat="45.6296007" lon="8.2903901"><ele>341.0</ele><time>2026-04-05T14:41:39.648Z</time></trkpt><trkpt lat="45.6296164" lon="8.2902735"><ele>341.0</ele><time>2026-04-05T14:41:40.644Z</time></trkpt><trkpt lat="45.6296266" lon="8.2901434"><ele>341.0</ele><time>2026-04-05T14:41:41.651Z</time></trkpt><trkpt lat="45.6296543" lon="8.2900134"><ele>341.0</ele><time>2026-04-05T14:41:42.651Z</time></trkpt><trkpt lat="45.6297063" lon="8.2898993"><ele>341.0</ele><time>2026-04-05T14:41:43.645Z</time></trkpt><trkpt lat="45.6297803" lon="8.289789"><ele>338.25</ele><time>2026-04-05T14:41:44.649Z</time></trkpt><trkpt lat="45.6298599" lon="8.2896732"><ele>335.5</ele><time>2026-04-05T14:41:45.645Z</time></trkpt><trkpt lat="45.6299301" lon="8.2895337"><ele>332.75</ele><time>2026-04-05T14:41:46.65Z</time></trkpt><trkpt lat="45.6299819" lon="8.289381"><ele>330.0</ele><time>2026-04-05T14:41:47.654Z</time></trkpt><trkpt lat="45.6300155" lon="8.2892232"><ele>330.0</ele><time>2026-04-05T14:41:48.648Z</time></trkpt><trkpt lat="45.6300366" lon="8.289074"><ele>330.0</ele><time>2026-04-05T14:41:49.653Z</time></trkpt><trkpt lat="45.6300593" lon="8.2889397"><ele>330.0</ele><time>2026-04-05T14:41:50.648Z</time></trkpt><trkpt lat="45.6300996" lon="8.2888273"><ele>330.0</ele><time>2026-04-05T14:41:51.647Z</time></trkpt><trkpt lat="45.6301631" lon="8.2887456"><ele>330.0</ele><time>2026-04-05T14:41:52.644Z</time></trkpt><trkpt lat="45.6302363" lon="8.2886923"><ele>329.0</ele><time>2026-04-05T14:41:53.651Z</time></trkpt><trkpt lat="45.6303196" lon="8.2886655"><ele>328.0</ele><time>2026-04-05T14:41:54.65Z</time></trkpt><trkpt lat="45.6304169" lon="8.2886769"><ele>327.0</ele><time>2026-04-05T14:41:55.642Z</time></trkpt><trkpt lat="45.6305054" lon="8.2887315"><ele>326.0</ele><time>2026-04-05T14:41:56.655Z</time></trkpt><trkpt lat="45.6305832" lon="8.2888184"><ele>325.0</ele><time>2026-04-05T14:41:57.649Z</time></trkpt><trkpt lat="45.6306445" lon="8.2889282"><ele>325.0</ele><time>2026-04-05T14:41:58.652Z</time></trkpt><trkpt lat="45.6306816" lon="8.2890635"><ele>325.0</ele><time>2026-04-05T14:41:59.655Z</time></trkpt><trkpt lat="45.6307075" lon="8.2891951"><ele>325.0</ele><time>2026-04-05T14:42:00.643Z</time></trkpt><trkpt lat="45.630741" lon="8.2893136"><ele>325.0</ele><time>2026-04-05T14:42:01.654Z</time></trkpt><trkpt lat="45.630785" lon="8.2894101"><ele>325.0</ele><time>2026-04-05T14:42:02.641Z</time></trkpt><trkpt lat="45.6308411" lon="8.289488"><ele>325.0</ele><time>2026-04-05T14:42:03.653Z</time></trkpt><trkpt lat="45.6309082" lon="8.289545"><ele>325.0</ele><time>2026-04-05T14:42:04.643Z</time></trkpt><trkpt lat="45.6309938" lon="8.2895729"><ele>325.0</ele><time>2026-04-05T14:42:05.652Z</time></trkpt><trkpt lat="45.631092" lon="8.289579"><ele>325.0</ele><time>2026-04-05T14:42:06.646Z</time></trkpt><trkpt lat="45.6312002" lon="8.2895617"><ele>325.0</ele><time>2026-04-05T14:42:07.645Z</time></trkpt><trkpt lat="45.6313098" lon="8.2895381"><ele>325.0</ele><time>2026-04-05T14:42:08.648Z</time></trkpt><trkpt lat="45.6314157" lon="8.2895083"><ele>323.6</ele><time>2026-04-05T14:42:09.64Z</time></trkpt><trkpt lat="45.6315206" lon="8.2894753"><ele>322.2</ele><time>2026-04-05T14:42:10.65Z</time></trkpt><trkpt lat="45.6316276" lon="8.2894425"><ele>320.8</ele><time>2026-04-05T14:42:11.655Z</time></trkpt><trkpt lat="45.6317371" lon="8.2894144"><ele>319.4</ele><time>2026-04-05T14:42:12.636Z</time></trkpt><trkpt lat="45.631839" lon="8.2893682"><ele>318.0</ele><time>2026-04-05T14:42:13.649Z</time></trkpt><trkpt lat="45.6319385" lon="8.2893225"><ele>318.8</ele><time>2026-04-05T14:42:14.649Z</time></trkpt><trkpt lat="45.6320306" lon="8.2892616"><ele>319.6</ele><time>2026-04-05T14:42:15.647Z</time></trkpt><trkpt lat="45.6321155" lon="8.2891922"><ele>320.40000000000003</ele><time>2026-04-05T14:42:16.647Z</time></trkpt><trkpt lat="45.6321907" lon="8.2891208"><ele>321.20000000000005</ele><time>2026-04-05T14:42:17.649Z</time></trkpt><trkpt lat="45.6322503" lon="8.2890169"><ele>322.0</ele><time>2026-04-05T14:42:18.646Z</time></trkpt><trkpt lat="45.6322965" lon="8.2888972"><ele>319.8</ele><time>2026-04-05T14:42:19.653Z</time></trkpt><trkpt lat="45.6323252" lon="8.2887684"><ele>317.6</ele><time>2026-04-05T14:42:20.652Z</time></trkpt><trkpt lat="45.6323493" lon="8.2886246"><ele>315.40000000000003</ele><time>2026-04-05T14:42:21.649Z</time></trkpt><trkpt lat="45.6323716" lon="8.2884814"><ele>313.20000000000005</ele><time>2026-04-05T14:42:22.647Z</time></trkpt><trkpt lat="45.6323978" lon="8.2883379"><ele>311.0</ele><time>2026-04-05T14:42:23.647Z</time></trkpt><trkpt lat="45.6324262" lon="8.2881916"><ele>312.40000000000003</ele><time>2026-04-05T14:42:24.643Z</time></trkpt><trkpt lat="45.632453" lon="8.2880394"><ele>313.8</ele><time>2026-04-05T14:42:25.652Z</time></trkpt><trkpt lat="45.6324726" lon="8.2878895"><ele>315.20000000000005</ele><time>2026-04-05T14:42:26.65Z</time></trkpt><trkpt lat="45.6324886" lon="8.2877576"><ele>316.6</ele><time>2026-04-05T14:42:27.641Z</time></trkpt><trkpt lat="45.6324824" lon="8.2876289"><ele>318.0</ele><time>2026-04-05T14:42:28.65Z</time></trkpt><trkpt lat="45.6324486" lon="8.2875045"><ele>318.0</ele><time>2026-04-05T14:42:29.643Z</time></trkpt><trkpt lat="45.6323846" lon="8.2873893"><ele>318.0</ele><time>2026-04-05T14:42:30.648Z</time></trkpt><trkpt lat="45.6323004" lon="8.2872966"><ele>318.0</ele><time>2026-04-05T14:42:31.648Z</time></trkpt><trkpt lat="45.6322045" lon="8.2872076"><ele>318.0</ele><time>2026-04-05T14:42:32.641Z</time></trkpt><trkpt lat="45.6320959" lon="8.2871048"><ele>319.0</ele><time>2026-04-05T14:42:33.653Z</time></trkpt><trkpt lat="45.6319725" lon="8.2869865"><ele>320.0</ele><time>2026-04-05T14:42:34.654Z</time></trkpt><trkpt lat="45.6318356" lon="8.2868511"><ele>321.0</ele><time>2026-04-05T14:42:35.657Z</time></trkpt><trkpt lat="45.6316904" lon="8.2867075"><ele>321.0</ele><time>2026-04-05T14:42:36.644Z</time></trkpt><trkpt lat="45.6315378" lon="8.2865545"><ele>321.0</ele><time>2026-04-05T14:42:37.649Z</time></trkpt><trkpt lat="45.6313894" lon="8.2864094"><ele>321.0</ele><time>2026-04-05T14:42:38.644Z</time></trkpt><trkpt lat="45.6312737" lon="8.2862964"><ele>323.3333333333333</ele><time>2026-04-05T14:42:39.641Z</time></trkpt><trkpt lat="45.6311925" lon="8.2862025"><ele>325.6666666666667</ele><time>2026-04-05T14:42:40.634Z</time></trkpt><trkpt lat="45.6311397" lon="8.2861084"><ele>328.0</ele><time>2026-04-05T14:42:41.642Z</time></trkpt><trkpt lat="45.6311135" lon="8.286007"><ele>330.33333333333337</ele><time>2026-04-05T14:42:42.649Z</time></trkpt><trkpt lat="45.6311242" lon="8.2858879"><ele>332.6666666666667</ele><time>2026-04-05T14:42:43.653Z</time></trkpt><trkpt lat="45.6311639" lon="8.2857598"><ele>335.0</ele><time>2026-04-05T14:42:44.648Z</time></trkpt><trkpt lat="45.6312298" lon="8.2856195"><ele>336.0</ele><time>2026-04-05T14:42:45.65Z</time></trkpt><trkpt lat="45.6313034" lon="8.2854665"><ele>337.0</ele><time>2026-04-05T14:42:46.653Z</time></trkpt><trkpt lat="45.6313727" lon="8.2853124"><ele>338.0</ele><time>2026-04-05T14:42:47.649Z</time></trkpt><trkpt lat="45.6314485" lon="8.2851583"><ele>339.0</ele><time>2026-04-05T14:42:48.645Z</time></trkpt><trkpt lat="45.6315318" lon="8.2850065"><ele>339.0</ele><time>2026-04-05T14:42:49.655Z</time></trkpt><trkpt lat="45.6316203" lon="8.2848547"><ele>339.0</ele><time>2026-04-05T14:42:50.651Z</time></trkpt><trkpt lat="45.6317137" lon="8.2847018"><ele>339.0</ele><time>2026-04-05T14:42:51.649Z</time></trkpt><trkpt lat="45.6318064" lon="8.2845573"><ele>339.0</ele><time>2026-04-05T14:42:52.655Z</time></trkpt><trkpt lat="45.6318967" lon="8.2844182"><ele>341.0</ele><time>2026-04-05T14:42:53.647Z</time></trkpt><trkpt lat="45.6319819" lon="8.2842929"><ele>343.0</ele><time>2026-04-05T14:42:54.654Z</time></trkpt><trkpt lat="45.6320668" lon="8.2841827"><ele>345.0</ele><time>2026-04-05T14:42:55.664Z</time></trkpt><trkpt lat="45.6321541" lon="8.2840932"><ele>347.0</ele><time>2026-04-05T14:42:56.643Z</time></trkpt><trkpt lat="45.6322401" lon="8.2840184"><ele>349.0</ele><time>2026-04-05T14:42:57.652Z</time></trkpt><trkpt lat="45.6323179" lon="8.2839328"><ele>348.79999999999995</ele><time>2026-04-05T14:42:58.651Z</time></trkpt><trkpt lat="45.6323764" lon="8.283811"><ele>348.59999999999997</ele><time>2026-04-05T14:42:59.645Z</time></trkpt><trkpt lat="45.6324103" lon="8.28366"><ele>348.4</ele><time>2026-04-05T14:43:00.647Z</time></trkpt><trkpt lat="45.632427" lon="8.2834995"><ele>348.2</ele><time>2026-04-05T14:43:01.643Z</time></trkpt><trkpt lat="45.6324388" lon="8.283339"><ele>348.0</ele><time>2026-04-05T14:43:02.653Z</time></trkpt><trkpt lat="45.6324526" lon="8.2831929"><ele>348.79999999999995</ele><time>2026-04-05T14:43:03.649Z</time></trkpt><trkpt lat="45.6324607" lon="8.2830644"><ele>349.6</ele><time>2026-04-05T14:43:04.638Z</time></trkpt><trkpt lat="45.6324641" lon="8.2829528"><ele>350.4</ele><time>2026-04-05T14:43:05.647Z</time></trkpt><trkpt lat="45.6324578" lon="8.2828518"><ele>351.20000000000005</ele><time>2026-04-05T14:43:06.651Z</time></trkpt><trkpt lat="45.6324058" lon="8.2827146"><ele>352.0</ele><time>2026-04-05T14:43:08.646Z</time></trkpt><trkpt lat="45.6322418" lon="8.2828234"><ele>352.0</ele><time>2026-04-05T14:43:10.64Z</time></trkpt><trkpt lat="45.6321508" lon="8.2829229"><ele>352.0</ele><time>2026-04-05T14:43:11.64Z</time></trkpt><trkpt lat="45.6320676" lon="8.2830032"><ele>352.0</ele><time>2026-04-05T14:43:12.651Z</time></trkpt><trkpt lat="45.6319996" lon="8.2830565"><ele>352.0</ele><time>2026-04-05T14:43:13.636Z</time></trkpt><trkpt lat="45.6318923" lon="8.2830143"><ele>352.0</ele><time>2026-04-05T14:43:15.648Z</time></trkpt><trkpt lat="45.6318603" lon="8.2828636"><ele>352.0</ele><time>2026-04-05T14:43:17.643Z</time></trkpt><trkpt lat="45.6319125" lon="8.2827871"><ele>352.0</ele><time>2026-04-05T14:43:18.65Z</time></trkpt><trkpt lat="45.6319798" lon="8.2827046"><ele>352.0</ele><time>2026-04-05T14:43:19.645Z</time></trkpt><trkpt lat="45.6320556" lon="8.2826183"><ele>352.0</ele><time>2026-04-05T14:43:20.647Z</time></trkpt><trkpt lat="45.63215" lon="8.2825201"><ele>352.0</ele><time>2026-04-05T14:43:21.648Z</time></trkpt><trkpt lat="45.6322836" lon="8.2823795"><ele>353.3333333333333</ele><time>2026-04-05T14:43:22.651Z</time></trkpt><trkpt lat="45.6324242" lon="8.2822348"><ele>354.6666666666667</ele><time>2026-04-05T14:43:23.65Z</time></trkpt><trkpt lat="45.6325773" lon="8.2820831"><ele>356.0</ele><time>2026-04-05T14:43:24.647Z</time></trkpt><trkpt lat="45.6327162" lon="8.2819378"><ele>356.0</ele><time>2026-04-05T14:43:25.65Z</time></trkpt><trkpt lat="45.6328234" lon="8.2818255"><ele>356.0</ele><time>2026-04-05T14:43:26.648Z</time></trkpt><trkpt lat="45.6328897" lon="8.2817554"><ele>356.0</ele><time>2026-04-05T14:43:27.654Z</time></trkpt><trkpt lat="45.6329289" lon="8.2816735"><ele>356.0</ele><time>2026-04-05T14:43:29.652Z</time></trkpt><trkpt lat="45.6328635" lon="8.2816439"><ele>356.0</ele><time>2026-04-05T14:43:31.643Z</time></trkpt><trkpt lat="45.6327682" lon="8.281595"><ele>356.0</ele><time>2026-04-05T14:43:33.648Z</time></trkpt><trkpt lat="45.6326818" lon="8.2815133"><ele>356.0</ele><time>2026-04-05T14:43:35.651Z</time></trkpt><trkpt lat="45.6325585" lon="8.2814196"><ele>356.0</ele><time>2026-04-05T14:43:37.648Z</time></trkpt><trkpt lat="45.6325003" lon="8.2813577"><ele>356.0</ele><time>2026-04-05T14:43:38.653Z</time></trkpt><trkpt lat="45.6324584" lon="8.2812855"><ele>356.0</ele><time>2026-04-05T14:43:39.647Z</time></trkpt><trkpt lat="45.632461" lon="8.2811598"><ele>355.0</ele><time>2026-04-05T14:43:40.639Z</time></trkpt><trkpt lat="45.6324825" lon="8.2810293"><ele>354.0</ele><time>2026-04-05T14:43:41.649Z</time></trkpt><trkpt lat="45.6325007" lon="8.2809188"><ele>353.0</ele><time>2026-04-05T14:43:42.634Z</time></trkpt><trkpt lat="45.6324881" lon="8.2808072"><ele>352.0</ele><time>2026-04-05T14:43:44.647Z</time></trkpt><trkpt lat="45.632406" lon="8.2807271"><ele>351.0</ele><time>2026-04-05T14:43:46.644Z</time></trkpt><trkpt lat="45.6323372" lon="8.280731"><ele>350.0</ele><time>2026-04-05T14:43:47.653Z</time></trkpt><trkpt lat="45.6322597" lon="8.2807429"><ele>350.0</ele><time>2026-04-05T14:43:48.653Z</time></trkpt><trkpt lat="45.6321656" lon="8.2807558"><ele>350.0</ele><time>2026-04-05T14:43:49.653Z</time></trkpt><trkpt lat="45.6320779" lon="8.2807743"><ele>350.0</ele><time>2026-04-05T14:43:50.648Z</time></trkpt><trkpt lat="45.6320014" lon="8.2807914"><ele>350.0</ele><time>2026-04-05T14:43:51.635Z</time></trkpt><trkpt lat="45.6319251" lon="8.2808112"><ele>350.0</ele><time>2026-04-05T14:43:52.648Z</time></trkpt><trkpt lat="45.6318165" lon="8.2808328"><ele>350.0</ele><time>2026-04-05T14:43:54.641Z</time></trkpt><trkpt lat="45.6317245" lon="8.280833"><ele>349.6666666666667</ele><time>2026-04-05T14:43:56.638Z</time></trkpt><trkpt lat="45.6316711" lon="8.2807748"><ele>349.33333333333337</ele><time>2026-04-05T14:43:58.648Z</time></trkpt><trkpt lat="45.6316813" lon="8.2806749"><ele>349.0</ele><time>2026-04-05T14:44:00.643Z</time></trkpt><trkpt lat="45.6317371" lon="8.280584"><ele>348.6666666666667</ele><time>2026-04-05T14:44:03.648Z</time></trkpt><trkpt lat="45.631808" lon="8.2805137"><ele>348.3333333333333</ele><time>2026-04-05T14:48:11.638Z</time></trkpt><trkpt lat="45.6318613" lon="8.280429"><ele>348.0</ele><time>2026-04-05T14:48:13.638Z</time></trkpt><trkpt lat="45.6319514" lon="8.280329"><ele>346.8333333333333</ele><time>2026-04-05T14:48:15.635Z</time></trkpt><trkpt lat="45.6320675" lon="8.2802582"><ele>345.6666666666667</ele><time>2026-04-05T14:48:17.642Z</time></trkpt><trkpt lat="45.6321352" lon="8.2802396"><ele>344.5</ele><time>2026-04-05T14:48:18.647Z</time></trkpt><trkpt lat="45.6322011" lon="8.2802198"><ele>343.33333333333337</ele><time>2026-04-05T14:48:19.64Z</time></trkpt><trkpt lat="45.6322662" lon="8.2802046"><ele>342.1666666666667</ele><time>2026-04-05T14:48:20.652Z</time></trkpt><trkpt lat="45.6323356" lon="8.280195"><ele>341.0</ele><time>2026-04-05T14:48:21.635Z</time></trkpt><trkpt lat="45.632403" lon="8.2801918"><ele>341.0</ele><time>2026-04-05T14:48:22.645Z</time></trkpt><trkpt lat="45.6325071" lon="8.2801636"><ele>341.0</ele><time>2026-04-05T14:48:24.648Z</time></trkpt><trkpt lat="45.6325573" lon="8.280089"><ele>341.0</ele><time>2026-04-05T14:48:26.636Z</time></trkpt><trkpt lat="45.6325492" lon="8.279998"><ele>341.0</ele><time>2026-04-05T14:48:29.65Z</time></trkpt><trkpt lat="45.632443" lon="8.2799772"><ele>341.0</ele><time>2026-04-05T14:48:32.637Z</time></trkpt><trkpt lat="45.6323322" lon="8.2799589"><ele>341.0</ele><time>2026-04-05T14:48:34.65Z</time></trkpt><trkpt lat="45.6322252" lon="8.2799647"><ele>341.0</ele><time>2026-04-05T14:48:36.646Z</time></trkpt><trkpt lat="45.6321148" lon="8.2799823"><ele>341.0</ele><time>2026-04-05T14:48:38.637Z</time></trkpt><trkpt lat="45.63199" lon="8.2799832"><ele>341.0</ele><time>2026-04-05T14:48:40.643Z</time></trkpt><trkpt lat="45.6319258" lon="8.2799861"><ele>341.0</ele><time>2026-04-05T14:48:41.649Z</time></trkpt><trkpt lat="45.6318089" lon="8.2799889"><ele>340.8</ele><time>2026-04-05T14:48:43.636Z</time></trkpt><trkpt lat="45.6317059" lon="8.2799888"><ele>340.6</ele><time>2026-04-05T14:48:45.637Z</time></trkpt><trkpt lat="45.6315963" lon="8.2799569"><ele>340.4</ele><time>2026-04-05T14:48:47.649Z</time></trkpt><trkpt lat="45.6314934" lon="8.2799051"><ele>340.2</ele><time>2026-04-05T14:48:49.642Z</time></trkpt><trkpt lat="45.6313709" lon="8.2798679"><ele>340.0</ele><time>2026-04-05T14:48:51.65Z</time></trkpt><trkpt lat="45.6312502" lon="8.2798718"><ele>340.0</ele><time>2026-04-05T14:48:53.645Z</time></trkpt><trkpt lat="45.6311858" lon="8.2798799"><ele>340.0</ele><time>2026-04-05T14:48:54.648Z</time></trkpt><trkpt lat="45.6311181" lon="8.2799007"><ele>340.0</ele><time>2026-04-05T14:48:55.646Z</time></trkpt><trkpt lat="45.6310494" lon="8.2799225"><ele>340.0</ele><time>2026-04-05T14:48:56.642Z</time></trkpt><trkpt lat="45.6309819" lon="8.2799364"><ele>340.0</ele><time>2026-04-05T14:48:57.647Z</time></trkpt><trkpt lat="45.6309152" lon="8.2799473"><ele>340.0</ele><time>2026-04-05T14:48:58.647Z</time></trkpt><trkpt lat="45.6308413" lon="8.2799615"><ele>340.0</ele><time>2026-04-05T14:48:59.648Z</time></trkpt><trkpt lat="45.6307751" lon="8.2799842"><ele>337.6</ele><time>2026-04-05T14:49:00.64Z</time></trkpt><trkpt lat="45.6307105" lon="8.2800047"><ele>335.2</ele><time>2026-04-05T14:49:01.641Z</time></trkpt><trkpt lat="45.6305948" lon="8.2800661"><ele>332.79999999999995</ele><time>2026-04-05T14:49:03.64Z</time></trkpt><trkpt lat="45.6305012" lon="8.2801512"><ele>330.4</ele><time>2026-04-05T14:49:05.647Z</time></trkpt><trkpt lat="45.6304022" lon="8.2802069"><ele>328.0</ele><time>2026-04-05T14:49:07.634Z</time></trkpt><trkpt lat="45.6303196" lon="8.2801471"><ele>326.8333333333333</ele><time>2026-04-05T14:49:09.639Z</time></trkpt><trkpt lat="45.6302491" lon="8.2800651"><ele>325.66666666666663</ele><time>2026-04-05T14:49:11.64Z</time></trkpt><trkpt lat="45.6301629" lon="8.279961"><ele>324.5</ele><time>2026-04-05T14:49:13.654Z</time></trkpt><trkpt lat="45.6301067" lon="8.279905"><ele>323.3333333333333</ele><time>2026-04-05T14:49:14.645Z</time></trkpt><trkpt lat="45.6300476" lon="8.2798475"><ele>322.1666666666667</ele><time>2026-04-05T14:49:15.643Z</time></trkpt><trkpt lat="45.6299904" lon="8.2797882"><ele>321.0</ele><time>2026-04-05T14:49:16.647Z</time></trkpt><trkpt lat="45.6299355" lon="8.2797291"><ele>320.0</ele><time>2026-04-05T14:49:17.647Z</time></trkpt><trkpt lat="45.6298806" lon="8.2796713"><ele>319.0</ele><time>2026-04-05T14:49:18.639Z</time></trkpt><trkpt lat="45.6298022" lon="8.2795665"><ele>318.0</ele><time>2026-04-05T14:49:20.653Z</time></trkpt><trkpt lat="45.6297931" lon="8.2794627"><ele>317.0</ele><time>2026-04-05T14:49:22.647Z</time></trkpt><trkpt lat="45.6298402" lon="8.2793407"><ele>316.0</ele><time>2026-04-05T14:49:24.654Z</time></trkpt><trkpt lat="45.6299116" lon="8.2792056"><ele>316.0</ele><time>2026-04-05T14:49:26.647Z</time></trkpt><trkpt lat="45.6299851" lon="8.2791093"><ele>316.0</ele><time>2026-04-05T14:49:28.646Z</time></trkpt><trkpt lat="45.6300262" lon="8.2790385"><ele>316.0</ele><time>2026-04-05T14:49:30.644Z</time></trkpt><trkpt lat="45.6300684" lon="8.2789387"><ele>316.0</ele><time>2026-04-05T14:49:33.651Z</time></trkpt><trkpt lat="45.6301525" lon="8.2788048"><ele>316.0</ele><time>2026-04-05T14:49:35.644Z</time></trkpt><trkpt lat="45.6302156" lon="8.2787209"><ele>316.75</ele><time>2026-04-05T14:49:36.638Z</time></trkpt><trkpt lat="45.6302978" lon="8.2786259"><ele>317.5</ele><time>2026-04-05T14:49:37.64Z</time></trkpt><trkpt lat="45.6303934" lon="8.278523"><ele>318.25</ele><time>2026-04-05T14:49:38.65Z</time></trkpt><trkpt lat="45.6304883" lon="8.2784144"><ele>319.0</ele><time>2026-04-05T14:49:39.644Z</time></trkpt><trkpt lat="45.6305861" lon="8.2783076"><ele>319.0</ele><time>2026-04-05T14:49:40.649Z</time></trkpt><trkpt lat="45.6306833" lon="8.2781977"><ele>319.0</ele><time>2026-04-05T14:49:41.655Z</time></trkpt><trkpt lat="45.6307785" lon="8.2780926"><ele>319.0</ele><time>2026-04-05T14:49:42.645Z</time></trkpt><trkpt lat="45.6308657" lon="8.2779831"><ele>319.0</ele><time>2026-04-05T14:49:43.644Z</time></trkpt><trkpt lat="45.6309429" lon="8.2778548"><ele>317.0</ele><time>2026-04-05T14:49:44.642Z</time></trkpt><trkpt lat="45.6310086" lon="8.2777066"><ele>315.0</ele><time>2026-04-05T14:49:45.647Z</time></trkpt><trkpt lat="45.6310555" lon="8.2775409"><ele>313.0</ele><time>2026-04-05T14:49:46.649Z</time></trkpt><trkpt lat="45.6310883" lon="8.2773713"><ele>311.0</ele><time>2026-04-05T14:49:47.647Z</time></trkpt><trkpt lat="45.6311136" lon="8.2772007"><ele>310.5</ele><time>2026-04-05T14:49:48.638Z</time></trkpt><trkpt lat="45.6311371" lon="8.2770328"><ele>310.0</ele><time>2026-04-05T14:49:49.649Z</time></trkpt><trkpt lat="45.6311631" lon="8.2768648"><ele>309.5</ele><time>2026-04-05T14:49:50.642Z</time></trkpt><trkpt lat="45.6311852" lon="8.2766921"><ele>309.0</ele><time>2026-04-05T14:49:51.637Z</time></trkpt><trkpt lat="45.6312113" lon="8.2765154"><ele>309.25</ele><time>2026-04-05T14:49:52.645Z</time></trkpt><trkpt lat="45.6312323" lon="8.2763326"><ele>309.5</ele><time>2026-04-05T14:49:53.64Z</time></trkpt><trkpt lat="45.6312565" lon="8.2761511"><ele>309.75</ele><time>2026-04-05T14:49:54.648Z</time></trkpt><trkpt lat="45.6312802" lon="8.2759681"><ele>310.0</ele><time>2026-04-05T14:49:55.651Z</time></trkpt><trkpt lat="45.6313095" lon="8.2757882"><ele>310.0</ele><time>2026-04-05T14:49:56.646Z</time></trkpt><trkpt lat="45.6313306" lon="8.27561"><ele>310.0</ele><time>2026-04-05T14:49:57.646Z</time></trkpt><trkpt lat="45.6313534" lon="8.2754366"><ele>310.0</ele><time>2026-04-05T14:49:58.642Z</time></trkpt><trkpt lat="45.6313777" lon="8.2752725"><ele>310.0</ele><time>2026-04-05T14:49:59.647Z</time></trkpt><trkpt lat="45.6314047" lon="8.2751147"><ele>310.4</ele><time>2026-04-05T14:50:00.649Z</time></trkpt><trkpt lat="45.6314254" lon="8.2749661"><ele>310.8</ele><time>2026-04-05T14:50:01.645Z</time></trkpt><trkpt lat="45.631441" lon="8.274822"><ele>311.2</ele><time>2026-04-05T14:50:02.645Z</time></trkpt><trkpt lat="45.6314494" lon="8.2746827"><ele>311.6</ele><time>2026-04-05T14:50:03.651Z</time></trkpt><trkpt lat="45.6314569" lon="8.2745429"><ele>312.0</ele><time>2026-04-05T14:50:04.641Z</time></trkpt><trkpt lat="45.6314607" lon="8.2743916"><ele>312.6</ele><time>2026-04-05T14:50:05.651Z</time></trkpt><trkpt lat="45.631468" lon="8.274235"><ele>313.2</ele><time>2026-04-05T14:50:06.645Z</time></trkpt><trkpt lat="45.6314763" lon="8.2740777"><ele>313.8</ele><time>2026-04-05T14:50:07.655Z</time></trkpt><trkpt lat="45.6314845" lon="8.2739211"><ele>314.4</ele><time>2026-04-05T14:50:08.648Z</time></trkpt><trkpt lat="45.6314929" lon="8.2737626"><ele>315.0</ele><time>2026-04-05T14:50:09.647Z</time></trkpt><trkpt lat="45.631501" lon="8.2735969"><ele>316.6</ele><time>2026-04-05T14:50:10.649Z</time></trkpt><trkpt lat="45.6315107" lon="8.2734316"><ele>318.2</ele><time>2026-04-05T14:50:11.64Z</time></trkpt><trkpt lat="45.6315237" lon="8.2732661"><ele>319.79999999999995</ele><time>2026-04-05T14:50:12.649Z</time></trkpt><trkpt lat="45.6315317" lon="8.2731092"><ele>321.4</ele><time>2026-04-05T14:50:13.644Z</time></trkpt><trkpt lat="45.631532" lon="8.2729772"><ele>323.0</ele><time>2026-04-05T14:50:14.648Z</time></trkpt><trkpt lat="45.6315371" lon="8.2728693"><ele>323.0</ele><time>2026-04-05T14:50:15.636Z</time></trkpt><trkpt lat="45.6315688" lon="8.2727121"><ele>323.0</ele><time>2026-04-05T14:50:17.649Z</time></trkpt><trkpt lat="45.631641" lon="8.2727061"><ele>323.0</ele><time>2026-04-05T14:50:19.646Z</time></trkpt><trkpt lat="45.6316745" lon="8.2728922"><ele>323.0</ele><time>2026-04-05T14:50:21.639Z</time></trkpt><trkpt lat="45.6316559" lon="8.2730466"><ele>323.0</ele><time>2026-04-05T14:50:22.647Z</time></trkpt><trkpt lat="45.6316344" lon="8.27319"><ele>323.0</ele><time>2026-04-05T14:50:23.642Z</time></trkpt><trkpt lat="45.6316226" lon="8.2733248"><ele>323.0</ele><time>2026-04-05T14:50:24.638Z</time></trkpt><trkpt lat="45.6316135" lon="8.2734419"><ele>323.0</ele><time>2026-04-05T14:50:25.633Z</time></trkpt><trkpt lat="45.631613" lon="8.273542"><ele>323.0</ele><time>2026-04-05T14:50:26.638Z</time></trkpt><trkpt lat="45.6316829" lon="8.2736615"><ele>323.0</ele><time>2026-04-05T14:50:28.649Z</time></trkpt><trkpt lat="45.6317569" lon="8.2736489"><ele>323.0</ele><time>2026-04-05T14:50:29.647Z</time></trkpt><trkpt lat="45.6318391" lon="8.2735964"><ele>323.0</ele><time>2026-04-05T14:50:30.648Z</time></trkpt><trkpt lat="45.6319363" lon="8.2735282"><ele>323.0</ele><time>2026-04-05T14:50:31.65Z</time></trkpt><trkpt lat="45.632048" lon="8.2734553"><ele>323.0</ele><time>2026-04-05T14:50:32.641Z</time></trkpt><trkpt lat="45.6321602" lon="8.2734039"><ele>323.0</ele><time>2026-04-05T14:50:33.646Z</time></trkpt><trkpt lat="45.6322625" lon="8.2733609"><ele>324.0</ele><time>2026-04-05T14:50:34.653Z</time></trkpt><trkpt lat="45.6323588" lon="8.2733065"><ele>325.0</ele><time>2026-04-05T14:50:35.645Z</time></trkpt><trkpt lat="45.6324483" lon="8.2732272"><ele>326.0</ele><time>2026-04-05T14:50:36.653Z</time></trkpt><trkpt lat="45.6325306" lon="8.2731296"><ele>327.0</ele><time>2026-04-05T14:50:37.652Z</time></trkpt><trkpt lat="45.6326102" lon="8.2730273"><ele>328.0</ele><time>2026-04-05T14:50:38.641Z</time></trkpt><trkpt lat="45.6326806" lon="8.2729271"><ele>329.79999999999995</ele><time>2026-04-05T14:50:39.64Z</time></trkpt><trkpt lat="45.6327587" lon="8.2728357"><ele>331.6</ele><time>2026-04-05T14:50:40.646Z</time></trkpt><trkpt lat="45.632844" lon="8.2727574"><ele>333.4</ele><time>2026-04-05T14:50:41.64Z</time></trkpt><trkpt lat="45.6329282" lon="8.2726827"><ele>335.20000000000005</ele><time>2026-04-05T14:50:42.656Z</time></trkpt><trkpt lat="45.6330123" lon="8.2726114"><ele>337.0</ele><time>2026-04-05T14:50:43.654Z</time></trkpt><trkpt lat="45.6331019" lon="8.2725452"><ele>337.6</ele><time>2026-04-05T14:50:44.639Z</time></trkpt><trkpt lat="45.6332066" lon="8.2724877"><ele>338.20000000000005</ele><time>2026-04-05T14:50:45.653Z</time></trkpt><trkpt lat="45.6333111" lon="8.2724378"><ele>338.8</ele><time>2026-04-05T14:50:46.652Z</time></trkpt><trkpt lat="45.633417" lon="8.2723884"><ele>339.4</ele><time>2026-04-05T14:50:47.64Z</time></trkpt><trkpt lat="45.633519" lon="8.2723355"><ele>340.0</ele><time>2026-04-05T14:50:48.643Z</time></trkpt><trkpt lat="45.6336151" lon="8.2722814"><ele>342.16666666666663</ele><time>2026-04-05T14:50:49.65Z</time></trkpt><trkpt lat="45.6336949" lon="8.2722292"><ele>344.3333333333333</ele><time>2026-04-05T14:50:50.645Z</time></trkpt><trkpt lat="45.6337685" lon="8.2721849"><ele>346.5</ele><time>2026-04-05T14:50:51.644Z</time></trkpt><trkpt lat="45.6338494" lon="8.2721552"><ele>348.6666666666667</ele><time>2026-04-05T14:50:52.649Z</time></trkpt><trkpt lat="45.6339341" lon="8.2721397"><ele>350.83333333333337</ele><time>2026-04-05T14:50:53.65Z</time></trkpt><trkpt lat="45.6340411" lon="8.2721434"><ele>353.0</ele><time>2026-04-05T14:50:54.65Z</time></trkpt><trkpt lat="45.634183" lon="8.2721727"><ele>353.0</ele><time>2026-04-05T14:50:55.644Z</time></trkpt><trkpt lat="45.6343348" lon="8.2722199"><ele>353.0</ele><time>2026-04-05T14:50:56.642Z</time></trkpt><trkpt lat="45.6344948" lon="8.2722598"><ele>353.0</ele><time>2026-04-05T14:50:57.638Z</time></trkpt><trkpt lat="45.6346607" lon="8.2722925"><ele>352.0</ele><time>2026-04-05T14:50:58.647Z</time></trkpt><trkpt lat="45.634815" lon="8.2723216"><ele>351.0</ele><time>2026-04-05T14:50:59.639Z</time></trkpt><trkpt lat="45.6349287" lon="8.2723426"><ele>350.0</ele><time>2026-04-05T14:51:00.644Z</time></trkpt><trkpt lat="45.63501" lon="8.2723589"><ele>349.0</ele><time>2026-04-05T14:51:01.639Z</time></trkpt><trkpt lat="45.6351189" lon="8.2723625"><ele>350.6</ele><time>2026-04-05T14:51:03.645Z</time></trkpt><trkpt lat="45.6351415" lon="8.2722676"><ele>352.2</ele><time>2026-04-05T14:51:05.646Z</time></trkpt><trkpt lat="45.6351056" lon="8.2720687"><ele>353.8</ele><time>2026-04-05T14:51:07.66Z</time></trkpt><trkpt lat="45.6350859" lon="8.2719545"><ele>355.40000000000003</ele><time>2026-04-05T14:51:08.64Z</time></trkpt><trkpt lat="45.6350769" lon="8.2718489"><ele>357.0</ele><time>2026-04-05T14:51:09.657Z</time></trkpt><trkpt lat="45.6350478" lon="8.2716933"><ele>357.0</ele><time>2026-04-05T14:51:11.642Z</time></trkpt><trkpt lat="45.6349453" lon="8.2716188"><ele>357.0</ele><time>2026-04-05T14:51:13.649Z</time></trkpt><trkpt lat="45.6348798" lon="8.2716219"><ele>357.0</ele><time>2026-04-05T14:51:14.647Z</time></trkpt><trkpt lat="45.6348009" lon="8.2715816"><ele>357.0</ele><time>2026-04-05T14:51:16.637Z</time></trkpt><trkpt lat="45.6348214" lon="8.2714436"><ele>357.0</ele><time>2026-04-05T14:51:19.641Z</time></trkpt><trkpt lat="45.6348485" lon="8.2713122"><ele>357.3333333333333</ele><time>2026-04-05T14:51:21.642Z</time></trkpt><trkpt lat="45.6348782" lon="8.2711647"><ele>357.6666666666667</ele><time>2026-04-05T14:51:23.647Z</time></trkpt><trkpt lat="45.6348864" lon="8.2710742"><ele>358.0</ele><time>2026-04-05T14:51:24.638Z</time></trkpt><trkpt lat="45.6348974" lon="8.2709835"><ele>358.33333333333337</ele><time>2026-04-05T14:51:25.653Z</time></trkpt><trkpt lat="45.6349207" lon="8.2708907"><ele>358.6666666666667</ele><time>2026-04-05T14:51:26.637Z</time></trkpt><trkpt lat="45.6349694" lon="8.2708054"><ele>359.0</ele><time>2026-04-05T14:51:27.641Z</time></trkpt><trkpt lat="45.6350357" lon="8.2707297"><ele>359.0</ele><time>2026-04-05T14:51:28.65Z</time></trkpt><trkpt lat="45.6351209" lon="8.2706586"><ele>359.0</ele><time>2026-04-05T14:51:29.648Z</time></trkpt><trkpt lat="45.6352048" lon="8.2705736"><ele>359.0</ele><time>2026-04-05T14:51:30.645Z</time></trkpt><trkpt lat="45.6352796" lon="8.270467"><ele>359.0</ele><time>2026-04-05T14:51:31.64Z</time></trkpt><trkpt lat="45.6353375" lon="8.2703454"><ele>359.0</ele><time>2026-04-05T14:51:32.651Z</time></trkpt><trkpt lat="45.6353776" lon="8.2702152"><ele>360.0</ele><time>2026-04-05T14:51:33.651Z</time></trkpt><trkpt lat="45.6354005" lon="8.2700969"><ele>361.0</ele><time>2026-04-05T14:51:34.643Z</time></trkpt><trkpt lat="45.6354136" lon="8.2700065"><ele>362.0</ele><time>2026-04-05T14:51:35.649Z</time></trkpt><trkpt lat="45.6354239" lon="8.2699147"><ele>363.0</ele><time>2026-04-05T14:51:37.645Z</time></trkpt><trkpt lat="45.6354218" lon="8.269809"><ele>364.0</ele><time>2026-04-05T14:51:41.652Z</time></trkpt><trkpt lat="45.6354182" lon="8.269717"><ele>365.0</ele><time>2026-04-05T14:51:43.639Z</time></trkpt><trkpt lat="45.6354215" lon="8.2696021"><ele>366.0</ele><time>2026-04-05T14:51:45.642Z</time></trkpt><trkpt lat="45.6354295" lon="8.2694618"><ele>367.0</ele><time>2026-04-05T14:51:47.644Z</time></trkpt><trkpt lat="45.6354411" lon="8.2693005"><ele>368.0</ele><time>2026-04-05T14:51:49.646Z</time></trkpt><trkpt lat="45.6354496" lon="8.2691127"><ele>369.0</ele><time>2026-04-05T14:51:51.652Z</time></trkpt><trkpt lat="45.6354623" lon="8.2690092"><ele>370.0</ele><time>2026-04-05T14:51:52.649Z</time></trkpt><trkpt lat="45.6354833" lon="8.2688991"><ele>371.0</ele><time>2026-04-05T14:51:53.65Z</time></trkpt><trkpt lat="45.6355142" lon="8.2687858"><ele>371.83333333333337</ele><time>2026-04-05T14:51:54.639Z</time></trkpt><trkpt lat="45.6355485" lon="8.2686701"><ele>372.6666666666667</ele><time>2026-04-05T14:51:55.65Z</time></trkpt><trkpt lat="45.635589" lon="8.2685567"><ele>373.5</ele><time>2026-04-05T14:51:56.648Z</time></trkpt><trkpt lat="45.6356296" lon="8.2684447"><ele>374.3333333333333</ele><time>2026-04-05T14:51:57.645Z</time></trkpt><trkpt lat="45.6356682" lon="8.2683389"><ele>375.16666666666663</ele><time>2026-04-05T14:51:58.649Z</time></trkpt><trkpt lat="45.6357081" lon="8.2682365"><ele>376.0</ele><time>2026-04-05T14:51:59.641Z</time></trkpt><trkpt lat="45.6357528" lon="8.2681437"><ele>375.8333333333333</ele><time>2026-04-05T14:52:00.646Z</time></trkpt><trkpt lat="45.6358059" lon="8.2680558"><ele>375.66666666666663</ele><time>2026-04-05T14:52:01.646Z</time></trkpt><trkpt lat="45.6358616" lon="8.2679681"><ele>375.5</ele><time>2026-04-05T14:52:02.65Z</time></trkpt><trkpt lat="45.6359119" lon="8.2678843"><ele>375.3333333333333</ele><time>2026-04-05T14:52:03.643Z</time></trkpt><trkpt lat="45.6359555" lon="8.2678102"><ele>375.1666666666667</ele><time>2026-04-05T14:52:04.646Z</time></trkpt><trkpt lat="45.6360305" lon="8.2676977"><ele>375.0</ele><time>2026-04-05T14:52:06.648Z</time></trkpt><trkpt lat="45.6360994" lon="8.2675985"><ele>374.6</ele><time>2026-04-05T14:52:08.643Z</time></trkpt><trkpt lat="45.6361858" lon="8.2674612"><ele>374.2</ele><time>2026-04-05T14:52:10.649Z</time></trkpt><trkpt lat="45.6362357" lon="8.2673806"><ele>373.79999999999995</ele><time>2026-04-05T14:52:11.647Z</time></trkpt><trkpt lat="45.6362918" lon="8.2672912"><ele>373.4</ele><time>2026-04-05T14:52:12.643Z</time></trkpt><trkpt lat="45.6363505" lon="8.2672009"><ele>373.0</ele><time>2026-04-05T14:52:13.647Z</time></trkpt><trkpt lat="45.6364152" lon="8.2671164"><ele>373.66666666666663</ele><time>2026-04-05T14:52:14.642Z</time></trkpt><trkpt lat="45.6364868" lon="8.2670443"><ele>374.3333333333333</ele><time>2026-04-05T14:52:15.648Z</time></trkpt><trkpt lat="45.636558" lon="8.2669796"><ele>375.0</ele><time>2026-04-05T14:52:16.652Z</time></trkpt><trkpt lat="45.6366193" lon="8.2669129"><ele>375.6666666666667</ele><time>2026-04-05T14:52:17.643Z</time></trkpt><trkpt lat="45.6366745" lon="8.2668428"><ele>376.33333333333337</ele><time>2026-04-05T14:52:18.647Z</time></trkpt><trkpt lat="45.6367242" lon="8.2667704"><ele>377.0</ele><time>2026-04-05T14:52:19.65Z</time></trkpt><trkpt lat="45.6367634" lon="8.2666862"><ele>376.99999999999994</ele><time>2026-04-05T14:52:20.647Z</time></trkpt><trkpt lat="45.6367875" lon="8.2665999"><ele>377.0</ele><time>2026-04-05T14:52:21.647Z</time></trkpt><trkpt lat="45.636808" lon="8.2665099"><ele>377.0</ele><time>2026-04-05T14:52:22.649Z</time></trkpt><trkpt lat="45.636828" lon="8.2664217"><ele>377.0</ele><time>2026-04-05T14:52:23.645Z</time></trkpt><trkpt lat="45.6368478" lon="8.2663195"><ele>377.0</ele><time>2026-04-05T14:52:24.648Z</time></trkpt><trkpt lat="45.6368708" lon="8.266222"><ele>376.99999999999994</ele><time>2026-04-05T14:52:25.647Z</time></trkpt><trkpt lat="45.6368832" lon="8.2661291"><ele>377.0</ele><time>2026-04-05T14:52:26.651Z</time></trkpt><trkpt lat="45.6368917" lon="8.2660341"><ele>377.33333333333337</ele><time>2026-04-05T14:52:27.655Z</time></trkpt><trkpt lat="45.636916" lon="8.2658902"><ele>377.6666666666667</ele><time>2026-04-05T14:52:29.652Z</time></trkpt><trkpt lat="45.6369847" lon="8.2658382"><ele>378.0</ele><time>2026-04-05T14:52:32.646Z</time></trkpt><trkpt lat="45.6370452" lon="8.2659054"><ele>378.3333333333333</ele><time>2026-04-05T14:52:34.646Z</time></trkpt><trkpt lat="45.6371096" lon="8.265997"><ele>378.66666666666663</ele><time>2026-04-05T14:52:36.641Z</time></trkpt><trkpt lat="45.6371639" lon="8.266053"><ele>379.0</ele><time>2026-04-05T14:52:38.652Z</time></trkpt><trkpt lat="45.6372212" lon="8.2661134"><ele>382.3333333333333</ele><time>2026-04-05T14:52:40.609Z</time></trkpt><trkpt lat="45.6372932" lon="8.2661323"><ele>385.66666666666663</ele><time>2026-04-05T14:52:42.643Z</time></trkpt><trkpt lat="45.6373705" lon="8.266116"><ele>389.0</ele><time>2026-04-05T14:52:44.653Z</time></trkpt><trkpt lat="45.6374356" lon="8.2660948"><ele>392.3333333333333</ele><time>2026-04-05T14:52:46.638Z</time></trkpt><trkpt lat="45.6375135" lon="8.2660133"><ele>395.6666666666667</ele><time>2026-04-05T14:52:49.639Z</time></trkpt><trkpt lat="45.6375727" lon="8.2659616"><ele>399.0</ele><time>2026-04-05T14:52:51.641Z</time></trkpt><trkpt lat="45.6376009" lon="8.2658733"><ele>399.0</ele><time>2026-04-05T14:52:54.643Z</time></trkpt><trkpt lat="45.6375233" lon="8.2657839"><ele>399.0</ele><time>2026-04-05T14:52:57.649Z</time></trkpt><trkpt lat="45.6375205" lon="8.2656789"><ele>399.0</ele><time>2026-04-05T14:53:00.569Z</time></trkpt><trkpt lat="45.6375337" lon="8.2655812"><ele>399.0</ele><time>2026-04-05T14:53:02.65Z</time></trkpt><trkpt lat="45.6375556" lon="8.2654797"><ele>399.0</ele><time>2026-04-05T14:53:04.572Z</time></trkpt><trkpt lat="45.637618" lon="8.2653794"><ele>399.0</ele><time>2026-04-05T14:53:06.646Z</time></trkpt><trkpt lat="45.6376821" lon="8.2652993"><ele>401.6666666666667</ele><time>2026-04-05T14:53:08.639Z</time></trkpt><trkpt lat="45.6377616" lon="8.2652401"><ele>404.33333333333337</ele><time>2026-04-05T14:53:10.549Z</time></trkpt><trkpt lat="45.6378413" lon="8.2652102"><ele>407.0</ele><time>2026-04-05T14:53:12.64Z</time></trkpt><trkpt lat="45.6378937" lon="8.2651538"><ele>409.6666666666667</ele><time>2026-04-05T14:53:14.637Z</time></trkpt><trkpt lat="45.6379323" lon="8.2650688"><ele>412.33333333333337</ele><time>2026-04-05T14:53:16.665Z</time></trkpt><trkpt lat="45.6379684" lon="8.2649635"><ele>415.0</ele><time>2026-04-05T14:53:18.638Z</time></trkpt><trkpt lat="45.6380121" lon="8.2648626"><ele>419.33333333333337</ele><time>2026-04-05T14:53:20.653Z</time></trkpt><trkpt lat="45.6380518" lon="8.2647682"><ele>423.6666666666667</ele><time>2026-04-05T14:53:22.651Z</time></trkpt><trkpt lat="45.6380662" lon="8.2646711"><ele>428.0</ele><time>2026-04-05T14:53:24.649Z</time></trkpt><trkpt lat="45.638032" lon="8.2645899"><ele>432.33333333333337</ele><time>2026-04-05T14:53:26.648Z</time></trkpt><trkpt lat="45.6379632" lon="8.2645258"><ele>436.6666666666667</ele><time>2026-04-05T14:53:28.651Z</time></trkpt><trkpt lat="45.6379063" lon="8.2644274"><ele>441.0</ele><time>2026-04-05T14:53:30.641Z</time></trkpt><trkpt lat="45.637863" lon="8.2643372"><ele>441.0</ele><time>2026-04-05T14:53:32.635Z</time></trkpt><trkpt lat="45.6377865" lon="8.2642698"><ele>441.0</ele><time>2026-04-05T14:53:35.648Z</time></trkpt><trkpt lat="45.6377944" lon="8.2641615"><ele>441.0</ele><time>2026-04-05T14:53:39.645Z</time></trkpt><trkpt lat="45.6378456" lon="8.2640683"><ele>441.0</ele><time>2026-04-05T14:53:41.644Z</time></trkpt><trkpt lat="45.637882" lon="8.2639662"><ele>441.0</ele><time>2026-04-05T14:53:43.646Z</time></trkpt><trkpt lat="45.6379266" lon="8.2638855"><ele>441.0</ele><time>2026-04-05T14:53:45.652Z</time></trkpt><trkpt lat="45.6379425" lon="8.2637702"><ele>443.3333333333333</ele><time>2026-04-05T14:53:47.647Z</time></trkpt><trkpt lat="45.637954" lon="8.2636527"><ele>445.66666666666663</ele><time>2026-04-05T14:53:49.651Z</time></trkpt><trkpt lat="45.6379868" lon="8.2635621"><ele>448.0</ele><time>2026-04-05T14:53:51.639Z</time></trkpt><trkpt lat="45.6380388" lon="8.2634944"><ele>450.3333333333333</ele><time>2026-04-05T14:53:53.643Z</time></trkpt><trkpt lat="45.6381241" lon="8.2634154"><ele>452.66666666666663</ele><time>2026-04-05T14:53:56.648Z</time></trkpt><trkpt lat="45.6382044" lon="8.2633559"><ele>455.0</ele><time>2026-04-05T14:53:58.646Z</time></trkpt><trkpt lat="45.6383191" lon="8.2632381"><ele>454.99999999999994</ele><time>2026-04-05T14:54:00.641Z</time></trkpt><trkpt lat="45.6383996" lon="8.2631549"><ele>455.0</ele><time>2026-04-05T14:54:01.651Z</time></trkpt><trkpt lat="45.6384815" lon="8.2630801"><ele>455.0</ele><time>2026-04-05T14:54:02.654Z</time></trkpt><trkpt lat="45.6385618" lon="8.2630242"><ele>455.0</ele><time>2026-04-05T14:54:03.649Z</time></trkpt><trkpt lat="45.6386384" lon="8.2629944"><ele>454.99999999999994</ele><time>2026-04-05T14:54:04.641Z</time></trkpt><trkpt lat="45.6387087" lon="8.2629857"><ele>455.0</ele><time>2026-04-05T14:54:05.64Z</time></trkpt><trkpt lat="45.6387732" lon="8.262992"><ele>452.0</ele><time>2026-04-05T14:54:06.648Z</time></trkpt><trkpt lat="45.6388392" lon="8.2630062"><ele>449.0</ele><time>2026-04-05T14:54:07.645Z</time></trkpt><trkpt lat="45.6389087" lon="8.2630167"><ele>446.0</ele><time>2026-04-05T14:54:08.643Z</time></trkpt><trkpt lat="45.6389794" lon="8.2630106"><ele>443.0</ele><time>2026-04-05T14:54:09.647Z</time></trkpt><trkpt lat="45.6390511" lon="8.2629833"><ele>440.0</ele><time>2026-04-05T14:54:10.65Z</time></trkpt><trkpt lat="45.6391186" lon="8.2629429"><ele>437.0</ele><time>2026-04-05T14:54:11.639Z</time></trkpt><trkpt lat="45.6391848" lon="8.2629048"><ele>434.0</ele><time>2026-04-05T14:54:12.644Z</time></trkpt><trkpt lat="45.6392511" lon="8.2628774"><ele>433.99999999999994</ele><time>2026-04-05T14:54:13.643Z</time></trkpt><trkpt lat="45.6393151" lon="8.2628686"><ele>434.0</ele><time>2026-04-05T14:54:14.647Z</time></trkpt><trkpt lat="45.6393782" lon="8.2628714"><ele>434.0</ele><time>2026-04-05T14:54:15.643Z</time></trkpt><trkpt lat="45.6394957" lon="8.2629063"><ele>434.0</ele><time>2026-04-05T14:54:17.651Z</time></trkpt><trkpt lat="45.6395801" lon="8.262972"><ele>433.99999999999994</ele><time>2026-04-05T14:54:19.649Z</time></trkpt><trkpt lat="45.6396528" lon="8.2629878"><ele>434.0</ele><time>2026-04-05T14:54:21.644Z</time></trkpt><trkpt lat="45.6397323" lon="8.2629326"><ele>432.49999999999994</ele><time>2026-04-05T14:54:23.648Z</time></trkpt><trkpt lat="45.639794" lon="8.2628046"><ele>431.0</ele><time>2026-04-05T14:54:25.639Z</time></trkpt><trkpt lat="45.6398411" lon="8.2626615"><ele>429.5</ele><time>2026-04-05T14:54:27.647Z</time></trkpt><trkpt lat="45.6398753" lon="8.2625859"><ele>428.0</ele><time>2026-04-05T14:54:28.645Z</time></trkpt><trkpt lat="45.639926" lon="8.2625268"><ele>426.49999999999994</ele><time>2026-04-05T14:54:29.643Z</time></trkpt><trkpt lat="45.6399847" lon="8.2624894"><ele>425.0</ele><time>2026-04-05T14:54:30.638Z</time></trkpt><trkpt lat="45.640048" lon="8.2624748"><ele>424.99999999999994</ele><time>2026-04-05T14:54:31.645Z</time></trkpt><trkpt lat="45.640119" lon="8.2625123"><ele>425.0</ele><time>2026-04-05T14:54:32.647Z</time></trkpt><trkpt lat="45.6401928" lon="8.2625718"><ele>425.0</ele><time>2026-04-05T14:54:33.647Z</time></trkpt><trkpt lat="45.6402708" lon="8.262625"><ele>425.0</ele><time>2026-04-05T14:54:34.645Z</time></trkpt><trkpt lat="45.6403469" lon="8.2626575"><ele>424.99999999999994</ele><time>2026-04-05T14:54:35.643Z</time></trkpt><trkpt lat="45.6404233" lon="8.2626923"><ele>425.0</ele><time>2026-04-05T14:54:36.646Z</time></trkpt><trkpt lat="45.6404914" lon="8.2627287"><ele>422.3333333333333</ele><time>2026-04-05T14:54:37.644Z</time></trkpt><trkpt lat="45.6405606" lon="8.2627723"><ele>419.66666666666663</ele><time>2026-04-05T14:54:38.645Z</time></trkpt><trkpt lat="45.6406303" lon="8.2628221"><ele>417.0</ele><time>2026-04-05T14:54:39.639Z</time></trkpt><trkpt lat="45.6407008" lon="8.2628787"><ele>414.33333333333337</ele><time>2026-04-05T14:54:40.651Z</time></trkpt><trkpt lat="45.6407685" lon="8.2629313"><ele>411.6666666666667</ele><time>2026-04-05T14:54:41.647Z</time></trkpt><trkpt lat="45.6408288" lon="8.2629844"><ele>409.0</ele><time>2026-04-05T14:54:42.641Z</time></trkpt><trkpt lat="45.640885" lon="8.2630446"><ele>408.6</ele><time>2026-04-05T14:54:43.642Z</time></trkpt><trkpt lat="45.6409764" lon="8.2631307"><ele>408.2</ele><time>2026-04-05T14:54:45.641Z</time></trkpt><trkpt lat="45.6410845" lon="8.2631423"><ele>407.8</ele><time>2026-04-05T14:54:47.648Z</time></trkpt><trkpt lat="45.641181" lon="8.2631406"><ele>407.40000000000003</ele><time>2026-04-05T14:54:49.646Z</time></trkpt><trkpt lat="45.6412481" lon="8.2631235"><ele>407.0</ele><time>2026-04-05T14:54:51.644Z</time></trkpt><trkpt lat="45.641307" lon="8.2630699"><ele>408.3333333333333</ele><time>2026-04-05T14:54:53.641Z</time></trkpt><trkpt lat="45.6413624" lon="8.2629985"><ele>409.66666666666663</ele><time>2026-04-05T14:54:55.645Z</time></trkpt><trkpt lat="45.6413841" lon="8.2629138"><ele>411.0</ele><time>2026-04-05T14:54:58.647Z</time></trkpt><trkpt lat="45.6414055" lon="8.2627871"><ele>412.33333333333337</ele><time>2026-04-05T14:55:00.645Z</time></trkpt><trkpt lat="45.6414308" lon="8.2626984"><ele>413.6666666666667</ele><time>2026-04-05T14:55:01.655Z</time></trkpt><trkpt lat="45.6414595" lon="8.262591"><ele>415.0</ele><time>2026-04-05T14:55:02.641Z</time></trkpt><trkpt lat="45.6414925" lon="8.2624698"><ele>415.00000000000006</ele><time>2026-04-05T14:55:03.64Z</time></trkpt><trkpt lat="45.6415359" lon="8.2623564"><ele>415.0</ele><time>2026-04-05T14:55:04.645Z</time></trkpt><trkpt lat="45.6415889" lon="8.2622632"><ele>415.0</ele><time>2026-04-05T14:55:05.645Z</time></trkpt><trkpt lat="45.6416472" lon="8.262187"><ele>415.0</ele><time>2026-04-05T14:55:06.638Z</time></trkpt><trkpt lat="45.6417135" lon="8.2621164"><ele>415.00000000000006</ele><time>2026-04-05T14:55:07.64Z</time></trkpt><trkpt lat="45.6417911" lon="8.2620529"><ele>415.0</ele><time>2026-04-05T14:55:08.64Z</time></trkpt><trkpt lat="45.6418826" lon="8.2619911"><ele>416.8</ele><time>2026-04-05T14:55:09.642Z</time></trkpt><trkpt lat="45.6419863" lon="8.2619337"><ele>418.6</ele><time>2026-04-05T14:55:10.634Z</time></trkpt><trkpt lat="45.6420943" lon="8.2618968"><ele>420.4</ele><time>2026-04-05T14:55:11.646Z</time></trkpt><trkpt lat="45.6422027" lon="8.2618692"><ele>422.2</ele><time>2026-04-05T14:55:12.645Z</time></trkpt><trkpt lat="45.642298" lon="8.2618335"><ele>424.0</ele><time>2026-04-05T14:55:13.636Z</time></trkpt><trkpt lat="45.642379" lon="8.2617839"><ele>424.0</ele><time>2026-04-05T14:55:14.646Z</time></trkpt><trkpt lat="45.6424468" lon="8.2617093"><ele>424.0</ele><time>2026-04-05T14:55:15.64Z</time></trkpt><trkpt lat="45.6425002" lon="8.2615926"><ele>424.0</ele><time>2026-04-05T14:55:16.639Z</time></trkpt><trkpt lat="45.6425553" lon="8.2614547"><ele>424.0</ele><time>2026-04-05T14:55:17.648Z</time></trkpt><trkpt lat="45.6426253" lon="8.2613376"><ele>424.0</ele><time>2026-04-05T14:55:18.636Z</time></trkpt><trkpt lat="45.6427096" lon="8.261259"><ele>422.83333333333337</ele><time>2026-04-05T14:55:19.647Z</time></trkpt><trkpt lat="45.6427976" lon="8.2612088"><ele>421.6666666666667</ele><time>2026-04-05T14:55:20.645Z</time></trkpt><trkpt lat="45.6428758" lon="8.2611523"><ele>420.5</ele><time>2026-04-05T14:55:21.645Z</time></trkpt><trkpt lat="45.6429444" lon="8.2610842"><ele>419.33333333333337</ele><time>2026-04-05T14:55:22.642Z</time></trkpt><trkpt lat="45.6430031" lon="8.2610095"><ele>418.1666666666667</ele><time>2026-04-05T14:55:23.647Z</time></trkpt><trkpt lat="45.6430605" lon="8.2609577"><ele>417.0</ele><time>2026-04-05T14:55:24.647Z</time></trkpt><trkpt lat="45.6431691" lon="8.260956"><ele>418.1666666666667</ele><time>2026-04-05T14:55:26.639Z</time></trkpt><trkpt lat="45.6432787" lon="8.2609767"><ele>419.33333333333337</ele><time>2026-04-05T14:55:28.644Z</time></trkpt><trkpt lat="45.6433861" lon="8.2608916"><ele>420.5</ele><time>2026-04-05T14:55:30.639Z</time></trkpt><trkpt lat="45.6434333" lon="8.2608166"><ele>421.6666666666667</ele><time>2026-04-05T14:55:31.648Z</time></trkpt><trkpt lat="45.6434634" lon="8.2607252"><ele>422.83333333333337</ele><time>2026-04-05T14:55:32.646Z</time></trkpt><trkpt lat="45.6434728" lon="8.2606243"><ele>424.0</ele><time>2026-04-05T14:55:33.648Z</time></trkpt><trkpt lat="45.6434778" lon="8.2605339"><ele>424.00000000000006</ele><time>2026-04-05T14:55:34.648Z</time></trkpt><trkpt lat="45.6435107" lon="8.2603816"><ele>424.0</ele><time>2026-04-05T14:55:36.644Z</time></trkpt><trkpt lat="45.6435468" lon="8.2603047"><ele>424.0</ele><time>2026-04-05T14:55:37.644Z</time></trkpt><trkpt lat="45.6435922" lon="8.260222"><ele>424.0</ele><time>2026-04-05T14:55:38.646Z</time></trkpt><trkpt lat="45.6436426" lon="8.2601337"><ele>424.00000000000006</ele><time>2026-04-05T14:55:39.649Z</time></trkpt><trkpt lat="45.643694" lon="8.2600419"><ele>424.0</ele><time>2026-04-05T14:55:40.637Z</time></trkpt><trkpt lat="45.6437525" lon="8.2599561"><ele>424.33333333333337</ele><time>2026-04-05T14:55:41.643Z</time></trkpt><trkpt lat="45.6438144" lon="8.2598778"><ele>424.6666666666667</ele><time>2026-04-05T14:55:42.641Z</time></trkpt><trkpt lat="45.6438762" lon="8.2598073"><ele>425.0</ele><time>2026-04-05T14:55:43.648Z</time></trkpt><trkpt lat="45.6439381" lon="8.259746"><ele>425.33333333333337</ele><time>2026-04-05T14:55:44.643Z</time></trkpt><trkpt lat="45.6440081" lon="8.2596907"><ele>425.6666666666667</ele><time>2026-04-05T14:55:45.646Z</time></trkpt><trkpt lat="45.6440828" lon="8.2596481"><ele>426.0</ele><time>2026-04-05T14:55:46.653Z</time></trkpt><trkpt lat="45.6441635" lon="8.259602"><ele>425.3333333333333</ele><time>2026-04-05T14:55:47.64Z</time></trkpt><trkpt lat="45.6442436" lon="8.2595433"><ele>424.66666666666663</ele><time>2026-04-05T14:55:48.649Z</time></trkpt><trkpt lat="45.6443223" lon="8.2594813"><ele>424.0</ele><time>2026-04-05T14:55:49.65Z</time></trkpt><trkpt lat="45.6443933" lon="8.2594263"><ele>423.3333333333333</ele><time>2026-04-05T14:55:50.639Z</time></trkpt><trkpt lat="45.6444579" lon="8.259387"><ele>422.66666666666663</ele><time>2026-04-05T14:55:51.645Z</time></trkpt><trkpt lat="45.6445641" lon="8.2593647"><ele>422.0</ele><time>2026-04-05T14:55:53.646Z</time></trkpt><trkpt lat="45.6446323" lon="8.2593926"><ele>426.99999999999994</ele><time>2026-04-05T14:55:56.654Z</time></trkpt><trkpt lat="45.6447094" lon="8.259395"><ele>432.0</ele><time>2026-04-05T14:55:59.64Z</time></trkpt><trkpt lat="45.6447789" lon="8.259397"><ele>437.0</ele><time>2026-04-05T14:56:01.639Z</time></trkpt><trkpt lat="45.6448451" lon="8.2593727"><ele>442.0</ele><time>2026-04-05T14:56:03.613Z</time></trkpt><trkpt lat="45.6449186" lon="8.2592921"><ele>446.99999999999994</ele><time>2026-04-05T14:56:05.646Z</time></trkpt><trkpt lat="45.6450078" lon="8.2592496"><ele>452.0</ele><time>2026-04-05T14:56:07.642Z</time></trkpt><trkpt lat="45.645112" lon="8.2592394"><ele>452.0</ele><time>2026-04-05T14:56:09.644Z</time></trkpt><trkpt lat="45.6452373" lon="8.2591926"><ele>452.00000000000006</ele><time>2026-04-05T14:56:11.645Z</time></trkpt><trkpt lat="45.645306" lon="8.2591363"><ele>452.00000000000006</ele><time>2026-04-05T14:56:12.644Z</time></trkpt><trkpt lat="45.6453764" lon="8.259067"><ele>452.0</ele><time>2026-04-05T14:56:13.652Z</time></trkpt><trkpt lat="45.6454517" lon="8.2590037"><ele>452.0</ele><time>2026-04-05T14:56:14.643Z</time></trkpt><trkpt lat="45.6455431" lon="8.2589493"><ele>449.40000000000003</ele><time>2026-04-05T14:56:15.64Z</time></trkpt><trkpt lat="45.6456397" lon="8.2589101"><ele>446.80000000000007</ele><time>2026-04-05T14:56:16.644Z</time></trkpt><trkpt lat="45.6457407" lon="8.2588855"><ele>444.2</ele><time>2026-04-05T14:56:17.647Z</time></trkpt><trkpt lat="45.6458447" lon="8.2588722"><ele>441.6</ele><time>2026-04-05T14:56:18.638Z</time></trkpt><trkpt lat="45.6459509" lon="8.2588734"><ele>439.0</ele><time>2026-04-05T14:56:19.649Z</time></trkpt><trkpt lat="45.6460388" lon="8.2588641"><ele>439.00000000000006</ele><time>2026-04-05T14:56:20.644Z</time></trkpt><trkpt lat="45.6461223" lon="8.2588407"><ele>439.0</ele><time>2026-04-05T14:56:21.638Z</time></trkpt><trkpt lat="45.6462024" lon="8.2588185"><ele>439.0</ele><time>2026-04-05T14:56:22.649Z</time></trkpt><trkpt lat="45.6462804" lon="8.2588119"><ele>439.0</ele><time>2026-04-05T14:56:23.643Z</time></trkpt><trkpt lat="45.6463475" lon="8.2588154"><ele>439.00000000000006</ele><time>2026-04-05T14:56:24.649Z</time></trkpt><trkpt lat="45.6464612" lon="8.2588702"><ele>439.0</ele><time>2026-04-05T14:56:26.634Z</time></trkpt><trkpt lat="45.6465645" lon="8.2589449"><ele>439.79999999999995</ele><time>2026-04-05T14:56:28.649Z</time></trkpt><trkpt lat="45.6466698" lon="8.2589797"><ele>440.59999999999997</ele><time>2026-04-05T14:56:30.639Z</time></trkpt><trkpt lat="45.6467934" lon="8.2589518"><ele>441.4</ele><time>2026-04-05T14:56:32.643Z</time></trkpt><trkpt lat="45.6468672" lon="8.2589379"><ele>442.2</ele><time>2026-04-05T14:56:33.637Z</time></trkpt><trkpt lat="45.6469833" lon="8.2589547"><ele>443.0</ele><time>2026-04-05T14:56:35.643Z</time></trkpt><trkpt lat="45.6471002" lon="8.2589577"><ele>443.66666666666663</ele><time>2026-04-05T14:56:37.645Z</time></trkpt><trkpt lat="45.647168" lon="8.2589424"><ele>444.3333333333333</ele><time>2026-04-05T14:56:38.644Z</time></trkpt><trkpt lat="45.6472457" lon="8.2589193"><ele>445.0</ele><time>2026-04-05T14:56:39.636Z</time></trkpt><trkpt lat="45.6473353" lon="8.2588818"><ele>445.66666666666663</ele><time>2026-04-05T14:56:40.648Z</time></trkpt><trkpt lat="45.6474347" lon="8.2588419"><ele>446.3333333333333</ele><time>2026-04-05T14:56:41.648Z</time></trkpt><trkpt lat="45.6475364" lon="8.258808"><ele>447.0</ele><time>2026-04-05T14:56:42.645Z</time></trkpt><trkpt lat="45.6476351" lon="8.2587889"><ele>447.0</ele><time>2026-04-05T14:56:43.641Z</time></trkpt><trkpt lat="45.6477332" lon="8.258794"><ele>447.00000000000006</ele><time>2026-04-05T14:56:44.652Z</time></trkpt><trkpt lat="45.6478301" lon="8.2588128"><ele>447.00000000000006</ele><time>2026-04-05T14:56:45.642Z</time></trkpt><trkpt lat="45.6479388" lon="8.2588471"><ele>447.0</ele><time>2026-04-05T14:56:46.647Z</time></trkpt><trkpt lat="45.6480453" lon="8.2588823"><ele>447.0</ele><time>2026-04-05T14:56:47.64Z</time></trkpt><trkpt lat="45.6481494" lon="8.258908"><ele>448.8</ele><time>2026-04-05T14:56:48.645Z</time></trkpt><trkpt lat="45.6482417" lon="8.2589108"><ele>450.6</ele><time>2026-04-05T14:56:49.629Z</time></trkpt><trkpt lat="45.6483285" lon="8.2588777"><ele>452.40000000000003</ele><time>2026-04-05T14:56:50.635Z</time></trkpt><trkpt lat="45.6484121" lon="8.2588256"><ele>454.20000000000005</ele><time>2026-04-05T14:56:51.631Z</time></trkpt><trkpt lat="45.6485027" lon="8.258783"><ele>456.0</ele><time>2026-04-05T14:56:52.637Z</time></trkpt><trkpt lat="45.6485968" lon="8.2587611"><ele>454.5</ele><time>2026-04-05T14:56:53.638Z</time></trkpt><trkpt lat="45.6486901" lon="8.25875"><ele>453.0</ele><time>2026-04-05T14:56:54.642Z</time></trkpt><trkpt lat="45.6488062" lon="8.2587378"><ele>451.5</ele><time>2026-04-05T14:56:55.647Z</time></trkpt><trkpt lat="45.6489491" lon="8.2587243"><ele>450.0</ele><time>2026-04-05T14:56:56.65Z</time></trkpt><trkpt lat="45.64908" lon="8.2587104"><ele>450.0</ele><time>2026-04-05T14:56:57.633Z</time></trkpt><trkpt lat="45.6491937" lon="8.2586989"><ele>450.0</ele><time>2026-04-05T14:56:58.643Z</time></trkpt><trkpt lat="45.6492926" lon="8.2586689"><ele>450.0</ele><time>2026-04-05T14:56:59.643Z</time></trkpt><trkpt lat="45.6493995" lon="8.2586144"><ele>450.0</ele><time>2026-04-05T14:57:00.639Z</time></trkpt><trkpt lat="45.6495069" lon="8.2585486"><ele>450.0</ele><time>2026-04-05T14:57:01.645Z</time></trkpt><trkpt lat="45.6496075" lon="8.2585091"><ele>449.4</ele><time>2026-04-05T14:57:02.638Z</time></trkpt><trkpt lat="45.6497079" lon="8.2584918"><ele>448.8</ele><time>2026-04-05T14:57:03.651Z</time></trkpt><trkpt lat="45.6498021" lon="8.258509"><ele>448.20000000000005</ele><time>2026-04-05T14:57:04.645Z</time></trkpt><trkpt lat="45.649901" lon="8.2585459"><ele>447.6</ele><time>2026-04-05T14:57:05.654Z</time></trkpt><trkpt lat="45.6499973" lon="8.2585732"><ele>447.0</ele><time>2026-04-05T14:57:06.644Z</time></trkpt><trkpt lat="45.6501089" lon="8.2585829"><ele>447.0</ele><time>2026-04-05T14:57:07.641Z</time></trkpt><trkpt lat="45.6502106" lon="8.258584"><ele>447.0</ele><time>2026-04-05T14:57:08.643Z</time></trkpt><trkpt lat="45.6502982" lon="8.2585863"><ele>447.0</ele><time>2026-04-05T14:57:09.641Z</time></trkpt><trkpt lat="45.650372" lon="8.2585927"><ele>447.0</ele><time>2026-04-05T14:57:10.645Z</time></trkpt><trkpt lat="45.6504408" lon="8.2586121"><ele>447.0</ele><time>2026-04-05T14:57:11.634Z</time></trkpt><trkpt lat="45.6505154" lon="8.2586499"><ele>447.0</ele><time>2026-04-05T14:57:12.642Z</time></trkpt><trkpt lat="45.6505894" lon="8.2587083"><ele>446.20000000000005</ele><time>2026-04-05T14:57:13.648Z</time></trkpt><trkpt lat="45.650668" lon="8.2587788"><ele>445.40000000000003</ele><time>2026-04-05T14:57:14.639Z</time></trkpt><trkpt lat="45.6507471" lon="8.2588442"><ele>444.59999999999997</ele><time>2026-04-05T14:57:15.646Z</time></trkpt><trkpt lat="45.6508201" lon="8.2588887"><ele>443.79999999999995</ele><time>2026-04-05T14:57:16.64Z</time></trkpt><trkpt lat="45.650937" lon="8.2589003"><ele>443.0</ele><time>2026-04-05T14:57:18.649Z</time></trkpt><trkpt lat="45.6510242" lon="8.2588628"><ele>442.99999999999994</ele><time>2026-04-05T14:57:20.645Z</time></trkpt><trkpt lat="45.6510868" lon="8.2588349"><ele>443.0</ele><time>2026-04-05T14:57:22.642Z</time></trkpt><trkpt lat="45.6511656" lon="8.2587805"><ele>443.0</ele><time>2026-04-05T14:57:24.648Z</time></trkpt><trkpt lat="45.6512516" lon="8.2587763"><ele>443.0</ele><time>2026-04-05T14:57:26.642Z</time></trkpt><trkpt lat="45.6513334" lon="8.258853"><ele>442.99999999999994</ele><time>2026-04-05T14:57:28.64Z</time></trkpt><trkpt lat="45.6514078" lon="8.2589547"><ele>443.0</ele><time>2026-04-05T14:57:30.644Z</time></trkpt><trkpt lat="45.6515037" lon="8.2590114"><ele>443.3333333333333</ele><time>2026-04-05T14:57:32.638Z</time></trkpt><trkpt lat="45.6516" lon="8.2590314"><ele>443.66666666666663</ele><time>2026-04-05T14:57:34.632Z</time></trkpt><trkpt lat="45.6516923" lon="8.2590751"><ele>444.0</ele><time>2026-04-05T14:57:36.645Z</time></trkpt><trkpt lat="45.6517613" lon="8.2592147"><ele>444.33333333333337</ele><time>2026-04-05T14:57:38.641Z</time></trkpt><trkpt lat="45.6517903" lon="8.2592959"><ele>444.6666666666667</ele><time>2026-04-05T14:57:39.639Z</time></trkpt><trkpt lat="45.6518217" lon="8.2593787"><ele>445.0</ele><time>2026-04-05T14:57:40.637Z</time></trkpt><trkpt lat="45.6518641" lon="8.2594534"><ele>445.00000000000006</ele><time>2026-04-05T14:57:41.636Z</time></trkpt><trkpt lat="45.6519204" lon="8.2595126"><ele>445.0</ele><time>2026-04-05T14:57:42.646Z</time></trkpt><trkpt lat="45.6520077" lon="8.2596062"><ele>445.0</ele><time>2026-04-05T14:57:44.648Z</time></trkpt><trkpt lat="45.6520657" lon="8.2596921"><ele>445.0</ele><time>2026-04-05T14:57:46.639Z</time></trkpt><trkpt lat="45.6521316" lon="8.2597151"><ele>445.00000000000006</ele><time>2026-04-05T14:57:48.642Z</time></trkpt><trkpt lat="45.6522094" lon="8.259709"><ele>445.0</ele><time>2026-04-05T14:57:50.635Z</time></trkpt><trkpt lat="45.6522963" lon="8.2597076"><ele>444.33333333333337</ele><time>2026-04-05T14:57:52.642Z</time></trkpt><trkpt lat="45.6523851" lon="8.2597042"><ele>443.6666666666667</ele><time>2026-04-05T14:57:54.654Z</time></trkpt><trkpt lat="45.6524942" lon="8.2597015"><ele>443.0</ele><time>2026-04-05T14:57:56.642Z</time></trkpt><trkpt lat="45.6525588" lon="8.2597061"><ele>442.33333333333337</ele><time>2026-04-05T14:57:57.646Z</time></trkpt><trkpt lat="45.6526254" lon="8.2597192"><ele>441.6666666666667</ele><time>2026-04-05T14:57:58.645Z</time></trkpt><trkpt lat="45.6527222" lon="8.2597146"><ele>441.0</ele><time>2026-04-05T14:58:00.639Z</time></trkpt><trkpt lat="45.6528224" lon="8.2596572"><ele>440.5</ele><time>2026-04-05T14:58:02.637Z</time></trkpt><trkpt lat="45.6528893" lon="8.2596203"><ele>440.0</ele><time>2026-04-05T14:58:03.644Z</time></trkpt><trkpt lat="45.6529635" lon="8.2595927"><ele>439.5</ele><time>2026-04-05T14:58:04.638Z</time></trkpt><trkpt lat="45.6530403" lon="8.2595803"><ele>439.0</ele><time>2026-04-05T14:58:05.645Z</time></trkpt><trkpt lat="45.6531086" lon="8.2595776"><ele>438.5</ele><time>2026-04-05T14:58:06.635Z</time></trkpt><trkpt lat="45.6532251" lon="8.259563"><ele>438.0</ele><time>2026-04-05T14:58:08.65Z</time></trkpt><trkpt lat="45.6533434" lon="8.2595392"><ele>438.0</ele><time>2026-04-05T14:58:10.645Z</time></trkpt><trkpt lat="45.6534546" lon="8.2595592"><ele>437.99999999999994</ele><time>2026-04-05T14:58:12.642Z</time></trkpt><trkpt lat="45.6535578" lon="8.2595789"><ele>437.99999999999994</ele><time>2026-04-05T14:58:14.638Z</time></trkpt><trkpt lat="45.6536782" lon="8.2595555"><ele>438.0</ele><time>2026-04-05T14:58:16.641Z</time></trkpt><trkpt lat="45.6537644" lon="8.2594812"><ele>438.0</ele><time>2026-04-05T14:58:18.638Z</time></trkpt><trkpt lat="45.653854" lon="8.2594018"><ele>435.79999999999995</ele><time>2026-04-05T14:58:20.648Z</time></trkpt><trkpt lat="45.6539522" lon="8.2593287"><ele>433.59999999999997</ele><time>2026-04-05T14:58:22.641Z</time></trkpt><trkpt lat="45.6540658" lon="8.2593255"><ele>431.40000000000003</ele><time>2026-04-05T14:58:24.651Z</time></trkpt><trkpt lat="45.6541657" lon="8.2593609"><ele>429.20000000000005</ele><time>2026-04-05T14:58:26.642Z</time></trkpt><trkpt lat="45.6542658" lon="8.2594007"><ele>427.0</ele><time>2026-04-05T14:58:28.639Z</time></trkpt><trkpt lat="45.6543366" lon="8.2594406"><ele>427.00000000000006</ele><time>2026-04-05T14:58:30.64Z</time></trkpt><trkpt lat="45.6543878" lon="8.2595549"><ele>427.0</ele><time>2026-04-05T14:58:33.637Z</time></trkpt><trkpt lat="45.6544022" lon="8.2597212"><ele>427.0</ele><time>2026-04-05T14:58:35.648Z</time></trkpt><trkpt lat="45.6543959" lon="8.2598154"><ele>427.0</ele><time>2026-04-05T14:58:36.636Z</time></trkpt><trkpt lat="45.6543706" lon="8.2599061"><ele>427.00000000000006</ele><time>2026-04-05T14:58:37.643Z</time></trkpt><trkpt lat="45.6543301" lon="8.2599832"><ele>427.0</ele><time>2026-04-05T14:58:38.641Z</time></trkpt><trkpt lat="45.6542772" lon="8.2600443"><ele>426.00000000000006</ele><time>2026-04-05T14:58:39.641Z</time></trkpt><trkpt lat="45.6542065" lon="8.2601235"><ele>425.0</ele><time>2026-04-05T14:58:41.644Z</time></trkpt><trkpt lat="45.6543046" lon="8.2601579"><ele>424.0</ele><time>2026-04-05T14:58:45.631Z</time></trkpt><trkpt lat="45.6543764" lon="8.2601537"><ele>423.0</ele><time>2026-04-05T14:58:46.641Z</time></trkpt><trkpt lat="45.654445" lon="8.2601665"><ele>422.00000000000006</ele><time>2026-04-05T14:58:47.635Z</time></trkpt><trkpt lat="45.6545148" lon="8.2602669"><ele>421.0</ele><time>2026-04-05T14:58:48.638Z</time></trkpt><trkpt lat="45.6545765" lon="8.2603963"><ele>421.20000000000005</ele><time>2026-04-05T14:58:49.648Z</time></trkpt><trkpt lat="45.6546276" lon="8.2605351"><ele>421.40000000000003</ele><time>2026-04-05T14:58:50.631Z</time></trkpt><trkpt lat="45.654677" lon="8.2606801"><ele>421.6</ele><time>2026-04-05T14:58:51.646Z</time></trkpt><trkpt lat="45.6547212" lon="8.2608194"><ele>421.8</ele><time>2026-04-05T14:58:52.645Z</time></trkpt><trkpt lat="45.6547621" lon="8.2609517"><ele>422.0</ele><time>2026-04-05T14:58:53.639Z</time></trkpt><trkpt lat="45.6548007" lon="8.2610767"><ele>421.99999999999994</ele><time>2026-04-05T14:58:54.647Z</time></trkpt><trkpt lat="45.6548402" lon="8.2611928"><ele>422.0</ele><time>2026-04-05T14:58:55.638Z</time></trkpt><trkpt lat="45.6548847" lon="8.2613026"><ele>422.0</ele><time>2026-04-05T14:58:56.652Z</time></trkpt><trkpt lat="45.6549354" lon="8.2614026"><ele>422.0</ele><time>2026-04-05T14:58:57.642Z</time></trkpt><trkpt lat="45.6549851" lon="8.2614946"><ele>421.99999999999994</ele><time>2026-04-05T14:58:58.645Z</time></trkpt><trkpt lat="45.6550274" lon="8.2615837"><ele>422.0</ele><time>2026-04-05T14:58:59.647Z</time></trkpt><trkpt lat="45.6550655" lon="8.2616795"><ele>419.66666666666663</ele><time>2026-04-05T14:59:00.648Z</time></trkpt><trkpt lat="45.6550934" lon="8.2617814"><ele>417.3333333333333</ele><time>2026-04-05T14:59:01.636Z</time></trkpt><trkpt lat="45.6550977" lon="8.2618899"><ele>415.0</ele><time>2026-04-05T14:59:02.64Z</time></trkpt><trkpt lat="45.655073" lon="8.2619936"><ele>412.66666666666663</ele><time>2026-04-05T14:59:03.643Z</time></trkpt><trkpt lat="45.655032" lon="8.2620941"><ele>410.3333333333333</ele><time>2026-04-05T14:59:04.641Z</time></trkpt><trkpt lat="45.6549788" lon="8.2621865"><ele>408.0</ele><time>2026-04-05T14:59:05.64Z</time></trkpt><trkpt lat="45.6549282" lon="8.2622821"><ele>407.6666666666667</ele><time>2026-04-05T14:59:06.646Z</time></trkpt><trkpt lat="45.6548836" lon="8.2623843"><ele>407.33333333333337</ele><time>2026-04-05T14:59:07.646Z</time></trkpt><trkpt lat="45.6548434" lon="8.262488"><ele>407.0</ele><time>2026-04-05T14:59:08.641Z</time></trkpt><trkpt lat="45.6548126" lon="8.2625933"><ele>406.6666666666667</ele><time>2026-04-05T14:59:09.648Z</time></trkpt><trkpt lat="45.6547894" lon="8.2626937"><ele>406.33333333333337</ele><time>2026-04-05T14:59:10.638Z</time></trkpt><trkpt lat="45.6547765" lon="8.2627954"><ele>406.0</ele><time>2026-04-05T14:59:11.651Z</time></trkpt><trkpt lat="45.6547836" lon="8.262891"><ele>406.00000000000006</ele><time>2026-04-05T14:59:12.647Z</time></trkpt><trkpt lat="45.6548034" lon="8.2629769"><ele>406.0</ele><time>2026-04-05T14:59:13.648Z</time></trkpt><trkpt lat="45.654835" lon="8.2630732"><ele>406.0</ele><time>2026-04-05T14:59:14.647Z</time></trkpt><trkpt lat="45.6548867" lon="8.2631705"><ele>406.0</ele><time>2026-04-05T14:59:15.641Z</time></trkpt><trkpt lat="45.6549397" lon="8.2632732"><ele>406.00000000000006</ele><time>2026-04-05T14:59:16.642Z</time></trkpt><trkpt lat="45.6549867" lon="8.2633901"><ele>406.0</ele><time>2026-04-05T14:59:17.646Z</time></trkpt><trkpt lat="45.6550283" lon="8.2635165"><ele>405.6666666666667</ele><time>2026-04-05T14:59:18.635Z</time></trkpt><trkpt lat="45.6550622" lon="8.2636513"><ele>405.33333333333337</ele><time>2026-04-05T14:59:19.643Z</time></trkpt><trkpt lat="45.6550891" lon="8.2637763"><ele>405.0</ele><time>2026-04-05T14:59:20.647Z</time></trkpt><trkpt lat="45.6551209" lon="8.2638885"><ele>404.66666666666663</ele><time>2026-04-05T14:59:21.652Z</time></trkpt><trkpt lat="45.6551513" lon="8.2639907"><ele>404.3333333333333</ele><time>2026-04-05T14:59:22.639Z</time></trkpt><trkpt lat="45.6551826" lon="8.2640841"><ele>404.0</ele><time>2026-04-05T14:59:23.644Z</time></trkpt><trkpt lat="45.6552148" lon="8.2641692"><ele>404.66666666666663</ele><time>2026-04-05T14:59:24.642Z</time></trkpt><trkpt lat="45.6552484" lon="8.2642526"><ele>405.3333333333333</ele><time>2026-04-05T14:59:25.651Z</time></trkpt><trkpt lat="45.6552774" lon="8.2643368"><ele>406.0</ele><time>2026-04-05T14:59:26.635Z</time></trkpt><trkpt lat="45.6552962" lon="8.2644238"><ele>406.66666666666663</ele><time>2026-04-05T14:59:27.646Z</time></trkpt><trkpt lat="45.655297" lon="8.2645959"><ele>407.3333333333333</ele><time>2026-04-05T14:59:29.638Z</time></trkpt><trkpt lat="45.6552731" lon="8.2646813"><ele>408.0</ele><time>2026-04-05T14:59:30.644Z</time></trkpt><trkpt lat="45.6552355" lon="8.2647732"><ele>405.3333333333333</ele><time>2026-04-05T14:59:31.64Z</time></trkpt><trkpt lat="45.6551967" lon="8.2648691"><ele>402.66666666666663</ele><time>2026-04-05T14:59:32.643Z</time></trkpt><trkpt lat="45.6551597" lon="8.2649739"><ele>400.0</ele><time>2026-04-05T14:59:33.646Z</time></trkpt><trkpt lat="45.6551291" lon="8.2650811"><ele>397.3333333333333</ele><time>2026-04-05T14:59:34.639Z</time></trkpt><trkpt lat="45.6551132" lon="8.2651897"><ele>394.66666666666663</ele><time>2026-04-05T14:59:35.649Z</time></trkpt><trkpt lat="45.6551176" lon="8.265293"><ele>392.0</ele><time>2026-04-05T14:59:36.649Z</time></trkpt><trkpt lat="45.6551324" lon="8.2653894"><ele>392.0</ele><time>2026-04-05T14:59:37.647Z</time></trkpt><trkpt lat="45.6551337" lon="8.2654889"><ele>392.0</ele><time>2026-04-05T14:59:38.642Z</time></trkpt><trkpt lat="45.6551235" lon="8.2655897"><ele>392.0</ele><time>2026-04-05T14:59:39.65Z</time></trkpt><trkpt lat="45.6550991" lon="8.2656886"><ele>392.0</ele><time>2026-04-05T14:59:40.645Z</time></trkpt><trkpt lat="45.6550817" lon="8.2657913"><ele>392.0</ele><time>2026-04-05T14:59:41.645Z</time></trkpt><trkpt lat="45.6550787" lon="8.2658889"><ele>392.0</ele><time>2026-04-05T14:59:42.637Z</time></trkpt><trkpt lat="45.6550964" lon="8.2659826"><ele>392.0</ele><time>2026-04-05T14:59:43.648Z</time></trkpt><trkpt lat="45.6551285" lon="8.2660826"><ele>391.8333333333333</ele><time>2026-04-05T14:59:44.648Z</time></trkpt><trkpt lat="45.655173" lon="8.2661831"><ele>391.66666666666663</ele><time>2026-04-05T14:59:45.644Z</time></trkpt><trkpt lat="45.6552238" lon="8.2662701"><ele>391.5</ele><time>2026-04-05T14:59:46.639Z</time></trkpt><trkpt lat="45.6552692" lon="8.2663597"><ele>391.33333333333337</ele><time>2026-04-05T14:59:47.641Z</time></trkpt><trkpt lat="45.6553058" lon="8.266451"><ele>391.1666666666667</ele><time>2026-04-05T14:59:48.641Z</time></trkpt><trkpt lat="45.6553345" lon="8.2665444"><ele>391.0</ele><time>2026-04-05T14:59:49.644Z</time></trkpt><trkpt lat="45.6553424" lon="8.2666997"><ele>391.20000000000005</ele><time>2026-04-05T14:59:51.644Z</time></trkpt><trkpt lat="45.6552635" lon="8.2668065"><ele>391.40000000000003</ele><time>2026-04-05T14:59:53.641Z</time></trkpt><trkpt lat="45.6551839" lon="8.2667916"><ele>391.6</ele><time>2026-04-05T14:59:54.643Z</time></trkpt><trkpt lat="45.6550976" lon="8.2667487"><ele>391.8</ele><time>2026-04-05T14:59:55.648Z</time></trkpt><trkpt lat="45.6549984" lon="8.2666986"><ele>392.0</ele><time>2026-04-05T14:59:56.636Z</time></trkpt><trkpt lat="45.6548907" lon="8.2666416"><ele>392.0</ele><time>2026-04-05T14:59:57.642Z</time></trkpt><trkpt lat="45.654752" lon="8.266564"><ele>392.0</ele><time>2026-04-05T14:59:58.633Z</time></trkpt><trkpt lat="45.6545965" lon="8.2664827"><ele>392.0</ele><time>2026-04-05T14:59:59.652Z</time></trkpt><trkpt lat="45.6544475" lon="8.26641"><ele>391.20000000000005</ele><time>2026-04-05T15:00:00.644Z</time></trkpt><trkpt lat="45.6543189" lon="8.2663351"><ele>390.4</ele><time>2026-04-05T15:00:01.639Z</time></trkpt><trkpt lat="45.6542172" lon="8.2662752"><ele>389.6</ele><time>2026-04-05T15:00:02.64Z</time></trkpt><trkpt lat="45.6541324" lon="8.2662438"><ele>388.79999999999995</ele><time>2026-04-05T15:00:03.637Z</time></trkpt><trkpt lat="45.6540593" lon="8.2662373"><ele>388.0</ele><time>2026-04-05T15:00:04.647Z</time></trkpt><trkpt lat="45.653963" lon="8.2662816"><ele>388.00000000000006</ele><time>2026-04-05T15:00:06.64Z</time></trkpt><trkpt lat="45.6539563" lon="8.2664026"><ele>388.0</ele><time>2026-04-05T15:00:09.649Z</time></trkpt><trkpt lat="45.654027" lon="8.2665235"><ele>388.0</ele><time>2026-04-05T15:00:11.642Z</time></trkpt><trkpt lat="45.6540803" lon="8.2665889"><ele>388.0</ele><time>2026-04-05T15:00:12.646Z</time></trkpt><trkpt lat="45.6541355" lon="8.2666411"><ele>388.00000000000006</ele><time>2026-04-05T15:00:13.635Z</time></trkpt><trkpt lat="45.6542053" lon="8.266683"><ele>388.0</ele><time>2026-04-05T15:00:14.64Z</time></trkpt><trkpt lat="45.6542844" lon="8.2667276"><ele>388.79999999999995</ele><time>2026-04-05T15:00:15.644Z</time></trkpt><trkpt lat="45.6543698" lon="8.2667807"><ele>389.6</ele><time>2026-04-05T15:00:16.644Z</time></trkpt><trkpt lat="45.6544663" lon="8.2668415"><ele>390.4</ele><time>2026-04-05T15:00:17.648Z</time></trkpt><trkpt lat="45.6545682" lon="8.2668982"><ele>391.20000000000005</ele><time>2026-04-05T15:00:18.634Z</time></trkpt><trkpt lat="45.6546763" lon="8.2669547"><ele>392.0</ele><time>2026-04-05T15:00:19.648Z</time></trkpt><trkpt lat="45.6547774" lon="8.2670127"><ele>392.0</ele><time>2026-04-05T15:00:20.648Z</time></trkpt><trkpt lat="45.6548663" lon="8.267086"><ele>392.0</ele><time>2026-04-05T15:00:21.644Z</time></trkpt><trkpt lat="45.6549433" lon="8.2671863"><ele>392.0</ele><time>2026-04-05T15:00:22.643Z</time></trkpt><trkpt lat="45.6550084" lon="8.2673053"><ele>392.0</ele><time>2026-04-05T15:00:23.636Z</time></trkpt><trkpt lat="45.6550589" lon="8.2674368"><ele>392.0</ele><time>2026-04-05T15:00:24.644Z</time></trkpt><trkpt lat="45.6550966" lon="8.2675664"><ele>393.99999999999994</ele><time>2026-04-05T15:00:25.64Z</time></trkpt><trkpt lat="45.6551328" lon="8.2676831"><ele>396.0</ele><time>2026-04-05T15:00:26.646Z</time></trkpt><trkpt lat="45.655161" lon="8.2677833"><ele>398.0</ele><time>2026-04-05T15:00:27.648Z</time></trkpt><trkpt lat="45.6551627" lon="8.2678853"><ele>400.0</ele><time>2026-04-05T15:00:28.64Z</time></trkpt><trkpt lat="45.6551624" lon="8.2679947"><ele>401.99999999999994</ele><time>2026-04-05T15:00:29.648Z</time></trkpt><trkpt lat="45.6551398" lon="8.268096"><ele>404.0</ele><time>2026-04-05T15:00:30.64Z</time></trkpt><trkpt lat="45.6551062" lon="8.2681877"><ele>404.99999999999994</ele><time>2026-04-05T15:00:31.646Z</time></trkpt><trkpt lat="45.6550662" lon="8.2682651"><ele>406.0</ele><time>2026-04-05T15:00:32.648Z</time></trkpt><trkpt lat="45.6550006" lon="8.2683714"><ele>407.0</ele><time>2026-04-05T15:00:34.649Z</time></trkpt><trkpt lat="45.6549905" lon="8.2685234"><ele>408.0</ele><time>2026-04-05T15:00:41.643Z</time></trkpt><trkpt lat="45.6549859" lon="8.268616"><ele>408.99999999999994</ele><time>2026-04-05T15:00:42.638Z</time></trkpt><trkpt lat="45.6549706" lon="8.2687059"><ele>410.0</ele><time>2026-04-05T15:00:43.647Z</time></trkpt><trkpt lat="45.6549553" lon="8.2688058"><ele>409.99999999999994</ele><time>2026-04-05T15:00:44.649Z</time></trkpt><trkpt lat="45.6549617" lon="8.268918"><ele>410.0</ele><time>2026-04-05T15:00:45.642Z</time></trkpt><trkpt lat="45.6549677" lon="8.2690279"><ele>410.0</ele><time>2026-04-05T15:00:46.641Z</time></trkpt><trkpt lat="45.6549735" lon="8.2691286"><ele>410.0</ele><time>2026-04-05T15:00:47.64Z</time></trkpt><trkpt lat="45.6549846" lon="8.269218"><ele>409.99999999999994</ele><time>2026-04-05T15:00:48.641Z</time></trkpt><trkpt lat="45.6549918" lon="8.2694001"><ele>410.0</ele><time>2026-04-05T15:00:50.636Z</time></trkpt><trkpt lat="45.6549953" lon="8.2695015"><ele>410.3333333333333</ele><time>2026-04-05T15:00:51.647Z</time></trkpt><trkpt lat="45.6549878" lon="8.269666"><ele>410.66666666666663</ele><time>2026-04-05T15:00:53.641Z</time></trkpt><trkpt lat="45.6549521" lon="8.2698373"><ele>411.0</ele><time>2026-04-05T15:00:55.638Z</time></trkpt><trkpt lat="45.6549542" lon="8.2699307"><ele>411.33333333333337</ele><time>2026-04-05T15:00:56.642Z</time></trkpt><trkpt lat="45.6549372" lon="8.2700258"><ele>411.6666666666667</ele><time>2026-04-05T15:00:57.638Z</time></trkpt><trkpt lat="45.6549275" lon="8.2701221"><ele>412.0</ele><time>2026-04-05T15:00:58.651Z</time></trkpt><trkpt lat="45.6549233" lon="8.2702189"><ele>412.0</ele><time>2026-04-05T15:00:59.634Z</time></trkpt><trkpt lat="45.6549256" lon="8.2703191"><ele>412.0</ele><time>2026-04-05T15:01:00.641Z</time></trkpt><trkpt lat="45.6549189" lon="8.2704135"><ele>412.0</ele><time>2026-04-05T15:01:01.64Z</time></trkpt><trkpt lat="45.6549017" lon="8.2705878"><ele>412.0</ele><time>2026-04-05T15:01:03.643Z</time></trkpt><trkpt lat="45.6549024" lon="8.2707542"><ele>412.0</ele><time>2026-04-05T15:01:05.635Z</time></trkpt><trkpt lat="45.6549512" lon="8.2709075"><ele>411.00000000000006</ele><time>2026-04-05T15:01:07.644Z</time></trkpt><trkpt lat="45.6550014" lon="8.2709667"><ele>410.0</ele><time>2026-04-05T15:01:08.645Z</time></trkpt><trkpt lat="45.6550602" lon="8.2710174"><ele>409.0</ele><time>2026-04-05T15:01:09.648Z</time></trkpt><trkpt lat="45.6551129" lon="8.2710797"><ele>408.0</ele><time>2026-04-05T15:01:10.644Z</time></trkpt><trkpt lat="45.655125" lon="8.271264"><ele>407.00000000000006</ele><time>2026-04-05T15:01:12.641Z</time></trkpt><trkpt lat="45.6551024" lon="8.2713485"><ele>406.0</ele><time>2026-04-05T15:01:13.646Z</time></trkpt><trkpt lat="45.6550554" lon="8.2714962"><ele>405.6666666666667</ele><time>2026-04-05T15:01:15.648Z</time></trkpt><trkpt lat="45.6550239" lon="8.2716576"><ele>405.33333333333337</ele><time>2026-04-05T15:01:17.645Z</time></trkpt><trkpt lat="45.655012" lon="8.2717471"><ele>405.0</ele><time>2026-04-05T15:01:18.645Z</time></trkpt><trkpt lat="45.6549897" lon="8.2718453"><ele>404.66666666666663</ele><time>2026-04-05T15:01:19.636Z</time></trkpt><trkpt lat="45.654957" lon="8.2719459"><ele>404.3333333333333</ele><time>2026-04-05T15:01:20.648Z</time></trkpt><trkpt lat="45.6549183" lon="8.2720495"><ele>404.0</ele><time>2026-04-05T15:01:21.644Z</time></trkpt><trkpt lat="45.6548771" lon="8.2721496"><ele>403.99999999999994</ele><time>2026-04-05T15:01:22.648Z</time></trkpt><trkpt lat="45.6548483" lon="8.2722418"><ele>404.0</ele><time>2026-04-05T15:01:23.644Z</time></trkpt><trkpt lat="45.6548239" lon="8.2723262"><ele>404.0</ele><time>2026-04-05T15:01:24.643Z</time></trkpt><trkpt lat="45.6547999" lon="8.272466"><ele>404.0</ele><time>2026-04-05T15:01:26.644Z</time></trkpt><trkpt lat="45.6548365" lon="8.2725784"><ele>403.99999999999994</ele><time>2026-04-05T15:01:28.638Z</time></trkpt><trkpt lat="45.6549383" lon="8.2726779"><ele>404.0</ele><time>2026-04-05T15:01:30.642Z</time></trkpt><trkpt lat="45.655007" lon="8.2727385"><ele>405.2</ele><time>2026-04-05T15:01:31.647Z</time></trkpt><trkpt lat="45.6550601" lon="8.2728237"><ele>406.4</ele><time>2026-04-05T15:01:32.649Z</time></trkpt><trkpt lat="45.6550849" lon="8.2729341"><ele>407.6</ele><time>2026-04-05T15:01:33.65Z</time></trkpt><trkpt lat="45.65509" lon="8.2730565"><ele>408.8</ele><time>2026-04-05T15:01:34.649Z</time></trkpt><trkpt lat="45.6550726" lon="8.273207"><ele>410.0</ele><time>2026-04-05T15:01:35.636Z</time></trkpt><trkpt lat="45.6550537" lon="8.2733617"><ele>410.66666666666663</ele><time>2026-04-05T15:01:36.648Z</time></trkpt><trkpt lat="45.655051" lon="8.2734907"><ele>411.3333333333333</ele><time>2026-04-05T15:01:37.648Z</time></trkpt><trkpt lat="45.6550697" lon="8.2736076"><ele>412.0</ele><time>2026-04-05T15:01:38.642Z</time></trkpt><trkpt lat="45.6551096" lon="8.2737299"><ele>412.66666666666663</ele><time>2026-04-05T15:01:39.643Z</time></trkpt><trkpt lat="45.6551325" lon="8.2738522"><ele>413.3333333333333</ele><time>2026-04-05T15:01:40.648Z</time></trkpt><trkpt lat="45.6551411" lon="8.2739768"><ele>414.0</ele><time>2026-04-05T15:01:41.642Z</time></trkpt><trkpt lat="45.6551377" lon="8.2741115"><ele>414.79999999999995</ele><time>2026-04-05T15:01:42.643Z</time></trkpt><trkpt lat="45.655104" lon="8.2742855"><ele>415.59999999999997</ele><time>2026-04-05T15:01:43.642Z</time></trkpt><trkpt lat="45.6550745" lon="8.2744554"><ele>416.4</ele><time>2026-04-05T15:01:44.649Z</time></trkpt><trkpt lat="45.655054" lon="8.2745973"><ele>417.2</ele><time>2026-04-05T15:01:45.647Z</time></trkpt><trkpt lat="45.6550446" lon="8.2747105"><ele>418.0</ele><time>2026-04-05T15:01:46.64Z</time></trkpt><trkpt lat="45.6550405" lon="8.2748593"><ele>419.6666666666667</ele><time>2026-04-05T15:01:48.651Z</time></trkpt><trkpt lat="45.6550607" lon="8.2749671"><ele>421.33333333333337</ele><time>2026-04-05T15:01:51.641Z</time></trkpt><trkpt lat="45.6550794" lon="8.2750799"><ele>423.0</ele><time>2026-04-05T15:01:54.647Z</time></trkpt><trkpt lat="45.6550131" lon="8.2750843"><ele>424.66666666666663</ele><time>2026-04-05T15:02:04.646Z</time></trkpt><trkpt lat="45.6549811" lon="8.2749994"><ele>426.3333333333333</ele><time>2026-04-05T15:02:09.664Z</time></trkpt><trkpt lat="45.6549011" lon="8.2749689"><ele>428.0</ele><time>2026-04-05T15:02:12.637Z</time></trkpt><trkpt lat="45.6547818" lon="8.275"><ele>428.0</ele><time>2026-04-05T15:02:14.643Z</time></trkpt><trkpt lat="45.6547084" lon="8.2750124"><ele>427.99999999999994</ele><time>2026-04-05T15:02:15.648Z</time></trkpt><trkpt lat="45.6546206" lon="8.2750218"><ele>427.99999999999994</ele><time>2026-04-05T15:02:16.639Z</time></trkpt><trkpt lat="45.6545124" lon="8.2750296"><ele>428.0</ele><time>2026-04-05T15:02:17.643Z</time></trkpt><trkpt lat="45.6544056" lon="8.2750314"><ele>428.0</ele><time>2026-04-05T15:02:18.64Z</time></trkpt><trkpt lat="45.6543077" lon="8.2750369"><ele>427.66666666666663</ele><time>2026-04-05T15:02:19.646Z</time></trkpt><trkpt lat="45.6542232" lon="8.2750493"><ele>427.3333333333333</ele><time>2026-04-05T15:02:20.643Z</time></trkpt><trkpt lat="45.6541521" lon="8.2750726"><ele>427.0</ele><time>2026-04-05T15:02:21.647Z</time></trkpt><trkpt lat="45.6540821" lon="8.2751001"><ele>426.66666666666663</ele><time>2026-04-05T15:02:22.632Z</time></trkpt><trkpt lat="45.6539987" lon="8.2751369"><ele>426.3333333333333</ele><time>2026-04-05T15:02:23.641Z</time></trkpt><trkpt lat="45.6539122" lon="8.2751829"><ele>426.0</ele><time>2026-04-05T15:02:24.646Z</time></trkpt><trkpt lat="45.6538391" lon="8.2752269"><ele>426.0</ele><time>2026-04-05T15:02:25.642Z</time></trkpt><trkpt lat="45.6537801" lon="8.2752671"><ele>426.0</ele><time>2026-04-05T15:02:26.646Z</time></trkpt><trkpt lat="45.6537001" lon="8.2753151"><ele>426.0</ele><time>2026-04-05T15:02:28.639Z</time></trkpt><trkpt lat="45.6537357" lon="8.2751791"><ele>426.0</ele><time>2026-04-05T15:02:31.642Z</time></trkpt><trkpt lat="45.6537975" lon="8.2750898"><ele>426.0</ele><time>2026-04-05T15:02:32.646Z</time></trkpt><trkpt lat="45.6538559" lon="8.2749944"><ele>426.0</ele><time>2026-04-05T15:02:33.655Z</time></trkpt><trkpt lat="45.6539062" lon="8.2749029"><ele>423.0</ele><time>2026-04-05T15:02:34.649Z</time></trkpt><trkpt lat="45.6539528" lon="8.2747517"><ele>420.0</ele><time>2026-04-05T15:02:36.649Z</time></trkpt><trkpt lat="45.653929" lon="8.2745683"><ele>417.0</ele><time>2026-04-05T15:02:38.645Z</time></trkpt><trkpt lat="45.653912" lon="8.2744725"><ele>414.0</ele><time>2026-04-05T15:02:39.638Z</time></trkpt><trkpt lat="45.6539042" lon="8.2743174"><ele>411.0</ele><time>2026-04-05T15:02:41.651Z</time></trkpt><trkpt lat="45.6539208" lon="8.2742247"><ele>411.0</ele><time>2026-04-05T15:02:43.636Z</time></trkpt><trkpt lat="45.6539548" lon="8.2741371"><ele>411.0</ele><time>2026-04-05T15:02:46.649Z</time></trkpt><trkpt lat="45.6539665" lon="8.2740337"><ele>411.0</ele><time>2026-04-05T15:02:50.632Z</time></trkpt><trkpt lat="45.6539873" lon="8.2739466"><ele>411.0</ele><time>2026-04-05T15:02:53.646Z</time></trkpt><trkpt lat="45.6540803" lon="8.2739626"><ele>411.0</ele><time>2026-04-05T15:03:02.642Z</time></trkpt><trkpt lat="45.6541636" lon="8.2739923"><ele>411.0</ele><time>2026-04-05T15:03:04.636Z</time></trkpt><trkpt lat="45.6542493" lon="8.2739949"><ele>411.0</ele><time>2026-04-05T15:03:06.635Z</time></trkpt><trkpt lat="45.6543321" lon="8.2739884"><ele>411.0</ele><time>2026-04-05T15:03:08.645Z</time></trkpt><trkpt lat="45.6544024" lon="8.2740654"><ele>411.0</ele><time>2026-04-05T15:03:10.645Z</time></trkpt><trkpt lat="45.6544223" lon="8.2741793"><ele>411.0</ele><time>2026-04-05T15:03:12.64Z</time></trkpt><trkpt lat="45.6544237" lon="8.2742971"><ele>411.0</ele><time>2026-04-05T15:03:14.647Z</time></trkpt><trkpt lat="45.6544234" lon="8.274399"><ele>411.0</ele><time>2026-04-05T15:03:16.645Z</time></trkpt><trkpt lat="45.6544172" lon="8.2742888"><ele>411.0</ele><time>2026-04-05T15:03:22.645Z</time></trkpt><trkpt lat="45.6543956" lon="8.2741735"><ele>411.0</ele><time>2026-04-05T15:03:24.638Z</time></trkpt><trkpt lat="45.6543781" lon="8.2740513"><ele>411.0</ele><time>2026-04-05T15:03:27.649Z</time></trkpt><trkpt lat="45.6543079" lon="8.2740047"><ele>411.0</ele><time>2026-04-05T15:03:30.646Z</time></trkpt><trkpt lat="45.6542432" lon="8.2739911"><ele>411.0</ele><time>2026-04-05T15:03:32.653Z</time></trkpt><trkpt lat="45.6541794" lon="8.2739636"><ele>411.0</ele><time>2026-04-05T15:03:35.637Z</time></trkpt><trkpt lat="45.6541434" lon="8.2738606"><ele>409.0</ele><time>2026-04-05T15:03:38.647Z</time></trkpt><trkpt lat="45.6541879" lon="8.2737346"><ele>407.0</ele><time>2026-04-05T15:03:40.639Z</time></trkpt><trkpt lat="45.6542337" lon="8.2736607"><ele>405.0</ele><time>2026-04-05T15:03:41.648Z</time></trkpt><trkpt lat="45.6542801" lon="8.2735976"><ele>403.0</ele><time>2026-04-05T15:03:42.638Z</time></trkpt><trkpt lat="45.6543666" lon="8.2735288"><ele>401.0</ele><time>2026-04-05T15:03:44.65Z</time></trkpt><trkpt lat="45.6544099" lon="8.2734471"><ele>399.0</ele><time>2026-04-05T15:03:47.631Z</time></trkpt><trkpt lat="45.6543577" lon="8.2733575"><ele>399.0</ele><time>2026-04-05T15:03:49.636Z</time></trkpt><trkpt lat="45.6542734" lon="8.2732606"><ele>399.0</ele><time>2026-04-05T15:03:51.644Z</time></trkpt><trkpt lat="45.6542287" lon="8.2731894"><ele>399.0</ele><time>2026-04-05T15:03:53.627Z</time></trkpt><trkpt lat="45.6541479" lon="8.2730945"><ele>399.0</ele><time>2026-04-05T15:03:57.638Z</time></trkpt><trkpt lat="45.6540825" lon="8.2730104"><ele>399.0</ele><time>2026-04-05T15:03:59.639Z</time></trkpt><trkpt lat="45.6540188" lon="8.2728674"><ele>398.4</ele><time>2026-04-05T15:04:01.641Z</time></trkpt><trkpt lat="45.6539381" lon="8.2727356"><ele>397.79999999999995</ele><time>2026-04-05T15:04:03.641Z</time></trkpt><trkpt lat="45.6539012" lon="8.2726589"><ele>397.20000000000005</ele><time>2026-04-05T15:04:04.642Z</time></trkpt><trkpt lat="45.6538521" lon="8.2725163"><ele>396.6</ele><time>2026-04-05T15:04:06.652Z</time></trkpt><trkpt lat="45.6537885" lon="8.2724622"><ele>396.0</ele><time>2026-04-05T15:04:08.641Z</time></trkpt><trkpt lat="45.6537065" lon="8.2725156"><ele>396.0</ele><time>2026-04-05T15:04:26.639Z</time></trkpt><trkpt lat="45.6536697" lon="8.2725913"><ele>396.0</ele><time>2026-04-05T15:04:42.639Z</time></trkpt><trkpt lat="45.6537821" lon="8.2725632"><ele>396.0</ele><time>2026-04-05T15:04:53.643Z</time></trkpt><trkpt lat="45.6538693" lon="8.27257"><ele>396.0</ele><time>2026-04-05T15:04:55.66Z</time></trkpt><trkpt lat="45.6539305" lon="8.2726171"><ele>396.0</ele><time>2026-04-05T15:04:58.642Z</time></trkpt><trkpt lat="45.653878" lon="8.2726716"><ele>396.0</ele><time>2026-04-05T15:05:05.633Z</time></trkpt><trkpt lat="45.6538107" lon="8.2726084"><ele>396.0</ele><time>2026-04-05T15:05:08.629Z</time></trkpt><trkpt lat="45.6537824" lon="8.2725202"><ele>396.0</ele><time>2026-04-05T15:05:11.638Z</time></trkpt><trkpt lat="45.6537107" lon="8.2724793"><ele>396.0</ele><time>2026-04-05T15:05:15.643Z</time></trkpt></trkseg></trk></gpx>